<?xml version='1.0' encoding='UTF-8'?><gpx version="1.1" creator="JPX - https://github.com/jenetics/jpx" xmlns="http://www.topografix.com/GPX/1/1"><trk><trkseg><trkpt lat="43.44168698510551" lon="13.65833833287707"><ele>1.0</ele><time>2026-04-19T07:12:21Z</time></trkpt><trkpt lat="43.441647395504226" lon="13.658257025662243"><ele>1.0</ele><time>2026-04-19T07:14:17Z</time></trkpt><trkpt lat="43.441627713250725" lon="13.658108185968793"><ele>1.0</ele><time>2026-04-19T07:14:19Z</time></trkpt><trkpt lat="43.441620840213986" lon="13.657977753704165"><ele>1.0</ele><time>2026-04-19T07:14:21Z</time></trkpt><trkpt lat="43.44156373674409" lon="13.657890873860653"><ele>1.0</ele><time>2026-04-19T07:14:24Z</time></trkpt><trkpt lat="43.44149253745585" lon="13.657801475364934"><ele>1.1666666666666665</ele><time>2026-04-19T07:14:26Z</time></trkpt><trkpt lat="43.441483242365926" lon="13.657712275164782"><ele>1.3333333333333333</ele><time>2026-04-19T07:14:27Z</time></trkpt><trkpt lat="43.441482639088186" lon="13.657611455772384"><ele>1.5</ele><time>2026-04-19T07:14:28Z</time></trkpt><trkpt lat="43.44150660234023" lon="13.657496598289915"><ele>1.6666666666666665</ele><time>2026-04-19T07:14:29Z</time></trkpt><trkpt lat="43.44147449885447" lon="13.657393108245714"><ele>1.8333333333333333</ele><time>2026-04-19T07:14:30Z</time></trkpt><trkpt lat="43.44146576347811" lon="13.657298863745748"><ele>2.0</ele><time>2026-04-19T07:14:31Z</time></trkpt><trkpt lat="43.441464851972995" lon="13.657150206676803"><ele>2.0</ele><time>2026-04-19T07:14:33Z</time></trkpt><trkpt lat="43.4414758799122" lon="13.656981065788417"><ele>2.0</ele><time>2026-04-19T07:14:35Z</time></trkpt><trkpt lat="43.441447638481506" lon="13.65688678053198"><ele>2.0</ele><time>2026-04-19T07:14:36Z</time></trkpt><trkpt lat="43.441425901836965" lon="13.656778223226976"><ele>2.0</ele><time>2026-04-19T07:14:37Z</time></trkpt><trkpt lat="43.44132785726134" lon="13.656720429570184"><ele>2.0</ele><time>2026-04-19T07:14:38Z</time></trkpt><trkpt lat="43.44122696479035" lon="13.656482530776296"><ele>1.25</ele><time>2026-04-19T07:14:40Z</time></trkpt><trkpt lat="43.4411922490885" lon="13.656327490412178"><ele>0.5</ele><time>2026-04-19T07:14:41Z</time></trkpt><trkpt lat="43.44115694966854" lon="13.656178940164414"><ele>-0.25</ele><time>2026-04-19T07:14:42Z</time></trkpt><trkpt lat="43.44111974488565" lon="13.656030896760964"><ele>-1.0</ele><time>2026-04-19T07:14:43Z</time></trkpt><trkpt lat="43.441079685577215" lon="13.655880270570366"><ele>-1.25</ele><time>2026-04-19T07:14:44Z</time></trkpt><trkpt lat="43.44103890549786" lon="13.655724955068136"><ele>-1.5</ele><time>2026-04-19T07:14:45Z</time></trkpt><trkpt lat="43.44099983050378" lon="13.655567331853172"><ele>-1.75</ele><time>2026-04-19T07:14:46Z</time></trkpt><trkpt lat="43.44095908134598" lon="13.655405707644835"><ele>-2.0</ele><time>2026-04-19T07:14:47Z</time></trkpt><trkpt lat="43.44092056710171" lon="13.655257702655128"><ele>-1.6666666666666665</ele><time>2026-04-19T07:14:48Z</time></trkpt><trkpt lat="43.440887625733474" lon="13.655128639949893"><ele>-1.3333333333333333</ele><time>2026-04-19T07:14:49Z</time></trkpt><trkpt lat="43.440855680540416" lon="13.65500434527113"><ele>-1.0</ele><time>2026-04-19T07:14:50Z</time></trkpt><trkpt lat="43.44081784547429" lon="13.65489965182847"><ele>-0.6666666666666666</ele><time>2026-04-19T07:14:51Z</time></trkpt><trkpt lat="43.44076116693993" lon="13.654824672924152"><ele>-0.3333333333333333</ele><time>2026-04-19T07:14:52Z</time></trkpt><trkpt lat="43.44068222764257" lon="13.654773609384419"><ele>0.0</ele><time>2026-04-19T07:14:53Z</time></trkpt><trkpt lat="43.44059311003242" lon="13.65474925048008"><ele>0.0</ele><time>2026-04-19T07:14:54Z</time></trkpt><trkpt lat="43.44049466862118" lon="13.654752709821999"><ele>0.0</ele><time>2026-04-19T07:14:55Z</time></trkpt><trkpt lat="43.44039466839853" lon="13.65475374334652"><ele>0.0</ele><time>2026-04-19T07:14:56Z</time></trkpt><trkpt lat="43.44029785350515" lon="13.654746240343849"><ele>0.0</ele><time>2026-04-19T07:14:57Z</time></trkpt><trkpt lat="43.4402110415829" lon="13.654727953303695"><ele>0.0</ele><time>2026-04-19T07:14:58Z</time></trkpt><trkpt lat="43.44014760320721" lon="13.65468516615416"><ele>0.0</ele><time>2026-04-19T07:14:59Z</time></trkpt><trkpt lat="43.44009747688398" lon="13.654610786128375"><ele>0.0</ele><time>2026-04-19T07:15:00Z</time></trkpt><trkpt lat="43.44004315540509" lon="13.654532951372916"><ele>0.0</ele><time>2026-04-19T07:15:01Z</time></trkpt><trkpt lat="43.44006503200972" lon="13.65439187988126"><ele>0.0</ele><time>2026-04-19T07:15:02Z</time></trkpt><trkpt lat="43.44007793013025" lon="13.654261108979478"><ele>0.0</ele><time>2026-04-19T07:15:03Z</time></trkpt><trkpt lat="43.440099479508504" lon="13.654127095904416"><ele>1.0</ele><time>2026-04-19T07:15:04Z</time></trkpt><trkpt lat="43.44011779629352" lon="13.653982479645046"><ele>2.0</ele><time>2026-04-19T07:15:05Z</time></trkpt><trkpt lat="43.44012946071465" lon="13.653829384743622"><ele>3.0</ele><time>2026-04-19T07:15:06Z</time></trkpt><trkpt lat="43.44014329597383" lon="13.653670628124043"><ele>4.0</ele><time>2026-04-19T07:15:07Z</time></trkpt><trkpt lat="43.440159983909226" lon="13.653506679433425"><ele>5.25</ele><time>2026-04-19T07:15:08Z</time></trkpt><trkpt lat="43.44017578036585" lon="13.653342809449976"><ele>6.5</ele><time>2026-04-19T07:15:09Z</time></trkpt><trkpt lat="43.440192808093315" lon="13.653172032345806"><ele>7.75</ele><time>2026-04-19T07:15:10Z</time></trkpt><trkpt lat="43.440213925766066" lon="13.653014518766241"><ele>9.0</ele><time>2026-04-19T07:15:11Z</time></trkpt><trkpt lat="43.44024094040615" lon="13.652856670798442"><ele>9.75</ele><time>2026-04-19T07:15:12Z</time></trkpt><trkpt lat="43.440282194935065" lon="13.652709179778068"><ele>10.5</ele><time>2026-04-19T07:15:13Z</time></trkpt><trkpt lat="43.44033023372285" lon="13.652560955607393"><ele>11.25</ele><time>2026-04-19T07:15:14Z</time></trkpt><trkpt lat="43.440381666217974" lon="13.652413836205266"><ele>12.0</ele><time>2026-04-19T07:15:15Z</time></trkpt><trkpt lat="43.44043105582907" lon="13.652275010874156"><ele>12.5</ele><time>2026-04-19T07:15:16Z</time></trkpt><trkpt lat="43.44048033812535" lon="13.652135971551829"><ele>13.0</ele><time>2026-04-19T07:15:17Z</time></trkpt><trkpt lat="43.44052521274969" lon="13.65199171417006"><ele>13.5</ele><time>2026-04-19T07:15:18Z</time></trkpt><trkpt lat="43.440559000326935" lon="13.65184423939142"><ele>14.0</ele><time>2026-04-19T07:15:18.999Z</time></trkpt><trkpt lat="43.440590963832385" lon="13.65169516480186"><ele>16.0</ele><time>2026-04-19T07:15:19.999Z</time></trkpt><trkpt lat="43.440621704800186" lon="13.651543906546221"><ele>18.0</ele><time>2026-04-19T07:15:20.999Z</time></trkpt><trkpt lat="43.44065000986288" lon="13.651387272146494"><ele>20.0</ele><time>2026-04-19T07:15:21.999Z</time></trkpt><trkpt lat="43.44066962471082" lon="13.651229069478962"><ele>22.0</ele><time>2026-04-19T07:15:22.999Z</time></trkpt><trkpt lat="43.44070350490984" lon="13.651066212597616"><ele>23.25</ele><time>2026-04-19T07:15:23.999Z</time></trkpt><trkpt lat="43.44073472531507" lon="13.65090335303516"><ele>24.5</ele><time>2026-04-19T07:15:24.999Z</time></trkpt><trkpt lat="43.44076411086685" lon="13.650745758005854"><ele>25.75</ele><time>2026-04-19T07:15:25.999Z</time></trkpt><trkpt lat="43.440796646306055" lon="13.650582211688317"><ele>27.0</ele><time>2026-04-19T07:15:26.999Z</time></trkpt><trkpt lat="43.440830512643764" lon="13.650419573256022"><ele>28.0</ele><time>2026-04-19T07:15:27.999Z</time></trkpt><trkpt lat="43.44086029423022" lon="13.650254408708602"><ele>29.0</ele><time>2026-04-19T07:15:28.999Z</time></trkpt><trkpt lat="43.44089242061288" lon="13.650083847689663"><ele>30.0</ele><time>2026-04-19T07:15:29.999Z</time></trkpt><trkpt lat="43.44092828573641" lon="13.649914704749024"><ele>31.0</ele><time>2026-04-19T07:15:30.999Z</time></trkpt><trkpt lat="43.44095735619182" lon="13.649772723765928"><ele>31.0</ele><time>2026-04-19T07:15:31.999Z</time></trkpt><trkpt lat="43.44097701434852" lon="13.649632801390279"><ele>31.0</ele><time>2026-04-19T07:15:32.999Z</time></trkpt><trkpt lat="43.44098195137427" lon="13.649495121243275"><ele>31.0</ele><time>2026-04-19T07:15:33.999Z</time></trkpt><trkpt lat="43.440957904912906" lon="13.649351670815664"><ele>31.0</ele><time>2026-04-19T07:15:34.999Z</time></trkpt><trkpt lat="43.44090512161422" lon="13.649217745729043"><ele>31.0</ele><time>2026-04-19T07:15:35.999Z</time></trkpt><trkpt lat="43.44083865981099" lon="13.649089914466117"><ele>31.5</ele><time>2026-04-19T07:15:36.999Z</time></trkpt><trkpt lat="43.4407665456132" lon="13.648950719011511"><ele>32.0</ele><time>2026-04-19T07:15:37.999Z</time></trkpt><trkpt lat="43.440696538584845" lon="13.648808613971351"><ele>32.5</ele><time>2026-04-19T07:15:38.999Z</time></trkpt><trkpt lat="43.4406294882722" lon="13.648660520477712"><ele>33.0</ele><time>2026-04-19T07:15:39.999Z</time></trkpt><trkpt lat="43.4405701055183" lon="13.648524778099663"><ele>33.25</ele><time>2026-04-19T07:15:40.999Z</time></trkpt><trkpt lat="43.440516009667235" lon="13.648396998131153"><ele>33.5</ele><time>2026-04-19T07:15:41.999Z</time></trkpt><trkpt lat="43.44046169175665" lon="13.648268110117359"><ele>33.75</ele><time>2026-04-19T07:15:42.999Z</time></trkpt><trkpt lat="43.440401598153876" lon="13.648112672586004"><ele>34.0</ele><time>2026-04-19T07:15:43.999Z</time></trkpt><trkpt lat="43.440329560592836" lon="13.647978595618513"><ele>34.0</ele><time>2026-04-19T07:15:44.999Z</time></trkpt><trkpt lat="43.44026005271682" lon="13.647830317021633"><ele>34.0</ele><time>2026-04-19T07:15:45.999Z</time></trkpt><trkpt lat="43.44019134719236" lon="13.647679253832182"><ele>34.0</ele><time>2026-04-19T07:15:46.999Z</time></trkpt><trkpt lat="43.44012290960667" lon="13.647521235234413"><ele>34.0</ele><time>2026-04-19T07:15:48Z</time></trkpt><trkpt lat="43.44005387708512" lon="13.64736113307822"><ele>34.6</ele><time>2026-04-19T07:15:49Z</time></trkpt><trkpt lat="43.43998878986516" lon="13.647218834091186"><ele>35.2</ele><time>2026-04-19T07:15:50Z</time></trkpt><trkpt lat="43.439924943324606" lon="13.647081229663685"><ele>35.800000000000004</ele><time>2026-04-19T07:15:51Z</time></trkpt><trkpt lat="43.439871355915216" lon="13.646950291712635"><ele>36.4</ele><time>2026-04-19T07:15:52Z</time></trkpt><trkpt lat="43.439824333068074" lon="13.646833540808101"><ele>37.0</ele><time>2026-04-19T07:15:53Z</time></trkpt><trkpt lat="43.43978750501009" lon="13.646715189915554"><ele>37.6</ele><time>2026-04-19T07:15:54Z</time></trkpt><trkpt lat="43.43976522221927" lon="13.646601615943537"><ele>38.2</ele><time>2026-04-19T07:15:55Z</time></trkpt><trkpt lat="43.439778938625274" lon="13.646485586925566"><ele>38.8</ele><time>2026-04-19T07:15:56Z</time></trkpt><trkpt lat="43.43977724830543" lon="13.646359709553453"><ele>39.4</ele><time>2026-04-19T07:15:57Z</time></trkpt><trkpt lat="43.43976882684428" lon="13.646245288251583"><ele>40.0</ele><time>2026-04-19T07:15:58Z</time></trkpt><trkpt lat="43.43986361077389" lon="13.646119345580056"><ele>40.5</ele><time>2026-04-19T07:15:59Z</time></trkpt><trkpt lat="43.43989654449738" lon="13.645981815187223"><ele>41.0</ele><time>2026-04-19T07:16:00Z</time></trkpt><trkpt lat="43.43993105122032" lon="13.645840391460716"><ele>41.5</ele><time>2026-04-19T07:16:01Z</time></trkpt><trkpt lat="43.43996617254941" lon="13.645685571928496"><ele>42.0</ele><time>2026-04-19T07:16:02Z</time></trkpt><trkpt lat="43.44000174820149" lon="13.645527271687312"><ele>42.0</ele><time>2026-04-19T07:16:03Z</time></trkpt><trkpt lat="43.44003985843757" lon="13.645354538655532"><ele>42.0</ele><time>2026-04-19T07:16:04Z</time></trkpt><trkpt lat="43.44007605454507" lon="13.645178520528878"><ele>42.0</ele><time>2026-04-19T07:16:05Z</time></trkpt><trkpt lat="43.44011958401509" lon="13.645003838344445"><ele>42.0</ele><time>2026-04-19T07:16:06Z</time></trkpt><trkpt lat="43.44015848895427" lon="13.644838509111025"><ele>42.75</ele><time>2026-04-19T07:16:07Z</time></trkpt><trkpt lat="43.440200608796964" lon="13.644658112713946"><ele>43.5</ele><time>2026-04-19T07:16:08Z</time></trkpt><trkpt lat="43.440248992898134" lon="13.644490778042202"><ele>44.25</ele><time>2026-04-19T07:16:09Z</time></trkpt><trkpt lat="43.44030569620342" lon="13.644307207440477"><ele>45.0</ele><time>2026-04-19T07:16:10Z</time></trkpt><trkpt lat="43.440367970155776" lon="13.644126665274559"><ele>45.666666666666664</ele><time>2026-04-19T07:16:11Z</time></trkpt><trkpt lat="43.44043591642871" lon="13.643952010917719"><ele>46.33333333333333</ele><time>2026-04-19T07:16:12Z</time></trkpt><trkpt lat="43.44051087584832" lon="13.643779556920995"><ele>47.0</ele><time>2026-04-19T07:16:13Z</time></trkpt><trkpt lat="43.44068184647576" lon="13.643429343957715"><ele>45.33333333333333</ele><time>2026-04-19T07:16:15Z</time></trkpt><trkpt lat="43.440800496648805" lon="13.643301068243488"><ele>43.666666666666664</ele><time>2026-04-19T07:16:16Z</time></trkpt><trkpt lat="43.440910855954264" lon="13.64316427457911"><ele>42.0</ele><time>2026-04-19T07:16:17Z</time></trkpt><trkpt lat="43.44101614470266" lon="13.643014186759983"><ele>42.0</ele><time>2026-04-19T07:16:18Z</time></trkpt><trkpt lat="43.44112771005548" lon="13.642882681178833"><ele>42.0</ele><time>2026-04-19T07:16:19Z</time></trkpt><trkpt lat="43.44123384822556" lon="13.642749336472315"><ele>42.0</ele><time>2026-04-19T07:16:20Z</time></trkpt><trkpt lat="43.44133311048904" lon="13.642611233314794"><ele>42.0</ele><time>2026-04-19T07:16:21Z</time></trkpt><trkpt lat="43.44142855303724" lon="13.642464031781502"><ele>42.5</ele><time>2026-04-19T07:16:22Z</time></trkpt><trkpt lat="43.44152255971463" lon="13.642312824159845"><ele>43.0</ele><time>2026-04-19T07:16:23Z</time></trkpt><trkpt lat="43.44161309427816" lon="13.642161322931482"><ele>43.5</ele><time>2026-04-19T07:16:24Z</time></trkpt><trkpt lat="43.4417007622123" lon="13.642009182089522"><ele>44.0</ele><time>2026-04-19T07:16:25Z</time></trkpt><trkpt lat="43.44177498290566" lon="13.641888838211656"><ele>45.5</ele><time>2026-04-19T07:16:26Z</time></trkpt><trkpt lat="43.44185325290351" lon="13.641759511584462"><ele>47.0</ele><time>2026-04-19T07:16:27Z</time></trkpt><trkpt lat="43.44192848201158" lon="13.641624504229615"><ele>48.5</ele><time>2026-04-19T07:16:28Z</time></trkpt><trkpt lat="43.44200032651982" lon="13.641484034290096"><ele>50.0</ele><time>2026-04-19T07:16:29Z</time></trkpt><trkpt lat="43.44207747313991" lon="13.641338744697276"><ele>49.4</ele><time>2026-04-19T07:16:30Z</time></trkpt><trkpt lat="43.44215667864019" lon="13.64120255534309"><ele>48.8</ele><time>2026-04-19T07:16:31Z</time></trkpt><trkpt lat="43.44223059092874" lon="13.641077057828616"><ele>48.2</ele><time>2026-04-19T07:16:32Z</time></trkpt><trkpt lat="43.442297313917656" lon="13.640964490601252"><ele>47.6</ele><time>2026-04-19T07:16:33Z</time></trkpt><trkpt lat="43.44235653283161" lon="13.640859690162678"><ele>47.0</ele><time>2026-04-19T07:16:34Z</time></trkpt><trkpt lat="43.44240562148601" lon="13.640763286656686"><ele>47.0</ele><time>2026-04-19T07:16:35Z</time></trkpt><trkpt lat="43.44243629984762" lon="13.6406666109253"><ele>47.0</ele><time>2026-04-19T07:16:36Z</time></trkpt><trkpt lat="43.442440640672075" lon="13.640569293619922"><ele>47.0</ele><time>2026-04-19T07:16:37Z</time></trkpt><trkpt lat="43.44241505767159" lon="13.640486612849266"><ele>47.0</ele><time>2026-04-19T07:16:38Z</time></trkpt><trkpt lat="43.44236373482165" lon="13.640427923684447"><ele>47.0</ele><time>2026-04-19T07:16:39Z</time></trkpt><trkpt lat="43.44229214312091" lon="13.640387328449812"><ele>47.0</ele><time>2026-04-19T07:16:40Z</time></trkpt><trkpt lat="43.442209552153706" lon="13.640354202519411"><ele>47.0</ele><time>2026-04-19T07:16:41Z</time></trkpt><trkpt lat="43.44212441920349" lon="13.640296130527538"><ele>47.2</ele><time>2026-04-19T07:16:42Z</time></trkpt><trkpt lat="43.44204186788019" lon="13.640226929078308"><ele>47.400000000000006</ele><time>2026-04-19T07:16:43Z</time></trkpt><trkpt lat="43.44195019295772" lon="13.640146177144771"><ele>47.599999999999994</ele><time>2026-04-19T07:16:44Z</time></trkpt><trkpt lat="43.44184495289924" lon="13.640072743894583"><ele>47.8</ele><time>2026-04-19T07:16:45Z</time></trkpt><trkpt lat="43.44174876375674" lon="13.6400030637831"><ele>48.0</ele><time>2026-04-19T07:16:46Z</time></trkpt><trkpt lat="43.441652544481435" lon="13.639936740345908"><ele>48.0</ele><time>2026-04-19T07:16:47Z</time></trkpt><trkpt lat="43.44155332602958" lon="13.639866813315889"><ele>48.0</ele><time>2026-04-19T07:16:48Z</time></trkpt><trkpt lat="43.44145127508161" lon="13.639788755299149"><ele>48.0</ele><time>2026-04-19T07:16:49Z</time></trkpt><trkpt lat="43.44134787853815" lon="13.639707258677833"><ele>48.0</ele><time>2026-04-19T07:16:50Z</time></trkpt><trkpt lat="43.44123916498271" lon="13.639622336637016"><ele>46.0</ele><time>2026-04-19T07:16:51Z</time></trkpt><trkpt lat="43.44114428274646" lon="13.63954357810296"><ele>44.0</ele><time>2026-04-19T07:16:52Z</time></trkpt><trkpt lat="43.44105111260478" lon="13.639467770835331"><ele>42.0</ele><time>2026-04-19T07:16:53Z</time></trkpt><trkpt lat="43.44096576376186" lon="13.639395589808226"><ele>40.0</ele><time>2026-04-19T07:16:54Z</time></trkpt><trkpt lat="43.44089206780353" lon="13.639307212841365"><ele>38.0</ele><time>2026-04-19T07:16:55Z</time></trkpt><trkpt lat="43.44083839255131" lon="13.639195982033785"><ele>36.199999999999996</ele><time>2026-04-19T07:16:56Z</time></trkpt><trkpt lat="43.44077400679711" lon="13.639136307818639"><ele>34.4</ele><time>2026-04-19T07:16:57Z</time></trkpt><trkpt lat="43.44084675472785" lon="13.638880492383928"><ele>32.599999999999994</ele><time>2026-04-19T07:16:59Z</time></trkpt><trkpt lat="43.440888593904454" lon="13.638792297385905"><ele>30.799999999999997</ele><time>2026-04-19T07:17:00Z</time></trkpt><trkpt lat="43.44093429193074" lon="13.638705315267362"><ele>29.0</ele><time>2026-04-19T07:17:01Z</time></trkpt><trkpt lat="43.44098187789623" lon="13.638608557143034"><ele>28.2</ele><time>2026-04-19T07:17:02Z</time></trkpt><trkpt lat="43.4410330027883" lon="13.638513780378894"><ele>27.4</ele><time>2026-04-19T07:17:03Z</time></trkpt><trkpt lat="43.44108653252541" lon="13.638413481200152"><ele>26.6</ele><time>2026-04-19T07:17:04Z</time></trkpt><trkpt lat="43.44115161594496" lon="13.63829932844752"><ele>25.8</ele><time>2026-04-19T07:17:05Z</time></trkpt><trkpt lat="43.44121990480203" lon="13.638165963694401"><ele>25.0</ele><time>2026-04-19T07:17:06Z</time></trkpt><trkpt lat="43.441291874315596" lon="13.638016756541688"><ele>27.25</ele><time>2026-04-19T07:17:07Z</time></trkpt><trkpt lat="43.441375606556754" lon="13.637873417172521"><ele>29.5</ele><time>2026-04-19T07:17:08Z</time></trkpt><trkpt lat="43.44146612956934" lon="13.637731643471197"><ele>31.75</ele><time>2026-04-19T07:17:09Z</time></trkpt><trkpt lat="43.44157122593341" lon="13.637590428699207"><ele>34.0</ele><time>2026-04-19T07:17:10Z</time></trkpt><trkpt lat="43.44168702961203" lon="13.637454019807178"><ele>34.0</ele><time>2026-04-19T07:17:11Z</time></trkpt><trkpt lat="43.441822077824156" lon="13.637315700074753"><ele>34.0</ele><time>2026-04-19T07:17:12Z</time></trkpt><trkpt lat="43.44196073199431" lon="13.637191356138706"><ele>34.0</ele><time>2026-04-19T07:17:13Z</time></trkpt><trkpt lat="43.44209996368547" lon="13.637078691507199"><ele>33.333333333333336</ele><time>2026-04-19T07:17:14Z</time></trkpt><trkpt lat="43.442241540825194" lon="13.636962105197789"><ele>32.666666666666664</ele><time>2026-04-19T07:17:15Z</time></trkpt><trkpt lat="43.4423842686738" lon="13.63684414847421"><ele>32.0</ele><time>2026-04-19T07:17:16Z</time></trkpt><trkpt lat="43.44251337315894" lon="13.636726654341643"><ele>32.0</ele><time>2026-04-19T07:17:17Z</time></trkpt><trkpt lat="43.44262890770168" lon="13.636612101189511"><ele>32.0</ele><time>2026-04-19T07:17:18Z</time></trkpt><trkpt lat="43.44272814689666" lon="13.636474449626135"><ele>32.0</ele><time>2026-04-19T07:17:19Z</time></trkpt><trkpt lat="43.44279971347892" lon="13.63631832085393"><ele>32.0</ele><time>2026-04-19T07:17:20Z</time></trkpt><trkpt lat="43.44285026288485" lon="13.636153136476869"><ele>30.0</ele><time>2026-04-19T07:17:21Z</time></trkpt><trkpt lat="43.44287090143179" lon="13.63598465351112"><ele>28.0</ele><time>2026-04-19T07:17:22Z</time></trkpt><trkpt lat="43.44285924418166" lon="13.635643113486786"><ele>26.0</ele><time>2026-04-19T07:17:24Z</time></trkpt><trkpt lat="43.44282086650362" lon="13.635479839658716"><ele>26.0</ele><time>2026-04-19T07:17:24.998Z</time></trkpt><trkpt lat="43.44277415033267" lon="13.635319104302337"><ele>26.0</ele><time>2026-04-19T07:17:25.998Z</time></trkpt><trkpt lat="43.44271786190489" lon="13.63515181697742"><ele>26.0</ele><time>2026-04-19T07:17:26.998Z</time></trkpt><trkpt lat="43.44266011705055" lon="13.634978091264589"><ele>26.0</ele><time>2026-04-19T07:17:27.998Z</time></trkpt><trkpt lat="43.44259063862574" lon="13.634805813584858"><ele>25.0</ele><time>2026-04-19T07:17:28.998Z</time></trkpt><trkpt lat="43.4425133043024" lon="13.634644248070934"><ele>24.0</ele><time>2026-04-19T07:17:29.998Z</time></trkpt><trkpt lat="43.44241491302459" lon="13.634485506791142"><ele>23.0</ele><time>2026-04-19T07:17:30.998Z</time></trkpt><trkpt lat="43.44229965030176" lon="13.634344317680208"><ele>22.0</ele><time>2026-04-19T07:17:31.998Z</time></trkpt><trkpt lat="43.442174778246795" lon="13.63422151658126"><ele>20.0</ele><time>2026-04-19T07:17:32.998Z</time></trkpt><trkpt lat="43.44204389744815" lon="13.63409880042411"><ele>18.0</ele><time>2026-04-19T07:17:33.998Z</time></trkpt><trkpt lat="43.441915352377585" lon="13.633981387161507"><ele>16.0</ele><time>2026-04-19T07:17:34.998Z</time></trkpt><trkpt lat="43.44178996038098" lon="13.633863374022837"><ele>16.0</ele><time>2026-04-19T07:17:35.998Z</time></trkpt><trkpt lat="43.44166364023367" lon="13.633743125352531"><ele>16.0</ele><time>2026-04-19T07:17:36.998Z</time></trkpt><trkpt lat="43.44153404366211" lon="13.633615365641479"><ele>16.0</ele><time>2026-04-19T07:17:37.998Z</time></trkpt><trkpt lat="43.44141022897619" lon="13.633473018938307"><ele>16.0</ele><time>2026-04-19T07:17:38.999Z</time></trkpt><trkpt lat="43.44128886105367" lon="13.63332502193905"><ele>16.0</ele><time>2026-04-19T07:17:39.999Z</time></trkpt><trkpt lat="43.44117234797252" lon="13.633153021691745"><ele>16.0</ele><time>2026-04-19T07:17:40.999Z</time></trkpt><trkpt lat="43.441071553255945" lon="13.632974000035565"><ele>16.333333333333332</ele><time>2026-04-19T07:17:41.999Z</time></trkpt><trkpt lat="43.44098452252296" lon="13.632770998761366"><ele>16.666666666666668</ele><time>2026-04-19T07:17:42.999Z</time></trkpt><trkpt lat="43.44091461924685" lon="13.632564704240142"><ele>17.0</ele><time>2026-04-19T07:17:43.999Z</time></trkpt><trkpt lat="43.44086152391497" lon="13.632376406303862"><ele>17.0</ele><time>2026-04-19T07:17:44.999Z</time></trkpt><trkpt lat="43.44081941701575" lon="13.632184103972483"><ele>17.0</ele><time>2026-04-19T07:17:45.999Z</time></trkpt><trkpt lat="43.44079466797398" lon="13.63199156352099"><ele>17.0</ele><time>2026-04-19T07:17:46.999Z</time></trkpt><trkpt lat="43.44077679218897" lon="13.6317834684922"><ele>17.0</ele><time>2026-04-19T07:17:47.999Z</time></trkpt><trkpt lat="43.440761711234444" lon="13.631578166456272"><ele>18.0</ele><time>2026-04-19T07:17:48.999Z</time></trkpt><trkpt lat="43.44075058695188" lon="13.631362983010241"><ele>19.0</ele><time>2026-04-19T07:17:49.999Z</time></trkpt><trkpt lat="43.44073082038721" lon="13.631154392439058"><ele>20.0</ele><time>2026-04-19T07:17:50.999Z</time></trkpt><trkpt lat="43.44071392425516" lon="13.630942983837208"><ele>21.0</ele><time>2026-04-19T07:17:51.999Z</time></trkpt><trkpt lat="43.44069569528477" lon="13.630731798445142"><ele>22.0</ele><time>2026-04-19T07:17:52.999Z</time></trkpt><trkpt lat="43.4406771669453" lon="13.630514973048456"><ele>23.0</ele><time>2026-04-19T07:17:53.999Z</time></trkpt><trkpt lat="43.44066561737811" lon="13.63030195746825"><ele>24.333333333333336</ele><time>2026-04-19T07:17:54.999Z</time></trkpt><trkpt lat="43.44065340232347" lon="13.630089964777824"><ele>25.666666666666668</ele><time>2026-04-19T07:17:55.999Z</time></trkpt><trkpt lat="43.4406455676952" lon="13.629873966760705"><ele>27.0</ele><time>2026-04-19T07:17:56.999Z</time></trkpt><trkpt lat="43.44063593442927" lon="13.629655391825294"><ele>27.333333333333336</ele><time>2026-04-19T07:17:57.999Z</time></trkpt><trkpt lat="43.440625753020626" lon="13.62943850835813"><ele>27.666666666666668</ele><time>2026-04-19T07:17:58.999Z</time></trkpt><trkpt lat="43.44061889009985" lon="13.629222231823652"><ele>28.0</ele><time>2026-04-19T07:17:59.999Z</time></trkpt><trkpt lat="43.44063640529831" lon="13.629005245577765"><ele>28.0</ele><time>2026-04-19T07:18:00.999Z</time></trkpt><trkpt lat="43.44064303219982" lon="13.628802448093888"><ele>28.0</ele><time>2026-04-19T07:18:01.999Z</time></trkpt><trkpt lat="43.44065008255726" lon="13.628586944719686"><ele>28.0</ele><time>2026-04-19T07:18:02.999Z</time></trkpt><trkpt lat="43.44065607506279" lon="13.628375501267302"><ele>28.333333333333336</ele><time>2026-04-19T07:18:03.999Z</time></trkpt><trkpt lat="43.440655435767624" lon="13.628159093085536"><ele>28.666666666666664</ele><time>2026-04-19T07:18:04.999Z</time></trkpt><trkpt lat="43.440652751915934" lon="13.627946591427609"><ele>29.0</ele><time>2026-04-19T07:18:05.999Z</time></trkpt><trkpt lat="43.44065428585575" lon="13.627753030632128"><ele>29.25</ele><time>2026-04-19T07:18:06.999Z</time></trkpt><trkpt lat="43.44065875259117" lon="13.62756625728125"><ele>29.5</ele><time>2026-04-19T07:18:07.999Z</time></trkpt><trkpt lat="43.44066178256893" lon="13.627369891324232"><ele>29.75</ele><time>2026-04-19T07:18:08.999Z</time></trkpt><trkpt lat="43.44066000511195" lon="13.627177374342"><ele>30.0</ele><time>2026-04-19T07:18:09.999Z</time></trkpt><trkpt lat="43.44066192486764" lon="13.62698953709868"><ele>30.0</ele><time>2026-04-19T07:18:10.999Z</time></trkpt><trkpt lat="43.440661791053316" lon="13.62679576457577"><ele>30.0</ele><time>2026-04-19T07:18:12Z</time></trkpt><trkpt lat="43.440664622066144" lon="13.626603001000579"><ele>30.0</ele><time>2026-04-19T07:18:13Z</time></trkpt><trkpt lat="43.440669124799626" lon="13.6264070583987"><ele>30.0</ele><time>2026-04-19T07:18:14Z</time></trkpt><trkpt lat="43.440674591064344" lon="13.626209161464807"><ele>30.25</ele><time>2026-04-19T07:18:15Z</time></trkpt><trkpt lat="43.44068193956596" lon="13.626009540484372"><ele>30.5</ele><time>2026-04-19T07:18:16Z</time></trkpt><trkpt lat="43.44069022369675" lon="13.625807592865895"><ele>30.75</ele><time>2026-04-19T07:18:17Z</time></trkpt><trkpt lat="43.44070141845893" lon="13.6255964317845"><ele>31.0</ele><time>2026-04-19T07:18:18Z</time></trkpt><trkpt lat="43.440709829212594" lon="13.625390891096233"><ele>31.0</ele><time>2026-04-19T07:18:19Z</time></trkpt><trkpt lat="43.44072612853675" lon="13.625182379642949"><ele>31.0</ele><time>2026-04-19T07:18:20Z</time></trkpt><trkpt lat="43.44074271283677" lon="13.624970030200721"><ele>31.0</ele><time>2026-04-19T07:18:21Z</time></trkpt><trkpt lat="43.440763747418984" lon="13.62475799073563"><ele>31.0</ele><time>2026-04-19T07:18:22Z</time></trkpt><trkpt lat="43.44078854083569" lon="13.62454438055756"><ele>31.0</ele><time>2026-04-19T07:18:23Z</time></trkpt><trkpt lat="43.44082844989075" lon="13.624340017625508"><ele>31.0</ele><time>2026-04-19T07:18:24Z</time></trkpt><trkpt lat="43.440866460536995" lon="13.62414073527165"><ele>31.333333333333336</ele><time>2026-04-19T07:18:25Z</time></trkpt><trkpt lat="43.44090479123207" lon="13.623925588010485"><ele>31.666666666666664</ele><time>2026-04-19T07:18:26Z</time></trkpt><trkpt lat="43.440939440158346" lon="13.62372347319549"><ele>32.0</ele><time>2026-04-19T07:18:27Z</time></trkpt><trkpt lat="43.44098088966819" lon="13.623520953674474"><ele>32.75</ele><time>2026-04-19T07:18:28Z</time></trkpt><trkpt lat="43.44100541249947" lon="13.623324129409037"><ele>33.5</ele><time>2026-04-19T07:18:29Z</time></trkpt><trkpt lat="43.441054141790865" lon="13.623115557888283"><ele>34.25</ele><time>2026-04-19T07:18:30Z</time></trkpt><trkpt lat="43.441090479777635" lon="13.622923473586466"><ele>35.0</ele><time>2026-04-19T07:18:31Z</time></trkpt><trkpt lat="43.441127218127086" lon="13.62273477210727"><ele>35.0</ele><time>2026-04-19T07:18:32Z</time></trkpt><trkpt lat="43.44116598637301" lon="13.62253794447352"><ele>35.0</ele><time>2026-04-19T07:18:33Z</time></trkpt><trkpt lat="43.441206032974044" lon="13.622350200656438"><ele>35.0</ele><time>2026-04-19T07:18:34Z</time></trkpt><trkpt lat="43.44124432936363" lon="13.622173972071252"><ele>35.0</ele><time>2026-04-19T07:18:35Z</time></trkpt><trkpt lat="43.44128478378836" lon="13.622020101742459"><ele>36.2</ele><time>2026-04-19T07:18:36Z</time></trkpt><trkpt lat="43.44132129300601" lon="13.621884997253584"><ele>37.4</ele><time>2026-04-19T07:18:37Z</time></trkpt><trkpt lat="43.441356109105186" lon="13.621765732780002"><ele>38.599999999999994</ele><time>2026-04-19T07:18:38Z</time></trkpt><trkpt lat="43.44140040267506" lon="13.621654978766063"><ele>39.8</ele><time>2026-04-19T07:18:39Z</time></trkpt><trkpt lat="43.441468057354406" lon="13.621536395076523"><ele>41.0</ele><time>2026-04-19T07:18:40Z</time></trkpt><trkpt lat="43.44155105244248" lon="13.621419094296886"><ele>41.0</ele><time>2026-04-19T07:18:41Z</time></trkpt><trkpt lat="43.44164705969925" lon="13.621315744615348"><ele>41.0</ele><time>2026-04-19T07:18:42Z</time></trkpt><trkpt lat="43.441755737901566" lon="13.621198144667723"><ele>41.0</ele><time>2026-04-19T07:18:43Z</time></trkpt><trkpt lat="43.44186420109443" lon="13.621070406818312"><ele>41.0</ele><time>2026-04-19T07:18:44Z</time></trkpt><trkpt lat="43.44197556753488" lon="13.620925376798507"><ele>41.666666666666664</ele><time>2026-04-19T07:18:45Z</time></trkpt><trkpt lat="43.44207003736756" lon="13.620763454987337"><ele>42.333333333333336</ele><time>2026-04-19T07:18:46Z</time></trkpt><trkpt lat="43.442182175964874" lon="13.620644176950563"><ele>43.0</ele><time>2026-04-19T07:18:47Z</time></trkpt><trkpt lat="43.44228907188765" lon="13.6204802587049"><ele>43.0</ele><time>2026-04-19T07:18:48Z</time></trkpt><trkpt lat="43.442399493263" lon="13.62033366063264"><ele>43.0</ele><time>2026-04-19T07:18:49Z</time></trkpt><trkpt lat="43.44251366318046" lon="13.620191085257089"><ele>43.0</ele><time>2026-04-19T07:18:50Z</time></trkpt><trkpt lat="43.442626469892865" lon="13.620039372980123"><ele>43.0</ele><time>2026-04-19T07:18:51Z</time></trkpt><trkpt lat="43.4427416969055" lon="13.619892257361101"><ele>43.0</ele><time>2026-04-19T07:18:52Z</time></trkpt><trkpt lat="43.44286024109505" lon="13.619742767961995"><ele>43.0</ele><time>2026-04-19T07:18:53Z</time></trkpt><trkpt lat="43.44297957112351" lon="13.619583066292046"><ele>38.333333333333336</ele><time>2026-04-19T07:18:54Z</time></trkpt><trkpt lat="43.44309391145969" lon="13.619432249885378"><ele>33.666666666666664</ele><time>2026-04-19T07:18:55Z</time></trkpt><trkpt lat="43.44320658134256" lon="13.619276449851967"><ele>29.0</ele><time>2026-04-19T07:18:56Z</time></trkpt><trkpt lat="43.443306593600845" lon="13.619135932740045"><ele>29.0</ele><time>2026-04-19T07:18:57Z</time></trkpt><trkpt lat="43.44340487261173" lon="13.619005509044593"><ele>29.0</ele><time>2026-04-19T07:18:58Z</time></trkpt><trkpt lat="43.44350190940246" lon="13.61887567926538"><ele>29.0</ele><time>2026-04-19T07:18:59Z</time></trkpt><trkpt lat="43.443597890054406" lon="13.618744335264433"><ele>29.0</ele><time>2026-04-19T07:19:00Z</time></trkpt><trkpt lat="43.44369491740384" lon="13.61861800410562"><ele>30.75</ele><time>2026-04-19T07:19:01Z</time></trkpt><trkpt lat="43.44379021708201" lon="13.618490382604314"><ele>32.5</ele><time>2026-04-19T07:19:02Z</time></trkpt><trkpt lat="43.44388552126795" lon="13.618358420927382"><ele>34.25</ele><time>2026-04-19T07:19:03Z</time></trkpt><trkpt lat="43.443981423208946" lon="13.618228186132242"><ele>36.0</ele><time>2026-04-19T07:19:04Z</time></trkpt><trkpt lat="43.444077292736516" lon="13.618106636944928"><ele>33.5</ele><time>2026-04-19T07:19:05Z</time></trkpt><trkpt lat="43.44417111395248" lon="13.617998427809283"><ele>31.0</ele><time>2026-04-19T07:19:06Z</time></trkpt><trkpt lat="43.44426819358705" lon="13.617909275814467"><ele>28.5</ele><time>2026-04-19T07:19:07Z</time></trkpt><trkpt lat="43.44436568679509" lon="13.617828631038426"><ele>26.0</ele><time>2026-04-19T07:19:08Z</time></trkpt><trkpt lat="43.44445983513972" lon="13.617760464563185"><ele>26.0</ele><time>2026-04-19T07:19:09Z</time></trkpt><trkpt lat="43.444550945000486" lon="13.617693469233535"><ele>26.0</ele><time>2026-04-19T07:19:10Z</time></trkpt><trkpt lat="43.44464294746218" lon="13.617634580947918"><ele>26.0</ele><time>2026-04-19T07:19:11Z</time></trkpt><trkpt lat="43.444736642258704" lon="13.617591966667364"><ele>26.0</ele><time>2026-04-19T07:19:12Z</time></trkpt><trkpt lat="43.44483070748672" lon="13.617570454447234"><ele>26.0</ele><time>2026-04-19T07:19:13Z</time></trkpt><trkpt lat="43.44491192810408" lon="13.617556082560021"><ele>24.499999999999996</ele><time>2026-04-19T07:19:14Z</time></trkpt><trkpt lat="43.44497828072577" lon="13.61754526468268"><ele>23.0</ele><time>2026-04-19T07:19:15Z</time></trkpt><trkpt lat="43.44501452238569" lon="13.617467142369783"><ele>21.5</ele><time>2026-04-19T07:19:16Z</time></trkpt><trkpt lat="43.44501939609144" lon="13.617357803432698"><ele>20.0</ele><time>2026-04-19T07:19:17Z</time></trkpt><trkpt lat="43.444987123866056" lon="13.617247504720492"><ele>18.5</ele><time>2026-04-19T07:19:18Z</time></trkpt><trkpt lat="43.44498184574654" lon="13.617127728253369"><ele>17.0</ele><time>2026-04-19T07:19:19Z</time></trkpt><trkpt lat="43.44500619042045" lon="13.616990957380542"><ele>17.25</ele><time>2026-04-19T07:19:20Z</time></trkpt><trkpt lat="43.44504552500148" lon="13.616849639910342"><ele>17.5</ele><time>2026-04-19T07:19:21Z</time></trkpt><trkpt lat="43.44509597397776" lon="13.61668986918766"><ele>17.75</ele><time>2026-04-19T07:19:22Z</time></trkpt><trkpt lat="43.44514938995384" lon="13.61653660376445"><ele>18.0</ele><time>2026-04-19T07:19:23Z</time></trkpt><trkpt lat="43.44519720093065" lon="13.616399651290578"><ele>18.0</ele><time>2026-04-19T07:19:24Z</time></trkpt><trkpt lat="43.44524189956157" lon="13.616277490906688"><ele>18.0</ele><time>2026-04-19T07:19:25Z</time></trkpt><trkpt lat="43.44528124770233" lon="13.616162312110019"><ele>18.0</ele><time>2026-04-19T07:19:26Z</time></trkpt><trkpt lat="43.44532222021766" lon="13.616056292473676"><ele>18.0</ele><time>2026-04-19T07:19:27Z</time></trkpt><trkpt lat="43.445379531701484" lon="13.615971319335257"><ele>18.0</ele><time>2026-04-19T07:19:28Z</time></trkpt><trkpt lat="43.4454599881165" lon="13.61590321155495"><ele>17.0</ele><time>2026-04-19T07:19:29Z</time></trkpt><trkpt lat="43.445561303301034" lon="13.615857116921987"><ele>16.0</ele><time>2026-04-19T07:19:30Z</time></trkpt><trkpt lat="43.44565854892098" lon="13.615839927542934"><ele>15.0</ele><time>2026-04-19T07:19:30.998Z</time></trkpt><trkpt lat="43.44575413355979" lon="13.615812217474982"><ele>14.0</ele><time>2026-04-19T07:19:31.998Z</time></trkpt><trkpt lat="43.445847544118436" lon="13.615773548482192"><ele>13.0</ele><time>2026-04-19T07:19:32.998Z</time></trkpt><trkpt lat="43.44590689965498" lon="13.615678027375205"><ele>13.0</ele><time>2026-04-19T07:19:33.998Z</time></trkpt><trkpt lat="43.445925193279415" lon="13.615558426292075"><ele>13.0</ele><time>2026-04-19T07:19:34.998Z</time></trkpt><trkpt lat="43.44589244973901" lon="13.615436824753559"><ele>13.0</ele><time>2026-04-19T07:19:35.998Z</time></trkpt><trkpt lat="43.445851247428166" lon="13.615322645361132"><ele>13.0</ele><time>2026-04-19T07:19:36.998Z</time></trkpt><trkpt lat="43.44577393387915" lon="13.615242248021772"><ele>13.0</ele><time>2026-04-19T07:19:37.998Z</time></trkpt><trkpt lat="43.44574792628292" lon="13.615096247364677"><ele>13.0</ele><time>2026-04-19T07:19:38.998Z</time></trkpt><trkpt lat="43.44570168642241" lon="13.614973850051646"><ele>13.0</ele><time>2026-04-19T07:19:39.998Z</time></trkpt><trkpt lat="43.44576178426921" lon="13.614799584057476"><ele>13.0</ele><time>2026-04-19T07:19:40.998Z</time></trkpt><trkpt lat="43.445791144862845" lon="13.614642513094319"><ele>13.0</ele><time>2026-04-19T07:19:41.998Z</time></trkpt><trkpt lat="43.44581449101076" lon="13.614483241605058"><ele>13.0</ele><time>2026-04-19T07:19:42.998Z</time></trkpt><trkpt lat="43.44584590471343" lon="13.614337207340588"><ele>13.0</ele><time>2026-04-19T07:19:43.998Z</time></trkpt><trkpt lat="43.445872847843766" lon="13.614180548763613"><ele>13.0</ele><time>2026-04-19T07:19:44.999Z</time></trkpt><trkpt lat="43.44588970463037" lon="13.614016802039588"><ele>13.0</ele><time>2026-04-19T07:19:45.999Z</time></trkpt><trkpt lat="43.445905188555834" lon="13.61384830912255"><ele>13.0</ele><time>2026-04-19T07:19:46.999Z</time></trkpt><trkpt lat="43.44591806061545" lon="13.613669889021855"><ele>13.0</ele><time>2026-04-19T07:19:47.999Z</time></trkpt><trkpt lat="43.445931306464" lon="13.613481738012906"><ele>13.0</ele><time>2026-04-19T07:19:48.999Z</time></trkpt><trkpt lat="43.445943308939995" lon="13.61329723455192"><ele>13.0</ele><time>2026-04-19T07:19:49.999Z</time></trkpt><trkpt lat="43.44596528184223" lon="13.613104949892355"><ele>13.0</ele><time>2026-04-19T07:19:50.999Z</time></trkpt><trkpt lat="43.44598296735119" lon="13.612910377635824"><ele>13.0</ele><time>2026-04-19T07:19:51.999Z</time></trkpt><trkpt lat="43.44600065394702" lon="13.612711680740556"><ele>13.0</ele><time>2026-04-19T07:19:52.999Z</time></trkpt><trkpt lat="43.44601843013646" lon="13.612512894538558"><ele>13.0</ele><time>2026-04-19T07:19:53.999Z</time></trkpt><trkpt lat="43.44603922311091" lon="13.612311300846718"><ele>13.0</ele><time>2026-04-19T07:19:54.999Z</time></trkpt><trkpt lat="43.4460669168404" lon="13.612112127230338"><ele>13.0</ele><time>2026-04-19T07:19:55.999Z</time></trkpt><trkpt lat="43.446079081342305" lon="13.611900479084056"><ele>13.0</ele><time>2026-04-19T07:19:56.999Z</time></trkpt><trkpt lat="43.446093572324635" lon="13.611688168481708"><ele>13.0</ele><time>2026-04-19T07:19:57.999Z</time></trkpt><trkpt lat="43.446114699270495" lon="13.611500974158513"><ele>13.0</ele><time>2026-04-19T07:19:58.999Z</time></trkpt><trkpt lat="43.44613135573362" lon="13.611321186998861"><ele>13.0</ele><time>2026-04-19T07:19:59.999Z</time></trkpt><trkpt lat="43.44615870938543" lon="13.61115628746969"><ele>13.0</ele><time>2026-04-19T07:20:00.999Z</time></trkpt><trkpt lat="43.44618884243586" lon="13.61100467151263"><ele>13.0</ele><time>2026-04-19T07:20:01.999Z</time></trkpt><trkpt lat="43.44622312359082" lon="13.61085282613961"><ele>13.0</ele><time>2026-04-19T07:20:02.999Z</time></trkpt><trkpt lat="43.44626768339751" lon="13.610701603177223"><ele>13.0</ele><time>2026-04-19T07:20:03.999Z</time></trkpt><trkpt lat="43.44631816856088" lon="13.61054413326821"><ele>13.0</ele><time>2026-04-19T07:20:04.999Z</time></trkpt><trkpt lat="43.446377624528694" lon="13.610394411644844"><ele>13.25</ele><time>2026-04-19T07:20:05.999Z</time></trkpt><trkpt lat="43.44642781023199" lon="13.610240151686273"><ele>13.5</ele><time>2026-04-19T07:20:06.999Z</time></trkpt><trkpt lat="43.44648101750175" lon="13.610080897612763"><ele>13.75</ele><time>2026-04-19T07:20:07.999Z</time></trkpt><trkpt lat="43.44654677799245" lon="13.609916739113329"><ele>14.0</ele><time>2026-04-19T07:20:09Z</time></trkpt><trkpt lat="43.446611390998946" lon="13.609740158867645"><ele>14.0</ele><time>2026-04-19T07:20:10Z</time></trkpt><trkpt lat="43.446687511401315" lon="13.609579347954574"><ele>14.0</ele><time>2026-04-19T07:20:11Z</time></trkpt><trkpt lat="43.44676677866998" lon="13.60941635713129"><ele>14.0</ele><time>2026-04-19T07:20:12Z</time></trkpt><trkpt lat="43.446817001496264" lon="13.609245410445897"><ele>14.0</ele><time>2026-04-19T07:20:13Z</time></trkpt><trkpt lat="43.446875851589716" lon="13.60908049986563"><ele>13.799999999999999</ele><time>2026-04-19T07:20:14Z</time></trkpt><trkpt lat="43.44694192345709" lon="13.608891353882434"><ele>13.599999999999998</ele><time>2026-04-19T07:20:15Z</time></trkpt><trkpt lat="43.446858235449874" lon="13.609025527458577"><ele>13.4</ele><time>2026-04-19T07:20:16Z</time></trkpt><trkpt lat="43.44688498014355" lon="13.608940212521741"><ele>13.2</ele><time>2026-04-19T07:20:17Z</time></trkpt><trkpt lat="43.44690920475878" lon="13.608857601685939"><ele>13.0</ele><time>2026-04-19T07:20:18Z</time></trkpt><trkpt lat="43.44693972169927" lon="13.60877874185924"><ele>13.0</ele><time>2026-04-19T07:20:19Z</time></trkpt><trkpt lat="43.44697320537194" lon="13.608699572364628"><ele>13.0</ele><time>2026-04-19T07:20:20Z</time></trkpt><trkpt lat="43.44700360998734" lon="13.608614557508693"><ele>13.0</ele><time>2026-04-19T07:20:21Z</time></trkpt><trkpt lat="43.447030652049456" lon="13.608522443590598"><ele>13.0</ele><time>2026-04-19T07:20:22Z</time></trkpt><trkpt lat="43.44706287400985" lon="13.608429159068221"><ele>13.0</ele><time>2026-04-19T07:20:23Z</time></trkpt><trkpt lat="43.44709531099825" lon="13.608336197302416"><ele>13.0</ele><time>2026-04-19T07:20:24Z</time></trkpt><trkpt lat="43.44713092375682" lon="13.608238332298122"><ele>13.0</ele><time>2026-04-19T07:20:25Z</time></trkpt><trkpt lat="43.44715965985408" lon="13.608132584207501"><ele>12.999999999999998</ele><time>2026-04-19T07:20:26Z</time></trkpt><trkpt lat="43.447196668906" lon="13.608028963862917"><ele>13.0</ele><time>2026-04-19T07:20:27Z</time></trkpt><trkpt lat="43.44723112795247" lon="13.607940083848197"><ele>13.0</ele><time>2026-04-19T07:20:28Z</time></trkpt><trkpt lat="43.44727056885425" lon="13.607870191744494"><ele>13.0</ele><time>2026-04-19T07:20:29Z</time></trkpt><trkpt lat="43.44736753933638" lon="13.607782273637694"><ele>12.999999999999998</ele><time>2026-04-19T07:20:31Z</time></trkpt><trkpt lat="43.44747677526077" lon="13.607753763712045"><ele>13.0</ele><time>2026-04-19T07:20:33Z</time></trkpt><trkpt lat="43.44754231742354" lon="13.607627569406938"><ele>12.999999999999998</ele><time>2026-04-19T07:20:35Z</time></trkpt><trkpt lat="43.44754237922354" lon="13.607539830416062"><ele>13.0</ele><time>2026-04-19T07:20:36Z</time></trkpt><trkpt lat="43.44752723491743" lon="13.607449998255127"><ele>13.0</ele><time>2026-04-19T07:20:37Z</time></trkpt><trkpt lat="43.44751112906474" lon="13.607353366030893"><ele>13.0</ele><time>2026-04-19T07:20:38Z</time></trkpt><trkpt lat="43.44751722007283" lon="13.607246258095799"><ele>12.999999999999998</ele><time>2026-04-19T07:20:39Z</time></trkpt><trkpt lat="43.44753736499613" lon="13.607123883447729"><ele>13.0</ele><time>2026-04-19T07:20:40Z</time></trkpt><trkpt lat="43.44756452963586" lon="13.60699691727329"><ele>13.2</ele><time>2026-04-19T07:20:41Z</time></trkpt><trkpt lat="43.44760000545597" lon="13.606862295175628"><ele>13.4</ele><time>2026-04-19T07:20:42Z</time></trkpt><trkpt lat="43.447643574022855" lon="13.606723331699538"><ele>13.599999999999998</ele><time>2026-04-19T07:20:43Z</time></trkpt><trkpt lat="43.447693724691796" lon="13.60658771051739"><ele>13.799999999999999</ele><time>2026-04-19T07:20:44Z</time></trkpt><trkpt lat="43.44774595921293" lon="13.606450029841753"><ele>14.0</ele><time>2026-04-19T07:20:45Z</time></trkpt><trkpt lat="43.447791769263276" lon="13.606318201715068"><ele>14.0</ele><time>2026-04-19T07:20:46Z</time></trkpt><trkpt lat="43.447839622099735" lon="13.606187321514984"><ele>13.999999999999998</ele><time>2026-04-19T07:20:47Z</time></trkpt><trkpt lat="43.44788642253294" lon="13.606052026788129"><ele>13.999999999999998</ele><time>2026-04-19T07:20:48Z</time></trkpt><trkpt lat="43.44793466633494" lon="13.605918727274013"><ele>14.0</ele><time>2026-04-19T07:20:49Z</time></trkpt><trkpt lat="43.447981544920744" lon="13.605784985754172"><ele>14.0</ele><time>2026-04-19T07:20:50Z</time></trkpt><trkpt lat="43.44802305198994" lon="13.605665441534184"><ele>13.6</ele><time>2026-04-19T07:20:51Z</time></trkpt><trkpt lat="43.44806104815452" lon="13.605565322579206"><ele>13.2</ele><time>2026-04-19T07:20:52Z</time></trkpt><trkpt lat="43.448098875085485" lon="13.60546345776107"><ele>12.799999999999999</ele><time>2026-04-19T07:20:53Z</time></trkpt><trkpt lat="43.4481362311931" lon="13.605349383623203"><ele>12.399999999999999</ele><time>2026-04-19T07:20:54Z</time></trkpt><trkpt lat="43.44817476630596" lon="13.605229611150207"><ele>12.0</ele><time>2026-04-19T07:20:55Z</time></trkpt><trkpt lat="43.448219676169245" lon="13.60510691004676"><ele>11.75</ele><time>2026-04-19T07:20:56Z</time></trkpt><trkpt lat="43.448276541988896" lon="13.604972654959901"><ele>11.5</ele><time>2026-04-19T07:20:57Z</time></trkpt><trkpt lat="43.44832684100637" lon="13.604829534346932"><ele>11.25</ele><time>2026-04-19T07:20:58Z</time></trkpt><trkpt lat="43.44838015889265" lon="13.604682772025047"><ele>11.0</ele><time>2026-04-19T07:20:59Z</time></trkpt><trkpt lat="43.44843028197609" lon="13.60452572962959"><ele>10.75</ele><time>2026-04-19T07:21:00.001Z</time></trkpt><trkpt lat="43.44848187975379" lon="13.604372118385992"><ele>10.5</ele><time>2026-04-19T07:21:01.001Z</time></trkpt><trkpt lat="43.4485436510856" lon="13.604212950612213"><ele>10.25</ele><time>2026-04-19T07:21:02.001Z</time></trkpt><trkpt lat="43.4485975706765" lon="13.604052893825353"><ele>10.0</ele><time>2026-04-19T07:21:03.001Z</time></trkpt><trkpt lat="43.448652336928504" lon="13.603893750171846"><ele>10.0</ele><time>2026-04-19T07:21:04.001Z</time></trkpt><trkpt lat="43.448704248365544" lon="13.603733105497975"><ele>10.0</ele><time>2026-04-19T07:21:05.001Z</time></trkpt><trkpt lat="43.44876576082054" lon="13.60357704997302"><ele>10.0</ele><time>2026-04-19T07:21:06.001Z</time></trkpt><trkpt lat="43.44882489356529" lon="13.60341142822051"><ele>10.0</ele><time>2026-04-19T07:21:07.001Z</time></trkpt><trkpt lat="43.448879350651445" lon="13.60324417795991"><ele>10.25</ele><time>2026-04-19T07:21:08.001Z</time></trkpt><trkpt lat="43.44893755655795" lon="13.603073899453062"><ele>10.5</ele><time>2026-04-19T07:21:09.001Z</time></trkpt><trkpt lat="43.448997663264564" lon="13.602913077078824"><ele>10.75</ele><time>2026-04-19T07:21:10.001Z</time></trkpt><trkpt lat="43.449056282024884" lon="13.602756472807975"><ele>11.0</ele><time>2026-04-19T07:21:11.001Z</time></trkpt><trkpt lat="43.449116111637366" lon="13.602594566781967"><ele>11.0</ele><time>2026-04-19T07:21:12.001Z</time></trkpt><trkpt lat="43.449186086351986" lon="13.602432002000368"><ele>11.0</ele><time>2026-04-19T07:21:13.001Z</time></trkpt><trkpt lat="43.44926540675708" lon="13.602276397876157"><ele>11.0</ele><time>2026-04-19T07:21:14.001Z</time></trkpt><trkpt lat="43.44936030558458" lon="13.602125397215563"><ele>11.0</ele><time>2026-04-19T07:21:15.001Z</time></trkpt><trkpt lat="43.449459102442724" lon="13.601988708189117"><ele>11.200000000000001</ele><time>2026-04-19T07:21:16.001Z</time></trkpt><trkpt lat="43.449553179693126" lon="13.601872666084866"><ele>11.4</ele><time>2026-04-19T07:21:17.001Z</time></trkpt><trkpt lat="43.44963464650749" lon="13.601778862131765"><ele>11.6</ele><time>2026-04-19T07:21:18.001Z</time></trkpt><trkpt lat="43.449710342251" lon="13.601687584281576"><ele>11.8</ele><time>2026-04-19T07:21:19.001Z</time></trkpt><trkpt lat="43.44978088238447" lon="13.601608624567184"><ele>12.0</ele><time>2026-04-19T07:21:20.001Z</time></trkpt><trkpt lat="43.44984939092699" lon="13.601533247464976"><ele>12.0</ele><time>2026-04-19T07:21:21.001Z</time></trkpt><trkpt lat="43.449923359342414" lon="13.601450370594016"><ele>12.0</ele><time>2026-04-19T07:21:22.001Z</time></trkpt><trkpt lat="43.44999676440662" lon="13.601369912771908"><ele>12.0</ele><time>2026-04-19T07:21:23.001Z</time></trkpt><trkpt lat="43.45006990979399" lon="13.601285602460703"><ele>12.0</ele><time>2026-04-19T07:21:24.001Z</time></trkpt><trkpt lat="43.45014289680135" lon="13.601200650025278"><ele>12.0</ele><time>2026-04-19T07:21:25.001Z</time></trkpt><trkpt lat="43.450225471741156" lon="13.601117659044844"><ele>12.2</ele><time>2026-04-19T07:21:26.001Z</time></trkpt><trkpt lat="43.45029766881185" lon="13.601026794178797"><ele>12.399999999999999</ele><time>2026-04-19T07:21:27.001Z</time></trkpt><trkpt lat="43.450378761283815" lon="13.600933670777799"><ele>12.600000000000001</ele><time>2026-04-19T07:21:28.001Z</time></trkpt><trkpt lat="43.450465434862764" lon="13.60083619095543"><ele>12.8</ele><time>2026-04-19T07:21:29.001Z</time></trkpt><trkpt lat="43.45055584189315" lon="13.600728319348795"><ele>13.0</ele><time>2026-04-19T07:21:30.001Z</time></trkpt><trkpt lat="43.45064729200639" lon="13.60061721275906"><ele>13.0</ele><time>2026-04-19T07:21:31.001Z</time></trkpt><trkpt lat="43.45074404533165" lon="13.600510066034818"><ele>13.0</ele><time>2026-04-19T07:21:32.001Z</time></trkpt><trkpt lat="43.45084166111293" lon="13.600392210666811"><ele>13.0</ele><time>2026-04-19T07:21:33.001Z</time></trkpt><trkpt lat="43.45094678682436" lon="13.600279780606137"><ele>13.0</ele><time>2026-04-19T07:21:34.001Z</time></trkpt><trkpt lat="43.451052204952084" lon="13.600160172103415"><ele>12.25</ele><time>2026-04-19T07:21:35.001Z</time></trkpt><trkpt lat="43.451155068594396" lon="13.600033805148863"><ele>11.5</ele><time>2026-04-19T07:21:36.001Z</time></trkpt><trkpt lat="43.45126426106527" lon="13.599912523278208"><ele>10.75</ele><time>2026-04-19T07:21:36.999Z</time></trkpt><trkpt lat="43.451377704091165" lon="13.599780631293124"><ele>10.0</ele><time>2026-04-19T07:21:37.999Z</time></trkpt><trkpt lat="43.45148664608453" lon="13.59965258919608"><ele>10.0</ele><time>2026-04-19T07:21:38.999Z</time></trkpt><trkpt lat="43.45160333413722" lon="13.599520187000875"><ele>10.0</ele><time>2026-04-19T07:21:39.999Z</time></trkpt><trkpt lat="43.45171663074564" lon="13.599394129188536"><ele>10.0</ele><time>2026-04-19T07:21:40.999Z</time></trkpt><trkpt lat="43.451832367111685" lon="13.599257557294278"><ele>10.0</ele><time>2026-04-19T07:21:41.999Z</time></trkpt><trkpt lat="43.45194728289837" lon="13.599126970143159"><ele>10.0</ele><time>2026-04-19T07:21:42.999Z</time></trkpt><trkpt lat="43.45205972379856" lon="13.599000433600207"><ele>10.0</ele><time>2026-04-19T07:21:43.999Z</time></trkpt><trkpt lat="43.45217101944681" lon="13.598872034361705"><ele>10.0</ele><time>2026-04-19T07:21:44.999Z</time></trkpt><trkpt lat="43.45228130753871" lon="13.598742788187657"><ele>10.0</ele><time>2026-04-19T07:21:45.999Z</time></trkpt><trkpt lat="43.452403119883535" lon="13.598608770113167"><ele>9.666666666666668</ele><time>2026-04-19T07:21:46.999Z</time></trkpt><trkpt lat="43.45251529322524" lon="13.5984843694562"><ele>9.333333333333334</ele><time>2026-04-19T07:21:47.999Z</time></trkpt><trkpt lat="43.45263503998636" lon="13.598354705747449"><ele>9.0</ele><time>2026-04-19T07:21:48.999Z</time></trkpt><trkpt lat="43.45275736508183" lon="13.598221286657992"><ele>9.0</ele><time>2026-04-19T07:21:49.999Z</time></trkpt><trkpt lat="43.45287648067645" lon="13.598091062749207"><ele>9.0</ele><time>2026-04-19T07:21:50.999Z</time></trkpt><trkpt lat="43.45299938552139" lon="13.59796817180068"><ele>9.0</ele><time>2026-04-19T07:21:51.999Z</time></trkpt><trkpt lat="43.453122730724715" lon="13.597847880821368"><ele>9.666666666666666</ele><time>2026-04-19T07:21:52.999Z</time></trkpt><trkpt lat="43.453244770618575" lon="13.597735653114476"><ele>10.333333333333332</ele><time>2026-04-19T07:21:53.999Z</time></trkpt><trkpt lat="43.45337422290511" lon="13.597615041926629"><ele>11.0</ele><time>2026-04-19T07:21:54.999Z</time></trkpt><trkpt lat="43.45350010758794" lon="13.597499493036143"><ele>11.0</ele><time>2026-04-19T07:21:55.999Z</time></trkpt><trkpt lat="43.45362654162489" lon="13.597386336022133"><ele>11.0</ele><time>2026-04-19T07:21:56.999Z</time></trkpt><trkpt lat="43.45375018771789" lon="13.5972695191026"><ele>11.0</ele><time>2026-04-19T07:21:57.999Z</time></trkpt><trkpt lat="43.45386669429594" lon="13.59715904293487"><ele>11.0</ele><time>2026-04-19T07:21:58.999Z</time></trkpt><trkpt lat="43.45399289975693" lon="13.597044433721404"><ele>11.25</ele><time>2026-04-19T07:22:00Z</time></trkpt><trkpt lat="43.45410560665978" lon="13.596933441824705"><ele>11.5</ele><time>2026-04-19T07:22:01Z</time></trkpt><trkpt lat="43.454213386943955" lon="13.596835383700686"><ele>11.75</ele><time>2026-04-19T07:22:02Z</time></trkpt><trkpt lat="43.45431170686105" lon="13.596747322905937"><ele>12.0</ele><time>2026-04-19T07:22:03Z</time></trkpt><trkpt lat="43.45440525366836" lon="13.596662010220903"><ele>12.0</ele><time>2026-04-19T07:22:04Z</time></trkpt><trkpt lat="43.45449362152252" lon="13.596584171948901"><ele>12.0</ele><time>2026-04-19T07:22:05Z</time></trkpt><trkpt lat="43.45457547156748" lon="13.596510536289962"><ele>12.0</ele><time>2026-04-19T07:22:06Z</time></trkpt><trkpt lat="43.45465217191069" lon="13.596437947645605"><ele>12.0</ele><time>2026-04-19T07:22:07Z</time></trkpt><trkpt lat="43.45473051652197" lon="13.596370196218773"><ele>12.0</ele><time>2026-04-19T07:22:08Z</time></trkpt><trkpt lat="43.45480293946869" lon="13.596301244285797"><ele>11.999999999999998</ele><time>2026-04-19T07:22:09Z</time></trkpt><trkpt lat="43.45486856571031" lon="13.596235868827863"><ele>12.0</ele><time>2026-04-19T07:22:10Z</time></trkpt><trkpt lat="43.4549254409491" lon="13.596184432333555"><ele>12.0</ele><time>2026-04-19T07:22:11Z</time></trkpt><trkpt lat="43.45498771529728" lon="13.596132223210464"><ele>12.0</ele><time>2026-04-19T07:22:12Z</time></trkpt><trkpt lat="43.45504327729962" lon="13.59608015443837"><ele>12.0</ele><time>2026-04-19T07:22:13Z</time></trkpt><trkpt lat="43.455096453062424" lon="13.596028688671216"><ele>11.999999999999998</ele><time>2026-04-19T07:22:14Z</time></trkpt><trkpt lat="43.45515039022922" lon="13.595974161905671"><ele>12.0</ele><time>2026-04-19T07:22:15Z</time></trkpt><trkpt lat="43.455204070670476" lon="13.59592493444561"><ele>11.999999999999998</ele><time>2026-04-19T07:22:16Z</time></trkpt><trkpt lat="43.45526183091979" lon="13.595872540059641"><ele>12.0</ele><time>2026-04-19T07:22:17Z</time></trkpt><trkpt lat="43.45531933364342" lon="13.595824329434008"><ele>12.0</ele><time>2026-04-19T07:22:18Z</time></trkpt><trkpt lat="43.45538179931651" lon="13.59578588167149"><ele>12.0</ele><time>2026-04-19T07:22:19Z</time></trkpt><trkpt lat="43.45545149813707" lon="13.595765801174517"><ele>12.0</ele><time>2026-04-19T07:22:20Z</time></trkpt><trkpt lat="43.45552628816181" lon="13.595747934221105"><ele>11.999999999999998</ele><time>2026-04-19T07:22:21Z</time></trkpt><trkpt lat="43.455616343163534" lon="13.59571952072152"><ele>12.0</ele><time>2026-04-19T07:22:22Z</time></trkpt><trkpt lat="43.45569433374762" lon="13.595672868442573"><ele>11.5</ele><time>2026-04-19T07:22:23Z</time></trkpt><trkpt lat="43.45576070876858" lon="13.595590955600352"><ele>11.0</ele><time>2026-04-19T07:22:24Z</time></trkpt><trkpt lat="43.45580820530441" lon="13.595484925101871"><ele>10.5</ele><time>2026-04-19T07:22:25Z</time></trkpt><trkpt lat="43.45582523282257" lon="13.595368788380895"><ele>10.0</ele><time>2026-04-19T07:22:26Z</time></trkpt><trkpt lat="43.45580188403682" lon="13.595250996686204"><ele>9.5</ele><time>2026-04-19T07:22:27Z</time></trkpt><trkpt lat="43.45575005643388" lon="13.595146533297717"><ele>9.0</ele><time>2026-04-19T07:22:28Z</time></trkpt><trkpt lat="43.45567489359654" lon="13.595067611570265"><ele>9.0</ele><time>2026-04-19T07:22:29Z</time></trkpt><trkpt lat="43.455586134231645" lon="13.59502506484806"><ele>9.0</ele><time>2026-04-19T07:22:30Z</time></trkpt><trkpt lat="43.45548853136032" lon="13.595024507872246"><ele>9.0</ele><time>2026-04-19T07:22:31Z</time></trkpt><trkpt lat="43.45538792347409" lon="13.59505173290817"><ele>9.0</ele><time>2026-04-19T07:22:32Z</time></trkpt><trkpt lat="43.45528692048726" lon="13.595066352013863"><ele>9.0</ele><time>2026-04-19T07:22:33Z</time></trkpt><trkpt lat="43.4551935018942" lon="13.595009236022332"><ele>9.5</ele><time>2026-04-19T07:22:34Z</time></trkpt><trkpt lat="43.455103300585" lon="13.594922051369041"><ele>10.0</ele><time>2026-04-19T07:22:35Z</time></trkpt><trkpt lat="43.455038456414826" lon="13.594792081722913"><ele>10.5</ele><time>2026-04-19T07:22:36Z</time></trkpt><trkpt lat="43.45497385955693" lon="13.594661976120863"><ele>11.0</ele><time>2026-04-19T07:22:37Z</time></trkpt><trkpt lat="43.45490391699445" lon="13.59453076967684"><ele>11.0</ele><time>2026-04-19T07:22:38.001Z</time></trkpt><trkpt lat="43.45484659990283" lon="13.594390322183006"><ele>11.0</ele><time>2026-04-19T07:22:39.001Z</time></trkpt><trkpt lat="43.454788285662644" lon="13.594248708525424"><ele>11.0</ele><time>2026-04-19T07:22:40.001Z</time></trkpt><trkpt lat="43.45472768542798" lon="13.594101226477711"><ele>11.0</ele><time>2026-04-19T07:22:41.001Z</time></trkpt><trkpt lat="43.454665978919415" lon="13.593958173819107"><ele>11.25</ele><time>2026-04-19T07:22:42.001Z</time></trkpt><trkpt lat="43.45460402666531" lon="13.593808525619366"><ele>11.5</ele><time>2026-04-19T07:22:43.001Z</time></trkpt><trkpt lat="43.4545410924287" lon="13.593658858563181"><ele>11.75</ele><time>2026-04-19T07:22:44.001Z</time></trkpt><trkpt lat="43.454479283059435" lon="13.593508444029307"><ele>12.0</ele><time>2026-04-19T07:22:45.001Z</time></trkpt><trkpt lat="43.45441322295938" lon="13.593357228477009"><ele>12.0</ele><time>2026-04-19T07:22:46.001Z</time></trkpt><trkpt lat="43.4543458105817" lon="13.593203471665877"><ele>12.0</ele><time>2026-04-19T07:22:47.001Z</time></trkpt><trkpt lat="43.45427889308381" lon="13.593051747351312"><ele>12.0</ele><time>2026-04-19T07:22:48.001Z</time></trkpt><trkpt lat="43.45421394890586" lon="13.592898238710378"><ele>12.0</ele><time>2026-04-19T07:22:49.001Z</time></trkpt><trkpt lat="43.45414934267834" lon="13.592742772430418"><ele>11.5</ele><time>2026-04-19T07:22:50.001Z</time></trkpt><trkpt lat="43.45408482483053" lon="13.592587478876846"><ele>11.0</ele><time>2026-04-19T07:22:51.001Z</time></trkpt><trkpt lat="43.45401614834705" lon="13.592433576277237"><ele>10.5</ele><time>2026-04-19T07:22:52.001Z</time></trkpt><trkpt lat="43.45394950855558" lon="13.59227739771833"><ele>10.0</ele><time>2026-04-19T07:22:53.001Z</time></trkpt><trkpt lat="43.453881806532124" lon="13.592118926998415"><ele>10.0</ele><time>2026-04-19T07:22:54.001Z</time></trkpt><trkpt lat="43.453815912084295" lon="13.591961888376723"><ele>10.0</ele><time>2026-04-19T07:22:55.001Z</time></trkpt><trkpt lat="43.453751608291284" lon="13.591807364476743"><ele>10.0</ele><time>2026-04-19T07:22:56.001Z</time></trkpt><trkpt lat="43.453691590664626" lon="13.591664235949862"><ele>10.0</ele><time>2026-04-19T07:22:57.001Z</time></trkpt><trkpt lat="43.45363283283326" lon="13.591527209083262"><ele>10.25</ele><time>2026-04-19T07:22:58.001Z</time></trkpt><trkpt lat="43.45357149142237" lon="13.591388651287424"><ele>10.5</ele><time>2026-04-19T07:22:59.001Z</time></trkpt><trkpt lat="43.453510411729134" lon="13.59125334524718"><ele>10.75</ele><time>2026-04-19T07:23:00.001Z</time></trkpt><trkpt lat="43.45344997692594" lon="13.591113935931151"><ele>11.0</ele><time>2026-04-19T07:23:01.001Z</time></trkpt><trkpt lat="43.45338860977943" lon="13.590978849695546"><ele>11.0</ele><time>2026-04-19T07:23:02.001Z</time></trkpt><trkpt lat="43.45333144945244" lon="13.590844258157503"><ele>11.0</ele><time>2026-04-19T07:23:03.001Z</time></trkpt><trkpt lat="43.45327355409395" lon="13.590707874686137"><ele>11.0</ele><time>2026-04-19T07:23:04.001Z</time></trkpt><trkpt lat="43.45321648245791" lon="13.590567217604976"><ele>11.0</ele><time>2026-04-19T07:23:05.001Z</time></trkpt><trkpt lat="43.45316170262764" lon="13.590432098603431"><ele>11.200000000000001</ele><time>2026-04-19T07:23:06.001Z</time></trkpt><trkpt lat="43.453103782567595" lon="13.590304029830103"><ele>11.4</ele><time>2026-04-19T07:23:07.001Z</time></trkpt><trkpt lat="43.45304703338992" lon="13.59017655011772"><ele>11.6</ele><time>2026-04-19T07:23:08.001Z</time></trkpt><trkpt lat="43.45298997177265" lon="13.590048958513124"><ele>11.8</ele><time>2026-04-19T07:23:09.001Z</time></trkpt><trkpt lat="43.452932651041856" lon="13.5899127556046"><ele>12.0</ele><time>2026-04-19T07:23:10.001Z</time></trkpt><trkpt lat="43.452869923869635" lon="13.589764533518622"><ele>12.0</ele><time>2026-04-19T07:23:11.001Z</time></trkpt><trkpt lat="43.452806879299104" lon="13.589619021741202"><ele>12.0</ele><time>2026-04-19T07:23:12.001Z</time></trkpt><trkpt lat="43.45273826756093" lon="13.589464786949653"><ele>12.0</ele><time>2026-04-19T07:23:13.001Z</time></trkpt><trkpt lat="43.45267553878028" lon="13.58932178926863"><ele>12.0</ele><time>2026-04-19T07:23:14.001Z</time></trkpt><trkpt lat="43.45261487404036" lon="13.589181702572075"><ele>12.399999999999999</ele><time>2026-04-19T07:23:15.001Z</time></trkpt><trkpt lat="43.45255977225039" lon="13.589052054724323"><ele>12.799999999999999</ele><time>2026-04-19T07:23:16.001Z</time></trkpt><trkpt lat="43.45250645108884" lon="13.588933301235084"><ele>13.2</ele><time>2026-04-19T07:23:17.001Z</time></trkpt><trkpt lat="43.4524594013707" lon="13.588824506202009"><ele>13.6</ele><time>2026-04-19T07:23:18.001Z</time></trkpt><trkpt lat="43.45242065854854" lon="13.588717350251633"><ele>14.0</ele><time>2026-04-19T07:23:19.001Z</time></trkpt><trkpt lat="43.45238927493276" lon="13.588600734990319"><ele>14.000000000000002</ele><time>2026-04-19T07:23:20.001Z</time></trkpt><trkpt lat="43.45237655128057" lon="13.588479692729932"><ele>14.0</ele><time>2026-04-19T07:23:21.001Z</time></trkpt><trkpt lat="43.45236219542434" lon="13.588358317467936"><ele>14.0</ele><time>2026-04-19T07:23:22.001Z</time></trkpt><trkpt lat="43.45232926549617" lon="13.588254117664496"><ele>14.0</ele><time>2026-04-19T07:23:23.001Z</time></trkpt><trkpt lat="43.45227158265843" lon="13.588168228142946"><ele>14.000000000000002</ele><time>2026-04-19T07:23:24.001Z</time></trkpt><trkpt lat="43.45219291167845" lon="13.588097626951544"><ele>14.0</ele><time>2026-04-19T07:23:25.001Z</time></trkpt><trkpt lat="43.45211754524464" lon="13.58801683524619"><ele>13.799999999999999</ele><time>2026-04-19T07:23:26.001Z</time></trkpt><trkpt lat="43.45205363813483" lon="13.587913041512579"><ele>13.599999999999998</ele><time>2026-04-19T07:23:27.001Z</time></trkpt><trkpt lat="43.45199847376677" lon="13.587796830475412"><ele>13.4</ele><time>2026-04-19T07:23:28.002Z</time></trkpt><trkpt lat="43.45194840394095" lon="13.587661604392718"><ele>13.2</ele><time>2026-04-19T07:23:29.002Z</time></trkpt><trkpt lat="43.45189525006572" lon="13.587519854787278"><ele>13.0</ele><time>2026-04-19T07:23:30.002Z</time></trkpt><trkpt lat="43.45185064025289" lon="13.58736925824383"><ele>13.5</ele><time>2026-04-19T07:23:31.002Z</time></trkpt><trkpt lat="43.45181589416732" lon="13.587202593850654"><ele>14.0</ele><time>2026-04-19T07:23:32.002Z</time></trkpt><trkpt lat="43.45179912176887" lon="13.587022725481264"><ele>14.5</ele><time>2026-04-19T07:23:33.002Z</time></trkpt><trkpt lat="43.45180226992153" lon="13.586840569271594"><ele>15.0</ele><time>2026-04-19T07:23:34.002Z</time></trkpt><trkpt lat="43.451825460083505" lon="13.586656182746129"><ele>15.0</ele><time>2026-04-19T07:23:35.002Z</time></trkpt><trkpt lat="43.45185222362116" lon="13.586466482650499"><ele>15.0</ele><time>2026-04-19T07:23:36.002Z</time></trkpt><trkpt lat="43.45187605529748" lon="13.586274106209114"><ele>15.0</ele><time>2026-04-19T07:23:37.002Z</time></trkpt><trkpt lat="43.451900390507376" lon="13.586077675732913"><ele>15.0</ele><time>2026-04-19T07:23:38.002Z</time></trkpt><trkpt lat="43.45192642162665" lon="13.58587485111203"><ele>15.0</ele><time>2026-04-19T07:23:39.002Z</time></trkpt><trkpt lat="43.45195533362627" lon="13.585661443711661"><ele>15.0</ele><time>2026-04-19T07:23:40.002Z</time></trkpt><trkpt lat="43.45198177989551" lon="13.585442186431122"><ele>15.0</ele><time>2026-04-19T07:23:41.002Z</time></trkpt><trkpt lat="43.452006535601846" lon="13.585231615307405"><ele>15.0</ele><time>2026-04-19T07:23:42.002Z</time></trkpt><trkpt lat="43.45203191638063" lon="13.585014427953526"><ele>15.0</ele><time>2026-04-19T07:23:43Z</time></trkpt><trkpt lat="43.45205811455798" lon="13.584791204057636"><ele>15.0</ele><time>2026-04-19T07:23:44Z</time></trkpt><trkpt lat="43.45208811761685" lon="13.584565544606267"><ele>15.0</ele><time>2026-04-19T07:23:45Z</time></trkpt><trkpt lat="43.452118112806225" lon="13.584334258230522"><ele>15.0</ele><time>2026-04-19T07:23:46Z</time></trkpt><trkpt lat="43.45215235473295" lon="13.584106084070328"><ele>15.0</ele><time>2026-04-19T07:23:47Z</time></trkpt><trkpt lat="43.452181210598916" lon="13.583881332616267"><ele>14.666666666666668</ele><time>2026-04-19T07:23:48Z</time></trkpt><trkpt lat="43.452211792905715" lon="13.583658102691489"><ele>14.333333333333334</ele><time>2026-04-19T07:23:49Z</time></trkpt><trkpt lat="43.45223928803983" lon="13.583441307214908"><ele>14.0</ele><time>2026-04-19T07:23:50Z</time></trkpt><trkpt lat="43.45226513271645" lon="13.583222159906244"><ele>14.0</ele><time>2026-04-19T07:23:51Z</time></trkpt><trkpt lat="43.452292545768124" lon="13.583003969257737"><ele>14.0</ele><time>2026-04-19T07:23:52Z</time></trkpt><trkpt lat="43.45231736069842" lon="13.582802803420506"><ele>14.0</ele><time>2026-04-19T07:23:53Z</time></trkpt><trkpt lat="43.452344415633064" lon="13.58261827835844"><ele>14.0</ele><time>2026-04-19T07:23:54Z</time></trkpt><trkpt lat="43.45237011015102" lon="13.582440182117077"><ele>14.0</ele><time>2026-04-19T07:23:55Z</time></trkpt><trkpt lat="43.452392765012085" lon="13.582268867287034"><ele>14.0</ele><time>2026-04-19T07:23:56Z</time></trkpt><trkpt lat="43.45241175538509" lon="13.58210071834983"><ele>14.0</ele><time>2026-04-19T07:23:57Z</time></trkpt><trkpt lat="43.4524378696936" lon="13.581941704371706"><ele>14.0</ele><time>2026-04-19T07:23:58Z</time></trkpt><trkpt lat="43.4524647265763" lon="13.581800121832657"><ele>14.0</ele><time>2026-04-19T07:23:59Z</time></trkpt><trkpt lat="43.452497008182185" lon="13.581662157343795"><ele>13.999999999999998</ele><time>2026-04-19T07:24:00Z</time></trkpt><trkpt lat="43.452545884782104" lon="13.58154534049107"><ele>13.999999999999998</ele><time>2026-04-19T07:24:01Z</time></trkpt><trkpt lat="43.45261973648886" lon="13.581462067321121"><ele>14.0</ele><time>2026-04-19T07:24:02Z</time></trkpt><trkpt lat="43.45270695157832" lon="13.581389740085658"><ele>14.0</ele><time>2026-04-19T07:24:03Z</time></trkpt><trkpt lat="43.45279016952868" lon="13.58130642986811"><ele>14.0</ele><time>2026-04-19T07:24:04Z</time></trkpt><trkpt lat="43.45284861765756" lon="13.581189916341215"><ele>14.0</ele><time>2026-04-19T07:24:05Z</time></trkpt><trkpt lat="43.45289535401575" lon="13.580926087047978"><ele>14.0</ele><time>2026-04-19T07:24:07Z</time></trkpt><trkpt lat="43.452834818954194" lon="13.580789158220556"><ele>14.0</ele><time>2026-04-19T07:24:08Z</time></trkpt><trkpt lat="43.45276817915023" lon="13.580677684787583"><ele>14.399999999999999</ele><time>2026-04-19T07:24:09Z</time></trkpt><trkpt lat="43.45270797962948" lon="13.580570326437481"><ele>14.799999999999999</ele><time>2026-04-19T07:24:10Z</time></trkpt><trkpt lat="43.45267843965617" lon="13.580443901559887"><ele>15.200000000000001</ele><time>2026-04-19T07:24:11Z</time></trkpt><trkpt lat="43.452672713918275" lon="13.580301097750018"><ele>15.600000000000001</ele><time>2026-04-19T07:24:12Z</time></trkpt><trkpt lat="43.45268314908049" lon="13.580150206746827"><ele>16.0</ele><time>2026-04-19T07:24:13Z</time></trkpt><trkpt lat="43.452706057157656" lon="13.579997582614887"><ele>16.75</ele><time>2026-04-19T07:24:14Z</time></trkpt><trkpt lat="43.45272948232984" lon="13.57984449676216"><ele>17.5</ele><time>2026-04-19T07:24:15Z</time></trkpt><trkpt lat="43.45274999396601" lon="13.579686591845057"><ele>18.25</ele><time>2026-04-19T07:24:16Z</time></trkpt><trkpt lat="43.45277088155363" lon="13.579523600820732"><ele>19.0</ele><time>2026-04-19T07:24:17Z</time></trkpt><trkpt lat="43.4527930028295" lon="13.579349974929446"><ele>19.5</ele><time>2026-04-19T07:24:18Z</time></trkpt><trkpt lat="43.45281930495288" lon="13.57917444897097"><ele>20.0</ele><time>2026-04-19T07:24:19Z</time></trkpt><trkpt lat="43.45284251388915" lon="13.579008442748675"><ele>20.5</ele><time>2026-04-19T07:24:20.001Z</time></trkpt><trkpt lat="43.45286467157148" lon="13.578822504366492"><ele>21.0</ele><time>2026-04-19T07:24:21.001Z</time></trkpt><trkpt lat="43.45289182711089" lon="13.578634451398742"><ele>22.0</ele><time>2026-04-19T07:24:22.001Z</time></trkpt><trkpt lat="43.45291991120678" lon="13.578451119118156"><ele>23.0</ele><time>2026-04-19T07:24:23.001Z</time></trkpt><trkpt lat="43.452945429069345" lon="13.578270323796346"><ele>24.0</ele><time>2026-04-19T07:24:24.001Z</time></trkpt><trkpt lat="43.45297551228569" lon="13.578086573341993"><ele>25.0</ele><time>2026-04-19T07:24:25.001Z</time></trkpt><trkpt lat="43.4530096012725" lon="13.577907938686682"><ele>28.0</ele><time>2026-04-19T07:24:26.001Z</time></trkpt><trkpt lat="43.45305277952055" lon="13.577723388484353"><ele>31.0</ele><time>2026-04-19T07:24:27.001Z</time></trkpt><trkpt lat="43.45309650612395" lon="13.577545002038066"><ele>34.0</ele><time>2026-04-19T07:24:28.001Z</time></trkpt><trkpt lat="43.453143929099305" lon="13.577369874756526"><ele>37.0</ele><time>2026-04-19T07:24:29.001Z</time></trkpt><trkpt lat="43.45319131775653" lon="13.57719482217114"><ele>37.5</ele><time>2026-04-19T07:24:30.001Z</time></trkpt><trkpt lat="43.45324056652603" lon="13.577015483101354"><ele>38.0</ele><time>2026-04-19T07:24:31.001Z</time></trkpt><trkpt lat="43.45329227380605" lon="13.576842036361048"><ele>38.5</ele><time>2026-04-19T07:24:32.001Z</time></trkpt><trkpt lat="43.45334246243049" lon="13.576655072395425"><ele>39.0</ele><time>2026-04-19T07:24:33.001Z</time></trkpt><trkpt lat="43.45339507399103" lon="13.576473568129964"><ele>39.0</ele><time>2026-04-19T07:24:34.001Z</time></trkpt><trkpt lat="43.45344901397551" lon="13.576293307427743"><ele>39.0</ele><time>2026-04-19T07:24:35.001Z</time></trkpt><trkpt lat="43.45350364291494" lon="13.576110197319167"><ele>39.0</ele><time>2026-04-19T07:24:36.001Z</time></trkpt><trkpt lat="43.45355923167645" lon="13.57592418752712"><ele>39.0</ele><time>2026-04-19T07:24:37.001Z</time></trkpt><trkpt lat="43.45361072469442" lon="13.575738579178777"><ele>39.75</ele><time>2026-04-19T07:24:38.001Z</time></trkpt><trkpt lat="43.45366346356329" lon="13.57554968802864"><ele>40.5</ele><time>2026-04-19T07:24:39.001Z</time></trkpt><trkpt lat="43.45371669506908" lon="13.575360161970263"><ele>41.25</ele><time>2026-04-19T07:24:40.001Z</time></trkpt><trkpt lat="43.453769882345036" lon="13.575174563700381"><ele>42.0</ele><time>2026-04-19T07:24:41.001Z</time></trkpt><trkpt lat="43.45382038114296" lon="13.574979366720475"><ele>45.0</ele><time>2026-04-19T07:24:42.001Z</time></trkpt><trkpt lat="43.45387463087085" lon="13.574793269465385"><ele>48.0</ele><time>2026-04-19T07:24:43.001Z</time></trkpt><trkpt lat="43.45392791530764" lon="13.574607885416402"><ele>51.0</ele><time>2026-04-19T07:24:44.001Z</time></trkpt><trkpt lat="43.453977840704184" lon="13.574417580162278"><ele>54.0</ele><time>2026-04-19T07:24:45.001Z</time></trkpt><trkpt lat="43.45403487030854" lon="13.574240488852503"><ele>55.25</ele><time>2026-04-19T07:24:46.001Z</time></trkpt><trkpt lat="43.454079374691965" lon="13.574054044448973"><ele>56.5</ele><time>2026-04-19T07:24:47.001Z</time></trkpt><trkpt lat="43.45412971651226" lon="13.573867885390978"><ele>57.75</ele><time>2026-04-19T07:24:48.001Z</time></trkpt><trkpt lat="43.45418129271734" lon="13.573680778829296"><ele>59.0</ele><time>2026-04-19T07:24:49.001Z</time></trkpt><trkpt lat="43.4542345795227" lon="13.573494543611826"><ele>60.0</ele><time>2026-04-19T07:24:50.001Z</time></trkpt><trkpt lat="43.45429269054396" lon="13.573307173807741"><ele>61.0</ele><time>2026-04-19T07:24:51.001Z</time></trkpt><trkpt lat="43.454352047023235" lon="13.573107932515336"><ele>62.0</ele><time>2026-04-19T07:24:52.001Z</time></trkpt><trkpt lat="43.454405708170356" lon="13.57291045604925"><ele>63.66666666666667</ele><time>2026-04-19T07:24:53.001Z</time></trkpt><trkpt lat="43.45446707900722" lon="13.572706714307056"><ele>65.33333333333333</ele><time>2026-04-19T07:24:54.001Z</time></trkpt><trkpt lat="43.45452169934511" lon="13.572488849655855"><ele>67.0</ele><time>2026-04-19T07:24:55.001Z</time></trkpt><trkpt lat="43.454580845359715" lon="13.572271591896738"><ele>67.0</ele><time>2026-04-19T07:24:56.001Z</time></trkpt><trkpt lat="43.4546397482575" lon="13.572048488299902"><ele>67.0</ele><time>2026-04-19T07:24:57.001Z</time></trkpt><trkpt lat="43.45469107580392" lon="13.571842090273512"><ele>67.0</ele><time>2026-04-19T07:24:58.001Z</time></trkpt><trkpt lat="43.454749590868886" lon="13.571634124105186"><ele>68.66666666666666</ele><time>2026-04-19T07:24:59.001Z</time></trkpt><trkpt lat="43.454808706938714" lon="13.571434343110338"><ele>70.33333333333333</ele><time>2026-04-19T07:25:00.001Z</time></trkpt><trkpt lat="43.45486811973672" lon="13.57122376732388"><ele>72.0</ele><time>2026-04-19T07:25:01.001Z</time></trkpt><trkpt lat="43.45492756343028" lon="13.571012319113873"><ele>74.33333333333333</ele><time>2026-04-19T07:25:02.001Z</time></trkpt><trkpt lat="43.45498802993875" lon="13.570802896964093"><ele>76.66666666666666</ele><time>2026-04-19T07:25:03.001Z</time></trkpt><trkpt lat="43.455053781976616" lon="13.570603212232342"><ele>79.0</ele><time>2026-04-19T07:25:04.001Z</time></trkpt><trkpt lat="43.45512293742604" lon="13.570396347075588"><ele>79.66666666666666</ele><time>2026-04-19T07:25:05.001Z</time></trkpt><trkpt lat="43.45519746115418" lon="13.570197747415452"><ele>80.33333333333333</ele><time>2026-04-19T07:25:06.001Z</time></trkpt><trkpt lat="43.45527913637384" lon="13.569987137913788"><ele>81.0</ele><time>2026-04-19T07:25:07.001Z</time></trkpt><trkpt lat="43.455360024489366" lon="13.569771702893206"><ele>81.0</ele><time>2026-04-19T07:25:08.001Z</time></trkpt><trkpt lat="43.45543708402386" lon="13.569560747228778"><ele>81.0</ele><time>2026-04-19T07:25:09.001Z</time></trkpt><trkpt lat="43.455514610215936" lon="13.56933857651355"><ele>81.0</ele><time>2026-04-19T07:25:10.001Z</time></trkpt><trkpt lat="43.45559080328322" lon="13.569126453927986"><ele>83.0</ele><time>2026-04-19T07:25:11.001Z</time></trkpt><trkpt lat="43.455671618329724" lon="13.568918984216705"><ele>85.0</ele><time>2026-04-19T07:25:12.002Z</time></trkpt><trkpt lat="43.455751429878816" lon="13.568716084849278"><ele>87.0</ele><time>2026-04-19T07:25:13.002Z</time></trkpt><trkpt lat="43.4558277198656" lon="13.56851003511337"><ele>88.33333333333333</ele><time>2026-04-19T07:25:14.002Z</time></trkpt><trkpt lat="43.45589793391767" lon="13.568287521459178"><ele>89.66666666666666</ele><time>2026-04-19T07:25:15.002Z</time></trkpt><trkpt lat="43.45597060768367" lon="13.568063843114217"><ele>91.0</ele><time>2026-04-19T07:25:16.002Z</time></trkpt><trkpt lat="43.45604538225159" lon="13.567840741702039"><ele>91.66666666666666</ele><time>2026-04-19T07:25:17.002Z</time></trkpt><trkpt lat="43.45611678218909" lon="13.567617352993976"><ele>92.33333333333333</ele><time>2026-04-19T07:25:18.002Z</time></trkpt><trkpt lat="43.45617345552705" lon="13.567383989261824"><ele>93.0</ele><time>2026-04-19T07:25:19.002Z</time></trkpt><trkpt lat="43.456207924596214" lon="13.567126395751139"><ele>94.0</ele><time>2026-04-19T07:25:20.002Z</time></trkpt><trkpt lat="43.45622740784595" lon="13.56687442589457"><ele>95.0</ele><time>2026-04-19T07:25:21.002Z</time></trkpt><trkpt lat="43.45623671656959" lon="13.566623315371032"><ele>96.0</ele><time>2026-04-19T07:25:22.002Z</time></trkpt><trkpt lat="43.45625219949246" lon="13.566373156535288"><ele>96.33333333333334</ele><time>2026-04-19T07:25:23.002Z</time></trkpt><trkpt lat="43.4562674899074" lon="13.566133728604118"><ele>96.66666666666667</ele><time>2026-04-19T07:25:24.002Z</time></trkpt><trkpt lat="43.45629036254365" lon="13.565903639999078"><ele>97.0</ele><time>2026-04-19T07:25:25.002Z</time></trkpt><trkpt lat="43.456317920219455" lon="13.565680421178437"><ele>98.0</ele><time>2026-04-19T07:25:26.002Z</time></trkpt><trkpt lat="43.45634146551386" lon="13.565464682751143"><ele>99.0</ele><time>2026-04-19T07:25:27.002Z</time></trkpt><trkpt lat="43.45636745284605" lon="13.565243277494837"><ele>100.0</ele><time>2026-04-19T07:25:28.002Z</time></trkpt><trkpt lat="43.45638959229208" lon="13.56503029643417"><ele>101.0</ele><time>2026-04-19T07:25:29.002Z</time></trkpt><trkpt lat="43.45641739731692" lon="13.564813940452293"><ele>102.0</ele><time>2026-04-19T07:25:30.002Z</time></trkpt><trkpt lat="43.45644568614331" lon="13.564589114915064"><ele>103.0</ele><time>2026-04-19T07:25:31.002Z</time></trkpt><trkpt lat="43.45648013369482" lon="13.564364823412886"><ele>103.0</ele><time>2026-04-19T07:25:32.002Z</time></trkpt><trkpt lat="43.456519824001546" lon="13.56413491033361"><ele>103.0</ele><time>2026-04-19T07:25:33.002Z</time></trkpt><trkpt lat="43.45656075425236" lon="13.563897469501883"><ele>103.0</ele><time>2026-04-19T07:25:34.002Z</time></trkpt><trkpt lat="43.45661218332096" lon="13.563664832749492"><ele>103.0</ele><time>2026-04-19T07:25:35.002Z</time></trkpt><trkpt lat="43.456664879838684" lon="13.56342858217081"><ele>103.0</ele><time>2026-04-19T07:25:36.002Z</time></trkpt><trkpt lat="43.45671882049846" lon="13.563196399974872"><ele>103.0</ele><time>2026-04-19T07:25:37.002Z</time></trkpt><trkpt lat="43.456772544121094" lon="13.562965158591481"><ele>101.33333333333334</ele><time>2026-04-19T07:25:38.002Z</time></trkpt><trkpt lat="43.45682496450044" lon="13.562738649617279"><ele>99.66666666666666</ele><time>2026-04-19T07:25:39.002Z</time></trkpt><trkpt lat="43.45687819441149" lon="13.562513283191853"><ele>98.0</ele><time>2026-04-19T07:25:40.002Z</time></trkpt><trkpt lat="43.456929314369134" lon="13.562293021569648"><ele>98.0</ele><time>2026-04-19T07:25:41.002Z</time></trkpt><trkpt lat="43.45698070656725" lon="13.562077263362054"><ele>98.0</ele><time>2026-04-19T07:25:42.002Z</time></trkpt><trkpt lat="43.45703219519377" lon="13.561860650936227"><ele>98.0</ele><time>2026-04-19T07:25:43.002Z</time></trkpt><trkpt lat="43.45708138310586" lon="13.561648193604354"><ele>97.66666666666666</ele><time>2026-04-19T07:25:44.002Z</time></trkpt><trkpt lat="43.457130563226606" lon="13.561436341949413"><ele>97.33333333333334</ele><time>2026-04-19T07:25:45.002Z</time></trkpt><trkpt lat="43.45718029647454" lon="13.561227480711835"><ele>97.0</ele><time>2026-04-19T07:25:46.002Z</time></trkpt><trkpt lat="43.45722829666177" lon="13.561022308428099"><ele>97.5</ele><time>2026-04-19T07:25:47.002Z</time></trkpt><trkpt lat="43.45728394519046" lon="13.560818997697593"><ele>98.0</ele><time>2026-04-19T07:25:48.002Z</time></trkpt><trkpt lat="43.457335113988066" lon="13.56064221736847"><ele>98.5</ele><time>2026-04-19T07:25:49.001Z</time></trkpt><trkpt lat="43.457397594528956" lon="13.560450279026085"><ele>99.0</ele><time>2026-04-19T07:25:50.001Z</time></trkpt><trkpt lat="43.45747467944456" lon="13.560275743077797"><ele>99.33333333333334</ele><time>2026-04-19T07:25:51.001Z</time></trkpt><trkpt lat="43.45757300544637" lon="13.560116033681446"><ele>99.66666666666667</ele><time>2026-04-19T07:25:52.001Z</time></trkpt><trkpt lat="43.45767999017345" lon="13.559959715571507"><ele>100.0</ele><time>2026-04-19T07:25:53.001Z</time></trkpt><trkpt lat="43.45778749183582" lon="13.559809675767827"><ele>100.0</ele><time>2026-04-19T07:25:54.001Z</time></trkpt><trkpt lat="43.45789533812692" lon="13.559665653665954"><ele>100.0</ele><time>2026-04-19T07:25:55.001Z</time></trkpt><trkpt lat="43.45800141789586" lon="13.559513595906752"><ele>100.0</ele><time>2026-04-19T07:25:56.001Z</time></trkpt><trkpt lat="43.458112981561165" lon="13.559363893080391"><ele>100.0</ele><time>2026-04-19T07:25:57.001Z</time></trkpt><trkpt lat="43.45819915379147" lon="13.559232388090736"><ele>100.0</ele><time>2026-04-19T07:25:58.001Z</time></trkpt><trkpt lat="43.45828705087259" lon="13.559109936492693"><ele>100.0</ele><time>2026-04-19T07:25:59Z</time></trkpt><trkpt lat="43.45837147866119" lon="13.558985908001766"><ele>100.0</ele><time>2026-04-19T07:26:00.001Z</time></trkpt><trkpt lat="43.458455014773484" lon="13.558865499314452"><ele>100.0</ele><time>2026-04-19T07:26:01Z</time></trkpt><trkpt lat="43.45853747398964" lon="13.558741040888231"><ele>100.0</ele><time>2026-04-19T07:26:02Z</time></trkpt><trkpt lat="43.458620039390006" lon="13.558620521240147"><ele>100.0</ele><time>2026-04-19T07:26:03Z</time></trkpt><trkpt lat="43.45870316835191" lon="13.558494736999991"><ele>100.0</ele><time>2026-04-19T07:26:04Z</time></trkpt><trkpt lat="43.4587889631475" lon="13.558366082804467"><ele>100.0</ele><time>2026-04-19T07:26:05Z</time></trkpt><trkpt lat="43.45887149519214" lon="13.55823606365892"><ele>100.0</ele><time>2026-04-19T07:26:06Z</time></trkpt><trkpt lat="43.45896347888995" lon="13.558108188341748"><ele>100.0</ele><time>2026-04-19T07:26:07.001Z</time></trkpt><trkpt lat="43.45905974326812" lon="13.557972129821728"><ele>100.0</ele><time>2026-04-19T07:26:08.001Z</time></trkpt><trkpt lat="43.45915911875425" lon="13.557841740982838"><ele>101.25</ele><time>2026-04-19T07:26:09.001Z</time></trkpt><trkpt lat="43.45926220261679" lon="13.557718082598154"><ele>102.5</ele><time>2026-04-19T07:26:10.001Z</time></trkpt><trkpt lat="43.4593651571562" lon="13.557580267335855"><ele>103.75</ele><time>2026-04-19T07:26:11.001Z</time></trkpt><trkpt lat="43.45946235023748" lon="13.557448399743395"><ele>105.0</ele><time>2026-04-19T07:26:12.001Z</time></trkpt><trkpt lat="43.459559111108504" lon="13.557305982498086"><ele>106.0</ele><time>2026-04-19T07:26:13.001Z</time></trkpt><trkpt lat="43.459649178603755" lon="13.557154631724488"><ele>107.0</ele><time>2026-04-19T07:26:14.001Z</time></trkpt><trkpt lat="43.45973730429688" lon="13.556995990765047"><ele>108.0</ele><time>2026-04-19T07:26:15.001Z</time></trkpt><trkpt lat="43.459814373880434" lon="13.556828982580596"><ele>109.0</ele><time>2026-04-19T07:26:16.001Z</time></trkpt><trkpt lat="43.45988311292415" lon="13.556653097487473"><ele>109.0</ele><time>2026-04-19T07:26:17.001Z</time></trkpt><trkpt lat="43.45995302778647" lon="13.55647631982267"><ele>109.0</ele><time>2026-04-19T07:26:18.001Z</time></trkpt><trkpt lat="43.46000459164403" lon="13.556292531469735"><ele>109.0</ele><time>2026-04-19T07:26:19.001Z</time></trkpt><trkpt lat="43.460055275992296" lon="13.556112981238227"><ele>109.0</ele><time>2026-04-19T07:26:20.001Z</time></trkpt><trkpt lat="43.46010587007232" lon="13.555933574253425"><ele>112.25</ele><time>2026-04-19T07:26:21.001Z</time></trkpt><trkpt lat="43.46015422102327" lon="13.555750583193927"><ele>115.5</ele><time>2026-04-19T07:26:22.001Z</time></trkpt><trkpt lat="43.46019736506915" lon="13.555569306159528"><ele>118.75</ele><time>2026-04-19T07:26:23.001Z</time></trkpt><trkpt lat="43.46024631493426" lon="13.55539354009454"><ele>122.0</ele><time>2026-04-19T07:26:24.001Z</time></trkpt><trkpt lat="43.460296839521" lon="13.555214423722347"><ele>124.5</ele><time>2026-04-19T07:26:25.001Z</time></trkpt><trkpt lat="43.46034371401463" lon="13.555034096847967"><ele>127.0</ele><time>2026-04-19T07:26:26.001Z</time></trkpt><trkpt lat="43.46039511822464" lon="13.554850491060046"><ele>129.5</ele><time>2026-04-19T07:26:27.001Z</time></trkpt><trkpt lat="43.46044670764385" lon="13.55467426725695"><ele>132.0</ele><time>2026-04-19T07:26:28.001Z</time></trkpt><trkpt lat="43.46049955027192" lon="13.554492280618412"><ele>133.75</ele><time>2026-04-19T07:26:29.001Z</time></trkpt><trkpt lat="43.46055931628509" lon="13.554316497679494"><ele>135.5</ele><time>2026-04-19T07:26:30.001Z</time></trkpt><trkpt lat="43.46062743553698" lon="13.554150564436172"><ele>137.25</ele><time>2026-04-19T07:26:31.001Z</time></trkpt><trkpt lat="43.46068996667235" lon="13.553986060670956"><ele>139.0</ele><time>2026-04-19T07:26:32.001Z</time></trkpt><trkpt lat="43.460740894966406" lon="13.553819952072908"><ele>142.0</ele><time>2026-04-19T07:26:33.001Z</time></trkpt><trkpt lat="43.46078289993374" lon="13.55364293369497"><ele>145.0</ele><time>2026-04-19T07:26:34.001Z</time></trkpt><trkpt lat="43.460803970707936" lon="13.553460891840007"><ele>148.0</ele><time>2026-04-19T07:26:35.001Z</time></trkpt><trkpt lat="43.46082551331316" lon="13.553295632763867"><ele>151.0</ele><time>2026-04-19T07:26:36.001Z</time></trkpt><trkpt lat="43.460845834005966" lon="13.553144022287528"><ele>151.0</ele><time>2026-04-19T07:26:37.001Z</time></trkpt><trkpt lat="43.46086880650237" lon="13.553002031453163"><ele>151.0</ele><time>2026-04-19T07:26:38.001Z</time></trkpt><trkpt lat="43.46090044776517" lon="13.552860045697399"><ele>151.0</ele><time>2026-04-19T07:26:39.001Z</time></trkpt><trkpt lat="43.460919763554365" lon="13.552735340308658"><ele>151.0</ele><time>2026-04-19T07:26:40.001Z</time></trkpt><trkpt lat="43.46094530527744" lon="13.552635152290817"><ele>151.0</ele><time>2026-04-19T07:26:41.001Z</time></trkpt><trkpt lat="43.46097754290723" lon="13.552530737063533"><ele>151.4</ele><time>2026-04-19T07:26:42.001Z</time></trkpt><trkpt lat="43.461039555075054" lon="13.552411423735142"><ele>151.8</ele><time>2026-04-19T07:26:44.001Z</time></trkpt><trkpt lat="43.46111044073739" lon="13.552313355927918"><ele>152.20000000000002</ele><time>2026-04-19T07:26:46.001Z</time></trkpt><trkpt lat="43.46116282077076" lon="13.552219907167405"><ele>152.6</ele><time>2026-04-19T07:26:47.001Z</time></trkpt><trkpt lat="43.4612486685512" lon="13.552172610135829"><ele>153.0</ele><time>2026-04-19T07:26:48.001Z</time></trkpt><trkpt lat="43.46134109866041" lon="13.552123646294456"><ele>154.0</ele><time>2026-04-19T07:26:49.001Z</time></trkpt><trkpt lat="43.461440628593586" lon="13.552091000132624"><ele>155.0</ele><time>2026-04-19T07:26:50.001Z</time></trkpt><trkpt lat="43.46154159314125" lon="13.552064127690738"><ele>156.0</ele><time>2026-04-19T07:26:51.001Z</time></trkpt><trkpt lat="43.46163316112221" lon="13.552042839338728"><ele>157.0</ele><time>2026-04-19T07:26:52.001Z</time></trkpt><trkpt lat="43.46172976375181" lon="13.552023849386321"><ele>158.0</ele><time>2026-04-19T07:26:53.001Z</time></trkpt><trkpt lat="43.46183387173811" lon="13.551997164705865"><ele>158.0</ele><time>2026-04-19T07:26:54.001Z</time></trkpt><trkpt lat="43.4619350372621" lon="13.55197369958312"><ele>158.0</ele><time>2026-04-19T07:26:55.001Z</time></trkpt><trkpt lat="43.46202451652323" lon="13.551924143804458"><ele>158.0</ele><time>2026-04-19T07:26:56.001Z</time></trkpt><trkpt lat="43.46210867175373" lon="13.551860229496494"><ele>158.0</ele><time>2026-04-19T07:26:57.001Z</time></trkpt><trkpt lat="43.462196801269506" lon="13.551773419027267"><ele>158.0</ele><time>2026-04-19T07:26:58.001Z</time></trkpt><trkpt lat="43.4622704013249" lon="13.551681547450748"><ele>161.8</ele><time>2026-04-19T07:26:59.001Z</time></trkpt><trkpt lat="43.46233232659939" lon="13.551571005973704"><ele>165.60000000000002</ele><time>2026-04-19T07:27:00.001Z</time></trkpt><trkpt lat="43.46236066032653" lon="13.55144469243868"><ele>169.39999999999998</ele><time>2026-04-19T07:27:01.001Z</time></trkpt><trkpt lat="43.462354038126996" lon="13.551321237425299"><ele>173.2</ele><time>2026-04-19T07:27:02.001Z</time></trkpt><trkpt lat="43.462328409630096" lon="13.55120199634293"><ele>177.0</ele><time>2026-04-19T07:27:03.001Z</time></trkpt><trkpt lat="43.46228197147101" lon="13.551074170580032"><ele>178.0</ele><time>2026-04-19T07:27:04.001Z</time></trkpt><trkpt lat="43.4622586916625" lon="13.55096243119223"><ele>179.0</ele><time>2026-04-19T07:27:05.001Z</time></trkpt><trkpt lat="43.46224794749216" lon="13.55085941619752"><ele>180.0</ele><time>2026-04-19T07:27:06.001Z</time></trkpt><trkpt lat="43.46224305542023" lon="13.550760711288317"><ele>181.0</ele><time>2026-04-19T07:27:07.001Z</time></trkpt><trkpt lat="43.46223236719651" lon="13.550655619967818"><ele>182.0</ele><time>2026-04-19T07:27:08.001Z</time></trkpt><trkpt lat="43.4622186976371" lon="13.550553665829929"><ele>183.0</ele><time>2026-04-19T07:27:09.001Z</time></trkpt><trkpt lat="43.46222389046046" lon="13.550461617545805"><ele>183.8</ele><time>2026-04-19T07:27:10.001Z</time></trkpt><trkpt lat="43.46225904505927" lon="13.550349222143153"><ele>184.60000000000002</ele><time>2026-04-19T07:27:12.002Z</time></trkpt><trkpt lat="43.462259584367295" lon="13.550254732095414"><ele>185.39999999999998</ele><time>2026-04-19T07:27:14.002Z</time></trkpt><trkpt lat="43.46213863882917" lon="13.550165356616708"><ele>186.2</ele><time>2026-04-19T07:27:15.002Z</time></trkpt><trkpt lat="43.46207322601771" lon="13.550094866158851"><ele>187.0</ele><time>2026-04-19T07:27:16.002Z</time></trkpt><trkpt lat="43.461998420765674" lon="13.550007591892287"><ele>183.2</ele><time>2026-04-19T07:27:17.002Z</time></trkpt><trkpt lat="43.461916198612016" lon="13.549906465821072"><ele>179.39999999999998</ele><time>2026-04-19T07:27:18.002Z</time></trkpt><trkpt lat="43.461850285899445" lon="13.549804195194998"><ele>175.60000000000002</ele><time>2026-04-19T07:27:19.002Z</time></trkpt><trkpt lat="43.46179901019972" lon="13.549700059327465"><ele>171.8</ele><time>2026-04-19T07:27:20.002Z</time></trkpt><trkpt lat="43.46177490980267" lon="13.54957971938911"><ele>168.0</ele><time>2026-04-19T07:27:21.002Z</time></trkpt><trkpt lat="43.4617750723686" lon="13.549446025109587"><ele>167.75</ele><time>2026-04-19T07:27:22.002Z</time></trkpt><trkpt lat="43.46181448630868" lon="13.549309350819568"><ele>167.5</ele><time>2026-04-19T07:27:23.002Z</time></trkpt><trkpt lat="43.46183393307505" lon="13.549155672500099"><ele>167.25</ele><time>2026-04-19T07:27:24.002Z</time></trkpt><trkpt lat="43.46187570373922" lon="13.54900142330786"><ele>167.0</ele><time>2026-04-19T07:27:25.002Z</time></trkpt><trkpt lat="43.46191250352529" lon="13.548853904107276"><ele>165.8</ele><time>2026-04-19T07:27:26.002Z</time></trkpt><trkpt lat="43.46194409444379" lon="13.548699864620179"><ele>164.6</ele><time>2026-04-19T07:27:27.002Z</time></trkpt><trkpt lat="43.46197737602728" lon="13.548550371979065"><ele>163.4</ele><time>2026-04-19T07:27:28.002Z</time></trkpt><trkpt lat="43.462013885870185" lon="13.54841179737686"><ele>162.20000000000002</ele><time>2026-04-19T07:27:29.002Z</time></trkpt><trkpt lat="43.462057762619494" lon="13.548278916787027"><ele>161.0</ele><time>2026-04-19T07:27:30.002Z</time></trkpt><trkpt lat="43.46210265848459" lon="13.548153734702609"><ele>161.8</ele><time>2026-04-19T07:27:31.002Z</time></trkpt><trkpt lat="43.4621670190792" lon="13.548034829045395"><ele>162.60000000000002</ele><time>2026-04-19T07:27:32.002Z</time></trkpt><trkpt lat="43.4622467769796" lon="13.547932442267426"><ele>163.4</ele><time>2026-04-19T07:27:33.002Z</time></trkpt><trkpt lat="43.46232959320052" lon="13.547827302171534"><ele>164.2</ele><time>2026-04-19T07:27:34.002Z</time></trkpt><trkpt lat="43.46242208921446" lon="13.547735497984537"><ele>165.0</ele><time>2026-04-19T07:27:35.002Z</time></trkpt><trkpt lat="43.462512309128265" lon="13.547655089791503"><ele>165.0</ele><time>2026-04-19T07:27:36.002Z</time></trkpt><trkpt lat="43.46259556545882" lon="13.547577049336654"><ele>165.0</ele><time>2026-04-19T07:27:37.002Z</time></trkpt><trkpt lat="43.46267599988077" lon="13.547506992909133"><ele>165.0</ele><time>2026-04-19T07:27:38.002Z</time></trkpt><trkpt lat="43.46274920965789" lon="13.547448984747861"><ele>165.0</ele><time>2026-04-19T07:27:39.002Z</time></trkpt><trkpt lat="43.46280856201444" lon="13.547395890490023"><ele>165.0</ele><time>2026-04-19T07:27:40.002Z</time></trkpt><trkpt lat="43.46290174922496" lon="13.547301807093906"><ele>164.66666666666666</ele><time>2026-04-19T07:27:42.002Z</time></trkpt><trkpt lat="43.46301486852418" lon="13.54722312740982"><ele>164.33333333333334</ele><time>2026-04-19T07:27:44.002Z</time></trkpt><trkpt lat="43.463069039020404" lon="13.54717233635504"><ele>164.0</ele><time>2026-04-19T07:27:45.002Z</time></trkpt><trkpt lat="43.46313143486038" lon="13.547110671648026"><ele>163.66666666666669</ele><time>2026-04-19T07:27:46.002Z</time></trkpt><trkpt lat="43.463195071824934" lon="13.547038853629576"><ele>163.33333333333334</ele><time>2026-04-19T07:27:47.002Z</time></trkpt><trkpt lat="43.46326791778942" lon="13.546966557467583"><ele>163.0</ele><time>2026-04-19T07:27:48.002Z</time></trkpt><trkpt lat="43.463352398507304" lon="13.546893840095406"><ele>163.0</ele><time>2026-04-19T07:27:49.002Z</time></trkpt><trkpt lat="43.46344036115508" lon="13.546822275705162"><ele>163.0</ele><time>2026-04-19T07:27:50.002Z</time></trkpt><trkpt lat="43.46352594820617" lon="13.546738168286527"><ele>163.0</ele><time>2026-04-19T07:27:51.002Z</time></trkpt><trkpt lat="43.46361024379152" lon="13.54664890617109"><ele>163.0</ele><time>2026-04-19T07:27:52.002Z</time></trkpt><trkpt lat="43.46367660859047" lon="13.5465455946435"><ele>163.0</ele><time>2026-04-19T07:27:53.002Z</time></trkpt><trkpt lat="43.46373322959503" lon="13.546428016812238"><ele>165.4</ele><time>2026-04-19T07:27:54.002Z</time></trkpt><trkpt lat="43.46378343398061" lon="13.546296285511632"><ele>167.8</ele><time>2026-04-19T07:27:55.001Z</time></trkpt><trkpt lat="43.46381825978954" lon="13.546159620916406"><ele>170.2</ele><time>2026-04-19T07:27:56.001Z</time></trkpt><trkpt lat="43.46384672094522" lon="13.546019149564517"><ele>172.6</ele><time>2026-04-19T07:27:57.001Z</time></trkpt><trkpt lat="43.46387354331816" lon="13.545873467494284"><ele>175.0</ele><time>2026-04-19T07:27:58.001Z</time></trkpt><trkpt lat="43.46390136731763" lon="13.545729758243313"><ele>175.0</ele><time>2026-04-19T07:27:59Z</time></trkpt><trkpt lat="43.46393743706993" lon="13.54558972796026"><ele>175.0</ele><time>2026-04-19T07:28:00.001Z</time></trkpt><trkpt lat="43.463964000716025" lon="13.545447485540105"><ele>175.0</ele><time>2026-04-19T07:28:01Z</time></trkpt><trkpt lat="43.46399452855827" lon="13.545306554921877"><ele>175.0</ele><time>2026-04-19T07:28:02Z</time></trkpt><trkpt lat="43.46402917565917" lon="13.545159020038046"><ele>175.0</ele><time>2026-04-19T07:28:03Z</time></trkpt><trkpt lat="43.464061349965824" lon="13.545012006634314"><ele>173.25</ele><time>2026-04-19T07:28:04Z</time></trkpt><trkpt lat="43.464091543417666" lon="13.544864383199826"><ele>171.5</ele><time>2026-04-19T07:28:05Z</time></trkpt><trkpt lat="43.46411469601089" lon="13.544712598279268"><ele>169.75</ele><time>2026-04-19T07:28:06Z</time></trkpt><trkpt lat="43.46413065489567" lon="13.544549314216763"><ele>168.0</ele><time>2026-04-19T07:28:07Z</time></trkpt><trkpt lat="43.46414152798905" lon="13.544398405900294"><ele>166.75</ele><time>2026-04-19T07:28:08Z</time></trkpt><trkpt lat="43.46414635082703" lon="13.54424247202916"><ele>165.5</ele><time>2026-04-19T07:28:09Z</time></trkpt><trkpt lat="43.46413933631266" lon="13.54407688700413"><ele>164.25</ele><time>2026-04-19T07:28:10Z</time></trkpt><trkpt lat="43.46413353121677" lon="13.54391491061871"><ele>163.0</ele><time>2026-04-19T07:28:11Z</time></trkpt><trkpt lat="43.46411837848203" lon="13.543749979654173"><ele>162.5</ele><time>2026-04-19T07:28:12Z</time></trkpt><trkpt lat="43.464120201305114" lon="13.543584863878591"><ele>162.0</ele><time>2026-04-19T07:28:13Z</time></trkpt><trkpt lat="43.46411849190581" lon="13.543423940303084"><ele>161.5</ele><time>2026-04-19T07:28:14Z</time></trkpt><trkpt lat="43.46411782704882" lon="13.543262156684872"><ele>161.0</ele><time>2026-04-19T07:28:15Z</time></trkpt><trkpt lat="43.46412136181369" lon="13.54309107857818"><ele>161.0</ele><time>2026-04-19T07:28:16Z</time></trkpt><trkpt lat="43.46412388464384" lon="13.542915095140108"><ele>161.0</ele><time>2026-04-19T07:28:17Z</time></trkpt><trkpt lat="43.464140676985956" lon="13.542746618783728"><ele>161.0</ele><time>2026-04-19T07:28:18Z</time></trkpt><trkpt lat="43.46416031251025" lon="13.542585507501279"><ele>161.0</ele><time>2026-04-19T07:28:19Z</time></trkpt><trkpt lat="43.46418787655783" lon="13.54243643582912"><ele>160.8</ele><time>2026-04-19T07:28:20.001Z</time></trkpt><trkpt lat="43.46420683206999" lon="13.542310187033008"><ele>160.60000000000002</ele><time>2026-04-19T07:28:21.001Z</time></trkpt><trkpt lat="43.46422292508904" lon="13.542197855645195"><ele>160.4</ele><time>2026-04-19T07:28:22.001Z</time></trkpt><trkpt lat="43.464235718433834" lon="13.54207492253762"><ele>160.2</ele><time>2026-04-19T07:28:23.001Z</time></trkpt><trkpt lat="43.46424284089588" lon="13.541949804495042"><ele>160.0</ele><time>2026-04-19T07:28:24.001Z</time></trkpt><trkpt lat="43.46425513536443" lon="13.541810945506244"><ele>159.5</ele><time>2026-04-19T07:28:25.001Z</time></trkpt><trkpt lat="43.46426882287972" lon="13.54165983589684"><ele>159.0</ele><time>2026-04-19T07:28:26.001Z</time></trkpt><trkpt lat="43.46427630555708" lon="13.54149643225023"><ele>158.5</ele><time>2026-04-19T07:28:27.001Z</time></trkpt><trkpt lat="43.46429024465122" lon="13.541332697618117"><ele>158.0</ele><time>2026-04-19T07:28:28.001Z</time></trkpt><trkpt lat="43.4643010590175" lon="13.541176228240648"><ele>158.0</ele><time>2026-04-19T07:28:29.001Z</time></trkpt><trkpt lat="43.46431614181098" lon="13.541007813429754"><ele>158.0</ele><time>2026-04-19T07:28:30.001Z</time></trkpt><trkpt lat="43.464321968077385" lon="13.540827207056445"><ele>158.0</ele><time>2026-04-19T07:28:31.001Z</time></trkpt><trkpt lat="43.46432550827658" lon="13.540650669235712"><ele>158.0</ele><time>2026-04-19T07:28:32.001Z</time></trkpt><trkpt lat="43.46432987207493" lon="13.540479269245921"><ele>157.5</ele><time>2026-04-19T07:28:33.001Z</time></trkpt><trkpt lat="43.46432932906302" lon="13.540310467083357"><ele>157.0</ele><time>2026-04-19T07:28:34.001Z</time></trkpt><trkpt lat="43.46432540127363" lon="13.540141656388558"><ele>156.5</ele><time>2026-04-19T07:28:35.001Z</time></trkpt><trkpt lat="43.4643238761895" lon="13.539978620177411"><ele>156.0</ele><time>2026-04-19T07:28:36.001Z</time></trkpt><trkpt lat="43.46432062171331" lon="13.539816712114769"><ele>156.0</ele><time>2026-04-19T07:28:37.001Z</time></trkpt><trkpt lat="43.46432157215068" lon="13.539646423769799"><ele>156.0</ele><time>2026-04-19T07:28:38.001Z</time></trkpt><trkpt lat="43.464308974625126" lon="13.539479389712582"><ele>156.0</ele><time>2026-04-19T07:28:39.001Z</time></trkpt><trkpt lat="43.46430675839236" lon="13.539298079735955"><ele>156.0</ele><time>2026-04-19T07:28:40.001Z</time></trkpt><trkpt lat="43.46431016474203" lon="13.539124875620336"><ele>153.75</ele><time>2026-04-19T07:28:41.001Z</time></trkpt><trkpt lat="43.46431304416465" lon="13.538958191757475"><ele>151.5</ele><time>2026-04-19T07:28:42.001Z</time></trkpt><trkpt lat="43.46431482885911" lon="13.5387868634082"><ele>149.25</ele><time>2026-04-19T07:28:43.001Z</time></trkpt><trkpt lat="43.464313281759935" lon="13.538610327887938"><ele>147.0</ele><time>2026-04-19T07:28:44.001Z</time></trkpt><trkpt lat="43.46431452559656" lon="13.538445063850705"><ele>145.25</ele><time>2026-04-19T07:28:45.001Z</time></trkpt><trkpt lat="43.46430723190947" lon="13.538267118786528"><ele>143.5</ele><time>2026-04-19T07:28:46.001Z</time></trkpt><trkpt lat="43.46430350252371" lon="13.53810037647429"><ele>141.75</ele><time>2026-04-19T07:28:47.001Z</time></trkpt><trkpt lat="43.46430482911357" lon="13.537925245628681"><ele>140.0</ele><time>2026-04-19T07:28:48.001Z</time></trkpt><trkpt lat="43.46430185859189" lon="13.537753732449081"><ele>138.0</ele><time>2026-04-19T07:28:49.001Z</time></trkpt><trkpt lat="43.46429479779083" lon="13.537587116077756"><ele>136.0</ele><time>2026-04-19T07:28:50.001Z</time></trkpt><trkpt lat="43.464273037988846" lon="13.537431705147068"><ele>134.0</ele><time>2026-04-19T07:28:51.001Z</time></trkpt><trkpt lat="43.46423097627354" lon="13.537285768814122"><ele>132.0</ele><time>2026-04-19T07:28:52.001Z</time></trkpt><trkpt lat="43.46416501447003" lon="13.537156685491366"><ele>132.0</ele><time>2026-04-19T07:28:53.001Z</time></trkpt><trkpt lat="43.46407208168375" lon="13.537059580039175"><ele>132.0</ele><time>2026-04-19T07:28:54.001Z</time></trkpt><trkpt lat="43.463973536890336" lon="13.53698756306043"><ele>132.0</ele><time>2026-04-19T07:28:55.001Z</time></trkpt><trkpt lat="43.463866233619335" lon="13.536945335602722"><ele>132.0</ele><time>2026-04-19T07:28:56.001Z</time></trkpt><trkpt lat="43.46375698405484" lon="13.536921591562514"><ele>129.79999999999998</ele><time>2026-04-19T07:28:57.001Z</time></trkpt><trkpt lat="43.46365385220873" lon="13.536904631766415"><ele>127.6</ele><time>2026-04-19T07:28:58.001Z</time></trkpt><trkpt lat="43.463549475859615" lon="13.536877269169725"><ele>125.39999999999999</ele><time>2026-04-19T07:28:59.001Z</time></trkpt><trkpt lat="43.463446737725675" lon="13.53684547514797"><ele>123.19999999999999</ele><time>2026-04-19T07:29:00.001Z</time></trkpt><trkpt lat="43.46334159914483" lon="13.536816957561847"><ele>121.0</ele><time>2026-04-19T07:29:01.001Z</time></trkpt><trkpt lat="43.463238388913986" lon="13.536789172782875"><ele>121.0</ele><time>2026-04-19T07:29:02.001Z</time></trkpt><trkpt lat="43.46313514021353" lon="13.53676013396982"><ele>121.0</ele><time>2026-04-19T07:29:03.001Z</time></trkpt><trkpt lat="43.4630319324916" lon="13.536729906916527"><ele>121.0</ele><time>2026-04-19T07:29:04.001Z</time></trkpt><trkpt lat="43.46293128794523" lon="13.536693801645947"><ele>121.0</ele><time>2026-04-19T07:29:05.001Z</time></trkpt><trkpt lat="43.4628410735355" lon="13.536644654678453"><ele>121.0</ele><time>2026-04-19T07:29:06.001Z</time></trkpt><trkpt lat="43.46277574037989" lon="13.53655776464858"><ele>119.6</ele><time>2026-04-19T07:29:07.001Z</time></trkpt><trkpt lat="43.46274553885024" lon="13.536431388640175"><ele>118.19999999999999</ele><time>2026-04-19T07:29:08.001Z</time></trkpt><trkpt lat="43.46271395435622" lon="13.53629157862042"><ele>116.80000000000001</ele><time>2026-04-19T07:29:09.001Z</time></trkpt><trkpt lat="43.46266824417694" lon="13.536149500341912"><ele>115.4</ele><time>2026-04-19T07:29:10.001Z</time></trkpt><trkpt lat="43.46263573524644" lon="13.535997086713627"><ele>114.0</ele><time>2026-04-19T07:29:11.001Z</time></trkpt><trkpt lat="43.4626011357293" lon="13.535846080582402"><ele>113.0</ele><time>2026-04-19T07:29:12.001Z</time></trkpt><trkpt lat="43.4625646836944" lon="13.535687982903335"><ele>112.0</ele><time>2026-04-19T07:29:13.001Z</time></trkpt><trkpt lat="43.46252866742082" lon="13.535535499835147"><ele>111.0</ele><time>2026-04-19T07:29:14.001Z</time></trkpt><trkpt lat="43.46249179378264" lon="13.535383855773645"><ele>110.0</ele><time>2026-04-19T07:29:15.001Z</time></trkpt><trkpt lat="43.46244716367973" lon="13.535238002272102"><ele>108.5</ele><time>2026-04-19T07:29:16.001Z</time></trkpt><trkpt lat="43.462393742678266" lon="13.535097790103714"><ele>107.0</ele><time>2026-04-19T07:29:17.001Z</time></trkpt><trkpt lat="43.46233355085973" lon="13.534960965318355"><ele>105.5</ele><time>2026-04-19T07:29:18.001Z</time></trkpt><trkpt lat="43.462269910144734" lon="13.5348324555262"><ele>104.0</ele><time>2026-04-19T07:29:19.001Z</time></trkpt><trkpt lat="43.4622053618321" lon="13.53470274533067"><ele>104.0</ele><time>2026-04-19T07:29:20.001Z</time></trkpt><trkpt lat="43.46213446592683" lon="13.534582398691375"><ele>104.0</ele><time>2026-04-19T07:29:21.001Z</time></trkpt><trkpt lat="43.46205545718767" lon="13.534480327407813"><ele>104.0</ele><time>2026-04-19T07:29:22.001Z</time></trkpt><trkpt lat="43.46196134762295" lon="13.534403013175819"><ele>104.0</ele><time>2026-04-19T07:29:23.001Z</time></trkpt><trkpt lat="43.461861901592485" lon="13.534329361632198"><ele>104.0</ele><time>2026-04-19T07:29:24.001Z</time></trkpt><trkpt lat="43.46178144629378" lon="13.534260741994858"><ele>102.57142857142857</ele><time>2026-04-19T07:29:25.002Z</time></trkpt><trkpt lat="43.461719601386385" lon="13.534189848741656"><ele>101.14285714285715</ele><time>2026-04-19T07:29:26.002Z</time></trkpt><trkpt lat="43.46168626366864" lon="13.534097936594502"><ele>99.71428571428572</ele><time>2026-04-19T07:29:27.002Z</time></trkpt><trkpt lat="43.46167369728142" lon="13.534004678555762"><ele>98.28571428571428</ele><time>2026-04-19T07:29:28.002Z</time></trkpt><trkpt lat="43.46166425532989" lon="13.533908046955524"><ele>96.85714285714286</ele><time>2026-04-19T07:29:29.002Z</time></trkpt><trkpt lat="43.46163190978831" lon="13.53382697794725"><ele>95.42857142857143</ele><time>2026-04-19T07:29:30.002Z</time></trkpt><trkpt lat="43.46157502762117" lon="13.533762320648488"><ele>94.0</ele><time>2026-04-19T07:29:31.002Z</time></trkpt><trkpt lat="43.461505132111164" lon="13.533704293859216"><ele>92.6</ele><time>2026-04-19T07:29:32.002Z</time></trkpt><trkpt lat="43.46143340951354" lon="13.53361916541105"><ele>91.2</ele><time>2026-04-19T07:29:33.002Z</time></trkpt><trkpt lat="43.46135391802302" lon="13.533514243750393"><ele>89.8</ele><time>2026-04-19T07:29:34.002Z</time></trkpt><trkpt lat="43.461270475367684" lon="13.533404592585082"><ele>88.39999999999999</ele><time>2026-04-19T07:29:35.002Z</time></trkpt><trkpt lat="43.46118656424188" lon="13.533295515984088"><ele>87.0</ele><time>2026-04-19T07:29:36.002Z</time></trkpt><trkpt lat="43.461102440320595" lon="13.533183391680328"><ele>85.5</ele><time>2026-04-19T07:29:37.002Z</time></trkpt><trkpt lat="43.461018899719214" lon="13.533070371570012"><ele>84.0</ele><time>2026-04-19T07:29:38.002Z</time></trkpt><trkpt lat="43.460936190039206" lon="13.532958249093689"><ele>82.5</ele><time>2026-04-19T07:29:39.002Z</time></trkpt><trkpt lat="43.46085088879428" lon="13.53284876235148"><ele>81.0</ele><time>2026-04-19T07:29:40.002Z</time></trkpt><trkpt lat="43.46077086162046" lon="13.532748738675744"><ele>80.2</ele><time>2026-04-19T07:29:41.002Z</time></trkpt><trkpt lat="43.46069185372362" lon="13.532650363607072"><ele>79.39999999999999</ele><time>2026-04-19T07:29:42.002Z</time></trkpt><trkpt lat="43.46061445713529" lon="13.532548236923455"><ele>78.6</ele><time>2026-04-19T07:29:43.002Z</time></trkpt><trkpt lat="43.46054781475891" lon="13.532430794013289"><ele>77.8</ele><time>2026-04-19T07:29:44.002Z</time></trkpt><trkpt lat="43.46049941509236" lon="13.532299199069161"><ele>77.0</ele><time>2026-04-19T07:29:45.002Z</time></trkpt><trkpt lat="43.4604751907047" lon="13.532159344751632"><ele>75.25</ele><time>2026-04-19T07:29:46.002Z</time></trkpt><trkpt lat="43.46045856658013" lon="13.532005135693254"><ele>73.5</ele><time>2026-04-19T07:29:47.002Z</time></trkpt><trkpt lat="43.460473563435386" lon="13.531847458567901"><ele>71.75</ele><time>2026-04-19T07:29:48.002Z</time></trkpt><trkpt lat="43.460512162587676" lon="13.531695522135115"><ele>70.0</ele><time>2026-04-19T07:29:49.002Z</time></trkpt><trkpt lat="43.4605609043624" lon="13.531537265778882"><ele>70.0</ele><time>2026-04-19T07:29:50.002Z</time></trkpt><trkpt lat="43.46061134032571" lon="13.531382000934347"><ele>70.0</ele><time>2026-04-19T07:29:51.002Z</time></trkpt><trkpt lat="43.46066476999004" lon="13.531225010270948"><ele>70.0</ele><time>2026-04-19T07:29:52.002Z</time></trkpt><trkpt lat="43.46071927619204" lon="13.531058646431958"><ele>70.0</ele><time>2026-04-19T07:29:53.002Z</time></trkpt><trkpt lat="43.46076976233868" lon="13.530888977011687"><ele>68.0</ele><time>2026-04-19T07:29:54.002Z</time></trkpt><trkpt lat="43.460825193901385" lon="13.530728117424161"><ele>66.0</ele><time>2026-04-19T07:29:55.002Z</time></trkpt><trkpt lat="43.46087952873661" lon="13.53057583435429"><ele>64.0</ele><time>2026-04-19T07:29:56.002Z</time></trkpt><trkpt lat="43.4609290535867" lon="13.53041613537308"><ele>62.0</ele><time>2026-04-19T07:29:57.002Z</time></trkpt><trkpt lat="43.46097898271456" lon="13.530254494189176"><ele>62.0</ele><time>2026-04-19T07:29:58.002Z</time></trkpt><trkpt lat="43.46102034047715" lon="13.530104808618656"><ele>62.0</ele><time>2026-04-19T07:29:59.002Z</time></trkpt><trkpt lat="43.46105344415899" lon="13.529957302660556"><ele>62.0</ele><time>2026-04-19T07:30:00.002Z</time></trkpt><trkpt lat="43.4610753879897" lon="13.529802100310322"><ele>62.0</ele><time>2026-04-19T07:30:01Z</time></trkpt><trkpt lat="43.46107776614183" lon="13.529640142666834"><ele>62.25</ele><time>2026-04-19T07:30:02Z</time></trkpt><trkpt lat="43.46105772393124" lon="13.529482293424703"><ele>62.5</ele><time>2026-04-19T07:30:03Z</time></trkpt><trkpt lat="43.46101130441521" lon="13.529321381983404"><ele>62.75</ele><time>2026-04-19T07:30:04Z</time></trkpt><trkpt lat="43.460952764851605" lon="13.52916495133243"><ele>63.0</ele><time>2026-04-19T07:30:05Z</time></trkpt><trkpt lat="43.460896568494384" lon="13.529005886935746"><ele>63.0</ele><time>2026-04-19T07:30:06Z</time></trkpt><trkpt lat="43.46083885602748" lon="13.528842610562933"><ele>63.0</ele><time>2026-04-19T07:30:07Z</time></trkpt><trkpt lat="43.46078234277613" lon="13.52868651798617"><ele>63.0</ele><time>2026-04-19T07:30:08Z</time></trkpt><trkpt lat="43.46071632747933" lon="13.528528505115522"><ele>63.0</ele><time>2026-04-19T07:30:09Z</time></trkpt><trkpt lat="43.4606403446311" lon="13.528380491818162"><ele>63.0</ele><time>2026-04-19T07:30:10Z</time></trkpt><trkpt lat="43.46055393731608" lon="13.528235812471914"><ele>63.0</ele><time>2026-04-19T07:30:11Z</time></trkpt><trkpt lat="43.460471035222675" lon="13.528097568243435"><ele>63.0</ele><time>2026-04-19T07:30:12Z</time></trkpt><trkpt lat="43.46039258968423" lon="13.527975197352648"><ele>63.0</ele><time>2026-04-19T07:30:13Z</time></trkpt><trkpt lat="43.46031897072272" lon="13.527853231720044"><ele>61.599999999999994</ele><time>2026-04-19T07:30:14Z</time></trkpt><trkpt lat="43.460248811658495" lon="13.527728240181087"><ele>60.199999999999996</ele><time>2026-04-19T07:30:15Z</time></trkpt><trkpt lat="43.46019074882352" lon="13.527606705673781"><ele>58.8</ele><time>2026-04-19T07:30:16Z</time></trkpt><trkpt lat="43.4601384512331" lon="13.527488291802813"><ele>57.4</ele><time>2026-04-19T07:30:17Z</time></trkpt><trkpt lat="43.46008998264809" lon="13.52737525979816"><ele>56.0</ele><time>2026-04-19T07:30:18Z</time></trkpt><trkpt lat="43.460072588891556" lon="13.527262706600522"><ele>56.00000000000001</ele><time>2026-04-19T07:30:19Z</time></trkpt><trkpt lat="43.4600507833876" lon="13.52717808381401"><ele>56.0</ele><time>2026-04-19T07:30:20Z</time></trkpt><trkpt lat="43.45996169695005" lon="13.527122382959032"><ele>56.0</ele><time>2026-04-19T07:30:21Z</time></trkpt><trkpt lat="43.45992388782689" lon="13.527034630141335"><ele>56.0</ele><time>2026-04-19T07:30:22Z</time></trkpt><trkpt lat="43.4598928164422" lon="13.526920769666289"><ele>56.00000000000001</ele><time>2026-04-19T07:30:23Z</time></trkpt><trkpt lat="43.4598517244235" lon="13.526824972860299"><ele>56.0</ele><time>2026-04-19T07:30:24Z</time></trkpt><trkpt lat="43.45979058496156" lon="13.52674155939272"><ele>56.199999999999996</ele><time>2026-04-19T07:30:25Z</time></trkpt><trkpt lat="43.45969237995399" lon="13.526674527687556"><ele>56.39999999999999</ele><time>2026-04-19T07:30:26Z</time></trkpt><trkpt lat="43.45958840128268" lon="13.52664394641249"><ele>56.6</ele><time>2026-04-19T07:30:27Z</time></trkpt><trkpt lat="43.45947444295101" lon="13.526620007158455"><ele>56.8</ele><time>2026-04-19T07:30:28Z</time></trkpt><trkpt lat="43.45936345148109" lon="13.526603678414428"><ele>57.0</ele><time>2026-04-19T07:30:29Z</time></trkpt><trkpt lat="43.459240253343445" lon="13.526605661304663"><ele>55.5</ele><time>2026-04-19T07:30:30Z</time></trkpt><trkpt lat="43.459128144474384" lon="13.526596804067145"><ele>54.0</ele><time>2026-04-19T07:30:31Z</time></trkpt><trkpt lat="43.45901674705157" lon="13.5265787172442"><ele>52.5</ele><time>2026-04-19T07:30:32Z</time></trkpt><trkpt lat="43.458906281751325" lon="13.526535939737311"><ele>51.0</ele><time>2026-04-19T07:30:33Z</time></trkpt><trkpt lat="43.458793554306126" lon="13.52652381005039"><ele>49.5</ele><time>2026-04-19T07:30:34Z</time></trkpt><trkpt lat="43.45867680508365" lon="13.52649463570195"><ele>48.0</ele><time>2026-04-19T07:30:35Z</time></trkpt><trkpt lat="43.4585689795125" lon="13.526464406981699"><ele>46.5</ele><time>2026-04-19T07:30:36Z</time></trkpt><trkpt lat="43.45845495275737" lon="13.526447203398575"><ele>45.0</ele><time>2026-04-19T07:30:37Z</time></trkpt><trkpt lat="43.45834896293383" lon="13.526429185391429"><ele>45.0</ele><time>2026-04-19T07:30:38.001Z</time></trkpt><trkpt lat="43.458243415787294" lon="13.526424383064668"><ele>45.0</ele><time>2026-04-19T07:30:39.001Z</time></trkpt><trkpt lat="43.45814844186003" lon="13.52643423245966"><ele>45.0</ele><time>2026-04-19T07:30:40.001Z</time></trkpt><trkpt lat="43.45805536904701" lon="13.52646290268831"><ele>45.0</ele><time>2026-04-19T07:30:41.001Z</time></trkpt><trkpt lat="43.45796686509391" lon="13.52650305537244"><ele>45.0</ele><time>2026-04-19T07:30:42.001Z</time></trkpt><trkpt lat="43.457884027733165" lon="13.526552052573173"><ele>44.4</ele><time>2026-04-19T07:30:43.001Z</time></trkpt><trkpt lat="43.45780267716114" lon="13.526608446732634"><ele>43.8</ele><time>2026-04-19T07:30:44.001Z</time></trkpt><trkpt lat="43.457726477315035" lon="13.526667956013057"><ele>43.2</ele><time>2026-04-19T07:30:45.001Z</time></trkpt><trkpt lat="43.45763728728495" lon="13.526706235038596"><ele>42.6</ele><time>2026-04-19T07:30:46.001Z</time></trkpt><trkpt lat="43.457552019782085" lon="13.526744342733624"><ele>42.0</ele><time>2026-04-19T07:30:47.001Z</time></trkpt><trkpt lat="43.45746167824957" lon="13.52678107899223"><ele>42.0</ele><time>2026-04-19T07:30:48.001Z</time></trkpt><trkpt lat="43.45726764636709" lon="13.52682253066574"><ele>42.0</ele><time>2026-04-19T07:30:50.001Z</time></trkpt><trkpt lat="43.457166245029136" lon="13.526814298877719"><ele>42.0</ele><time>2026-04-19T07:30:51.001Z</time></trkpt><trkpt lat="43.45705909125184" lon="13.526795558767454"><ele>42.0</ele><time>2026-04-19T07:30:52.001Z</time></trkpt><trkpt lat="43.45695331706518" lon="13.52677819263051"><ele>41.6</ele><time>2026-04-19T07:30:53.001Z</time></trkpt><trkpt lat="43.45684613195455" lon="13.526752092119297"><ele>41.2</ele><time>2026-04-19T07:30:54.001Z</time></trkpt><trkpt lat="43.456741568993884" lon="13.526713497034079"><ele>40.8</ele><time>2026-04-19T07:30:55.001Z</time></trkpt><trkpt lat="43.45663478762961" lon="13.52666907170544"><ele>40.4</ele><time>2026-04-19T07:30:56.001Z</time></trkpt><trkpt lat="43.456526374927876" lon="13.52661164994242"><ele>40.0</ele><time>2026-04-19T07:30:57.001Z</time></trkpt><trkpt lat="43.45642528675795" lon="13.526547017617945"><ele>40.0</ele><time>2026-04-19T07:30:58.001Z</time></trkpt><trkpt lat="43.45632702946275" lon="13.52645616679417"><ele>40.0</ele><time>2026-04-19T07:30:59.001Z</time></trkpt><trkpt lat="43.456230116147516" lon="13.526356931528918"><ele>40.0</ele><time>2026-04-19T07:31:00.001Z</time></trkpt><trkpt lat="43.456136945465566" lon="13.526252807944209"><ele>40.0</ele><time>2026-04-19T07:31:01.001Z</time></trkpt><trkpt lat="43.45604697184509" lon="13.526164107505203"><ele>39.2</ele><time>2026-04-19T07:31:02.001Z</time></trkpt><trkpt lat="43.455953458543235" lon="13.526066474249873"><ele>38.4</ele><time>2026-04-19T07:31:03.001Z</time></trkpt><trkpt lat="43.455856934680526" lon="13.525973826173752"><ele>37.6</ele><time>2026-04-19T07:31:04.001Z</time></trkpt><trkpt lat="43.45576655630877" lon="13.525897225716898"><ele>36.8</ele><time>2026-04-19T07:31:05.001Z</time></trkpt><trkpt lat="43.45567849995893" lon="13.525832263745489"><ele>36.0</ele><time>2026-04-19T07:31:06.001Z</time></trkpt><trkpt lat="43.455580094914104" lon="13.525785663232737"><ele>36.0</ele><time>2026-04-19T07:31:07.001Z</time></trkpt><trkpt lat="43.45547978166016" lon="13.525714428735904"><ele>36.0</ele><time>2026-04-19T07:31:08.001Z</time></trkpt><trkpt lat="43.45536569411668" lon="13.525682901509956"><ele>36.0</ele><time>2026-04-19T07:31:09.001Z</time></trkpt><trkpt lat="43.455265958194474" lon="13.525626027861378"><ele>36.0</ele><time>2026-04-19T07:31:10.001Z</time></trkpt><trkpt lat="43.45516322818378" lon="13.525576310828397"><ele>36.0</ele><time>2026-04-19T07:31:11.001Z</time></trkpt><trkpt lat="43.4550566219046" lon="13.525525807677282"><ele>35.8</ele><time>2026-04-19T07:31:12.001Z</time></trkpt><trkpt lat="43.454951085403096" lon="13.525476787974977"><ele>35.6</ele><time>2026-04-19T07:31:13.001Z</time></trkpt><trkpt lat="43.454846864799755" lon="13.525427205250415"><ele>35.4</ele><time>2026-04-19T07:31:14.001Z</time></trkpt><trkpt lat="43.45474389724218" lon="13.52537677787894"><ele>35.2</ele><time>2026-04-19T07:31:15.001Z</time></trkpt><trkpt lat="43.45464037668191" lon="13.52533329963616"><ele>35.0</ele><time>2026-04-19T07:31:16.001Z</time></trkpt><trkpt lat="43.45453693698688" lon="13.525298775557955"><ele>34.83333333333333</ele><time>2026-04-19T07:31:17.001Z</time></trkpt><trkpt lat="43.45444141995055" lon="13.525269287314554"><ele>34.666666666666664</ele><time>2026-04-19T07:31:18.001Z</time></trkpt><trkpt lat="43.4543558307682" lon="13.525249352938927"><ele>34.5</ele><time>2026-04-19T07:31:19.001Z</time></trkpt><trkpt lat="43.45428857615633" lon="13.525227997819611"><ele>34.333333333333336</ele><time>2026-04-19T07:31:20.001Z</time></trkpt><trkpt lat="43.45422554957701" lon="13.525205425249727"><ele>34.16666666666667</ele><time>2026-04-19T07:31:21.001Z</time></trkpt><trkpt lat="43.45415499228277" lon="13.525182752069096"><ele>34.0</ele><time>2026-04-19T07:31:23.001Z</time></trkpt><trkpt lat="43.454081275849006" lon="13.525151272752762"><ele>34.0</ele><time>2026-04-19T07:31:31.001Z</time></trkpt><trkpt lat="43.45402955886672" lon="13.525329493646499"><ele>34.0</ele><time>2026-04-19T07:31:32.001Z</time></trkpt><trkpt lat="43.45399170843285" lon="13.525458226773237"><ele>34.0</ele><time>2026-04-19T07:31:33.001Z</time></trkpt><trkpt lat="43.45394276372595" lon="13.525582082469324"><ele>34.0</ele><time>2026-04-19T07:31:34.001Z</time></trkpt><trkpt lat="43.453880482314425" lon="13.525726562744092"><ele>34.25</ele><time>2026-04-19T07:31:35.001Z</time></trkpt><trkpt lat="43.45381514985367" lon="13.52589012367616"><ele>34.5</ele><time>2026-04-19T07:31:36.001Z</time></trkpt><trkpt lat="43.4537510940069" lon="13.526063689692673"><ele>34.75</ele><time>2026-04-19T07:31:37.001Z</time></trkpt><trkpt lat="43.45368392674357" lon="13.526236780061586"><ele>35.0</ele><time>2026-04-19T07:31:38.001Z</time></trkpt><trkpt lat="43.453612538338675" lon="13.526422042303372"><ele>34.0</ele><time>2026-04-19T07:31:39.002Z</time></trkpt><trkpt lat="43.45354382500896" lon="13.526614634216731"><ele>33.0</ele><time>2026-04-19T07:31:40.002Z</time></trkpt><trkpt lat="43.453469438654" lon="13.526807371125969"><ele>32.0</ele><time>2026-04-19T07:31:41.002Z</time></trkpt><trkpt lat="43.453393310723676" lon="13.527005817556484"><ele>32.0</ele><time>2026-04-19T07:31:42.002Z</time></trkpt><trkpt lat="43.453317433332316" lon="13.527194244619949"><ele>32.0</ele><time>2026-04-19T07:31:43.002Z</time></trkpt><trkpt lat="43.453241911085314" lon="13.527384332367824"><ele>32.0</ele><time>2026-04-19T07:31:44.002Z</time></trkpt><trkpt lat="43.45317058436705" lon="13.527555291151067"><ele>32.0</ele><time>2026-04-19T07:31:45.002Z</time></trkpt><trkpt lat="43.453097997713435" lon="13.527732790011086"><ele>32.0</ele><time>2026-04-19T07:31:46.002Z</time></trkpt><trkpt lat="43.45302115719104" lon="13.527904004089667"><ele>32.0</ele><time>2026-04-19T07:31:47.002Z</time></trkpt><trkpt lat="43.452945951634945" lon="13.52807322551871"><ele>32.0</ele><time>2026-04-19T07:31:48.002Z</time></trkpt><trkpt lat="43.45287914261326" lon="13.528230475157887"><ele>32.0</ele><time>2026-04-19T07:31:49.002Z</time></trkpt><trkpt lat="43.45281418816843" lon="13.528382582097802"><ele>32.0</ele><time>2026-04-19T07:31:50.002Z</time></trkpt><trkpt lat="43.452759187108526" lon="13.52851275578311"><ele>32.0</ele><time>2026-04-19T07:31:51.002Z</time></trkpt><trkpt lat="43.45271244906249" lon="13.528615201845541"><ele>32.0</ele><time>2026-04-19T07:31:52.002Z</time></trkpt><trkpt lat="43.45265534032855" lon="13.528709138539735"><ele>32.0</ele><time>2026-04-19T07:31:54.002Z</time></trkpt><trkpt lat="43.45259300146265" lon="13.528638010700293"><ele>31.999999999999996</ele><time>2026-04-19T07:31:56.002Z</time></trkpt><trkpt lat="43.45254588421505" lon="13.528565726503354"><ele>32.0</ele><time>2026-04-19T07:31:57.002Z</time></trkpt><trkpt lat="43.45248728259694" lon="13.52849628345524"><ele>32.0</ele><time>2026-04-19T07:31:58.002Z</time></trkpt><trkpt lat="43.45243516193785" lon="13.528400414719522"><ele>32.0</ele><time>2026-04-19T07:31:59.002Z</time></trkpt><trkpt lat="43.45237345041021" lon="13.52829527773149"><ele>31.999999999999996</ele><time>2026-04-19T07:32:00.002Z</time></trkpt><trkpt lat="43.452307436768" lon="13.52818622245896"><ele>32.0</ele><time>2026-04-19T07:32:01.002Z</time></trkpt><trkpt lat="43.45224372455275" lon="13.528073922596247"><ele>32.0</ele><time>2026-04-19T07:32:02.002Z</time></trkpt><trkpt lat="43.452178073505564" lon="13.527949578649404"><ele>32.0</ele><time>2026-04-19T07:32:03.002Z</time></trkpt><trkpt lat="43.45211076149256" lon="13.52782074538552"><ele>32.0</ele><time>2026-04-19T07:32:04.002Z</time></trkpt><trkpt lat="43.45204621942272" lon="13.5276885950203"><ele>32.0</ele><time>2026-04-19T07:32:05.002Z</time></trkpt><trkpt lat="43.451976727465144" lon="13.527555090070408"><ele>32.0</ele><time>2026-04-19T07:32:06.002Z</time></trkpt><trkpt lat="43.45191051166452" lon="13.52741905871313"><ele>32.0</ele><time>2026-04-19T07:32:07Z</time></trkpt><trkpt lat="43.451840142013324" lon="13.527276912127592"><ele>32.0</ele><time>2026-04-19T07:32:08Z</time></trkpt><trkpt lat="43.451774925001786" lon="13.527128718327948"><ele>32.0</ele><time>2026-04-19T07:32:09Z</time></trkpt><trkpt lat="43.451699325595456" lon="13.526987910087932"><ele>32.0</ele><time>2026-04-19T07:32:10Z</time></trkpt><trkpt lat="43.45162663281041" lon="13.526839123831966"><ele>32.0</ele><time>2026-04-19T07:32:11Z</time></trkpt><trkpt lat="43.45153610441434" lon="13.526701515281424"><ele>32.0</ele><time>2026-04-19T07:32:12Z</time></trkpt><trkpt lat="43.451443258553965" lon="13.526558875758152"><ele>32.0</ele><time>2026-04-19T07:32:13Z</time></trkpt><trkpt lat="43.45135090934032" lon="13.526415252292104"><ele>32.0</ele><time>2026-04-19T07:32:14Z</time></trkpt><trkpt lat="43.45125635971416" lon="13.526268035202428"><ele>32.0</ele><time>2026-04-19T07:32:15Z</time></trkpt><trkpt lat="43.45115844458069" lon="13.526113787358467"><ele>32.0</ele><time>2026-04-19T07:32:16Z</time></trkpt><trkpt lat="43.45106125860836" lon="13.525958121679544"><ele>32.0</ele><time>2026-04-19T07:32:17Z</time></trkpt><trkpt lat="43.45096236671981" lon="13.525803439157837"><ele>32.0</ele><time>2026-04-19T07:32:18Z</time></trkpt><trkpt lat="43.45086426479539" lon="13.52566300970866"><ele>32.0</ele><time>2026-04-19T07:32:19Z</time></trkpt><trkpt lat="43.450761428003915" lon="13.525516818118463"><ele>32.0</ele><time>2026-04-19T07:32:20Z</time></trkpt><trkpt lat="43.450661784195376" lon="13.525375149654707"><ele>32.0</ele><time>2026-04-19T07:32:21Z</time></trkpt><trkpt lat="43.45056042486382" lon="13.525226183374594"><ele>32.0</ele><time>2026-04-19T07:32:22Z</time></trkpt><trkpt lat="43.450462392842866" lon="13.52507450103603"><ele>32.0</ele><time>2026-04-19T07:32:23Z</time></trkpt><trkpt lat="43.45036763424565" lon="13.524914685566847"><ele>32.0</ele><time>2026-04-19T07:32:24Z</time></trkpt><trkpt lat="43.45027823003654" lon="13.524759987426602"><ele>32.0</ele><time>2026-04-19T07:32:25Z</time></trkpt><trkpt lat="43.45018364427697" lon="13.524588450854203"><ele>32.33333333333333</ele><time>2026-04-19T07:32:26Z</time></trkpt><trkpt lat="43.45009490280698" lon="13.524413432041095"><ele>32.666666666666664</ele><time>2026-04-19T07:32:27Z</time></trkpt><trkpt lat="43.45000394055497" lon="13.524235175326112"><ele>33.0</ele><time>2026-04-19T07:32:28Z</time></trkpt><trkpt lat="43.449907051000174" lon="13.524066887197367"><ele>33.0</ele><time>2026-04-19T07:32:29Z</time></trkpt><trkpt lat="43.449795423573164" lon="13.523904832821682"><ele>33.0</ele><time>2026-04-19T07:32:30Z</time></trkpt><trkpt lat="43.449688317407826" lon="13.523735011573155"><ele>33.0</ele><time>2026-04-19T07:32:31Z</time></trkpt><trkpt lat="43.44959027865966" lon="13.523574611246334"><ele>32.75</ele><time>2026-04-19T07:32:32Z</time></trkpt><trkpt lat="43.44949833852139" lon="13.523429059656072"><ele>32.5</ele><time>2026-04-19T07:32:33Z</time></trkpt><trkpt lat="43.44941104842022" lon="13.5232859273895"><ele>32.25</ele><time>2026-04-19T07:32:34Z</time></trkpt><trkpt lat="43.44931902440178" lon="13.523132080879217"><ele>32.0</ele><time>2026-04-19T07:32:35Z</time></trkpt><trkpt lat="43.44922800036592" lon="13.522981170565103"><ele>32.25</ele><time>2026-04-19T07:32:36Z</time></trkpt><trkpt lat="43.44913823209944" lon="13.522821667471508"><ele>32.5</ele><time>2026-04-19T07:32:37Z</time></trkpt><trkpt lat="43.44906189629215" lon="13.52265842779835"><ele>32.75</ele><time>2026-04-19T07:32:38Z</time></trkpt><trkpt lat="43.44897973386585" lon="13.522491484118062"><ele>33.0</ele><time>2026-04-19T07:32:39Z</time></trkpt><trkpt lat="43.448896330733845" lon="13.522319305244022"><ele>33.0</ele><time>2026-04-19T07:32:40Z</time></trkpt><trkpt lat="43.44876774788097" lon="13.522186980336754"><ele>33.0</ele><time>2026-04-19T07:32:41Z</time></trkpt><trkpt lat="43.44864965269323" lon="13.52205634575029"><ele>33.0</ele><time>2026-04-19T07:32:42Z</time></trkpt><trkpt lat="43.44852871488994" lon="13.521910227399564"><ele>33.333333333333336</ele><time>2026-04-19T07:32:43Z</time></trkpt><trkpt lat="43.44841583577725" lon="13.521770246270606"><ele>33.66666666666667</ele><time>2026-04-19T07:32:44Z</time></trkpt><trkpt lat="43.44830458365489" lon="13.521618888346373"><ele>34.0</ele><time>2026-04-19T07:32:45Z</time></trkpt><trkpt lat="43.44819701387008" lon="13.52146384736186"><ele>34.0</ele><time>2026-04-19T07:32:46Z</time></trkpt><trkpt lat="43.448080157455536" lon="13.521307234768736"><ele>34.0</ele><time>2026-04-19T07:32:47Z</time></trkpt><trkpt lat="43.447969570614845" lon="13.521148511513681"><ele>34.0</ele><time>2026-04-19T07:32:48Z</time></trkpt><trkpt lat="43.44787034410567" lon="13.520972661158387"><ele>34.333333333333336</ele><time>2026-04-19T07:32:49Z</time></trkpt><trkpt lat="43.44777879016588" lon="13.52078998322436"><ele>34.666666666666664</ele><time>2026-04-19T07:32:50Z</time></trkpt><trkpt lat="43.4476798104949" lon="13.52061097801008"><ele>35.0</ele><time>2026-04-19T07:32:51.001Z</time></trkpt><trkpt lat="43.44757301558328" lon="13.52044959110176"><ele>35.0</ele><time>2026-04-19T07:32:52.001Z</time></trkpt><trkpt lat="43.44745963192521" lon="13.520296312277548"><ele>35.0</ele><time>2026-04-19T07:32:53.001Z</time></trkpt><trkpt lat="43.4473451992598" lon="13.520142522536863"><ele>35.0</ele><time>2026-04-19T07:32:54.001Z</time></trkpt><trkpt lat="43.44725519719507" lon="13.519977862261486"><ele>35.0</ele><time>2026-04-19T07:32:55.001Z</time></trkpt><trkpt lat="43.44715306013898" lon="13.519832810344239"><ele>35.0</ele><time>2026-04-19T07:32:56.001Z</time></trkpt><trkpt lat="43.4470530664465" lon="13.519666208608117"><ele>35.0</ele><time>2026-04-19T07:32:57.001Z</time></trkpt><trkpt lat="43.4469531600085" lon="13.51950101334376"><ele>35.33333333333333</ele><time>2026-04-19T07:32:58.001Z</time></trkpt><trkpt lat="43.44685303980598" lon="13.519342436284932"><ele>35.666666666666664</ele><time>2026-04-19T07:32:59.001Z</time></trkpt><trkpt lat="43.446747828433274" lon="13.519191312688436"><ele>36.0</ele><time>2026-04-19T07:33:00.001Z</time></trkpt><trkpt lat="43.44664577835651" lon="13.519042759147656"><ele>36.0</ele><time>2026-04-19T07:33:01.001Z</time></trkpt><trkpt lat="43.446546949715405" lon="13.518884428520826"><ele>36.0</ele><time>2026-04-19T07:33:02.001Z</time></trkpt><trkpt lat="43.44645690208061" lon="13.518725446024156"><ele>36.0</ele><time>2026-04-19T07:33:03.001Z</time></trkpt><trkpt lat="43.44637198276557" lon="13.518566004095968"><ele>36.0</ele><time>2026-04-19T07:33:04.001Z</time></trkpt><trkpt lat="43.446293011678286" lon="13.518413375244068"><ele>35.75</ele><time>2026-04-19T07:33:05.001Z</time></trkpt><trkpt lat="43.44621818718216" lon="13.518260637211123"><ele>35.5</ele><time>2026-04-19T07:33:06.001Z</time></trkpt><trkpt lat="43.446145568969385" lon="13.518113133919632"><ele>35.25</ele><time>2026-04-19T07:33:07.001Z</time></trkpt><trkpt lat="43.446073006013364" lon="13.51797696055518"><ele>35.0</ele><time>2026-04-19T07:33:08.001Z</time></trkpt><trkpt lat="43.446007377614265" lon="13.517848527143032"><ele>35.0</ele><time>2026-04-19T07:33:09.001Z</time></trkpt><trkpt lat="43.445945698857365" lon="13.517722794747721"><ele>35.0</ele><time>2026-04-19T07:33:10.001Z</time></trkpt><trkpt lat="43.44587921336441" lon="13.517597399600223"><ele>35.0</ele><time>2026-04-19T07:33:11.001Z</time></trkpt><trkpt lat="43.44583105269479" lon="13.517442733285145"><ele>35.0</ele><time>2026-04-19T07:33:12.001Z</time></trkpt><trkpt lat="43.44577990314054" lon="13.517288128772302"><ele>35.0</ele><time>2026-04-19T07:33:13.001Z</time></trkpt><trkpt lat="43.44573175277598" lon="13.517133058478612"><ele>35.0</ele><time>2026-04-19T07:33:14.001Z</time></trkpt><trkpt lat="43.44567253985206" lon="13.516970965564893"><ele>35.0</ele><time>2026-04-19T07:33:15.001Z</time></trkpt><trkpt lat="43.44562693108666" lon="13.516798797177454"><ele>35.0</ele><time>2026-04-19T07:33:16.001Z</time></trkpt><trkpt lat="43.44558029068089" lon="13.516644411882599"><ele>35.0</ele><time>2026-04-19T07:33:17.001Z</time></trkpt><trkpt lat="43.44553595911191" lon="13.516496206011714"><ele>35.0</ele><time>2026-04-19T07:33:18.001Z</time></trkpt><trkpt lat="43.44547695168101" lon="13.516372874134179"><ele>35.0</ele><time>2026-04-19T07:33:19.001Z</time></trkpt><trkpt lat="43.44542530726921" lon="13.516271972557375"><ele>35.0</ele><time>2026-04-19T07:33:20.001Z</time></trkpt><trkpt lat="43.44539531407736" lon="13.516183493088924"><ele>35.0</ele><time>2026-04-19T07:33:21.001Z</time></trkpt><trkpt lat="43.4454001848074" lon="13.516046077589042"><ele>34.5</ele><time>2026-04-19T07:33:22.001Z</time></trkpt><trkpt lat="43.44539962566221" lon="13.515895201351565"><ele>34.0</ele><time>2026-04-19T07:33:23.001Z</time></trkpt><trkpt lat="43.44540788394758" lon="13.51572699865749"><ele>33.5</ele><time>2026-04-19T07:33:24.001Z</time></trkpt><trkpt lat="43.44541505931848" lon="13.515538756494598"><ele>33.0</ele><time>2026-04-19T07:33:25.001Z</time></trkpt><trkpt lat="43.445437996066254" lon="13.515343456627782"><ele>32.0</ele><time>2026-04-19T07:33:26.001Z</time></trkpt><trkpt lat="43.44544000170317" lon="13.515133265434057"><ele>31.0</ele><time>2026-04-19T07:33:27.001Z</time></trkpt><trkpt lat="43.44541788348756" lon="13.514926868608482"><ele>30.0</ele><time>2026-04-19T07:33:28.001Z</time></trkpt><trkpt lat="43.4453682707368" lon="13.514732756421406"><ele>30.666666666666664</ele><time>2026-04-19T07:33:29.001Z</time></trkpt><trkpt lat="43.44529736475475" lon="13.514545222237812"><ele>31.333333333333332</ele><time>2026-04-19T07:33:30.001Z</time></trkpt><trkpt lat="43.44521443413327" lon="13.514359107376057"><ele>32.0</ele><time>2026-04-19T07:33:31.001Z</time></trkpt><trkpt lat="43.44515630217958" lon="13.514161154195587"><ele>32.0</ele><time>2026-04-19T07:33:32.001Z</time></trkpt><trkpt lat="43.445113527522984" lon="13.513956674089464"><ele>32.0</ele><time>2026-04-19T07:33:33.001Z</time></trkpt><trkpt lat="43.445074781297336" lon="13.513743967981409"><ele>32.0</ele><time>2026-04-19T07:33:34.001Z</time></trkpt><trkpt lat="43.44503791962081" lon="13.513526031741925"><ele>31.333333333333332</ele><time>2026-04-19T07:33:35.001Z</time></trkpt><trkpt lat="43.4450039091775" lon="13.513309676546829"><ele>30.666666666666664</ele><time>2026-04-19T07:33:36.001Z</time></trkpt><trkpt lat="43.444974145049116" lon="13.51308261449051"><ele>30.0</ele><time>2026-04-19T07:33:37.001Z</time></trkpt><trkpt lat="43.44492942078726" lon="13.512859956329274"><ele>30.0</ele><time>2026-04-19T07:33:38.001Z</time></trkpt><trkpt lat="43.444898808127434" lon="13.512639328462221"><ele>30.0</ele><time>2026-04-19T07:33:39.001Z</time></trkpt><trkpt lat="43.44488379907074" lon="13.512441804979343"><ele>30.0</ele><time>2026-04-19T07:33:40.001Z</time></trkpt><trkpt lat="43.444852692746174" lon="13.512262362246684"><ele>30.0</ele><time>2026-04-19T07:33:41.001Z</time></trkpt><trkpt lat="43.44482517064663" lon="13.512103089456431"><ele>30.666666666666668</ele><time>2026-04-19T07:33:42.001Z</time></trkpt><trkpt lat="43.444806075218374" lon="13.511981022375384"><ele>31.333333333333336</ele><time>2026-04-19T07:33:43.001Z</time></trkpt><trkpt lat="43.44480645548075" lon="13.511892919442925"><ele>32.0</ele><time>2026-04-19T07:33:44.001Z</time></trkpt><trkpt lat="43.44485714565838" lon="13.511786452836823"><ele>32.66666666666667</ele><time>2026-04-19T07:33:46.001Z</time></trkpt><trkpt lat="43.44493091956118" lon="13.511783846914849"><ele>33.333333333333336</ele><time>2026-04-19T07:33:47.001Z</time></trkpt><trkpt lat="43.44498889163558" lon="13.51171640287324"><ele>34.0</ele><time>2026-04-19T07:33:48.001Z</time></trkpt><trkpt lat="43.44506054775823" lon="13.5116595957431"><ele>34.0</ele><time>2026-04-19T07:33:49.001Z</time></trkpt><trkpt lat="43.44513500973565" lon="13.511581067950376"><ele>34.0</ele><time>2026-04-19T07:33:50.001Z</time></trkpt><trkpt lat="43.44522735201977" lon="13.511489749152986"><ele>34.0</ele><time>2026-04-19T07:33:51.001Z</time></trkpt><trkpt lat="43.44531585104177" lon="13.511371774410744"><ele>34.0</ele><time>2026-04-19T07:33:52.001Z</time></trkpt><trkpt lat="43.445414243615694" lon="13.511253122261852"><ele>34.4</ele><time>2026-04-19T07:33:53.001Z</time></trkpt><trkpt lat="43.44551512294023" lon="13.511144165805078"><ele>34.8</ele><time>2026-04-19T07:33:54.002Z</time></trkpt><trkpt lat="43.44559908026423" lon="13.511040953958334"><ele>35.2</ele><time>2026-04-19T07:33:55.002Z</time></trkpt><trkpt lat="43.44567888545528" lon="13.510953630758433"><ele>35.6</ele><time>2026-04-19T07:33:56.002Z</time></trkpt><trkpt lat="43.44575837658726" lon="13.5108731763332"><ele>36.0</ele><time>2026-04-19T07:33:57.002Z</time></trkpt><trkpt lat="43.445837524712644" lon="13.510810849158092"><ele>36.0</ele><time>2026-04-19T07:33:58.002Z</time></trkpt><trkpt lat="43.44592054177958" lon="13.510752049526499"><ele>36.0</ele><time>2026-04-19T07:33:59.002Z</time></trkpt><trkpt lat="43.446001559067504" lon="13.510708665998596"><ele>36.0</ele><time>2026-04-19T07:34:00.002Z</time></trkpt><trkpt lat="43.446093184482166" lon="13.510665572383141"><ele>36.0</ele><time>2026-04-19T07:34:01.002Z</time></trkpt><trkpt lat="43.44614230428706" lon="13.510604545341204"><ele>36.0</ele><time>2026-04-19T07:34:02.002Z</time></trkpt><trkpt lat="43.44619061114933" lon="13.510528367309446"><ele>36.0</ele><time>2026-04-19T07:34:03.002Z</time></trkpt><trkpt lat="43.44618395389811" lon="13.510394461474771"><ele>36.4</ele><time>2026-04-19T07:34:04.002Z</time></trkpt><trkpt lat="43.44616550963793" lon="13.510278661128211"><ele>36.8</ele><time>2026-04-19T07:34:05.002Z</time></trkpt><trkpt lat="43.44614135127207" lon="13.51015342794298"><ele>37.199999999999996</ele><time>2026-04-19T07:34:06.002Z</time></trkpt><trkpt lat="43.44612801989778" lon="13.510022051642373"><ele>37.6</ele><time>2026-04-19T07:34:07.002Z</time></trkpt><trkpt lat="43.44607328259511" lon="13.509915190471146"><ele>38.0</ele><time>2026-04-19T07:34:08.002Z</time></trkpt><trkpt lat="43.44602261998426" lon="13.509830071745471"><ele>38.0</ele><time>2026-04-19T07:34:09.002Z</time></trkpt><trkpt lat="43.445976340892855" lon="13.50974924841056"><ele>38.0</ele><time>2026-04-19T07:34:10.002Z</time></trkpt><trkpt lat="43.4459071984031" lon="13.509735048941737"><ele>38.0</ele><time>2026-04-19T07:34:11.002Z</time></trkpt><trkpt lat="43.4458645166845" lon="13.509667233454785"><ele>38.0</ele><time>2026-04-19T07:34:12.002Z</time></trkpt><trkpt lat="43.445799910739126" lon="13.509571573889682"><ele>38.0</ele><time>2026-04-19T07:34:14Z</time></trkpt><trkpt lat="43.445826271992104" lon="13.509477116733773"><ele>38.0</ele><time>2026-04-19T07:34:15Z</time></trkpt><trkpt lat="43.44581593881739" lon="13.509377672353777"><ele>38.0</ele><time>2026-04-19T07:34:16Z</time></trkpt><trkpt lat="43.44583824008152" lon="13.50927581235339"><ele>38.0</ele><time>2026-04-19T07:34:17Z</time></trkpt><trkpt lat="43.44584600004388" lon="13.509159412887012"><ele>38.0</ele><time>2026-04-19T07:34:18Z</time></trkpt><trkpt lat="43.44585361678342" lon="13.509045161775116"><ele>38.0</ele><time>2026-04-19T07:34:19Z</time></trkpt><trkpt lat="43.44586276944812" lon="13.508907871835119"><ele>38.0</ele><time>2026-04-19T07:34:20Z</time></trkpt><trkpt lat="43.44587116659875" lon="13.508762733660106"><ele>38.5</ele><time>2026-04-19T07:34:21Z</time></trkpt><trkpt lat="43.445879921992024" lon="13.5086103449016"><ele>39.0</ele><time>2026-04-19T07:34:22Z</time></trkpt><trkpt lat="43.445890631912256" lon="13.508448010659619"><ele>39.5</ele><time>2026-04-19T07:34:23Z</time></trkpt><trkpt lat="43.44590220399953" lon="13.508281669191069"><ele>40.0</ele><time>2026-04-19T07:34:24Z</time></trkpt><trkpt lat="43.445904218850075" lon="13.508131295739014"><ele>40.0</ele><time>2026-04-19T07:34:25Z</time></trkpt><trkpt lat="43.4458878427283" lon="13.507966763393325"><ele>40.0</ele><time>2026-04-19T07:34:26Z</time></trkpt><trkpt lat="43.44584585007374" lon="13.507806065596434"><ele>40.0</ele><time>2026-04-19T07:34:27Z</time></trkpt><trkpt lat="43.44579833501598" lon="13.507645453592223"><ele>40.0</ele><time>2026-04-19T07:34:28Z</time></trkpt><trkpt lat="43.445752332621595" lon="13.50749825389726"><ele>40.0</ele><time>2026-04-19T07:34:29Z</time></trkpt><trkpt lat="43.44571111035398" lon="13.507356091464258"><ele>40.0</ele><time>2026-04-19T07:34:30Z</time></trkpt><trkpt lat="43.44567366024551" lon="13.507226938142548"><ele>40.0</ele><time>2026-04-19T07:34:31Z</time></trkpt><trkpt lat="43.44563599124075" lon="13.50710535066395"><ele>40.0</ele><time>2026-04-19T07:34:32Z</time></trkpt><trkpt lat="43.44558116641775" lon="13.506978915251072"><ele>40.0</ele><time>2026-04-19T07:34:33Z</time></trkpt><trkpt lat="43.445526922483054" lon="13.506865019941538"><ele>39.6</ele><time>2026-04-19T07:34:34Z</time></trkpt><trkpt lat="43.445478483147554" lon="13.506749892794664"><ele>39.2</ele><time>2026-04-19T07:34:35Z</time></trkpt><trkpt lat="43.44545007474787" lon="13.506626305892375"><ele>38.8</ele><time>2026-04-19T07:34:36Z</time></trkpt><trkpt lat="43.44542892188907" lon="13.506490602947013"><ele>38.4</ele><time>2026-04-19T07:34:37Z</time></trkpt><trkpt lat="43.44541103428051" lon="13.506367384441205"><ele>38.0</ele><time>2026-04-19T07:34:38Z</time></trkpt><trkpt lat="43.44539134377016" lon="13.50625972040836"><ele>37.83333333333333</ele><time>2026-04-19T07:34:39Z</time></trkpt><trkpt lat="43.445355954202405" lon="13.506167086048096"><ele>37.666666666666664</ele><time>2026-04-19T07:34:40Z</time></trkpt><trkpt lat="43.445336455948386" lon="13.506071762819255"><ele>37.5</ele><time>2026-04-19T07:34:41Z</time></trkpt><trkpt lat="43.44531272578429" lon="13.505991163936082"><ele>37.333333333333336</ele><time>2026-04-19T07:34:42Z</time></trkpt><trkpt lat="43.44530164708588" lon="13.505843298967612"><ele>37.16666666666667</ele><time>2026-04-19T07:34:44Z</time></trkpt><trkpt lat="43.445310984645644" lon="13.505738225553259"><ele>37.0</ele><time>2026-04-19T07:34:47.001Z</time></trkpt><trkpt lat="43.445376274127284" lon="13.505693677401219"><ele>37.0</ele><time>2026-04-19T07:34:48.001Z</time></trkpt><trkpt lat="43.44547426434636" lon="13.505617346460623"><ele>37.0</ele><time>2026-04-19T07:34:50.001Z</time></trkpt><trkpt lat="43.445541006267405" lon="13.50557152501449"><ele>37.0</ele><time>2026-04-19T07:34:51.001Z</time></trkpt><trkpt lat="43.445613715209134" lon="13.50552539137065"><ele>37.0</ele><time>2026-04-19T07:34:52.001Z</time></trkpt><trkpt lat="43.4456985077195" lon="13.505471220829708"><ele>37.0</ele><time>2026-04-19T07:34:53.001Z</time></trkpt><trkpt lat="43.44576938976386" lon="13.50543856253623"><ele>37.0</ele><time>2026-04-19T07:34:54.001Z</time></trkpt><trkpt lat="43.44583630532083" lon="13.505385258864212"><ele>37.16666666666667</ele><time>2026-04-19T07:34:55.001Z</time></trkpt><trkpt lat="43.445943657800306" lon="13.505314741369634"><ele>37.333333333333336</ele><time>2026-04-19T07:34:57.001Z</time></trkpt><trkpt lat="43.44600920375707" lon="13.50527462531803"><ele>37.5</ele><time>2026-04-19T07:34:58.001Z</time></trkpt><trkpt lat="43.44607264112189" lon="13.505233616868288"><ele>37.666666666666664</ele><time>2026-04-19T07:34:59.001Z</time></trkpt><trkpt lat="43.446145083753066" lon="13.50518408025093"><ele>37.83333333333333</ele><time>2026-04-19T07:35:00.001Z</time></trkpt><trkpt lat="43.446230831368815" lon="13.505122446219097"><ele>38.0</ele><time>2026-04-19T07:35:01.001Z</time></trkpt><trkpt lat="43.44632151280523" lon="13.505063644123437"><ele>38.25</ele><time>2026-04-19T07:35:02.001Z</time></trkpt><trkpt lat="43.44641210032274" lon="13.505002877749167"><ele>38.5</ele><time>2026-04-19T07:35:03.001Z</time></trkpt><trkpt lat="43.44652051136735" lon="13.504932214203825"><ele>38.75</ele><time>2026-04-19T07:35:04.001Z</time></trkpt><trkpt lat="43.44663039191463" lon="13.504862498514063"><ele>39.0</ele><time>2026-04-19T07:35:05.001Z</time></trkpt><trkpt lat="43.446742297063864" lon="13.504782580274258"><ele>39.0</ele><time>2026-04-19T07:35:06.001Z</time></trkpt><trkpt lat="43.44687002667528" lon="13.50472081379464"><ele>39.0</ele><time>2026-04-19T07:35:07.001Z</time></trkpt><trkpt lat="43.44698356441761" lon="13.504646097816211"><ele>39.0</ele><time>2026-04-19T07:35:08.001Z</time></trkpt><trkpt lat="43.447098295444576" lon="13.504551688253683"><ele>39.0</ele><time>2026-04-19T07:35:09.001Z</time></trkpt><trkpt lat="43.447219149539904" lon="13.504479323649218"><ele>39.0</ele><time>2026-04-19T07:35:10.001Z</time></trkpt><trkpt lat="43.44734188136795" lon="13.50439288004795"><ele>39.0</ele><time>2026-04-19T07:35:11.001Z</time></trkpt><trkpt lat="43.44747421582667" lon="13.50432570798825"><ele>39.0</ele><time>2026-04-19T07:35:12.001Z</time></trkpt><trkpt lat="43.447594214964425" lon="13.50422587359779"><ele>39.0</ele><time>2026-04-19T07:35:13.001Z</time></trkpt><trkpt lat="43.44772257456798" lon="13.504152201922828"><ele>39.0</ele><time>2026-04-19T07:35:14.001Z</time></trkpt><trkpt lat="43.447839343352285" lon="13.504070096978367"><ele>39.0</ele><time>2026-04-19T07:35:15.001Z</time></trkpt><trkpt lat="43.44796165302606" lon="13.503987200714034"><ele>39.0</ele><time>2026-04-19T07:35:16.001Z</time></trkpt><trkpt lat="43.44808665568422" lon="13.503904500041092"><ele>39.0</ele><time>2026-04-19T07:35:17.001Z</time></trkpt><trkpt lat="43.44821182306687" lon="13.503823042700473"><ele>39.0</ele><time>2026-04-19T07:35:18.001Z</time></trkpt><trkpt lat="43.44833368504525" lon="13.503746064868231"><ele>39.0</ele><time>2026-04-19T07:35:19.001Z</time></trkpt><trkpt lat="43.448457759399616" lon="13.503669404957211"><ele>39.0</ele><time>2026-04-19T07:35:20.001Z</time></trkpt><trkpt lat="43.44858188552988" lon="13.503589256777019"><ele>39.0</ele><time>2026-04-19T07:35:21.001Z</time></trkpt><trkpt lat="43.44871019871617" lon="13.503499600595989"><ele>39.25</ele><time>2026-04-19T07:35:22.001Z</time></trkpt><trkpt lat="43.44883713992008" lon="13.503419895449467"><ele>39.5</ele><time>2026-04-19T07:35:23.001Z</time></trkpt><trkpt lat="43.44896261335047" lon="13.503333637555418"><ele>39.75</ele><time>2026-04-19T07:35:24.001Z</time></trkpt><trkpt lat="43.44909295746473" lon="13.503253762071076"><ele>40.0</ele><time>2026-04-19T07:35:25.001Z</time></trkpt><trkpt lat="43.44922110230184" lon="13.50316709847852"><ele>40.0</ele><time>2026-04-19T07:35:26.001Z</time></trkpt><trkpt lat="43.449347169885485" lon="13.503086955596512"><ele>40.0</ele><time>2026-04-19T07:35:27.001Z</time></trkpt><trkpt lat="43.449480517404744" lon="13.502996333661802"><ele>40.0</ele><time>2026-04-19T07:35:28.001Z</time></trkpt><trkpt lat="43.449608443138025" lon="13.502922115806374"><ele>40.0</ele><time>2026-04-19T07:35:29.001Z</time></trkpt><trkpt lat="43.44974025096198" lon="13.502835150502802"><ele>39.75</ele><time>2026-04-19T07:35:30.001Z</time></trkpt><trkpt lat="43.44987417773311" lon="13.502743885016697"><ele>39.5</ele><time>2026-04-19T07:35:31.001Z</time></trkpt><trkpt lat="43.45000425490865" lon="13.502655828500306"><ele>39.25</ele><time>2026-04-19T07:35:32.001Z</time></trkpt><trkpt lat="43.450140893130886" lon="13.502569699841924"><ele>39.0</ele><time>2026-04-19T07:35:33.001Z</time></trkpt><trkpt lat="43.45027354562573" lon="13.502483929846834"><ele>39.0</ele><time>2026-04-19T07:35:34.001Z</time></trkpt><trkpt lat="43.45040715956557" lon="13.502387591437484"><ele>39.0</ele><time>2026-04-19T07:35:35.001Z</time></trkpt><trkpt lat="43.45054314391194" lon="13.502298244545536"><ele>39.0</ele><time>2026-04-19T07:35:36.001Z</time></trkpt><trkpt lat="43.45067819790373" lon="13.502221026686673"><ele>39.0</ele><time>2026-04-19T07:35:37.001Z</time></trkpt><trkpt lat="43.450797547442704" lon="13.5021462140879"><ele>38.75</ele><time>2026-04-19T07:35:38.001Z</time></trkpt><trkpt lat="43.45090312384489" lon="13.502073769426337"><ele>38.5</ele><time>2026-04-19T07:35:39.001Z</time></trkpt><trkpt lat="43.4510042248475" lon="13.502007677571772"><ele>38.25</ele><time>2026-04-19T07:35:40.001Z</time></trkpt><trkpt lat="43.45111267955217" lon="13.501949701199454"><ele>38.0</ele><time>2026-04-19T07:35:41.001Z</time></trkpt><trkpt lat="43.451209201166755" lon="13.501882020456097"><ele>38.199999999999996</ele><time>2026-04-19T07:35:42.001Z</time></trkpt><trkpt lat="43.45130698099701" lon="13.50181513034968"><ele>38.4</ele><time>2026-04-19T07:35:43.001Z</time></trkpt><trkpt lat="43.45140620528955" lon="13.501742724497078"><ele>38.599999999999994</ele><time>2026-04-19T07:35:44.001Z</time></trkpt><trkpt lat="43.451503824504734" lon="13.501674589882148"><ele>38.8</ele><time>2026-04-19T07:35:45.001Z</time></trkpt><trkpt lat="43.45159789511421" lon="13.501613490153488"><ele>39.0</ele><time>2026-04-19T07:35:46.001Z</time></trkpt><trkpt lat="43.45168575829246" lon="13.50155899025183"><ele>39.0</ele><time>2026-04-19T07:35:47.001Z</time></trkpt><trkpt lat="43.451763670534916" lon="13.501507605315124"><ele>39.0</ele><time>2026-04-19T07:35:48.001Z</time></trkpt><trkpt lat="43.45184725964503" lon="13.501445933772837"><ele>39.0</ele><time>2026-04-19T07:35:49.001Z</time></trkpt><trkpt lat="43.45193151615825" lon="13.501394749183124"><ele>39.0</ele><time>2026-04-19T07:35:50.001Z</time></trkpt><trkpt lat="43.45201231276504" lon="13.50133392363614"><ele>39.0</ele><time>2026-04-19T07:35:51.001Z</time></trkpt><trkpt lat="43.452097809168926" lon="13.501279793476293"><ele>38.6</ele><time>2026-04-19T07:35:52.001Z</time></trkpt><trkpt lat="43.45218680516071" lon="13.501221468056508"><ele>38.2</ele><time>2026-04-19T07:35:53.001Z</time></trkpt><trkpt lat="43.45227369582175" lon="13.501162289377957"><ele>37.800000000000004</ele><time>2026-04-19T07:35:54.002Z</time></trkpt><trkpt lat="43.452363266913416" lon="13.501104308275576"><ele>37.4</ele><time>2026-04-19T07:35:55.002Z</time></trkpt><trkpt lat="43.45245688179316" lon="13.501045202892506"><ele>37.0</ele><time>2026-04-19T07:35:56.002Z</time></trkpt><trkpt lat="43.45255353343664" lon="13.50099231416951"><ele>37.0</ele><time>2026-04-19T07:35:57.002Z</time></trkpt><trkpt lat="43.452641895345145" lon="13.500921893606547"><ele>37.0</ele><time>2026-04-19T07:35:58.002Z</time></trkpt><trkpt lat="43.452744010716884" lon="13.50086643555442"><ele>37.0</ele><time>2026-04-19T07:35:59.002Z</time></trkpt><trkpt lat="43.45284184963109" lon="13.500796921046792"><ele>37.0</ele><time>2026-04-19T07:36:00.002Z</time></trkpt><trkpt lat="43.45294992197813" lon="13.500732922597924"><ele>37.0</ele><time>2026-04-19T07:36:01.002Z</time></trkpt><trkpt lat="43.45305592288392" lon="13.500663202582862"><ele>37.25</ele><time>2026-04-19T07:36:02.002Z</time></trkpt><trkpt lat="43.45316875763724" lon="13.500590912579968"><ele>37.5</ele><time>2026-04-19T07:36:03.002Z</time></trkpt><trkpt lat="43.453285635103114" lon="13.500512970669357"><ele>37.75</ele><time>2026-04-19T07:36:04.002Z</time></trkpt><trkpt lat="43.45340099733688" lon="13.500429122050194"><ele>38.0</ele><time>2026-04-19T07:36:05.002Z</time></trkpt><trkpt lat="43.45351686518406" lon="13.500354507795903"><ele>38.25</ele><time>2026-04-19T07:36:06.002Z</time></trkpt><trkpt lat="43.453638124129384" lon="13.500271956865648"><ele>38.5</ele><time>2026-04-19T07:36:07.002Z</time></trkpt><trkpt lat="43.45376015807787" lon="13.500188805627676"><ele>38.75</ele><time>2026-04-19T07:36:08.002Z</time></trkpt><trkpt lat="43.45387957228886" lon="13.50011018525585"><ele>39.0</ele><time>2026-04-19T07:36:09.002Z</time></trkpt><trkpt lat="43.45400112628075" lon="13.500032991406409"><ele>39.0</ele><time>2026-04-19T07:36:10.002Z</time></trkpt><trkpt lat="43.45411568372171" lon="13.49996047633599"><ele>39.0</ele><time>2026-04-19T07:36:11.002Z</time></trkpt><trkpt lat="43.45423569349352" lon="13.49988595600203"><ele>39.0</ele><time>2026-04-19T07:36:12.002Z</time></trkpt><trkpt lat="43.45435717061892" lon="13.49981016804317"><ele>39.0</ele><time>2026-04-19T07:36:13.002Z</time></trkpt><trkpt lat="43.454475924371415" lon="13.499730577722127"><ele>39.0</ele><time>2026-04-19T07:36:14.002Z</time></trkpt><trkpt lat="43.454595874876084" lon="13.499647367120161"><ele>39.0</ele><time>2026-04-19T07:36:15.002Z</time></trkpt><trkpt lat="43.45471849536298" lon="13.499564791079894"><ele>39.0</ele><time>2026-04-19T07:36:16.002Z</time></trkpt><trkpt lat="43.45483674879717" lon="13.499490359253306"><ele>39.0</ele><time>2026-04-19T07:36:17.002Z</time></trkpt><trkpt lat="43.45496294857354" lon="13.49941801621403"><ele>39.5</ele><time>2026-04-19T07:36:18.002Z</time></trkpt><trkpt lat="43.45508652479007" lon="13.499333716723527"><ele>40.0</ele><time>2026-04-19T07:36:19Z</time></trkpt><trkpt lat="43.45521359521328" lon="13.499249793971488"><ele>40.5</ele><time>2026-04-19T07:36:20Z</time></trkpt><trkpt lat="43.45533621547443" lon="13.499158116380526"><ele>41.0</ele><time>2026-04-19T07:36:21Z</time></trkpt><trkpt lat="43.455464587164414" lon="13.499076518456365"><ele>41.25</ele><time>2026-04-19T07:36:22Z</time></trkpt><trkpt lat="43.45559300419569" lon="13.498992928376769"><ele>41.5</ele><time>2026-04-19T07:36:23Z</time></trkpt><trkpt lat="43.45571683989898" lon="13.49890742395648"><ele>41.75</ele><time>2026-04-19T07:36:24Z</time></trkpt><trkpt lat="43.45584633195681" lon="13.498821355425456"><ele>42.0</ele><time>2026-04-19T07:36:25Z</time></trkpt><trkpt lat="43.4559760069866" lon="13.498735426908025"><ele>42.25</ele><time>2026-04-19T07:36:26Z</time></trkpt><trkpt lat="43.456109360453794" lon="13.498671115656403"><ele>42.5</ele><time>2026-04-19T07:36:27Z</time></trkpt><trkpt lat="43.45624518004223" lon="13.498582833322082"><ele>42.75</ele><time>2026-04-19T07:36:28Z</time></trkpt><trkpt lat="43.45636807287194" lon="13.498479751831347"><ele>43.0</ele><time>2026-04-19T07:36:29Z</time></trkpt><trkpt lat="43.456505612501196" lon="13.498391504882099"><ele>42.5</ele><time>2026-04-19T07:36:30Z</time></trkpt><trkpt lat="43.45663656401584" lon="13.498308213107434"><ele>42.0</ele><time>2026-04-19T07:36:31Z</time></trkpt><trkpt lat="43.45676994723999" lon="13.498218068414516"><ele>41.5</ele><time>2026-04-19T07:36:32Z</time></trkpt><trkpt lat="43.456897766111496" lon="13.498131008835326"><ele>41.0</ele><time>2026-04-19T07:36:33Z</time></trkpt><trkpt lat="43.45702322030163" lon="13.49805201938313"><ele>40.75</ele><time>2026-04-19T07:36:34Z</time></trkpt><trkpt lat="43.457146839133024" lon="13.497969831258658"><ele>40.5</ele><time>2026-04-19T07:36:35Z</time></trkpt><trkpt lat="43.45726746739227" lon="13.497886791606424"><ele>40.25</ele><time>2026-04-19T07:36:36Z</time></trkpt><trkpt lat="43.45738597952041" lon="13.497810522284734"><ele>40.0</ele><time>2026-04-19T07:36:37Z</time></trkpt><trkpt lat="43.45749509629431" lon="13.497750665612985"><ele>40.4</ele><time>2026-04-19T07:36:38Z</time></trkpt><trkpt lat="43.457593815179564" lon="13.497682063416194"><ele>40.8</ele><time>2026-04-19T07:36:39Z</time></trkpt><trkpt lat="43.45768717079593" lon="13.497620780769697"><ele>41.2</ele><time>2026-04-19T07:36:40Z</time></trkpt><trkpt lat="43.45777365484077" lon="13.49756171947469"><ele>41.6</ele><time>2026-04-19T07:36:41Z</time></trkpt><trkpt lat="43.45784939031006" lon="13.497517513632868"><ele>42.0</ele><time>2026-04-19T07:36:42Z</time></trkpt><trkpt lat="43.457925692654804" lon="13.497477498570188"><ele>41.666666666666664</ele><time>2026-04-19T07:36:43Z</time></trkpt><trkpt lat="43.45798953645137" lon="13.497460389240633"><ele>41.333333333333336</ele><time>2026-04-19T07:36:44Z</time></trkpt><trkpt lat="43.458057933119484" lon="13.497457996047203"><ele>41.0</ele><time>2026-04-19T07:36:45Z</time></trkpt><trkpt lat="43.458180283343935" lon="13.497485999573613"><ele>40.66666666666667</ele><time>2026-04-19T07:36:47Z</time></trkpt><trkpt lat="43.45826407499094" lon="13.497378909551383"><ele>40.333333333333336</ele><time>2026-04-19T07:36:49Z</time></trkpt><trkpt lat="43.4582589464349" lon="13.497288865032532"><ele>40.0</ele><time>2026-04-19T07:36:50Z</time></trkpt><trkpt lat="43.45823047827959" lon="13.497201001014627"><ele>40.0</ele><time>2026-04-19T07:36:51Z</time></trkpt><trkpt lat="43.458188396801674" lon="13.497119580292848"><ele>40.0</ele><time>2026-04-19T07:36:52Z</time></trkpt><trkpt lat="43.458133702846375" lon="13.497032521477006"><ele>40.0</ele><time>2026-04-19T07:36:53Z</time></trkpt><trkpt lat="43.458098819470145" lon="13.496928553867617"><ele>40.0</ele><time>2026-04-19T07:36:54Z</time></trkpt><trkpt lat="43.45807459702619" lon="13.49678749545865"><ele>40.0</ele><time>2026-04-19T07:36:55Z</time></trkpt><trkpt lat="43.45806049909533" lon="13.496648307699083"><ele>40.0</ele><time>2026-04-19T07:36:56Z</time></trkpt><trkpt lat="43.45804529229564" lon="13.496488706927076"><ele>40.25</ele><time>2026-04-19T07:36:57Z</time></trkpt><trkpt lat="43.45802994328929" lon="13.496323076039408"><ele>40.5</ele><time>2026-04-19T07:36:58.001Z</time></trkpt><trkpt lat="43.458015534932024" lon="13.4961460276625"><ele>40.75</ele><time>2026-04-19T07:36:59.001Z</time></trkpt><trkpt lat="43.458001687996926" lon="13.495974769813653"><ele>41.0</ele><time>2026-04-19T07:37:00.001Z</time></trkpt><trkpt lat="43.457987681515455" lon="13.495804475294417"><ele>41.0</ele><time>2026-04-19T07:37:01.001Z</time></trkpt><trkpt lat="43.45797630791399" lon="13.495628911121008"><ele>41.0</ele><time>2026-04-19T07:37:02.001Z</time></trkpt><trkpt lat="43.45796980151302" lon="13.495457048868273"><ele>41.0</ele><time>2026-04-19T07:37:03.001Z</time></trkpt><trkpt lat="43.457972226564735" lon="13.495281686439533"><ele>41.0</ele><time>2026-04-19T07:37:04.001Z</time></trkpt><trkpt lat="43.45797648311132" lon="13.495103122088684"><ele>41.25</ele><time>2026-04-19T07:37:05.001Z</time></trkpt><trkpt lat="43.45798285452977" lon="13.494928177254899"><ele>41.5</ele><time>2026-04-19T07:37:06.001Z</time></trkpt><trkpt lat="43.457990446968225" lon="13.494746271264715"><ele>41.75</ele><time>2026-04-19T07:37:07.001Z</time></trkpt><trkpt lat="43.45799607663283" lon="13.494560537875627"><ele>42.0</ele><time>2026-04-19T07:37:08.001Z</time></trkpt><trkpt lat="43.458002573638964" lon="13.49437608310291"><ele>42.0</ele><time>2026-04-19T07:37:09.001Z</time></trkpt><trkpt lat="43.45801733585217" lon="13.494184809949699"><ele>42.0</ele><time>2026-04-19T07:37:10.001Z</time></trkpt><trkpt lat="43.458037593187385" lon="13.493999857303852"><ele>42.0</ele><time>2026-04-19T07:37:11.001Z</time></trkpt><trkpt lat="43.458071466509395" lon="13.493827215840984"><ele>42.0</ele><time>2026-04-19T07:37:12.001Z</time></trkpt><trkpt lat="43.458118729366326" lon="13.493658783976937"><ele>42.25</ele><time>2026-04-19T07:37:13.001Z</time></trkpt><trkpt lat="43.45817183594109" lon="13.493504415766234"><ele>42.5</ele><time>2026-04-19T07:37:14.001Z</time></trkpt><trkpt lat="43.4582397610186" lon="13.493345570746959"><ele>42.75</ele><time>2026-04-19T07:37:15.001Z</time></trkpt><trkpt lat="43.45831093247139" lon="13.493196371272461"><ele>43.0</ele><time>2026-04-19T07:37:16.001Z</time></trkpt><trkpt lat="43.458397107401865" lon="13.493057937819616"><ele>43.0</ele><time>2026-04-19T07:37:17.001Z</time></trkpt><trkpt lat="43.458494663550304" lon="13.49292862007298"><ele>43.0</ele><time>2026-04-19T07:37:18.001Z</time></trkpt><trkpt lat="43.458605726265816" lon="13.49281904791491"><ele>43.0</ele><time>2026-04-19T07:37:19.001Z</time></trkpt><trkpt lat="43.45871717861279" lon="13.492705502315054"><ele>43.0</ele><time>2026-04-19T07:37:20.001Z</time></trkpt><trkpt lat="43.458826158078146" lon="13.492597148738735"><ele>43.0</ele><time>2026-04-19T07:37:21.001Z</time></trkpt><trkpt lat="43.45893234854559" lon="13.492482133595825"><ele>43.0</ele><time>2026-04-19T07:37:22.001Z</time></trkpt><trkpt lat="43.45904697645061" lon="13.492356322643426"><ele>43.0</ele><time>2026-04-19T07:37:23.001Z</time></trkpt><trkpt lat="43.45915474221159" lon="13.49224012472279"><ele>43.0</ele><time>2026-04-19T07:37:24.001Z</time></trkpt><trkpt lat="43.45926877741513" lon="13.492108331881786"><ele>43.0</ele><time>2026-04-19T07:37:25.001Z</time></trkpt><trkpt lat="43.45937969425687" lon="13.49197586022802"><ele>43.0</ele><time>2026-04-19T07:37:26.001Z</time></trkpt><trkpt lat="43.459490087869085" lon="13.491837391639413"><ele>43.0</ele><time>2026-04-19T07:37:27.001Z</time></trkpt><trkpt lat="43.45959703201462" lon="13.49169465363229"><ele>43.0</ele><time>2026-04-19T07:37:28.001Z</time></trkpt><trkpt lat="43.45969593072242" lon="13.49154551370966"><ele>43.2</ele><time>2026-04-19T07:37:29.001Z</time></trkpt><trkpt lat="43.45977904263747" lon="13.491408695324354"><ele>43.4</ele><time>2026-04-19T07:37:30.001Z</time></trkpt><trkpt lat="43.459849343588644" lon="13.491286688673354"><ele>43.6</ele><time>2026-04-19T07:37:31.001Z</time></trkpt><trkpt lat="43.45991733733827" lon="13.491165415188593"><ele>43.800000000000004</ele><time>2026-04-19T07:37:32.001Z</time></trkpt><trkpt lat="43.45998107976249" lon="13.491073154423269"><ele>44.0</ele><time>2026-04-19T07:37:33.001Z</time></trkpt><trkpt lat="43.46004524917766" lon="13.491010740760045"><ele>44.142857142857146</ele><time>2026-04-19T07:37:34.001Z</time></trkpt><trkpt lat="43.46010965334501" lon="13.491001084160803"><ele>44.285714285714285</ele><time>2026-04-19T07:37:35.001Z</time></trkpt><trkpt lat="43.46018620083681" lon="13.491011362568933"><ele>44.42857142857143</ele><time>2026-04-19T07:37:36.001Z</time></trkpt><trkpt lat="43.460257857504224" lon="13.491051725209793"><ele>44.57142857142857</ele><time>2026-04-19T07:37:37.001Z</time></trkpt><trkpt lat="43.46033058498908" lon="13.49108501685761"><ele>44.714285714285715</ele><time>2026-04-19T07:37:38.001Z</time></trkpt><trkpt lat="43.46039653223998" lon="13.491101988345617"><ele>44.857142857142854</ele><time>2026-04-19T07:37:39.001Z</time></trkpt><trkpt lat="43.460458952163705" lon="13.49105995940116"><ele>45.0</ele><time>2026-04-19T07:37:40.001Z</time></trkpt><trkpt lat="43.46050245876472" lon="13.490972678141882"><ele>45.0</ele><time>2026-04-19T07:37:41.001Z</time></trkpt><trkpt lat="43.46050742287677" lon="13.490766513416125"><ele>45.0</ele><time>2026-04-19T07:37:43.001Z</time></trkpt><trkpt lat="43.4604489662123" lon="13.490663986257745"><ele>45.0</ele><time>2026-04-19T07:37:44.001Z</time></trkpt><trkpt lat="43.46039450512882" lon="13.49054822068131"><ele>45.0</ele><time>2026-04-19T07:37:45.001Z</time></trkpt><trkpt lat="43.460338903316575" lon="13.490426332653572"><ele>45.0</ele><time>2026-04-19T07:37:46.001Z</time></trkpt><trkpt lat="43.46029455969863" lon="13.490282662001777"><ele>45.25</ele><time>2026-04-19T07:37:47.001Z</time></trkpt><trkpt lat="43.46026378445927" lon="13.49012856796368"><ele>45.5</ele><time>2026-04-19T07:37:48.001Z</time></trkpt><trkpt lat="43.46026431078934" lon="13.489950644159903"><ele>45.75</ele><time>2026-04-19T07:37:49.001Z</time></trkpt><trkpt lat="43.46025718656176" lon="13.48976541424196"><ele>46.0</ele><time>2026-04-19T07:37:50.001Z</time></trkpt><trkpt lat="43.460236322312724" lon="13.489596652889665"><ele>46.25</ele><time>2026-04-19T07:37:51.001Z</time></trkpt><trkpt lat="43.46023117256113" lon="13.489409434437418"><ele>46.5</ele><time>2026-04-19T07:37:52.001Z</time></trkpt><trkpt lat="43.460223652364874" lon="13.489222877995216"><ele>46.75</ele><time>2026-04-19T07:37:53.001Z</time></trkpt><trkpt lat="43.460215645756925" lon="13.489046629988556"><ele>47.0</ele><time>2026-04-19T07:37:54.001Z</time></trkpt><trkpt lat="43.46020851065421" lon="13.488887872403659"><ele>46.83333333333333</ele><time>2026-04-19T07:37:55.001Z</time></trkpt><trkpt lat="43.46020091793224" lon="13.488741382730256"><ele>46.666666666666664</ele><time>2026-04-19T07:37:56.001Z</time></trkpt><trkpt lat="43.46019755799546" lon="13.488608337994041"><ele>46.5</ele><time>2026-04-19T07:37:57.001Z</time></trkpt><trkpt lat="43.46019695335836" lon="13.488486792301186"><ele>46.333333333333336</ele><time>2026-04-19T07:37:58.001Z</time></trkpt><trkpt lat="43.46020741943953" lon="13.488365404112303"><ele>46.16666666666667</ele><time>2026-04-19T07:37:59.001Z</time></trkpt><trkpt lat="43.46020594257946" lon="13.488274602874522"><ele>46.0</ele><time>2026-04-19T07:38:00.001Z</time></trkpt><trkpt lat="43.46008645513704" lon="13.488229409102276"><ele>46.0</ele><time>2026-04-19T07:38:02.001Z</time></trkpt><trkpt lat="43.46001860761399" lon="13.488248477779981"><ele>46.0</ele><time>2026-04-19T07:38:03.001Z</time></trkpt><trkpt lat="43.45994215088692" lon="13.488282992709664"><ele>46.0</ele><time>2026-04-19T07:38:04.001Z</time></trkpt><trkpt lat="43.459859568839796" lon="13.488315082189652"><ele>46.0</ele><time>2026-04-19T07:38:05.001Z</time></trkpt><trkpt lat="43.45976621421032" lon="13.488343795685626"><ele>46.0</ele><time>2026-04-19T07:38:06.001Z</time></trkpt><trkpt lat="43.45965101192876" lon="13.488384146153463"><ele>45.75</ele><time>2026-04-19T07:38:07.001Z</time></trkpt><trkpt lat="43.459537528968774" lon="13.488422445166867"><ele>45.5</ele><time>2026-04-19T07:38:08.001Z</time></trkpt><trkpt lat="43.45941149952272" lon="13.48845614994179"><ele>45.25</ele><time>2026-04-19T07:38:09.002Z</time></trkpt><trkpt lat="43.459286859753234" lon="13.488507535148804"><ele>45.0</ele><time>2026-04-19T07:38:10.002Z</time></trkpt><trkpt lat="43.45916005284748" lon="13.488549082055167"><ele>45.0</ele><time>2026-04-19T07:38:11.002Z</time></trkpt><trkpt lat="43.45903211469851" lon="13.488591502047383"><ele>45.0</ele><time>2026-04-19T07:38:12.002Z</time></trkpt><trkpt lat="43.458905623916614" lon="13.48863612352057"><ele>45.0</ele><time>2026-04-19T07:38:13.002Z</time></trkpt><trkpt lat="43.45877665749058" lon="13.488670928907332"><ele>45.0</ele><time>2026-04-19T07:38:14.002Z</time></trkpt><trkpt lat="43.45865013895877" lon="13.488722949609977"><ele>45.0</ele><time>2026-04-19T07:38:15.002Z</time></trkpt><trkpt lat="43.45852470983678" lon="13.488761943265287"><ele>45.0</ele><time>2026-04-19T07:38:16.002Z</time></trkpt><trkpt lat="43.45839696065997" lon="13.48880294008819"><ele>45.0</ele><time>2026-04-19T07:38:17.002Z</time></trkpt><trkpt lat="43.45826657835211" lon="13.488846768875161"><ele>45.0</ele><time>2026-04-19T07:38:18.002Z</time></trkpt><trkpt lat="43.45814237959232" lon="13.488891073364718"><ele>45.0</ele><time>2026-04-19T07:38:19.002Z</time></trkpt><trkpt lat="43.458025873837585" lon="13.48893037909862"><ele>45.0</ele><time>2026-04-19T07:38:20.002Z</time></trkpt><trkpt lat="43.457890167331435" lon="13.488972847883817"><ele>45.0</ele><time>2026-04-19T07:38:21.002Z</time></trkpt><trkpt lat="43.457755472366344" lon="13.489014793539214"><ele>45.0</ele><time>2026-04-19T07:38:22.002Z</time></trkpt><trkpt lat="43.45762208810398" lon="13.489062323450478"><ele>44.75</ele><time>2026-04-19T07:38:23.002Z</time></trkpt><trkpt lat="43.45748649235477" lon="13.489110194801663"><ele>44.5</ele><time>2026-04-19T07:38:24.002Z</time></trkpt><trkpt lat="43.45734981489076" lon="13.489158095293169"><ele>44.25</ele><time>2026-04-19T07:38:25Z</time></trkpt><trkpt lat="43.457208490845865" lon="13.489197678964288"><ele>44.0</ele><time>2026-04-19T07:38:26Z</time></trkpt><trkpt lat="43.4570724444535" lon="13.489243460888181"><ele>44.0</ele><time>2026-04-19T07:38:27Z</time></trkpt><trkpt lat="43.45693643859531" lon="13.489300537963917"><ele>44.0</ele><time>2026-04-19T07:38:28Z</time></trkpt><trkpt lat="43.45679861947107" lon="13.489345985616277"><ele>44.0</ele><time>2026-04-19T07:38:29Z</time></trkpt><trkpt lat="43.456670346582094" lon="13.4893871377538"><ele>44.0</ele><time>2026-04-19T07:38:30Z</time></trkpt><trkpt lat="43.45653230441863" lon="13.489435737198287"><ele>44.0</ele><time>2026-04-19T07:38:31Z</time></trkpt><trkpt lat="43.45639459462157" lon="13.489480609458825"><ele>44.0</ele><time>2026-04-19T07:38:32Z</time></trkpt><trkpt lat="43.456259411230654" lon="13.489522249070726"><ele>44.0</ele><time>2026-04-19T07:38:33Z</time></trkpt><trkpt lat="43.45611570217873" lon="13.489565132349902"><ele>44.0</ele><time>2026-04-19T07:38:34Z</time></trkpt><trkpt lat="43.455975640208074" lon="13.489613580784626"><ele>43.25</ele><time>2026-04-19T07:38:35Z</time></trkpt><trkpt lat="43.45584077503226" lon="13.489663369232034"><ele>42.5</ele><time>2026-04-19T07:38:36Z</time></trkpt><trkpt lat="43.45569760387534" lon="13.489713358753303"><ele>41.75</ele><time>2026-04-19T07:38:37Z</time></trkpt><trkpt lat="43.4555618448272" lon="13.489761692665605"><ele>41.0</ele><time>2026-04-19T07:38:38Z</time></trkpt><trkpt lat="43.45542215824296" lon="13.489811438895078"><ele>40.75</ele><time>2026-04-19T07:38:39Z</time></trkpt><trkpt lat="43.45528277922566" lon="13.489839973022791"><ele>40.5</ele><time>2026-04-19T07:38:40Z</time></trkpt><trkpt lat="43.45514691991038" lon="13.489887404657615"><ele>40.25</ele><time>2026-04-19T07:38:41Z</time></trkpt><trkpt lat="43.4550164943531" lon="13.48993293934561"><ele>40.0</ele><time>2026-04-19T07:38:42Z</time></trkpt><trkpt lat="43.45488767437297" lon="13.489977913498024"><ele>40.0</ele><time>2026-04-19T07:38:43Z</time></trkpt><trkpt lat="43.45475789419622" lon="13.490023222672995"><ele>40.0</ele><time>2026-04-19T07:38:44Z</time></trkpt><trkpt lat="43.454634165817225" lon="13.49007963781724"><ele>40.0</ele><time>2026-04-19T07:38:45Z</time></trkpt><trkpt lat="43.45451186782915" lon="13.490126948647223"><ele>40.0</ele><time>2026-04-19T07:38:46Z</time></trkpt><trkpt lat="43.45439067974771" lon="13.490159238219356"><ele>40.4</ele><time>2026-04-19T07:38:47Z</time></trkpt><trkpt lat="43.454273899899555" lon="13.490192529941561"><ele>40.8</ele><time>2026-04-19T07:38:48Z</time></trkpt><trkpt lat="43.45415869083707" lon="13.490219807551862"><ele>41.2</ele><time>2026-04-19T07:38:49Z</time></trkpt><trkpt lat="43.45406345038155" lon="13.490237125142887"><ele>41.6</ele><time>2026-04-19T07:38:50Z</time></trkpt><trkpt lat="43.45397762404298" lon="13.490251076734525"><ele>42.0</ele><time>2026-04-19T07:38:51Z</time></trkpt><trkpt lat="43.45390360007038" lon="13.49026047345721"><ele>42.0</ele><time>2026-04-19T07:38:52Z</time></trkpt><trkpt lat="43.45383323310429" lon="13.49026712607404"><ele>42.0</ele><time>2026-04-19T07:38:53Z</time></trkpt><trkpt lat="43.45375746628609" lon="13.49028713830473"><ele>42.0</ele><time>2026-04-19T07:38:54Z</time></trkpt><trkpt lat="43.45368301448892" lon="13.490337137173976"><ele>42.0</ele><time>2026-04-19T07:38:55Z</time></trkpt><trkpt lat="43.453606248582055" lon="13.49041074302042"><ele>42.0</ele><time>2026-04-19T07:38:56Z</time></trkpt><trkpt lat="43.453505106589205" lon="13.490470834827622"><ele>42.0</ele><time>2026-04-19T07:38:57Z</time></trkpt><trkpt lat="43.45341354545194" lon="13.490561137464745"><ele>42.25</ele><time>2026-04-19T07:38:58Z</time></trkpt><trkpt lat="43.45330261434864" lon="13.490637934425903"><ele>42.5</ele><time>2026-04-19T07:38:59Z</time></trkpt><trkpt lat="43.45318169944885" lon="13.490706418729157"><ele>42.75</ele><time>2026-04-19T07:39:00Z</time></trkpt><trkpt lat="43.45305559766783" lon="13.490789942315503"><ele>43.0</ele><time>2026-04-19T07:39:01Z</time></trkpt><trkpt lat="43.452925188575826" lon="13.490880089384014"><ele>42.0</ele><time>2026-04-19T07:39:02Z</time></trkpt><trkpt lat="43.45279234171209" lon="13.490973253378609"><ele>41.0</ele><time>2026-04-19T07:39:03Z</time></trkpt><trkpt lat="43.45265611882786" lon="13.491067635999999"><ele>40.0</ele><time>2026-04-19T07:39:04.001Z</time></trkpt><trkpt lat="43.45251536095759" lon="13.491149237689884"><ele>40.0</ele><time>2026-04-19T07:39:05.001Z</time></trkpt><trkpt lat="43.452382556430194" lon="13.49125434127077"><ele>40.0</ele><time>2026-04-19T07:39:06.001Z</time></trkpt><trkpt lat="43.4522620530644" lon="13.491342070913076"><ele>40.0</ele><time>2026-04-19T07:39:07.001Z</time></trkpt><trkpt lat="43.45214843102739" lon="13.491433026183874"><ele>40.0</ele><time>2026-04-19T07:39:08.001Z</time></trkpt><trkpt lat="43.45203868735381" lon="13.491526462271446"><ele>40.0</ele><time>2026-04-19T07:39:09.001Z</time></trkpt><trkpt lat="43.45192747768143" lon="13.491619228705494"><ele>40.0</ele><time>2026-04-19T07:39:10.001Z</time></trkpt><trkpt lat="43.45182252448719" lon="13.491702982233795"><ele>40.0</ele><time>2026-04-19T07:39:11.001Z</time></trkpt><trkpt lat="43.451727064900574" lon="13.491776068660117"><ele>40.0</ele><time>2026-04-19T07:39:12.001Z</time></trkpt><trkpt lat="43.45163994979044" lon="13.491847667419247"><ele>40.0</ele><time>2026-04-19T07:39:13.001Z</time></trkpt><trkpt lat="43.45155536563466" lon="13.491912932455506"><ele>40.0</ele><time>2026-04-19T07:39:14.001Z</time></trkpt><trkpt lat="43.451477231279625" lon="13.491973708207357"><ele>40.0</ele><time>2026-04-19T07:39:15.001Z</time></trkpt><trkpt lat="43.451401679282604" lon="13.492028668252678"><ele>40.0</ele><time>2026-04-19T07:39:16.001Z</time></trkpt><trkpt lat="43.451333347585965" lon="13.492076951271205"><ele>40.0</ele><time>2026-04-19T07:39:17.001Z</time></trkpt><trkpt lat="43.45126780421962" lon="13.492122389731044"><ele>40.0</ele><time>2026-04-19T07:39:18.001Z</time></trkpt><trkpt lat="43.451205872051375" lon="13.492164906045307"><ele>40.333333333333336</ele><time>2026-04-19T07:39:19.001Z</time></trkpt><trkpt lat="43.45114358709352" lon="13.492212323350683"><ele>40.66666666666667</ele><time>2026-04-19T07:39:20.001Z</time></trkpt><trkpt lat="43.45107975977308" lon="13.492266924297674"><ele>41.0</ele><time>2026-04-19T07:39:21.001Z</time></trkpt><trkpt lat="43.45100934985944" lon="13.49232816289307"><ele>41.333333333333336</ele><time>2026-04-19T07:39:22.001Z</time></trkpt><trkpt lat="43.450935470233865" lon="13.492399574661137"><ele>41.666666666666664</ele><time>2026-04-19T07:39:23.001Z</time></trkpt><trkpt lat="43.45087258058957" lon="13.492482214192925"><ele>42.0</ele><time>2026-04-19T07:39:24.001Z</time></trkpt><trkpt lat="43.45082337991498" lon="13.492563011563217"><ele>42.0</ele><time>2026-04-19T07:39:25.001Z</time></trkpt><trkpt lat="43.45077743061565" lon="13.492631096754222"><ele>42.0</ele><time>2026-04-19T07:39:26.001Z</time></trkpt><trkpt lat="43.45069325089846" lon="13.492647452817453"><ele>42.0</ele><time>2026-04-19T07:39:28.001Z</time></trkpt><trkpt lat="43.45062794606924" lon="13.492609023243995"><ele>42.0</ele><time>2026-04-19T07:39:31.001Z</time></trkpt><trkpt lat="43.45069845966203" lon="13.492517372784382"><ele>42.0</ele><time>2026-04-19T07:39:34.001Z</time></trkpt><trkpt lat="43.45076172069414" lon="13.492362054396006"><ele>42.0</ele><time>2026-04-19T07:39:36.001Z</time></trkpt><trkpt lat="43.45080073678776" lon="13.492266731587913"><ele>42.0</ele><time>2026-04-19T07:39:37.001Z</time></trkpt><trkpt lat="43.45083155082653" lon="13.492154092748518"><ele>42.0</ele><time>2026-04-19T07:39:38.001Z</time></trkpt><trkpt lat="43.45087311342442" lon="13.4920497454081"><ele>42.0</ele><time>2026-04-19T07:39:39.001Z</time></trkpt><trkpt lat="43.450915913738875" lon="13.491944563086898"><ele>42.0</ele><time>2026-04-19T07:39:40.001Z</time></trkpt><trkpt lat="43.45095855108047" lon="13.491839048253794"><ele>42.0</ele><time>2026-04-19T07:39:41.001Z</time></trkpt><trkpt lat="43.45100435379188" lon="13.491719538029454"><ele>41.6</ele><time>2026-04-19T07:39:42.001Z</time></trkpt><trkpt lat="43.4510504323517" lon="13.491599057070164"><ele>41.2</ele><time>2026-04-19T07:39:43.001Z</time></trkpt><trkpt lat="43.4510984430357" lon="13.491474249578994"><ele>40.8</ele><time>2026-04-19T07:39:44.001Z</time></trkpt><trkpt lat="43.451144400620095" lon="13.491352598073671"><ele>40.4</ele><time>2026-04-19T07:39:45.001Z</time></trkpt><trkpt lat="43.45118819477341" lon="13.491241035087334"><ele>40.0</ele><time>2026-04-19T07:39:46.001Z</time></trkpt><trkpt lat="43.4512341902013" lon="13.491119599911508"><ele>40.0</ele><time>2026-04-19T07:39:47.001Z</time></trkpt><trkpt lat="43.45128293285153" lon="13.490995408270914"><ele>40.0</ele><time>2026-04-19T07:39:48.001Z</time></trkpt><trkpt lat="43.451329005101215" lon="13.490868924518447"><ele>40.0</ele><time>2026-04-19T07:39:49.001Z</time></trkpt><trkpt lat="43.45137382089766" lon="13.490743011328215"><ele>40.0</ele><time>2026-04-19T07:39:50.001Z</time></trkpt><trkpt lat="43.45142269058284" lon="13.490615275381534"><ele>40.0</ele><time>2026-04-19T07:39:51.001Z</time></trkpt><trkpt lat="43.45147655376498" lon="13.490479856604102"><ele>40.5</ele><time>2026-04-19T07:39:52.001Z</time></trkpt><trkpt lat="43.45152817852047" lon="13.490350669521062"><ele>41.0</ele><time>2026-04-19T07:39:53.001Z</time></trkpt><trkpt lat="43.45158359021417" lon="13.490213205109603"><ele>41.5</ele><time>2026-04-19T07:39:54.001Z</time></trkpt><trkpt lat="43.45163662973897" lon="13.490073671274981"><ele>42.0</ele><time>2026-04-19T07:39:55.001Z</time></trkpt><trkpt lat="43.451695927124355" lon="13.489927773658154"><ele>42.0</ele><time>2026-04-19T07:39:56.001Z</time></trkpt><trkpt lat="43.45175986063752" lon="13.48979121635477"><ele>42.0</ele><time>2026-04-19T07:39:57.001Z</time></trkpt><trkpt lat="43.45181540576992" lon="13.489645759835035"><ele>42.0</ele><time>2026-04-19T07:39:58.001Z</time></trkpt><trkpt lat="43.4518566477528" lon="13.489495763039514"><ele>42.0</ele><time>2026-04-19T07:39:59.001Z</time></trkpt><trkpt lat="43.451912580194254" lon="13.489361182292056"><ele>42.0</ele><time>2026-04-19T07:40:00.001Z</time></trkpt><trkpt lat="43.451967086519446" lon="13.48922698972311"><ele>42.0</ele><time>2026-04-19T07:40:01.001Z</time></trkpt><trkpt lat="43.452028388696945" lon="13.489107481887052"><ele>42.0</ele><time>2026-04-19T07:40:02.001Z</time></trkpt><trkpt lat="43.4520675828089" lon="13.488974789918997"><ele>42.0</ele><time>2026-04-19T07:40:03.001Z</time></trkpt><trkpt lat="43.45212965818462" lon="13.488850325895918"><ele>42.0</ele><time>2026-04-19T07:40:04.001Z</time></trkpt><trkpt lat="43.452181415303684" lon="13.488718778643396"><ele>42.2</ele><time>2026-04-19T07:40:05.001Z</time></trkpt><trkpt lat="43.45222385719898" lon="13.48857462819614"><ele>42.400000000000006</ele><time>2026-04-19T07:40:06.001Z</time></trkpt><trkpt lat="43.45228245696009" lon="13.488444707720138"><ele>42.599999999999994</ele><time>2026-04-19T07:40:07.001Z</time></trkpt><trkpt lat="43.45234179040956" lon="13.488320112326749"><ele>42.8</ele><time>2026-04-19T07:40:08.001Z</time></trkpt><trkpt lat="43.45238422782509" lon="13.48820243497769"><ele>43.0</ele><time>2026-04-19T07:40:09.001Z</time></trkpt><trkpt lat="43.452419220116774" lon="13.488094010466154"><ele>43.0</ele><time>2026-04-19T07:40:10.001Z</time></trkpt><trkpt lat="43.452452131118626" lon="13.488005210042333"><ele>43.0</ele><time>2026-04-19T07:40:11.001Z</time></trkpt><trkpt lat="43.45247832898506" lon="13.487912834356452"><ele>43.0</ele><time>2026-04-19T07:40:13.001Z</time></trkpt><trkpt lat="43.45242633469683" lon="13.487768473774024"><ele>43.0</ele><time>2026-04-19T07:40:16.001Z</time></trkpt><trkpt lat="43.45237672226504" lon="13.48769052532319"><ele>43.0</ele><time>2026-04-19T07:40:17.001Z</time></trkpt><trkpt lat="43.45232144307362" lon="13.487587495036541"><ele>43.0</ele><time>2026-04-19T07:40:18.001Z</time></trkpt><trkpt lat="43.45224742232468" lon="13.487484102737449"><ele>43.25</ele><time>2026-04-19T07:40:19.001Z</time></trkpt><trkpt lat="43.4521599844009" lon="13.48739065154593"><ele>43.5</ele><time>2026-04-19T07:40:20.001Z</time></trkpt><trkpt lat="43.452082451186904" lon="13.487282757496672"><ele>43.75</ele><time>2026-04-19T07:40:21.002Z</time></trkpt><trkpt lat="43.45201213885162" lon="13.48715598632242"><ele>44.0</ele><time>2026-04-19T07:40:22.002Z</time></trkpt><trkpt lat="43.45191895505602" lon="13.487050788164348"><ele>43.0</ele><time>2026-04-19T07:40:23.002Z</time></trkpt><trkpt lat="43.45182995778004" lon="13.486919254855593"><ele>42.0</ele><time>2026-04-19T07:40:24.002Z</time></trkpt><trkpt lat="43.45173934503327" lon="13.486782786364493"><ele>41.0</ele><time>2026-04-19T07:40:25.002Z</time></trkpt><trkpt lat="43.45164421744983" lon="13.486650319609442"><ele>40.0</ele><time>2026-04-19T07:40:26.002Z</time></trkpt><trkpt lat="43.45155077859795" lon="13.486511713568703"><ele>40.0</ele><time>2026-04-19T07:40:27.002Z</time></trkpt><trkpt lat="43.45146375328319" lon="13.486374520798671"><ele>40.0</ele><time>2026-04-19T07:40:28.002Z</time></trkpt><trkpt lat="43.45137780786778" lon="13.486242918789364"><ele>40.0</ele><time>2026-04-19T07:40:29.002Z</time></trkpt><trkpt lat="43.45130154840714" lon="13.486122900823435"><ele>40.0</ele><time>2026-04-19T07:40:30.002Z</time></trkpt><trkpt lat="43.45123595774457" lon="13.486005811290878"><ele>39.66666666666667</ele><time>2026-04-19T07:40:31Z</time></trkpt><trkpt lat="43.4511704841211" lon="13.48590117772957"><ele>39.333333333333336</ele><time>2026-04-19T07:40:32Z</time></trkpt><trkpt lat="43.45112051978993" lon="13.48580299350549"><ele>39.0</ele><time>2026-04-19T07:40:33Z</time></trkpt><trkpt lat="43.45105571180777" lon="13.48573724206206"><ele>38.666666666666664</ele><time>2026-04-19T07:40:34Z</time></trkpt><trkpt lat="43.45100428803145" lon="13.485656220906991"><ele>38.33333333333333</ele><time>2026-04-19T07:40:35Z</time></trkpt><trkpt lat="43.45094951819639" lon="13.485575048411897"><ele>38.0</ele><time>2026-04-19T07:40:36Z</time></trkpt><trkpt lat="43.45089565588219" lon="13.485510628192303"><ele>38.0</ele><time>2026-04-19T07:40:37Z</time></trkpt><trkpt lat="43.45085011536057" lon="13.48543838022106"><ele>38.0</ele><time>2026-04-19T07:40:38Z</time></trkpt><trkpt lat="43.45077670180382" lon="13.485327813490917"><ele>38.0</ele><time>2026-04-19T07:40:40Z</time></trkpt><trkpt lat="43.45076098850661" lon="13.485236477852235"><ele>38.0</ele><time>2026-04-19T07:40:42Z</time></trkpt><trkpt lat="43.450854064162684" lon="13.485102506946877"><ele>38.0</ele><time>2026-04-19T07:40:55Z</time></trkpt><trkpt lat="43.45096878622619" lon="13.48505067650527"><ele>38.33333333333333</ele><time>2026-04-19T07:40:57Z</time></trkpt><trkpt lat="43.45107685620188" lon="13.484951674070071"><ele>38.666666666666664</ele><time>2026-04-19T07:40:59Z</time></trkpt><trkpt lat="43.451127068892276" lon="13.484890964357028"><ele>39.0</ele><time>2026-04-19T07:41:00Z</time></trkpt><trkpt lat="43.45117625395711" lon="13.484820800195312"><ele>39.333333333333336</ele><time>2026-04-19T07:41:01Z</time></trkpt><trkpt lat="43.45122162373481" lon="13.484749081145662"><ele>39.66666666666667</ele><time>2026-04-19T07:41:02Z</time></trkpt><trkpt lat="43.45127140360238" lon="13.48466709513703"><ele>40.0</ele><time>2026-04-19T07:41:03Z</time></trkpt><trkpt lat="43.4513130036745" lon="13.484586529253907"><ele>40.66666666666667</ele><time>2026-04-19T07:41:04Z</time></trkpt><trkpt lat="43.451354821296114" lon="13.484496058483224"><ele>41.333333333333336</ele><time>2026-04-19T07:41:05Z</time></trkpt><trkpt lat="43.45139217254342" lon="13.484401163696342"><ele>42.0</ele><time>2026-04-19T07:41:06Z</time></trkpt><trkpt lat="43.4514214174871" lon="13.484323811690805"><ele>42.666666666666664</ele><time>2026-04-19T07:41:07Z</time></trkpt><trkpt lat="43.45146089185426" lon="13.484239368710783"><ele>43.33333333333333</ele><time>2026-04-19T07:41:09Z</time></trkpt><trkpt lat="43.45153418610852" lon="13.484201923579372"><ele>44.0</ele><time>2026-04-19T07:41:12Z</time></trkpt><trkpt lat="43.45162483544486" lon="13.484150549073819"><ele>44.0</ele><time>2026-04-19T07:41:14Z</time></trkpt><trkpt lat="43.451733209112724" lon="13.484056468485173"><ele>44.0</ele><time>2026-04-19T07:41:16.001Z</time></trkpt><trkpt lat="43.451769314309885" lon="13.483968826818902"><ele>44.0</ele><time>2026-04-19T07:41:17.001Z</time></trkpt><trkpt lat="43.451800108812165" lon="13.483886581920917"><ele>44.0</ele><time>2026-04-19T07:41:18.001Z</time></trkpt><trkpt lat="43.451832795513546" lon="13.483809657578254"><ele>44.0</ele><time>2026-04-19T07:41:19.001Z</time></trkpt><trkpt lat="43.451859235252314" lon="13.483709954861743"><ele>44.0</ele><time>2026-04-19T07:41:20.001Z</time></trkpt><trkpt lat="43.45190245196875" lon="13.483618134390015"><ele>43.83333333333333</ele><time>2026-04-19T07:41:21.001Z</time></trkpt><trkpt lat="43.45194171037022" lon="13.483524207990532"><ele>43.666666666666664</ele><time>2026-04-19T07:41:22.001Z</time></trkpt><trkpt lat="43.45199299547276" lon="13.483420319287852"><ele>43.5</ele><time>2026-04-19T07:41:23.001Z</time></trkpt><trkpt lat="43.45204135514" lon="13.483319025267948"><ele>43.333333333333336</ele><time>2026-04-19T07:41:24.001Z</time></trkpt><trkpt lat="43.45210382721399" lon="13.483217418575503"><ele>43.16666666666667</ele><time>2026-04-19T07:41:25.001Z</time></trkpt><trkpt lat="43.45216445646967" lon="13.48312171454487"><ele>43.0</ele><time>2026-04-19T07:41:26.001Z</time></trkpt><trkpt lat="43.45223149687908" lon="13.483015638722582"><ele>42.599999999999994</ele><time>2026-04-19T07:41:27.001Z</time></trkpt><trkpt lat="43.45230078036867" lon="13.482906721390183"><ele>42.199999999999996</ele><time>2026-04-19T07:41:28.001Z</time></trkpt><trkpt lat="43.452362804742066" lon="13.482806791704842"><ele>41.8</ele><time>2026-04-19T07:41:29.001Z</time></trkpt><trkpt lat="43.452430436786145" lon="13.482709906822636"><ele>41.4</ele><time>2026-04-19T07:41:30.001Z</time></trkpt><trkpt lat="43.452489797647125" lon="13.4826148387967"><ele>41.0</ele><time>2026-04-19T07:41:31.001Z</time></trkpt><trkpt lat="43.45253926834774" lon="13.482530467654513"><ele>41.0</ele><time>2026-04-19T07:41:32.001Z</time></trkpt><trkpt lat="43.45258484117189" lon="13.482448671526907"><ele>41.0</ele><time>2026-04-19T07:41:33.001Z</time></trkpt><trkpt lat="43.45263093679986" lon="13.482379259669873"><ele>41.0</ele><time>2026-04-19T07:41:34.001Z</time></trkpt><trkpt lat="43.45269144719114" lon="13.482291464875177"><ele>41.0</ele><time>2026-04-19T07:41:35.001Z</time></trkpt><trkpt lat="43.452765302301785" lon="13.482208939389302"><ele>41.0</ele><time>2026-04-19T07:41:36.001Z</time></trkpt><trkpt lat="43.4528435777498" lon="13.4821187563046"><ele>41.0</ele><time>2026-04-19T07:41:37.001Z</time></trkpt><trkpt lat="43.45292203874144" lon="13.482012901088181"><ele>41.0</ele><time>2026-04-19T07:41:38.001Z</time></trkpt><trkpt lat="43.453002933614265" lon="13.481896610855639"><ele>41.0</ele><time>2026-04-19T07:41:39.001Z</time></trkpt><trkpt lat="43.45308979149312" lon="13.48179079866711"><ele>41.0</ele><time>2026-04-19T07:41:40.001Z</time></trkpt><trkpt lat="43.45317706936403" lon="13.481689139170136"><ele>41.0</ele><time>2026-04-19T07:41:41.001Z</time></trkpt><trkpt lat="43.453274787058774" lon="13.481613431155372"><ele>41.0</ele><time>2026-04-19T07:41:42.001Z</time></trkpt><trkpt lat="43.45336263339826" lon="13.48150311752081"><ele>41.0</ele><time>2026-04-19T07:41:43.001Z</time></trkpt><trkpt lat="43.45345703434416" lon="13.481405759288984"><ele>41.0</ele><time>2026-04-19T07:41:44.001Z</time></trkpt><trkpt lat="43.45354879285129" lon="13.481296083837293"><ele>41.0</ele><time>2026-04-19T07:41:45.001Z</time></trkpt><trkpt lat="43.45362975295538" lon="13.481169012476318"><ele>41.25</ele><time>2026-04-19T07:41:46.001Z</time></trkpt><trkpt lat="43.453704618036525" lon="13.481030922366429"><ele>41.5</ele><time>2026-04-19T07:41:47.001Z</time></trkpt><trkpt lat="43.453780051718084" lon="13.48089246816151"><ele>41.75</ele><time>2026-04-19T07:41:48.001Z</time></trkpt><trkpt lat="43.45384112385799" lon="13.480737519026988"><ele>42.0</ele><time>2026-04-19T07:41:49.001Z</time></trkpt><trkpt lat="43.45391011271659" lon="13.480587541326825"><ele>42.25</ele><time>2026-04-19T07:41:50.001Z</time></trkpt><trkpt lat="43.453981971377814" lon="13.480438603756276"><ele>42.5</ele><time>2026-04-19T07:41:51.001Z</time></trkpt><trkpt lat="43.454056142248994" lon="13.480292469609733"><ele>42.75</ele><time>2026-04-19T07:41:52.001Z</time></trkpt><trkpt lat="43.454126850181275" lon="13.480164659736403"><ele>43.0</ele><time>2026-04-19T07:41:53.001Z</time></trkpt><trkpt lat="43.45419276629235" lon="13.480041290886769"><ele>43.0</ele><time>2026-04-19T07:41:54.001Z</time></trkpt><trkpt lat="43.45425668862164" lon="13.479922800031481"><ele>43.0</ele><time>2026-04-19T07:41:55.001Z</time></trkpt><trkpt lat="43.4543074278766" lon="13.47981879621091"><ele>43.0</ele><time>2026-04-19T07:41:56.001Z</time></trkpt><trkpt lat="43.45436596174788" lon="13.479718781876803"><ele>43.0</ele><time>2026-04-19T07:41:57.001Z</time></trkpt><trkpt lat="43.454437014936246" lon="13.47961756201548"><ele>43.0</ele><time>2026-04-19T07:41:58.001Z</time></trkpt><trkpt lat="43.45448642298249" lon="13.479498574164625"><ele>43.0</ele><time>2026-04-19T07:41:59.001Z</time></trkpt><trkpt lat="43.45455707674069" lon="13.47940622146242"><ele>43.0</ele><time>2026-04-19T07:42:00.001Z</time></trkpt><trkpt lat="43.454611004345935" lon="13.479291223676166"><ele>43.0</ele><time>2026-04-19T07:42:01.001Z</time></trkpt><trkpt lat="43.454678300586295" lon="13.479189495325393"><ele>43.0</ele><time>2026-04-19T07:42:02.001Z</time></trkpt><trkpt lat="43.45474735080954" lon="13.479091636037321"><ele>43.0</ele><time>2026-04-19T07:42:03.001Z</time></trkpt><trkpt lat="43.45480868970169" lon="13.478984010210857"><ele>42.8</ele><time>2026-04-19T07:42:04.001Z</time></trkpt><trkpt lat="43.45486640260908" lon="13.478882646257837"><ele>42.599999999999994</ele><time>2026-04-19T07:42:05.001Z</time></trkpt><trkpt lat="43.45493281194025" lon="13.47877580797865"><ele>42.400000000000006</ele><time>2026-04-19T07:42:06.001Z</time></trkpt><trkpt lat="43.45499909597211" lon="13.478671245657916"><ele>42.2</ele><time>2026-04-19T07:42:07.001Z</time></trkpt><trkpt lat="43.455067424969066" lon="13.478562506928638"><ele>42.0</ele><time>2026-04-19T07:42:08.001Z</time></trkpt><trkpt lat="43.45513616644566" lon="13.478449058137736"><ele>42.0</ele><time>2026-04-19T07:42:09.001Z</time></trkpt><trkpt lat="43.455198611548404" lon="13.478350921928175"><ele>42.0</ele><time>2026-04-19T07:42:10.001Z</time></trkpt><trkpt lat="43.4552518670679" lon="13.478250421492657"><ele>42.0</ele><time>2026-04-19T07:42:11.001Z</time></trkpt><trkpt lat="43.455304475772124" lon="13.478151047637926"><ele>42.0</ele><time>2026-04-19T07:42:12.001Z</time></trkpt><trkpt lat="43.455354785530574" lon="13.478061569723325"><ele>42.0</ele><time>2026-04-19T07:42:13.001Z</time></trkpt><trkpt lat="43.45539612152377" lon="13.47797442362854"><ele>42.0</ele><time>2026-04-19T07:42:14.001Z</time></trkpt><trkpt lat="43.45544406711439" lon="13.477901456903307"><ele>42.0</ele><time>2026-04-19T07:42:15.001Z</time></trkpt><trkpt lat="43.4554782904456" lon="13.477821057009072"><ele>42.0</ele><time>2026-04-19T07:42:16.001Z</time></trkpt><trkpt lat="43.455538333439186" lon="13.477686014481664"><ele>42.0</ele><time>2026-04-19T07:42:18.001Z</time></trkpt><trkpt lat="43.45558874624995" lon="13.477538984919986"><ele>42.0</ele><time>2026-04-19T07:42:20.001Z</time></trkpt><trkpt lat="43.45559035484296" lon="13.477390587835435"><ele>42.0</ele><time>2026-04-19T07:42:22.001Z</time></trkpt><trkpt lat="43.45557580876684" lon="13.477303690039232"><ele>42.0</ele><time>2026-04-19T07:42:23.001Z</time></trkpt><trkpt lat="43.455556350140434" lon="13.477213619036315"><ele>42.0</ele><time>2026-04-19T07:42:24.001Z</time></trkpt><trkpt lat="43.45553347434156" lon="13.47710638238413"><ele>42.0</ele><time>2026-04-19T07:42:25.001Z</time></trkpt><trkpt lat="43.45551387932488" lon="13.476998539415568"><ele>42.0</ele><time>2026-04-19T07:42:26.001Z</time></trkpt><trkpt lat="43.455490543219284" lon="13.476884943390974"><ele>42.0</ele><time>2026-04-19T07:42:27.001Z</time></trkpt><trkpt lat="43.45547278773586" lon="13.476788619874464"><ele>42.0</ele><time>2026-04-19T07:42:28.001Z</time></trkpt><trkpt lat="43.45542466221641" lon="13.476664023120358"><ele>42.333333333333336</ele><time>2026-04-19T07:42:30.001Z</time></trkpt><trkpt lat="43.45533263490957" lon="13.476562657085113"><ele>42.666666666666664</ele><time>2026-04-19T07:42:32.001Z</time></trkpt><trkpt lat="43.45526869551815" lon="13.476521709247633"><ele>43.0</ele><time>2026-04-19T07:42:33.001Z</time></trkpt><trkpt lat="43.455198983763914" lon="13.476471738491105"><ele>43.33333333333333</ele><time>2026-04-19T07:42:34.001Z</time></trkpt><trkpt lat="43.45512284098212" lon="13.476438701393915"><ele>43.666666666666664</ele><time>2026-04-19T07:42:35.001Z</time></trkpt><trkpt lat="43.45505856234453" lon="13.476367902550383"><ele>44.0</ele><time>2026-04-19T07:42:36.002Z</time></trkpt><trkpt lat="43.45496295679984" lon="13.476320354884487"><ele>44.2</ele><time>2026-04-19T07:42:37Z</time></trkpt><trkpt lat="43.45487090491753" lon="13.476246284662148"><ele>44.400000000000006</ele><time>2026-04-19T07:42:38Z</time></trkpt><trkpt lat="43.45476527430733" lon="13.476178435492216"><ele>44.6</ele><time>2026-04-19T07:42:39Z</time></trkpt><trkpt lat="43.454672930641095" lon="13.476115473133008"><ele>44.8</ele><time>2026-04-19T07:42:40Z</time></trkpt><trkpt lat="43.4545872028054" lon="13.476029887192755"><ele>45.0</ele><time>2026-04-19T07:42:41Z</time></trkpt><trkpt lat="43.45448801212646" lon="13.475985664518129"><ele>45.2</ele><time>2026-04-19T07:42:42Z</time></trkpt><trkpt lat="43.45440575689995" lon="13.475919866963288"><ele>45.4</ele><time>2026-04-19T07:42:43Z</time></trkpt><trkpt lat="43.45432724697738" lon="13.475861252857463"><ele>45.599999999999994</ele><time>2026-04-19T07:42:44Z</time></trkpt><trkpt lat="43.45424287529946" lon="13.47580759265043"><ele>45.8</ele><time>2026-04-19T07:42:45Z</time></trkpt><trkpt lat="43.45416731286726" lon="13.475747782251057"><ele>46.0</ele><time>2026-04-19T07:42:46Z</time></trkpt><trkpt lat="43.45408764354655" lon="13.475700411417366"><ele>46.0</ele><time>2026-04-19T07:42:47Z</time></trkpt><trkpt lat="43.45401892412064" lon="13.475646300153178"><ele>46.0</ele><time>2026-04-19T07:42:48Z</time></trkpt><trkpt lat="43.45394832266148" lon="13.47560870139272"><ele>46.0</ele><time>2026-04-19T07:42:49Z</time></trkpt><trkpt lat="43.45385053787255" lon="13.4755202122003"><ele>46.0</ele><time>2026-04-19T07:42:51Z</time></trkpt><trkpt lat="43.453759910369094" lon="13.475454346687181"><ele>46.0</ele><time>2026-04-19T07:42:53Z</time></trkpt><trkpt lat="43.45370959653129" lon="13.475377068631529"><ele>45.8</ele><time>2026-04-19T07:42:55Z</time></trkpt><trkpt lat="43.45375923817861" lon="13.475256714663612"><ele>45.599999999999994</ele><time>2026-04-19T07:42:58Z</time></trkpt><trkpt lat="43.45379887090376" lon="13.47512731520812"><ele>45.4</ele><time>2026-04-19T07:43:00Z</time></trkpt><trkpt lat="43.453841167004605" lon="13.474974350753076"><ele>45.2</ele><time>2026-04-19T07:43:02Z</time></trkpt><trkpt lat="43.45388471707974" lon="13.474812939635466"><ele>45.0</ele><time>2026-04-19T07:43:04Z</time></trkpt><trkpt lat="43.45391945313202" lon="13.474724892438962"><ele>45.0</ele><time>2026-04-19T07:43:05Z</time></trkpt><trkpt lat="43.453949503468166" lon="13.474616008098739"><ele>45.0</ele><time>2026-04-19T07:43:06Z</time></trkpt><trkpt lat="43.45398463581759" lon="13.47451199113845"><ele>45.0</ele><time>2026-04-19T07:43:07Z</time></trkpt><trkpt lat="43.45402267323981" lon="13.474389643640453"><ele>45.0</ele><time>2026-04-19T07:43:08Z</time></trkpt><trkpt lat="43.45405330633963" lon="13.47428755109394"><ele>45.0</ele><time>2026-04-19T07:43:09Z</time></trkpt><trkpt lat="43.45408143580467" lon="13.474187570309399"><ele>45.0</ele><time>2026-04-19T07:43:10Z</time></trkpt><trkpt lat="43.454126185217746" lon="13.474090470884232"><ele>45.0</ele><time>2026-04-19T07:43:11Z</time></trkpt><trkpt lat="43.454160459769135" lon="13.473982486010241"><ele>45.0</ele><time>2026-04-19T07:43:12Z</time></trkpt><trkpt lat="43.45419199071973" lon="13.47387459910068"><ele>45.0</ele><time>2026-04-19T07:43:13Z</time></trkpt><trkpt lat="43.45420267776739" lon="13.473787767932814"><ele>45.0</ele><time>2026-04-19T07:43:14Z</time></trkpt><trkpt lat="43.45423066278995" lon="13.473698962404523"><ele>45.0</ele><time>2026-04-19T07:43:15Z</time></trkpt><trkpt lat="43.454261321660425" lon="13.473601198730226"><ele>45.0</ele><time>2026-04-19T07:43:16Z</time></trkpt><trkpt lat="43.454287649355464" lon="13.473509724945492"><ele>45.166666666666664</ele><time>2026-04-19T07:43:17Z</time></trkpt><trkpt lat="43.454318999505944" lon="13.473410373278615"><ele>45.333333333333336</ele><time>2026-04-19T07:43:18Z</time></trkpt><trkpt lat="43.45434952567411" lon="13.473314506621438"><ele>45.5</ele><time>2026-04-19T07:43:19Z</time></trkpt><trkpt lat="43.454383604807916" lon="13.473213459524512"><ele>45.66666666666667</ele><time>2026-04-19T07:43:20.001Z</time></trkpt><trkpt lat="43.45441262726849" lon="13.473113767840397"><ele>45.833333333333336</ele><time>2026-04-19T07:43:21.001Z</time></trkpt><trkpt lat="43.45443998742685" lon="13.47301293320365"><ele>46.0</ele><time>2026-04-19T07:43:22.001Z</time></trkpt><trkpt lat="43.45446771492354" lon="13.472914489305975"><ele>46.16666666666667</ele><time>2026-04-19T07:43:23.001Z</time></trkpt><trkpt lat="43.45448075267787" lon="13.472814046231695"><ele>46.333333333333336</ele><time>2026-04-19T07:43:24.001Z</time></trkpt><trkpt lat="43.45448958975931" lon="13.472704259889921"><ele>46.5</ele><time>2026-04-19T07:43:25.001Z</time></trkpt><trkpt lat="43.454491138123224" lon="13.47260081245439"><ele>46.666666666666664</ele><time>2026-04-19T07:43:26.001Z</time></trkpt><trkpt lat="43.454511182956836" lon="13.472500323244613"><ele>46.83333333333333</ele><time>2026-04-19T07:43:27.001Z</time></trkpt><trkpt lat="43.45451235951451" lon="13.472376334615687"><ele>47.0</ele><time>2026-04-19T07:43:28.001Z</time></trkpt><trkpt lat="43.45455830216512" lon="13.47228678046212"><ele>47.0</ele><time>2026-04-19T07:43:29.001Z</time></trkpt><trkpt lat="43.454591389833205" lon="13.472181938715266"><ele>47.0</ele><time>2026-04-19T07:43:30.001Z</time></trkpt><trkpt lat="43.454615378593616" lon="13.472066738669893"><ele>47.0</ele><time>2026-04-19T07:43:31.001Z</time></trkpt><trkpt lat="43.454647630125436" lon="13.471953014941343"><ele>47.0</ele><time>2026-04-19T07:43:32.001Z</time></trkpt><trkpt lat="43.454680902569685" lon="13.471840699414289"><ele>47.0</ele><time>2026-04-19T07:43:33.001Z</time></trkpt><trkpt lat="43.45471589709165" lon="13.471714897700506"><ele>47.0</ele><time>2026-04-19T07:43:34.001Z</time></trkpt><trkpt lat="43.454750727862766" lon="13.471587587108349"><ele>46.8</ele><time>2026-04-19T07:43:35.001Z</time></trkpt><trkpt lat="43.45478976538198" lon="13.471459216373306"><ele>46.6</ele><time>2026-04-19T07:43:36.001Z</time></trkpt><trkpt lat="43.4548207504216" lon="13.471337383055339"><ele>46.4</ele><time>2026-04-19T07:43:37.001Z</time></trkpt><trkpt lat="43.45485216680728" lon="13.471221889110156"><ele>46.199999999999996</ele><time>2026-04-19T07:43:38.001Z</time></trkpt><trkpt lat="43.45488570867448" lon="13.471100070869579"><ele>46.0</ele><time>2026-04-19T07:43:39.001Z</time></trkpt><trkpt lat="43.45491636598828" lon="13.470975221843593"><ele>46.0</ele><time>2026-04-19T07:43:40.001Z</time></trkpt><trkpt lat="43.454948652507476" lon="13.470846066250953"><ele>46.0</ele><time>2026-04-19T07:43:41.001Z</time></trkpt><trkpt lat="43.4549762651575" lon="13.470726257765431"><ele>46.0</ele><time>2026-04-19T07:43:42.001Z</time></trkpt><trkpt lat="43.455009002020724" lon="13.470588879335262"><ele>46.0</ele><time>2026-04-19T07:43:43.001Z</time></trkpt><trkpt lat="43.45504304141885" lon="13.4704624753618"><ele>46.0</ele><time>2026-04-19T07:43:44.001Z</time></trkpt><trkpt lat="43.455080533349424" lon="13.470330229424174"><ele>46.16666666666667</ele><time>2026-04-19T07:43:45.001Z</time></trkpt><trkpt lat="43.45511621696674" lon="13.47020137577823"><ele>46.333333333333336</ele><time>2026-04-19T07:43:46.001Z</time></trkpt><trkpt lat="43.455147348014684" lon="13.470071139204698"><ele>46.5</ele><time>2026-04-19T07:43:47.001Z</time></trkpt><trkpt lat="43.455183464785506" lon="13.469952559598324"><ele>46.666666666666664</ele><time>2026-04-19T07:43:48.001Z</time></trkpt><trkpt lat="43.45521084859184" lon="13.469844290556107"><ele>46.83333333333333</ele><time>2026-04-19T07:43:49.001Z</time></trkpt><trkpt lat="43.455237432062404" lon="13.469756669486946"><ele>47.0</ele><time>2026-04-19T07:43:50.001Z</time></trkpt><trkpt lat="43.45526758367572" lon="13.469676089690772"><ele>47.0</ele><time>2026-04-19T07:43:51.001Z</time></trkpt><trkpt lat="43.45530165863233" lon="13.469602990272419"><ele>47.0</ele><time>2026-04-19T07:43:52.001Z</time></trkpt><trkpt lat="43.45539035561799" lon="13.469518889838591"><ele>47.0</ele><time>2026-04-19T07:43:54.001Z</time></trkpt><trkpt lat="43.455491232906965" lon="13.46953862965403"><ele>47.0</ele><time>2026-04-19T07:43:56.001Z</time></trkpt><trkpt lat="43.45561789111747" lon="13.469595303911113"><ele>47.0</ele><time>2026-04-19T07:43:58.001Z</time></trkpt><trkpt lat="43.455686622261815" lon="13.469623087027642"><ele>46.83333333333333</ele><time>2026-04-19T07:43:59.001Z</time></trkpt><trkpt lat="43.455762156578366" lon="13.469651929787675"><ele>46.666666666666664</ele><time>2026-04-19T07:44:00.001Z</time></trkpt><trkpt lat="43.45583242281247" lon="13.469681730355944"><ele>46.5</ele><time>2026-04-19T07:44:01.001Z</time></trkpt><trkpt lat="43.45590411840181" lon="13.469713683201094"><ele>46.333333333333336</ele><time>2026-04-19T07:44:02.001Z</time></trkpt><trkpt lat="43.45597174113732" lon="13.469742399464643"><ele>46.16666666666667</ele><time>2026-04-19T07:44:03.001Z</time></trkpt><trkpt lat="43.45603796632129" lon="13.469771837202023"><ele>46.0</ele><time>2026-04-19T07:44:04.001Z</time></trkpt><trkpt lat="43.456136757112255" lon="13.46980742251944"><ele>46.0</ele><time>2026-04-19T07:44:06.001Z</time></trkpt><trkpt lat="43.456239811808835" lon="13.469842889659823"><ele>46.0</ele><time>2026-04-19T07:44:08.001Z</time></trkpt><trkpt lat="43.45630621320116" lon="13.469874610723714"><ele>46.0</ele><time>2026-04-19T07:44:09.001Z</time></trkpt><trkpt lat="43.45637674721329" lon="13.469899582754335"><ele>46.0</ele><time>2026-04-19T07:44:10.001Z</time></trkpt><trkpt lat="43.45645489868023" lon="13.469936262899557"><ele>46.0</ele><time>2026-04-19T07:44:11.001Z</time></trkpt><trkpt lat="43.45653730677496" lon="13.469971572133888"><ele>46.0</ele><time>2026-04-19T07:44:12.001Z</time></trkpt><trkpt lat="43.45662814538845" lon="13.470005100226992"><ele>46.199999999999996</ele><time>2026-04-19T07:44:13.001Z</time></trkpt><trkpt lat="43.45672348750804" lon="13.470044291668408"><ele>46.4</ele><time>2026-04-19T07:44:14.001Z</time></trkpt><trkpt lat="43.45682123482952" lon="13.470084796414426"><ele>46.6</ele><time>2026-04-19T07:44:15.001Z</time></trkpt><trkpt lat="43.45691671679057" lon="13.470129475115316"><ele>46.8</ele><time>2026-04-19T07:44:16.001Z</time></trkpt><trkpt lat="43.45701429583381" lon="13.47016834106937"><ele>47.0</ele><time>2026-04-19T07:44:17.001Z</time></trkpt><trkpt lat="43.45710861932855" lon="13.47021031516349"><ele>47.2</ele><time>2026-04-19T07:44:18.001Z</time></trkpt><trkpt lat="43.45720620524329" lon="13.47025016256363"><ele>47.400000000000006</ele><time>2026-04-19T07:44:19.001Z</time></trkpt><trkpt lat="43.457298030340475" lon="13.470289246953788"><ele>47.599999999999994</ele><time>2026-04-19T07:44:20.001Z</time></trkpt><trkpt lat="43.45739534823495" lon="13.470325783401062"><ele>47.8</ele><time>2026-04-19T07:44:21.001Z</time></trkpt><trkpt lat="43.45748919589046" lon="13.470365376325603"><ele>48.0</ele><time>2026-04-19T07:44:22.001Z</time></trkpt><trkpt lat="43.457583891580875" lon="13.470407278292537"><ele>47.5</ele><time>2026-04-19T07:44:23.001Z</time></trkpt><trkpt lat="43.457689171967026" lon="13.470450741918519"><ele>47.0</ele><time>2026-04-19T07:44:24.001Z</time></trkpt><trkpt lat="43.45781313972719" lon="13.470503273606678"><ele>46.5</ele><time>2026-04-19T07:44:25.001Z</time></trkpt><trkpt lat="43.457943221113204" lon="13.470558338812591"><ele>46.0</ele><time>2026-04-19T07:44:26.001Z</time></trkpt><trkpt lat="43.45805970869927" lon="13.470606734222471"><ele>46.0</ele><time>2026-04-19T07:44:27.001Z</time></trkpt><trkpt lat="43.458173267708275" lon="13.4706519344933"><ele>46.0</ele><time>2026-04-19T07:44:28.001Z</time></trkpt><trkpt lat="43.45828678218077" lon="13.470699183086559"><ele>46.0</ele><time>2026-04-19T07:44:29.001Z</time></trkpt><trkpt lat="43.45839619489577" lon="13.47074482957853"><ele>46.0</ele><time>2026-04-19T07:44:30.001Z</time></trkpt><trkpt lat="43.458507976407155" lon="13.470793129602006"><ele>46.0</ele><time>2026-04-19T07:44:31.001Z</time></trkpt><trkpt lat="43.4586178690234" lon="13.470839385592893"><ele>46.0</ele><time>2026-04-19T07:44:32.001Z</time></trkpt><trkpt lat="43.45872671243394" lon="13.470884530026797"><ele>46.0</ele><time>2026-04-19T07:44:33.001Z</time></trkpt><trkpt lat="43.45883616676284" lon="13.470929519791774"><ele>46.0</ele><time>2026-04-19T07:44:34.001Z</time></trkpt><trkpt lat="43.45894377475326" lon="13.470972324948663"><ele>46.199999999999996</ele><time>2026-04-19T07:44:35.001Z</time></trkpt><trkpt lat="43.45905285226832" lon="13.471020616460525"><ele>46.4</ele><time>2026-04-19T07:44:36.001Z</time></trkpt><trkpt lat="43.459156897822744" lon="13.471068802953235"><ele>46.6</ele><time>2026-04-19T07:44:37.001Z</time></trkpt><trkpt lat="43.45926363474129" lon="13.471114727804643"><ele>46.8</ele><time>2026-04-19T07:44:38.001Z</time></trkpt><trkpt lat="43.45936553528018" lon="13.47115904849235"><ele>47.0</ele><time>2026-04-19T07:44:39.001Z</time></trkpt><trkpt lat="43.4594653474084" lon="13.47120270914652"><ele>47.0</ele><time>2026-04-19T07:44:40.001Z</time></trkpt><trkpt lat="43.45955323114263" lon="13.471237748044546"><ele>47.0</ele><time>2026-04-19T07:44:41.001Z</time></trkpt><trkpt lat="43.45963721315023" lon="13.4712680785592"><ele>47.0</ele><time>2026-04-19T07:44:42Z</time></trkpt><trkpt lat="43.4597087965792" lon="13.471290483835116"><ele>47.0</ele><time>2026-04-19T07:44:43Z</time></trkpt><trkpt lat="43.45977178199907" lon="13.471298031770653"><ele>47.0</ele><time>2026-04-19T07:44:44Z</time></trkpt><trkpt lat="43.459840166617354" lon="13.471309109176069"><ele>47.0</ele><time>2026-04-19T07:44:45Z</time></trkpt><trkpt lat="43.45990975456744" lon="13.471280984665409"><ele>47.400000000000006</ele><time>2026-04-19T07:44:46Z</time></trkpt><trkpt lat="43.459986462974136" lon="13.47122613676941"><ele>47.800000000000004</ele><time>2026-04-19T07:44:47Z</time></trkpt><trkpt lat="43.46006269316233" lon="13.471168236256876"><ele>48.2</ele><time>2026-04-19T07:44:48Z</time></trkpt><trkpt lat="43.46014902477553" lon="13.471094104633929"><ele>48.6</ele><time>2026-04-19T07:44:49Z</time></trkpt><trkpt lat="43.46022759019076" lon="13.471002129517043"><ele>49.0</ele><time>2026-04-19T07:44:50Z</time></trkpt><trkpt lat="43.46031962518588" lon="13.470941262386292"><ele>49.0</ele><time>2026-04-19T07:44:51Z</time></trkpt><trkpt lat="43.46039369056007" lon="13.470848831602547"><ele>49.0</ele><time>2026-04-19T07:44:52Z</time></trkpt><trkpt lat="43.46047900951472" lon="13.47077875464189"><ele>49.0</ele><time>2026-04-19T07:44:53Z</time></trkpt><trkpt lat="43.46056043850811" lon="13.470710714632602"><ele>49.0</ele><time>2026-04-19T07:44:54Z</time></trkpt><trkpt lat="43.46063991806461" lon="13.47064732604557"><ele>49.0</ele><time>2026-04-19T07:44:55Z</time></trkpt><trkpt lat="43.460715444856895" lon="13.470579732328332"><ele>48.75</ele><time>2026-04-19T07:44:56Z</time></trkpt><trkpt lat="43.46079796503796" lon="13.47051622797403"><ele>48.5</ele><time>2026-04-19T07:44:57Z</time></trkpt><trkpt lat="43.46088396430009" lon="13.47044475145423"><ele>48.25</ele><time>2026-04-19T07:44:58Z</time></trkpt><trkpt lat="43.46098006050279" lon="13.470360306770159"><ele>48.0</ele><time>2026-04-19T07:44:59Z</time></trkpt><trkpt lat="43.461165867898735" lon="13.470193152483223"><ele>48.0</ele><time>2026-04-19T07:45:01Z</time></trkpt><trkpt lat="43.46124512155943" lon="13.470094031384708"><ele>48.0</ele><time>2026-04-19T07:45:02Z</time></trkpt><trkpt lat="43.46132518404197" lon="13.469992307465628"><ele>48.0</ele><time>2026-04-19T07:45:03Z</time></trkpt><trkpt lat="43.46140031004793" lon="13.469881406588263"><ele>48.0</ele><time>2026-04-19T07:45:04Z</time></trkpt><trkpt lat="43.461470895990985" lon="13.469756209762615"><ele>48.0</ele><time>2026-04-19T07:45:05Z</time></trkpt><trkpt lat="43.46153671151734" lon="13.469633047042176"><ele>48.0</ele><time>2026-04-19T07:45:06Z</time></trkpt><trkpt lat="43.46159153710235" lon="13.469515379193414"><ele>48.0</ele><time>2026-04-19T07:45:07Z</time></trkpt><trkpt lat="43.4616366925265" lon="13.469400253599803"><ele>48.0</ele><time>2026-04-19T07:45:08Z</time></trkpt><trkpt lat="43.461668259165535" lon="13.469288811463429"><ele>48.0</ele><time>2026-04-19T07:45:09Z</time></trkpt><trkpt lat="43.46169555970168" lon="13.469169310239305"><ele>48.0</ele><time>2026-04-19T07:45:10Z</time></trkpt><trkpt lat="43.461713590558944" lon="13.469055307108981"><ele>48.0</ele><time>2026-04-19T07:45:11Z</time></trkpt><trkpt lat="43.46172213755507" lon="13.468935899252438"><ele>48.0</ele><time>2026-04-19T07:45:12Z</time></trkpt><trkpt lat="43.46172912213277" lon="13.468821314724563"><ele>48.0</ele><time>2026-04-19T07:45:13Z</time></trkpt><trkpt lat="43.46173497281291" lon="13.468705913313812"><ele>48.0</ele><time>2026-04-19T07:45:14Z</time></trkpt><trkpt lat="43.461746761971526" lon="13.468577696835535"><ele>48.0</ele><time>2026-04-19T07:45:15Z</time></trkpt><trkpt lat="43.46174775306388" lon="13.46846475804455"><ele>48.0</ele><time>2026-04-19T07:45:16Z</time></trkpt><trkpt lat="43.46174891409796" lon="13.468333613031337"><ele>48.4</ele><time>2026-04-19T07:45:17Z</time></trkpt><trkpt lat="43.46174822348919" lon="13.468210895553435"><ele>48.8</ele><time>2026-04-19T07:45:18Z</time></trkpt><trkpt lat="43.461748934910744" lon="13.468082913715243"><ele>49.2</ele><time>2026-04-19T07:45:19Z</time></trkpt><trkpt lat="43.461746226875476" lon="13.467945515746246"><ele>49.6</ele><time>2026-04-19T07:45:20Z</time></trkpt><trkpt lat="43.46175017572183" lon="13.467814391703834"><ele>50.0</ele><time>2026-04-19T07:45:21Z</time></trkpt><trkpt lat="43.46174108593575" lon="13.467679349955473"><ele>50.0</ele><time>2026-04-19T07:45:22Z</time></trkpt><trkpt lat="43.461741517902645" lon="13.467541362132915"><ele>50.0</ele><time>2026-04-19T07:45:23Z</time></trkpt><trkpt lat="43.461726618618165" lon="13.467396832931911"><ele>50.0</ele><time>2026-04-19T07:45:24Z</time></trkpt><trkpt lat="43.461720049919656" lon="13.467258852104143"><ele>50.0</ele><time>2026-04-19T07:45:25Z</time></trkpt><trkpt lat="43.4617197460689" lon="13.467115469719664"><ele>50.0</ele><time>2026-04-19T07:45:26Z</time></trkpt><trkpt lat="43.46171416212017" lon="13.466980165567936"><ele>50.0</ele><time>2026-04-19T07:45:27Z</time></trkpt><trkpt lat="43.461707951705776" lon="13.466838199181321"><ele>50.0</ele><time>2026-04-19T07:45:28Z</time></trkpt><trkpt lat="43.46170587612153" lon="13.466691561669085"><ele>50.0</ele><time>2026-04-19T07:45:29Z</time></trkpt><trkpt lat="43.46170406562638" lon="13.466535628861502"><ele>50.0</ele><time>2026-04-19T07:45:30Z</time></trkpt><trkpt lat="43.461711291003255" lon="13.466381164261863"><ele>50.0</ele><time>2026-04-19T07:45:31Z</time></trkpt><trkpt lat="43.461723410161476" lon="13.466229846896848"><ele>49.8</ele><time>2026-04-19T07:45:32Z</time></trkpt><trkpt lat="43.46174096907748" lon="13.466071189589751"><ele>49.6</ele><time>2026-04-19T07:45:33Z</time></trkpt><trkpt lat="43.46176931207168" lon="13.465924682285143"><ele>49.400000000000006</ele><time>2026-04-19T07:45:34Z</time></trkpt><trkpt lat="43.46179735782173" lon="13.46578049826465"><ele>49.2</ele><time>2026-04-19T07:45:35Z</time></trkpt><trkpt lat="43.46182502803692" lon="13.465653644928485"><ele>49.0</ele><time>2026-04-19T07:45:36Z</time></trkpt><trkpt lat="43.461854376918666" lon="13.465528778252644"><ele>49.0</ele><time>2026-04-19T07:45:37Z</time></trkpt><trkpt lat="43.46188724643774" lon="13.465412801677955"><ele>49.0</ele><time>2026-04-19T07:45:38Z</time></trkpt><trkpt lat="43.461920645512116" lon="13.465292494406226"><ele>49.0</ele><time>2026-04-19T07:45:39Z</time></trkpt><trkpt lat="43.461956214787584" lon="13.46516817355374"><ele>49.0</ele><time>2026-04-19T07:45:40.001Z</time></trkpt><trkpt lat="43.46199496518723" lon="13.465037440944675"><ele>49.0</ele><time>2026-04-19T07:45:41.001Z</time></trkpt><trkpt lat="43.4620385480059" lon="13.46490529072731"><ele>49.0</ele><time>2026-04-19T07:45:42.001Z</time></trkpt><trkpt lat="43.462078297862945" lon="13.464772329496475"><ele>49.0</ele><time>2026-04-19T07:45:43.001Z</time></trkpt><trkpt lat="43.46212705371417" lon="13.464657604527606"><ele>49.0</ele><time>2026-04-19T07:45:44.001Z</time></trkpt><trkpt lat="43.46216681116308" lon="13.464544070822877"><ele>49.0</ele><time>2026-04-19T07:45:45.001Z</time></trkpt><trkpt lat="43.462207755871255" lon="13.464436777643938"><ele>49.0</ele><time>2026-04-19T07:45:46.001Z</time></trkpt><trkpt lat="43.462251619803745" lon="13.464330648215446"><ele>49.0</ele><time>2026-04-19T07:45:47.001Z</time></trkpt><trkpt lat="43.462296774439615" lon="13.464224323286695"><ele>49.0</ele><time>2026-04-19T07:45:48.001Z</time></trkpt><trkpt lat="43.462349950595765" lon="13.46411137508032"><ele>49.0</ele><time>2026-04-19T07:45:49.001Z</time></trkpt><trkpt lat="43.46241456828752" lon="13.464008323645087"><ele>49.0</ele><time>2026-04-19T07:45:50.001Z</time></trkpt><trkpt lat="43.462463782400505" lon="13.463911772846837"><ele>49.0</ele><time>2026-04-19T07:45:51.001Z</time></trkpt><trkpt lat="43.46252980852608" lon="13.463838143441398"><ele>49.0</ele><time>2026-04-19T07:45:52.001Z</time></trkpt><trkpt lat="43.46259927647127" lon="13.463748543398435"><ele>49.0</ele><time>2026-04-19T07:45:53.001Z</time></trkpt><trkpt lat="43.462661414551285" lon="13.463662437683986"><ele>49.0</ele><time>2026-04-19T07:45:54.001Z</time></trkpt><trkpt lat="43.46272909865654" lon="13.463563248952815"><ele>49.0</ele><time>2026-04-19T07:45:55.001Z</time></trkpt><trkpt lat="43.46279230133019" lon="13.463463966650792"><ele>49.0</ele><time>2026-04-19T07:45:56.001Z</time></trkpt><trkpt lat="43.46285957092217" lon="13.463358543385615"><ele>49.0</ele><time>2026-04-19T07:45:57.001Z</time></trkpt><trkpt lat="43.46291943632955" lon="13.46326661366059"><ele>49.0</ele><time>2026-04-19T07:45:58.001Z</time></trkpt><trkpt lat="43.4629831457305" lon="13.463168560882346"><ele>49.0</ele><time>2026-04-19T07:45:59.001Z</time></trkpt><trkpt lat="43.463052417466514" lon="13.463064727183212"><ele>49.0</ele><time>2026-04-19T07:46:00.001Z</time></trkpt><trkpt lat="43.46311534458145" lon="13.462976488424712"><ele>49.0</ele><time>2026-04-19T07:46:01.001Z</time></trkpt><trkpt lat="43.46317157282595" lon="13.462888764787865"><ele>49.0</ele><time>2026-04-19T07:46:02.001Z</time></trkpt><trkpt lat="43.46322599199681" lon="13.462811074310308"><ele>49.0</ele><time>2026-04-19T07:46:03.001Z</time></trkpt><trkpt lat="43.46327574044447" lon="13.462744108045543"><ele>49.0</ele><time>2026-04-19T07:46:04.001Z</time></trkpt><trkpt lat="43.46332041320582" lon="13.462678582644036"><ele>49.0</ele><time>2026-04-19T07:46:05.001Z</time></trkpt><trkpt lat="43.463364719288435" lon="13.462608017569014"><ele>49.0</ele><time>2026-04-19T07:46:06.001Z</time></trkpt><trkpt lat="43.46341775209929" lon="13.462533121891878"><ele>49.0</ele><time>2026-04-19T07:46:07.001Z</time></trkpt><trkpt lat="43.4634635547125" lon="13.462469907481262"><ele>49.0</ele><time>2026-04-19T07:46:08.001Z</time></trkpt><trkpt lat="43.463516619212605" lon="13.462400563715025"><ele>48.99999999999999</ele><time>2026-04-19T07:46:09.001Z</time></trkpt><trkpt lat="43.46356497593097" lon="13.462335496424744"><ele>49.0</ele><time>2026-04-19T07:46:10.001Z</time></trkpt><trkpt lat="43.463618510025746" lon="13.462264718955458"><ele>49.0</ele><time>2026-04-19T07:46:11.001Z</time></trkpt><trkpt lat="43.463675188834614" lon="13.462194513570338"><ele>49.0</ele><time>2026-04-19T07:46:12.001Z</time></trkpt><trkpt lat="43.463740896788785" lon="13.462120159809826"><ele>48.99999999999999</ele><time>2026-04-19T07:46:13.001Z</time></trkpt><trkpt lat="43.4638097105872" lon="13.462044085519887"><ele>49.0</ele><time>2026-04-19T07:46:14.001Z</time></trkpt><trkpt lat="43.46389354241215" lon="13.461964450518588"><ele>49.0</ele><time>2026-04-19T07:46:15.001Z</time></trkpt><trkpt lat="43.463977216320274" lon="13.461889137303983"><ele>49.0</ele><time>2026-04-19T07:46:16.001Z</time></trkpt><trkpt lat="43.46405770739138" lon="13.461823749317983"><ele>49.0</ele><time>2026-04-19T07:46:17.001Z</time></trkpt><trkpt lat="43.46413664803041" lon="13.461761700691167"><ele>49.0</ele><time>2026-04-19T07:46:18.001Z</time></trkpt><trkpt lat="43.46421407029555" lon="13.461699117614168"><ele>49.0</ele><time>2026-04-19T07:46:19.001Z</time></trkpt><trkpt lat="43.46428785490566" lon="13.461635715070976"><ele>49.0</ele><time>2026-04-19T07:46:20.001Z</time></trkpt><trkpt lat="43.46436855277972" lon="13.461572854905752"><ele>49.0</ele><time>2026-04-19T07:46:21.001Z</time></trkpt><trkpt lat="43.464444731549705" lon="13.461512580632657"><ele>49.0</ele><time>2026-04-19T07:46:22.001Z</time></trkpt><trkpt lat="43.464502697268" lon="13.461420542107017"><ele>49.0</ele><time>2026-04-19T07:46:23.001Z</time></trkpt><trkpt lat="43.464572116225206" lon="13.461336109735976"><ele>49.0</ele><time>2026-04-19T07:46:24.001Z</time></trkpt><trkpt lat="43.464636836389666" lon="13.461239458309416"><ele>49.400000000000006</ele><time>2026-04-19T07:46:25.001Z</time></trkpt><trkpt lat="43.46470367305084" lon="13.461141634484457"><ele>49.8</ele><time>2026-04-19T07:46:26.001Z</time></trkpt><trkpt lat="43.464770201727674" lon="13.461042404907868"><ele>50.2</ele><time>2026-04-19T07:46:27.001Z</time></trkpt><trkpt lat="43.464837965136525" lon="13.460941918837625"><ele>50.599999999999994</ele><time>2026-04-19T07:46:28.001Z</time></trkpt><trkpt lat="43.46490646508383" lon="13.460836657854985"><ele>51.0</ele><time>2026-04-19T07:46:29.001Z</time></trkpt><trkpt lat="43.46497374591165" lon="13.460729537829947"><ele>51.0</ele><time>2026-04-19T07:46:30.001Z</time></trkpt><trkpt lat="43.465042076585846" lon="13.460623218682018"><ele>51.0</ele><time>2026-04-19T07:46:31.001Z</time></trkpt><trkpt lat="43.465107790429194" lon="13.460525038432275"><ele>51.0</ele><time>2026-04-19T07:46:32.001Z</time></trkpt><trkpt lat="43.46516387987742" lon="13.460419861706011"><ele>51.0</ele><time>2026-04-19T07:46:33.001Z</time></trkpt><trkpt lat="43.46521036923378" lon="13.460306898262074"><ele>51.0</ele><time>2026-04-19T07:46:34.001Z</time></trkpt><trkpt lat="43.46524311402786" lon="13.460186296504606"><ele>51.199999999999996</ele><time>2026-04-19T07:46:35.001Z</time></trkpt><trkpt lat="43.4652619048421" lon="13.460061176395136"><ele>51.4</ele><time>2026-04-19T07:46:36.001Z</time></trkpt><trkpt lat="43.46527135574825" lon="13.459935143015896"><ele>51.6</ele><time>2026-04-19T07:46:37.001Z</time></trkpt><trkpt lat="43.46528610947049" lon="13.459798412796856"><ele>51.8</ele><time>2026-04-19T07:46:38.001Z</time></trkpt><trkpt lat="43.46525741074976" lon="13.45966106753016"><ele>52.0</ele><time>2026-04-19T07:46:39.001Z</time></trkpt><trkpt lat="43.465241110221" lon="13.459515272109984"><ele>52.2</ele><time>2026-04-19T07:46:40.001Z</time></trkpt><trkpt lat="43.46521829762892" lon="13.459367258719679"><ele>52.400000000000006</ele><time>2026-04-19T07:46:41.001Z</time></trkpt><trkpt lat="43.465194469146994" lon="13.45921415521759"><ele>52.599999999999994</ele><time>2026-04-19T07:46:42.001Z</time></trkpt><trkpt lat="43.46516410645144" lon="13.459069198226388"><ele>52.8</ele><time>2026-04-19T07:46:43.001Z</time></trkpt><trkpt lat="43.46512483615395" lon="13.458935755118386"><ele>53.0</ele><time>2026-04-19T07:46:44.001Z</time></trkpt><trkpt lat="43.46507541406219" lon="13.45881044571053"><ele>53.4</ele><time>2026-04-19T07:46:45.001Z</time></trkpt><trkpt lat="43.46503067727164" lon="13.458714273147654"><ele>53.8</ele><time>2026-04-19T07:46:46.001Z</time></trkpt><trkpt lat="43.464985985175154" lon="13.458642562561606"><ele>54.2</ele><time>2026-04-19T07:46:47.001Z</time></trkpt><trkpt lat="43.46490271543101" lon="13.458527149606278"><ele>54.6</ele><time>2026-04-19T07:46:49Z</time></trkpt><trkpt lat="43.4648344158883" lon="13.45842782894844"><ele>55.0</ele><time>2026-04-19T07:46:51Z</time></trkpt><trkpt lat="43.464782930945354" lon="13.45829237269351"><ele>55.0</ele><time>2026-04-19T07:46:53Z</time></trkpt><trkpt lat="43.46477657497124" lon="13.4581991241442"><ele>55.0</ele><time>2026-04-19T07:47:01Z</time></trkpt><trkpt lat="43.46486520694781" lon="13.458134215102803"><ele>55.0</ele><time>2026-04-19T07:47:05Z</time></trkpt><trkpt lat="43.46495243297904" lon="13.458146409974868"><ele>55.0</ele><time>2026-04-19T07:47:09Z</time></trkpt><trkpt lat="43.46504434057849" lon="13.45817805660857"><ele>55.0</ele><time>2026-04-19T07:47:11Z</time></trkpt><trkpt lat="43.46510054206009" lon="13.457900752341388"><ele>55.0</ele><time>2026-04-19T07:47:14Z</time></trkpt><trkpt lat="43.46509272119948" lon="13.457785923377507"><ele>55.0</ele><time>2026-04-19T07:47:15Z</time></trkpt><trkpt lat="43.46508598912373" lon="13.457650759998918"><ele>55.0</ele><time>2026-04-19T07:47:16Z</time></trkpt><trkpt lat="43.4650830324767" lon="13.457499230014331"><ele>55.0</ele><time>2026-04-19T07:47:17Z</time></trkpt><trkpt lat="43.46508506246336" lon="13.457350145624144"><ele>55.0</ele><time>2026-04-19T07:47:18Z</time></trkpt><trkpt lat="43.465086046852356" lon="13.457192349439268"><ele>54.75</ele><time>2026-04-19T07:47:19Z</time></trkpt><trkpt lat="43.465088592071545" lon="13.457023195152656"><ele>54.5</ele><time>2026-04-19T07:47:20Z</time></trkpt><trkpt lat="43.4650874862733" lon="13.45684611543245"><ele>54.25</ele><time>2026-04-19T07:47:21Z</time></trkpt><trkpt lat="43.465084258457644" lon="13.456662360921513"><ele>54.0</ele><time>2026-04-19T07:47:22Z</time></trkpt><trkpt lat="43.46508693097595" lon="13.456480261662064"><ele>54.0</ele><time>2026-04-19T07:47:23Z</time></trkpt><trkpt lat="43.46509235580288" lon="13.45629532001439"><ele>54.0</ele><time>2026-04-19T07:47:24Z</time></trkpt><trkpt lat="43.46510390823329" lon="13.45610330853436"><ele>54.0</ele><time>2026-04-19T07:47:25Z</time></trkpt><trkpt lat="43.46511994867388" lon="13.45591300522732"><ele>54.0</ele><time>2026-04-19T07:47:26Z</time></trkpt><trkpt lat="43.465140423820266" lon="13.455716249098044"><ele>54.0</ele><time>2026-04-19T07:47:27Z</time></trkpt><trkpt lat="43.465164930237684" lon="13.455519049974628"><ele>54.0</ele><time>2026-04-19T07:47:28Z</time></trkpt><trkpt lat="43.46518904056677" lon="13.455314557070045"><ele>54.0</ele><time>2026-04-19T07:47:29Z</time></trkpt><trkpt lat="43.46521155821554" lon="13.45510630864831"><ele>54.0</ele><time>2026-04-19T07:47:30Z</time></trkpt><trkpt lat="43.46523266244189" lon="13.454895084572877"><ele>53.66666666666667</ele><time>2026-04-19T07:47:31Z</time></trkpt><trkpt lat="43.46525190072247" lon="13.45469275500256"><ele>53.333333333333336</ele><time>2026-04-19T07:47:32Z</time></trkpt><trkpt lat="43.465269552440134" lon="13.454479758370278"><ele>53.0</ele><time>2026-04-19T07:47:33Z</time></trkpt><trkpt lat="43.465282591376685" lon="13.4542684164629"><ele>53.0</ele><time>2026-04-19T07:47:34Z</time></trkpt><trkpt lat="43.465284658406766" lon="13.45405709968724"><ele>53.0</ele><time>2026-04-19T07:47:35Z</time></trkpt><trkpt lat="43.46528748086564" lon="13.453852990627842"><ele>53.0</ele><time>2026-04-19T07:47:36Z</time></trkpt><trkpt lat="43.46529139122159" lon="13.453657141045662"><ele>53.0</ele><time>2026-04-19T07:47:37Z</time></trkpt><trkpt lat="43.46529180081258" lon="13.453463847959718"><ele>53.599999999999994</ele><time>2026-04-19T07:47:38Z</time></trkpt><trkpt lat="43.46531227389784" lon="13.453265342268727"><ele>54.199999999999996</ele><time>2026-04-19T07:47:39Z</time></trkpt><trkpt lat="43.465316743761186" lon="13.453092956299002"><ele>54.8</ele><time>2026-04-19T07:47:40Z</time></trkpt><trkpt lat="43.46531049314217" lon="13.452951357783899"><ele>55.4</ele><time>2026-04-19T07:47:41Z</time></trkpt><trkpt lat="43.46531651238726" lon="13.452854881236508"><ele>56.0</ele><time>2026-04-19T07:47:42Z</time></trkpt><trkpt lat="43.465327545913105" lon="13.452740380310498"><ele>56.0</ele><time>2026-04-19T07:47:44Z</time></trkpt><trkpt lat="43.46533117720831" lon="13.452631787853763"><ele>55.99999999999999</ele><time>2026-04-19T07:48:52.001Z</time></trkpt><trkpt lat="43.46531506263957" lon="13.452490053826535"><ele>55.99999999999999</ele><time>2026-04-19T07:48:54Z</time></trkpt><trkpt lat="43.46531976161823" lon="13.452386596554804"><ele>56.0</ele><time>2026-04-19T07:48:55Z</time></trkpt><trkpt lat="43.46532574427127" lon="13.45226038700653"><ele>56.0</ele><time>2026-04-19T07:48:56Z</time></trkpt><trkpt lat="43.46532823413368" lon="13.452117251333837"><ele>55.25</ele><time>2026-04-19T07:48:57Z</time></trkpt><trkpt lat="43.46532719063026" lon="13.451973001938223"><ele>54.5</ele><time>2026-04-19T07:48:58Z</time></trkpt><trkpt lat="43.465326340124626" lon="13.45182149143725"><ele>53.75</ele><time>2026-04-19T07:48:59Z</time></trkpt><trkpt lat="43.46532719632625" lon="13.451649912946849"><ele>53.0</ele><time>2026-04-19T07:49:00Z</time></trkpt><trkpt lat="43.465322473696396" lon="13.451468639513486"><ele>53.0</ele><time>2026-04-19T07:49:01Z</time></trkpt><trkpt lat="43.46531900093848" lon="13.451279860723854"><ele>53.0</ele><time>2026-04-19T07:49:02Z</time></trkpt><trkpt lat="43.46531729549744" lon="13.451093514306459"><ele>53.0</ele><time>2026-04-19T07:49:03Z</time></trkpt><trkpt lat="43.46531182635186" lon="13.450903650357096"><ele>53.0</ele><time>2026-04-19T07:49:04Z</time></trkpt><trkpt lat="43.4653039674822" lon="13.450710128235492"><ele>53.0</ele><time>2026-04-19T07:49:05Z</time></trkpt><trkpt lat="43.46529518749091" lon="13.450503919671805"><ele>53.0</ele><time>2026-04-19T07:49:06Z</time></trkpt><trkpt lat="43.46528599579228" lon="13.45028511791733"><ele>53.0</ele><time>2026-04-19T07:49:07Z</time></trkpt><trkpt lat="43.465281924928455" lon="13.450065660357042"><ele>53.66666666666667</ele><time>2026-04-19T07:49:08Z</time></trkpt><trkpt lat="43.46527551739709" lon="13.449830190210246"><ele>54.33333333333333</ele><time>2026-04-19T07:49:09Z</time></trkpt><trkpt lat="43.465267613844894" lon="13.449603786174904"><ele>55.0</ele><time>2026-04-19T07:49:10Z</time></trkpt><trkpt lat="43.46525641449523" lon="13.449379447411971"><ele>55.666666666666664</ele><time>2026-04-19T07:49:11Z</time></trkpt><trkpt lat="43.46524364138007" lon="13.449148447162491"><ele>56.33333333333333</ele><time>2026-04-19T07:49:12Z</time></trkpt><trkpt lat="43.46523302892233" lon="13.448931547373974"><ele>57.0</ele><time>2026-04-19T07:49:13Z</time></trkpt><trkpt lat="43.46522314443252" lon="13.44871538260418"><ele>57.66666666666667</ele><time>2026-04-19T07:49:14Z</time></trkpt><trkpt lat="43.46521699855901" lon="13.448489697502998"><ele>58.333333333333336</ele><time>2026-04-19T07:49:15Z</time></trkpt><trkpt lat="43.465209394001604" lon="13.448281107675898"><ele>59.0</ele><time>2026-04-19T07:49:16Z</time></trkpt><trkpt lat="43.46520104719933" lon="13.448095146060522"><ele>59.0</ele><time>2026-04-19T07:49:17Z</time></trkpt><trkpt lat="43.46519151332739" lon="13.447902689019307"><ele>59.0</ele><time>2026-04-19T07:49:18Z</time></trkpt><trkpt lat="43.46518877175012" lon="13.447688647187658"><ele>59.0</ele><time>2026-04-19T07:49:19Z</time></trkpt><trkpt lat="43.46518397293047" lon="13.44747208169873"><ele>59.0</ele><time>2026-04-19T07:49:20Z</time></trkpt><trkpt lat="43.465168835254694" lon="13.447247107552753"><ele>59.0</ele><time>2026-04-19T07:49:21Z</time></trkpt><trkpt lat="43.465162143536105" lon="13.447017301871394"><ele>59.0</ele><time>2026-04-19T07:49:22Z</time></trkpt><trkpt lat="43.465156215288246" lon="13.44677960746724"><ele>59.0</ele><time>2026-04-19T07:49:23Z</time></trkpt><trkpt lat="43.46514222941312" lon="13.44653330586216"><ele>59.0</ele><time>2026-04-19T07:49:24Z</time></trkpt><trkpt lat="43.46511538280434" lon="13.446307208261866"><ele>59.0</ele><time>2026-04-19T07:49:25Z</time></trkpt><trkpt lat="43.46507918808153" lon="13.446069375106687"><ele>59.0</ele><time>2026-04-19T07:49:26Z</time></trkpt><trkpt lat="43.465026887939615" lon="13.445835818608979"><ele>59.0</ele><time>2026-04-19T07:49:27Z</time></trkpt><trkpt lat="43.46496672996643" lon="13.445626602857386"><ele>59.0</ele><time>2026-04-19T07:49:28Z</time></trkpt><trkpt lat="43.46489659319112" lon="13.445404132714135"><ele>58.66666666666667</ele><time>2026-04-19T07:49:29Z</time></trkpt><trkpt lat="43.464827182578354" lon="13.445190275586283"><ele>58.33333333333333</ele><time>2026-04-19T07:49:30Z</time></trkpt><trkpt lat="43.464755206882955" lon="13.444973427651336"><ele>58.0</ele><time>2026-04-19T07:49:31Z</time></trkpt><trkpt lat="43.46468542699348" lon="13.444748103187171"><ele>58.33333333333333</ele><time>2026-04-19T07:49:32Z</time></trkpt><trkpt lat="43.46463680582006" lon="13.444512959354052"><ele>58.66666666666667</ele><time>2026-04-19T07:49:33Z</time></trkpt><trkpt lat="43.46457883464068" lon="13.444283018437492"><ele>59.0</ele><time>2026-04-19T07:49:34Z</time></trkpt><trkpt lat="43.46451184459438" lon="13.444064235354142"><ele>59.0</ele><time>2026-04-19T07:49:35Z</time></trkpt><trkpt lat="43.464459294279436" lon="13.443844143828734"><ele>59.0</ele><time>2026-04-19T07:49:36Z</time></trkpt><trkpt lat="43.46440565505463" lon="13.443621086239002"><ele>59.0</ele><time>2026-04-19T07:49:37Z</time></trkpt><trkpt lat="43.46435456515688" lon="13.443397761157465"><ele>59.0</ele><time>2026-04-19T07:49:38Z</time></trkpt><trkpt lat="43.464307875142794" lon="13.443173722647924"><ele>59.0</ele><time>2026-04-19T07:49:39Z</time></trkpt><trkpt lat="43.46426461246929" lon="13.442944043558567"><ele>59.0</ele><time>2026-04-19T07:49:40Z</time></trkpt><trkpt lat="43.46424245728877" lon="13.442704598083004"><ele>59.0</ele><time>2026-04-19T07:49:41Z</time></trkpt><trkpt lat="43.464197442151615" lon="13.442484079182368"><ele>59.0</ele><time>2026-04-19T07:49:42Z</time></trkpt><trkpt lat="43.46417409417842" lon="13.442238897157353"><ele>59.0</ele><time>2026-04-19T07:49:43Z</time></trkpt><trkpt lat="43.46415324153661" lon="13.4420004995825"><ele>59.66666666666667</ele><time>2026-04-19T07:49:44Z</time></trkpt><trkpt lat="43.46413156738365" lon="13.44176506366666"><ele>60.33333333333333</ele><time>2026-04-19T07:49:45Z</time></trkpt><trkpt lat="43.46410969292061" lon="13.441522203701588"><ele>61.0</ele><time>2026-04-19T07:49:46Z</time></trkpt><trkpt lat="43.464091578435784" lon="13.441282720272165"><ele>61.0</ele><time>2026-04-19T07:49:47.001Z</time></trkpt><trkpt lat="43.464071726796035" lon="13.441041205382358"><ele>61.0</ele><time>2026-04-19T07:49:48.001Z</time></trkpt><trkpt lat="43.4640446226722" lon="13.440800735417985"><ele>61.0</ele><time>2026-04-19T07:49:49.001Z</time></trkpt><trkpt lat="43.46399500794551" lon="13.440565927163922"><ele>61.0</ele><time>2026-04-19T07:49:50.001Z</time></trkpt><trkpt lat="43.46393447094442" lon="13.440336386005212"><ele>61.0</ele><time>2026-04-19T07:49:51.001Z</time></trkpt><trkpt lat="43.46385935905235" lon="13.440119836573885"><ele>61.0</ele><time>2026-04-19T07:49:52.001Z</time></trkpt><trkpt lat="43.46379924138564" lon="13.439891141458569"><ele>61.33333333333333</ele><time>2026-04-19T07:49:53.001Z</time></trkpt><trkpt lat="43.46372787690361" lon="13.439675195857024"><ele>61.66666666666667</ele><time>2026-04-19T07:49:54.001Z</time></trkpt><trkpt lat="43.46365542440793" lon="13.43945791139576"><ele>62.0</ele><time>2026-04-19T07:49:55.001Z</time></trkpt><trkpt lat="43.46358132667169" lon="13.439245862273872"><ele>62.0</ele><time>2026-04-19T07:49:56.001Z</time></trkpt><trkpt lat="43.46348062202128" lon="13.439035883738603"><ele>62.0</ele><time>2026-04-19T07:49:57.001Z</time></trkpt><trkpt lat="43.4633879999968" lon="13.43882452422076"><ele>62.0</ele><time>2026-04-19T07:49:58.001Z</time></trkpt><trkpt lat="43.463290608583776" lon="13.438619305309082"><ele>62.0</ele><time>2026-04-19T07:49:59.001Z</time></trkpt><trkpt lat="43.46319222499526" lon="13.438426639347394"><ele>62.0</ele><time>2026-04-19T07:50:00.001Z</time></trkpt><trkpt lat="43.463088455884964" lon="13.438218480608176"><ele>62.0</ele><time>2026-04-19T07:50:01.001Z</time></trkpt><trkpt lat="43.46298658685237" lon="13.438014014050784"><ele>62.333333333333336</ele><time>2026-04-19T07:50:02.001Z</time></trkpt><trkpt lat="43.46288671046304" lon="13.437817506230731"><ele>62.66666666666667</ele><time>2026-04-19T07:50:03.001Z</time></trkpt><trkpt lat="43.462782684089106" lon="13.437606561076338"><ele>63.0</ele><time>2026-04-19T07:50:04.001Z</time></trkpt><trkpt lat="43.46268685600353" lon="13.437409799936356"><ele>63.0</ele><time>2026-04-19T07:50:05.001Z</time></trkpt><trkpt lat="43.4625843867636" lon="13.43720703947483"><ele>63.0</ele><time>2026-04-19T07:50:06.001Z</time></trkpt><trkpt lat="43.462503514522645" lon="13.437002266275503"><ele>63.0</ele><time>2026-04-19T07:50:07.001Z</time></trkpt><trkpt lat="43.46239474604143" lon="13.43681695591425"><ele>63.0</ele><time>2026-04-19T07:50:08.001Z</time></trkpt><trkpt lat="43.462308688216076" lon="13.436589618606313"><ele>63.0</ele><time>2026-04-19T07:50:09.001Z</time></trkpt><trkpt lat="43.46222108258513" lon="13.436381843442714"><ele>63.0</ele><time>2026-04-19T07:50:10.001Z</time></trkpt><trkpt lat="43.46213655625218" lon="13.436163949310084"><ele>63.66666666666667</ele><time>2026-04-19T07:50:11.001Z</time></trkpt><trkpt lat="43.462054695643005" lon="13.435941489553642"><ele>64.33333333333334</ele><time>2026-04-19T07:50:12.001Z</time></trkpt><trkpt lat="43.461965018460035" lon="13.435727551391084"><ele>65.0</ele><time>2026-04-19T07:50:13.001Z</time></trkpt><trkpt lat="43.46189416119073" lon="13.435502531816882"><ele>65.0</ele><time>2026-04-19T07:50:14.001Z</time></trkpt><trkpt lat="43.461826635668515" lon="13.43527651039502"><ele>65.0</ele><time>2026-04-19T07:50:15.001Z</time></trkpt><trkpt lat="43.46176233886504" lon="13.435043190392635"><ele>65.0</ele><time>2026-04-19T07:50:16.001Z</time></trkpt><trkpt lat="43.4617271784896" lon="13.434799933956914"><ele>65.0</ele><time>2026-04-19T07:50:17.001Z</time></trkpt><trkpt lat="43.46165296038909" lon="13.434578904342663"><ele>65.0</ele><time>2026-04-19T07:50:18.001Z</time></trkpt><trkpt lat="43.46160161333934" lon="13.434346852789664"><ele>65.0</ele><time>2026-04-19T07:50:19.001Z</time></trkpt><trkpt lat="43.46155096949435" lon="13.434110206222757"><ele>65.0</ele><time>2026-04-19T07:50:20.001Z</time></trkpt><trkpt lat="43.46150121295382" lon="13.433882357032697"><ele>65.0</ele><time>2026-04-19T07:50:21.001Z</time></trkpt><trkpt lat="43.46147132543243" lon="13.43364103055005"><ele>65.0</ele><time>2026-04-19T07:50:22.001Z</time></trkpt><trkpt lat="43.461424244469505" lon="13.433425651385548"><ele>65.5</ele><time>2026-04-19T07:50:23.001Z</time></trkpt><trkpt lat="43.46137949135512" lon="13.43322097456497"><ele>66.0</ele><time>2026-04-19T07:50:24.001Z</time></trkpt><trkpt lat="43.46133473966829" lon="13.43302269780242"><ele>66.5</ele><time>2026-04-19T07:50:25.001Z</time></trkpt><trkpt lat="43.46127517412119" lon="13.432843971703797"><ele>67.0</ele><time>2026-04-19T07:50:26.001Z</time></trkpt><trkpt lat="43.461239909190425" lon="13.432670757168376"><ele>67.5</ele><time>2026-04-19T07:50:27.001Z</time></trkpt><trkpt lat="43.46123027144311" lon="13.432504662642046"><ele>68.0</ele><time>2026-04-19T07:50:28.001Z</time></trkpt><trkpt lat="43.461205842530234" lon="13.43232892871421"><ele>68.5</ele><time>2026-04-19T07:50:29.001Z</time></trkpt><trkpt lat="43.461172629167606" lon="13.432154461914154"><ele>69.0</ele><time>2026-04-19T07:50:30.001Z</time></trkpt><trkpt lat="43.46113749365782" lon="13.43197417170209"><ele>69.0</ele><time>2026-04-19T07:50:31.001Z</time></trkpt><trkpt lat="43.46110122243074" lon="13.431788053767859"><ele>69.0</ele><time>2026-04-19T07:50:32.001Z</time></trkpt><trkpt lat="43.461066678268175" lon="13.43161079788875"><ele>69.0</ele><time>2026-04-19T07:50:33.001Z</time></trkpt><trkpt lat="43.46102399459814" lon="13.431458679410353"><ele>69.0</ele><time>2026-04-19T07:50:34.001Z</time></trkpt><trkpt lat="43.461012663963416" lon="13.431311126771433"><ele>68.60000000000001</ele><time>2026-04-19T07:50:35.001Z</time></trkpt><trkpt lat="43.46098566810475" lon="13.431175494992633"><ele>68.2</ele><time>2026-04-19T07:50:36.001Z</time></trkpt><trkpt lat="43.46096766919416" lon="13.431051195663565"><ele>67.80000000000001</ele><time>2026-04-19T07:50:37.001Z</time></trkpt><trkpt lat="43.46094925327569" lon="13.430924163744667"><ele>67.4</ele><time>2026-04-19T07:50:38.001Z</time></trkpt><trkpt lat="43.460997651787494" lon="13.43079794231772"><ele>67.0</ele><time>2026-04-19T07:50:39.001Z</time></trkpt><trkpt lat="43.46104207680312" lon="13.43065059983691"><ele>67.0</ele><time>2026-04-19T07:50:40.001Z</time></trkpt><trkpt lat="43.46109126713989" lon="13.430488735621347"><ele>67.0</ele><time>2026-04-19T07:50:41.001Z</time></trkpt><trkpt lat="43.46114371295278" lon="13.430320930190517"><ele>67.0</ele><time>2026-04-19T07:50:42.001Z</time></trkpt><trkpt lat="43.461190534568445" lon="13.43017036077862"><ele>67.0</ele><time>2026-04-19T07:50:43.001Z</time></trkpt><trkpt lat="43.461235132724205" lon="13.430026162467113"><ele>66.75</ele><time>2026-04-19T07:50:44.001Z</time></trkpt><trkpt lat="43.461281152242606" lon="13.429877368482186"><ele>66.5</ele><time>2026-04-19T07:50:45.001Z</time></trkpt><trkpt lat="43.461327096723515" lon="13.42971773226607"><ele>66.25</ele><time>2026-04-19T07:50:46.001Z</time></trkpt><trkpt lat="43.4613685031425" lon="13.429559751837383"><ele>66.0</ele><time>2026-04-19T07:50:47.001Z</time></trkpt><trkpt lat="43.46141951249933" lon="13.429392978518012"><ele>67.25</ele><time>2026-04-19T07:50:48.001Z</time></trkpt><trkpt lat="43.46147485828125" lon="13.429225889488938"><ele>68.5</ele><time>2026-04-19T07:50:49.001Z</time></trkpt><trkpt lat="43.46152797072056" lon="13.429051150662874"><ele>69.75</ele><time>2026-04-19T07:50:50.001Z</time></trkpt><trkpt lat="43.46157691537338" lon="13.428870930726157"><ele>71.0</ele><time>2026-04-19T07:50:51.001Z</time></trkpt><trkpt lat="43.461635764289916" lon="13.428682401463984"><ele>72.25</ele><time>2026-04-19T07:50:52.001Z</time></trkpt><trkpt lat="43.46169384759103" lon="13.428497490373752"><ele>73.5</ele><time>2026-04-19T07:50:53.001Z</time></trkpt><trkpt lat="43.461745912946064" lon="13.428308218408143"><ele>74.75</ele><time>2026-04-19T07:50:54.001Z</time></trkpt><trkpt lat="43.46180658123579" lon="13.428135679770067"><ele>76.0</ele><time>2026-04-19T07:50:55.001Z</time></trkpt><trkpt lat="43.46186126609166" lon="13.427955326254684"><ele>76.0</ele><time>2026-04-19T07:50:56.001Z</time></trkpt><trkpt lat="43.4619194186921" lon="13.427762065720156"><ele>76.0</ele><time>2026-04-19T07:50:57.001Z</time></trkpt><trkpt lat="43.46198126502801" lon="13.427570656704232"><ele>76.0</ele><time>2026-04-19T07:50:58.001Z</time></trkpt><trkpt lat="43.46204129357334" lon="13.427397393370123"><ele>76.0</ele><time>2026-04-19T07:50:59.001Z</time></trkpt><trkpt lat="43.462089411984216" lon="13.427225651986893"><ele>74.8</ele><time>2026-04-19T07:51:00Z</time></trkpt><trkpt lat="43.46213695778604" lon="13.427068845591963"><ele>73.6</ele><time>2026-04-19T07:51:01Z</time></trkpt><trkpt lat="43.46218759095436" lon="13.42693086808929"><ele>72.4</ele><time>2026-04-19T07:51:02Z</time></trkpt><trkpt lat="43.46222794766435" lon="13.426802941169292"><ele>71.2</ele><time>2026-04-19T07:51:03Z</time></trkpt><trkpt lat="43.46226408637839" lon="13.426709279031378"><ele>70.0</ele><time>2026-04-19T07:51:04Z</time></trkpt><trkpt lat="43.46230863074145" lon="13.426637797313754"><ele>70.0</ele><time>2026-04-19T07:51:05Z</time></trkpt><trkpt lat="43.46236584974445" lon="13.426599469570261"><ele>70.0</ele><time>2026-04-19T07:51:06Z</time></trkpt><trkpt lat="43.46243693529503" lon="13.42654207513871"><ele>70.0</ele><time>2026-04-19T07:51:07Z</time></trkpt><trkpt lat="43.46251533286775" lon="13.426485770816099"><ele>70.0</ele><time>2026-04-19T07:51:08Z</time></trkpt><trkpt lat="43.46260057705135" lon="13.42642580685168"><ele>70.0</ele><time>2026-04-19T07:51:09Z</time></trkpt><trkpt lat="43.46269636060361" lon="13.426360493597121"><ele>70.0</ele><time>2026-04-19T07:51:10Z</time></trkpt><trkpt lat="43.462796734609974" lon="13.426295384801442"><ele>69.5</ele><time>2026-04-19T07:51:11Z</time></trkpt><trkpt lat="43.462905441201116" lon="13.426229317922296"><ele>69.0</ele><time>2026-04-19T07:51:12Z</time></trkpt><trkpt lat="43.46302086781822" lon="13.4261627896446"><ele>68.5</ele><time>2026-04-19T07:51:13Z</time></trkpt><trkpt lat="43.463139292307" lon="13.426096426549904"><ele>68.0</ele><time>2026-04-19T07:51:14Z</time></trkpt><trkpt lat="43.463265462417354" lon="13.426028715156797"><ele>68.0</ele><time>2026-04-19T07:51:15Z</time></trkpt><trkpt lat="43.463393041840774" lon="13.425961857456032"><ele>68.0</ele><time>2026-04-19T07:51:16Z</time></trkpt><trkpt lat="43.463516557364095" lon="13.425899149008286"><ele>68.0</ele><time>2026-04-19T07:51:17Z</time></trkpt><trkpt lat="43.4636273189015" lon="13.425848492247978"><ele>68.0</ele><time>2026-04-19T07:51:18Z</time></trkpt><trkpt lat="43.463732290766195" lon="13.425809576296054"><ele>67.6</ele><time>2026-04-19T07:51:19Z</time></trkpt><trkpt lat="43.463832432705914" lon="13.425796469040803"><ele>67.19999999999999</ele><time>2026-04-19T07:51:20Z</time></trkpt><trkpt lat="43.46393621242554" lon="13.425811529125701"><ele>66.8</ele><time>2026-04-19T07:51:21Z</time></trkpt><trkpt lat="43.46403624707135" lon="13.425883047482941"><ele>66.39999999999999</ele><time>2026-04-19T07:51:22Z</time></trkpt><trkpt lat="43.4641441520905" lon="13.42596243271628"><ele>66.0</ele><time>2026-04-19T07:51:23Z</time></trkpt><trkpt lat="43.46425321556939" lon="13.42604644445594"><ele>66.0</ele><time>2026-04-19T07:51:24Z</time></trkpt><trkpt lat="43.46436788782802" lon="13.426123014604126"><ele>66.0</ele><time>2026-04-19T07:51:25Z</time></trkpt><trkpt lat="43.46448415576475" lon="13.426208039473545"><ele>66.0</ele><time>2026-04-19T07:51:26Z</time></trkpt><trkpt lat="43.464597984421246" lon="13.426289052191954"><ele>66.0</ele><time>2026-04-19T07:51:27Z</time></trkpt><trkpt lat="43.46470671367758" lon="13.426356343660505"><ele>65.8</ele><time>2026-04-19T07:51:28Z</time></trkpt><trkpt lat="43.464806709210286" lon="13.426415836887164"><ele>65.6</ele><time>2026-04-19T07:51:29Z</time></trkpt><trkpt lat="43.46488758100739" lon="13.426471898762829"><ele>65.4</ele><time>2026-04-19T07:51:30Z</time></trkpt><trkpt lat="43.46496310906936" lon="13.426479030521199"><ele>65.2</ele><time>2026-04-19T07:51:31Z</time></trkpt><trkpt lat="43.465038740277144" lon="13.426490485680795"><ele>65.0</ele><time>2026-04-19T07:51:32Z</time></trkpt><trkpt lat="43.46512220290352" lon="13.426418393981072"><ele>65.0</ele><time>2026-04-19T07:51:33Z</time></trkpt><trkpt lat="43.465196303265714" lon="13.426336952179279"><ele>65.0</ele><time>2026-04-19T07:51:34Z</time></trkpt><trkpt lat="43.465278125532976" lon="13.426243679481042"><ele>65.0</ele><time>2026-04-19T07:51:35Z</time></trkpt><trkpt lat="43.46535845369522" lon="13.426142343980532"><ele>65.0</ele><time>2026-04-19T07:51:36Z</time></trkpt><trkpt lat="43.46544224141066" lon="13.42603664424643"><ele>65.0</ele><time>2026-04-19T07:51:37Z</time></trkpt><trkpt lat="43.46552801207738" lon="13.425926726197531"><ele>65.5</ele><time>2026-04-19T07:51:38Z</time></trkpt><trkpt lat="43.46561472362101" lon="13.42581472954858"><ele>66.0</ele><time>2026-04-19T07:51:39Z</time></trkpt><trkpt lat="43.46570180617389" lon="13.425700491562235"><ele>66.5</ele><time>2026-04-19T07:51:40Z</time></trkpt><trkpt lat="43.46579011183761" lon="13.42557954868858"><ele>67.0</ele><time>2026-04-19T07:51:41Z</time></trkpt><trkpt lat="43.46587437392692" lon="13.425456475166786"><ele>67.2</ele><time>2026-04-19T07:51:42Z</time></trkpt><trkpt lat="43.46593551432332" lon="13.425326075497455"><ele>67.4</ele><time>2026-04-19T07:51:43Z</time></trkpt><trkpt lat="43.46600627794963" lon="13.42523324443698"><ele>67.6</ele><time>2026-04-19T07:51:44Z</time></trkpt><trkpt lat="43.466040583553045" lon="13.425119291166494"><ele>67.8</ele><time>2026-04-19T07:51:45Z</time></trkpt><trkpt lat="43.46609194235862" lon="13.425033905313558"><ele>68.0</ele><time>2026-04-19T07:51:46Z</time></trkpt><trkpt lat="43.46616604789931" lon="13.424921231018677"><ele>68.0</ele><time>2026-04-19T07:51:48Z</time></trkpt><trkpt lat="43.46627489910604" lon="13.424938673041984"><ele>68.0</ele><time>2026-04-19T07:51:50Z</time></trkpt><trkpt lat="43.46631313971923" lon="13.425044510672798"><ele>68.0</ele><time>2026-04-19T07:51:51Z</time></trkpt><trkpt lat="43.466377023049155" lon="13.425097543765881"><ele>68.0</ele><time>2026-04-19T07:51:52Z</time></trkpt><trkpt lat="43.46644878244174" lon="13.42517947566417"><ele>68.0</ele><time>2026-04-19T07:51:53Z</time></trkpt><trkpt lat="43.46652881193206" lon="13.425268152702003"><ele>67.5</ele><time>2026-04-19T07:51:54Z</time></trkpt><trkpt lat="43.46660565433921" lon="13.425362957440404"><ele>67.0</ele><time>2026-04-19T07:51:55Z</time></trkpt><trkpt lat="43.4666550323671" lon="13.425490764571421"><ele>66.5</ele><time>2026-04-19T07:51:56Z</time></trkpt><trkpt lat="43.46667048543082" lon="13.425647609680658"><ele>66.0</ele><time>2026-04-19T07:51:57Z</time></trkpt><trkpt lat="43.46671891681161" lon="13.42581174082465"><ele>66.0</ele><time>2026-04-19T07:51:58Z</time></trkpt><trkpt lat="43.4667615170902" lon="13.42596744525182"><ele>66.0</ele><time>2026-04-19T07:51:59Z</time></trkpt><trkpt lat="43.466819793787664" lon="13.426115272478677"><ele>66.0</ele><time>2026-04-19T07:52:00.001Z</time></trkpt><trkpt lat="43.46687867446119" lon="13.426243112770374"><ele>66.0</ele><time>2026-04-19T07:52:01.001Z</time></trkpt><trkpt lat="43.466930298092954" lon="13.426361518133504"><ele>65.8</ele><time>2026-04-19T07:52:02.001Z</time></trkpt><trkpt lat="43.46697131260802" lon="13.42645422075884"><ele>65.6</ele><time>2026-04-19T07:52:03.001Z</time></trkpt><trkpt lat="43.467058505236416" lon="13.426542899496365"><ele>65.4</ele><time>2026-04-19T07:52:05.001Z</time></trkpt><trkpt lat="43.46712430996476" lon="13.426550584691055"><ele>65.2</ele><time>2026-04-19T07:52:06.001Z</time></trkpt><trkpt lat="43.46724203626618" lon="13.426446036881863"><ele>65.0</ele><time>2026-04-19T07:52:08.001Z</time></trkpt><trkpt lat="43.46730446330865" lon="13.426373267688144"><ele>65.0</ele><time>2026-04-19T07:52:09.001Z</time></trkpt><trkpt lat="43.46736884003273" lon="13.426298225825555"><ele>65.0</ele><time>2026-04-19T07:52:10.001Z</time></trkpt><trkpt lat="43.46744012812484" lon="13.426215127586032"><ele>65.0</ele><time>2026-04-19T07:52:11.001Z</time></trkpt><trkpt lat="43.46751876205899" lon="13.426130831465812"><ele>65.0</ele><time>2026-04-19T07:52:12.001Z</time></trkpt><trkpt lat="43.46760242387687" lon="13.426048842335932"><ele>65.0</ele><time>2026-04-19T07:52:13.001Z</time></trkpt><trkpt lat="43.46769355295519" lon="13.425960886687859"><ele>65.0</ele><time>2026-04-19T07:52:14.001Z</time></trkpt><trkpt lat="43.467787601599376" lon="13.425873294255158"><ele>65.0</ele><time>2026-04-19T07:52:15.001Z</time></trkpt><trkpt lat="43.46788524108691" lon="13.425782732789681"><ele>65.0</ele><time>2026-04-19T07:52:16.001Z</time></trkpt><trkpt lat="43.467982790842555" lon="13.425688405594025"><ele>65.0</ele><time>2026-04-19T07:52:17.001Z</time></trkpt><trkpt lat="43.46808072988557" lon="13.4255869796304"><ele>64.75</ele><time>2026-04-19T07:52:18.001Z</time></trkpt><trkpt lat="43.46817931408001" lon="13.42548010325556"><ele>64.5</ele><time>2026-04-19T07:52:19.001Z</time></trkpt><trkpt lat="43.468264058001985" lon="13.425348606332486"><ele>64.25</ele><time>2026-04-19T07:52:20.001Z</time></trkpt><trkpt lat="43.46835584708077" lon="13.425234213436006"><ele>64.0</ele><time>2026-04-19T07:52:21.001Z</time></trkpt><trkpt lat="43.46846266750712" lon="13.42512820270323"><ele>63.75</ele><time>2026-04-19T07:52:22.001Z</time></trkpt><trkpt lat="43.46856084555783" lon="13.425000204400503"><ele>63.5</ele><time>2026-04-19T07:52:23.001Z</time></trkpt><trkpt lat="43.46866028661016" lon="13.424870543395109"><ele>63.25</ele><time>2026-04-19T07:52:24.001Z</time></trkpt><trkpt lat="43.46876265681781" lon="13.424737063054017"><ele>63.0</ele><time>2026-04-19T07:52:25.001Z</time></trkpt><trkpt lat="43.46886388903539" lon="13.424605066593317"><ele>63.5</ele><time>2026-04-19T07:52:26.001Z</time></trkpt><trkpt lat="43.4689717705108" lon="13.424464835331955"><ele>64.0</ele><time>2026-04-19T07:52:27.001Z</time></trkpt><trkpt lat="43.4690795284729" lon="13.424324835707562"><ele>64.5</ele><time>2026-04-19T07:52:28.001Z</time></trkpt><trkpt lat="43.469189218943356" lon="13.424183379696776"><ele>65.0</ele><time>2026-04-19T07:52:29.001Z</time></trkpt><trkpt lat="43.469299189795755" lon="13.424045976695657"><ele>65.0</ele><time>2026-04-19T07:52:30.001Z</time></trkpt><trkpt lat="43.469414125950465" lon="13.423904940951017"><ele>65.0</ele><time>2026-04-19T07:52:31.001Z</time></trkpt><trkpt lat="43.46952588840082" lon="13.42376921752016"><ele>65.0</ele><time>2026-04-19T07:52:32.001Z</time></trkpt><trkpt lat="43.469633217309166" lon="13.423640740917898"><ele>65.0</ele><time>2026-04-19T07:52:33.001Z</time></trkpt><trkpt lat="43.4697347239382" lon="13.423520579229574"><ele>65.5</ele><time>2026-04-19T07:52:34.001Z</time></trkpt><trkpt lat="43.469827206085455" lon="13.42341621535497"><ele>66.0</ele><time>2026-04-19T07:52:35.001Z</time></trkpt><trkpt lat="43.4699155305282" lon="13.423318474116384"><ele>66.5</ele><time>2026-04-19T07:52:36.001Z</time></trkpt><trkpt lat="43.470007237764925" lon="13.423213720526203"><ele>67.0</ele><time>2026-04-19T07:52:37.001Z</time></trkpt><trkpt lat="43.47008559700298" lon="13.423119011795238"><ele>67.0</ele><time>2026-04-19T07:52:38.001Z</time></trkpt><trkpt lat="43.47016729773739" lon="13.423005254307602"><ele>67.0</ele><time>2026-04-19T07:52:39.001Z</time></trkpt><trkpt lat="43.470250694706664" lon="13.422880935761555"><ele>67.0</ele><time>2026-04-19T07:52:40.001Z</time></trkpt><trkpt lat="43.470325788547534" lon="13.422741757142068"><ele>67.0</ele><time>2026-04-19T07:52:41.001Z</time></trkpt><trkpt lat="43.47039010898765" lon="13.42260377931894"><ele>67.25</ele><time>2026-04-19T07:52:42.001Z</time></trkpt><trkpt lat="43.47046961742307" lon="13.422461207279182"><ele>67.5</ele><time>2026-04-19T07:52:43.001Z</time></trkpt><trkpt lat="43.47053990060218" lon="13.422320731561463"><ele>67.75</ele><time>2026-04-19T07:52:44.001Z</time></trkpt><trkpt lat="43.47061885092815" lon="13.422174507177477"><ele>68.0</ele><time>2026-04-19T07:52:45.001Z</time></trkpt><trkpt lat="43.470707590927965" lon="13.422055057448842"><ele>68.0</ele><time>2026-04-19T07:52:46.001Z</time></trkpt><trkpt lat="43.470781089475636" lon="13.421905601375359"><ele>68.0</ele><time>2026-04-19T07:52:47.001Z</time></trkpt><trkpt lat="43.470850840925756" lon="13.421756634386988"><ele>68.0</ele><time>2026-04-19T07:52:48.001Z</time></trkpt><trkpt lat="43.470938793321906" lon="13.42162059914666"><ele>68.0</ele><time>2026-04-19T07:52:49.001Z</time></trkpt><trkpt lat="43.47100712138823" lon="13.42146899333279"><ele>68.0</ele><time>2026-04-19T07:52:50.001Z</time></trkpt><trkpt lat="43.471090003721166" lon="13.421351003703961"><ele>68.0</ele><time>2026-04-19T07:52:51.001Z</time></trkpt><trkpt lat="43.471163256183566" lon="13.421226212037691"><ele>68.0</ele><time>2026-04-19T07:52:52.001Z</time></trkpt><trkpt lat="43.47122969581766" lon="13.421102410013113"><ele>68.0</ele><time>2026-04-19T07:52:53.001Z</time></trkpt><trkpt lat="43.47130040481207" lon="13.420991890969125"><ele>68.0</ele><time>2026-04-19T07:52:54.001Z</time></trkpt><trkpt lat="43.47135265302465" lon="13.420855953738513"><ele>68.0</ele><time>2026-04-19T07:52:55.001Z</time></trkpt><trkpt lat="43.471414891628086" lon="13.420745701538925"><ele>68.0</ele><time>2026-04-19T07:52:56.001Z</time></trkpt><trkpt lat="43.471481185386196" lon="13.4206489686499"><ele>68.0</ele><time>2026-04-19T07:52:57.001Z</time></trkpt><trkpt lat="43.47154675962092" lon="13.420549227234918"><ele>68.0</ele><time>2026-04-19T07:52:58.001Z</time></trkpt><trkpt lat="43.47161799288971" lon="13.420440613190573"><ele>68.2</ele><time>2026-04-19T07:52:59.001Z</time></trkpt><trkpt lat="43.47169423043982" lon="13.42033562505225"><ele>68.4</ele><time>2026-04-19T07:53:00.001Z</time></trkpt><trkpt lat="43.471771293913406" lon="13.420235558189203"><ele>68.60000000000001</ele><time>2026-04-19T07:53:01.001Z</time></trkpt><trkpt lat="43.47184463212834" lon="13.42012747655208"><ele>68.8</ele><time>2026-04-19T07:53:02.001Z</time></trkpt><trkpt lat="43.47192218163594" lon="13.420020190234705"><ele>69.0</ele><time>2026-04-19T07:53:03.001Z</time></trkpt><trkpt lat="43.472000144749884" lon="13.419924079947764"><ele>69.0</ele><time>2026-04-19T07:53:04.001Z</time></trkpt><trkpt lat="43.47208236592947" lon="13.41982246334526"><ele>69.0</ele><time>2026-04-19T07:53:05.001Z</time></trkpt><trkpt lat="43.47216765899871" lon="13.419721776110142"><ele>69.0</ele><time>2026-04-19T07:53:06Z</time></trkpt><trkpt lat="43.47225538738523" lon="13.419614918044537"><ele>69.0</ele><time>2026-04-19T07:53:07Z</time></trkpt><trkpt lat="43.47234247219161" lon="13.419497890414833"><ele>68.75</ele><time>2026-04-19T07:53:08Z</time></trkpt><trkpt lat="43.47242940906751" lon="13.41938482638067"><ele>68.5</ele><time>2026-04-19T07:53:09Z</time></trkpt><trkpt lat="43.47251338676592" lon="13.41927221646542"><ele>68.25</ele><time>2026-04-19T07:53:10Z</time></trkpt><trkpt lat="43.472596140906305" lon="13.419160449342096"><ele>68.0</ele><time>2026-04-19T07:53:11Z</time></trkpt><trkpt lat="43.47267730925135" lon="13.419051767037846"><ele>68.0</ele><time>2026-04-19T07:53:12Z</time></trkpt><trkpt lat="43.47275862411783" lon="13.418939232926135"><ele>68.0</ele><time>2026-04-19T07:53:13Z</time></trkpt><trkpt lat="43.47283890435105" lon="13.418820705060885"><ele>68.0</ele><time>2026-04-19T07:53:14Z</time></trkpt><trkpt lat="43.47291636201715" lon="13.418696560665419"><ele>68.0</ele><time>2026-04-19T07:53:15Z</time></trkpt><trkpt lat="43.47299840067044" lon="13.418575144822512"><ele>68.2</ele><time>2026-04-19T07:53:16Z</time></trkpt><trkpt lat="43.47307461818112" lon="13.41844785997222"><ele>68.4</ele><time>2026-04-19T07:53:17Z</time></trkpt><trkpt lat="43.473155259284624" lon="13.41832613807427"><ele>68.60000000000001</ele><time>2026-04-19T07:53:18Z</time></trkpt><trkpt lat="43.473220201778716" lon="13.418212188075618"><ele>68.8</ele><time>2026-04-19T07:53:19Z</time></trkpt><trkpt lat="43.47327101883527" lon="13.418121883311223"><ele>69.0</ele><time>2026-04-19T07:53:20Z</time></trkpt><trkpt lat="43.47334481698847" lon="13.417998630406261"><ele>69.0</ele><time>2026-04-19T07:53:22Z</time></trkpt><trkpt lat="43.473422030100295" lon="13.417864923559048"><ele>69.0</ele><time>2026-04-19T07:53:24Z</time></trkpt><trkpt lat="43.47346079684777" lon="13.41779234412016"><ele>69.0</ele><time>2026-04-19T07:53:25Z</time></trkpt><trkpt lat="43.4735041517303" lon="13.417702725353363"><ele>69.0</ele><time>2026-04-19T07:53:26Z</time></trkpt><trkpt lat="43.4735514853203" lon="13.417603761321459"><ele>69.0</ele><time>2026-04-19T07:53:27Z</time></trkpt><trkpt lat="43.47360416946171" lon="13.417492824204686"><ele>69.0</ele><time>2026-04-19T07:53:28Z</time></trkpt><trkpt lat="43.47366475336014" lon="13.417375896572569"><ele>69.0</ele><time>2026-04-19T07:53:29Z</time></trkpt><trkpt lat="43.47372572971382" lon="13.417245532256135"><ele>69.0</ele><time>2026-04-19T07:53:30Z</time></trkpt><trkpt lat="43.473790650021144" lon="13.417107568199578"><ele>69.0</ele><time>2026-04-19T07:53:31Z</time></trkpt><trkpt lat="43.47385990579169" lon="13.416965625086823"><ele>69.5</ele><time>2026-04-19T07:53:32Z</time></trkpt><trkpt lat="43.4739260339232" lon="13.416818417224917"><ele>70.0</ele><time>2026-04-19T07:53:33Z</time></trkpt><trkpt lat="43.47399064584972" lon="13.416682471887299"><ele>70.5</ele><time>2026-04-19T07:53:34Z</time></trkpt><trkpt lat="43.474054244153045" lon="13.416542717594972"><ele>71.0</ele><time>2026-04-19T07:53:35Z</time></trkpt><trkpt lat="43.47411843345579" lon="13.416399070905234"><ele>71.25</ele><time>2026-04-19T07:53:36Z</time></trkpt><trkpt lat="43.47418144210595" lon="13.416255782092628"><ele>71.5</ele><time>2026-04-19T07:53:37Z</time></trkpt><trkpt lat="43.47424729071747" lon="13.416117498731122"><ele>71.75</ele><time>2026-04-19T07:53:38Z</time></trkpt><trkpt lat="43.4743075349147" lon="13.415988140034473"><ele>72.0</ele><time>2026-04-19T07:53:39Z</time></trkpt><trkpt lat="43.47435804423055" lon="13.415865631899145"><ele>72.0</ele><time>2026-04-19T07:53:40Z</time></trkpt><trkpt lat="43.4744013956463" lon="13.415758314197797"><ele>72.0</ele><time>2026-04-19T07:53:41Z</time></trkpt><trkpt lat="43.474436915216316" lon="13.415666373386232"><ele>72.0</ele><time>2026-04-19T07:53:42Z</time></trkpt><trkpt lat="43.4744715701401" lon="13.41558829179465"><ele>72.0</ele><time>2026-04-19T07:53:43Z</time></trkpt><trkpt lat="43.4745276862463" lon="13.415447786012736"><ele>72.0</ele><time>2026-04-19T07:53:45Z</time></trkpt><trkpt lat="43.47457983756511" lon="13.41530382350658"><ele>71.83333333333333</ele><time>2026-04-19T07:53:47Z</time></trkpt><trkpt lat="43.4746090604686" lon="13.41522287843444"><ele>71.66666666666667</ele><time>2026-04-19T07:53:48Z</time></trkpt><trkpt lat="43.47463557594531" lon="13.415136443154529"><ele>71.5</ele><time>2026-04-19T07:53:49Z</time></trkpt><trkpt lat="43.47466498586291" lon="13.415040156849718"><ele>71.33333333333334</ele><time>2026-04-19T07:53:50Z</time></trkpt><trkpt lat="43.47469541816884" lon="13.414933969188814"><ele>71.16666666666667</ele><time>2026-04-19T07:53:51Z</time></trkpt><trkpt lat="43.47472591947889" lon="13.414820778360028"><ele>71.0</ele><time>2026-04-19T07:53:52Z</time></trkpt><trkpt lat="43.474755854115514" lon="13.414698250011773"><ele>70.8</ele><time>2026-04-19T07:53:53Z</time></trkpt><trkpt lat="43.474778858974226" lon="13.4145632769745"><ele>70.6</ele><time>2026-04-19T07:53:54Z</time></trkpt><trkpt lat="43.4748023621323" lon="13.414420932480729"><ele>70.4</ele><time>2026-04-19T07:53:55Z</time></trkpt><trkpt lat="43.474819545100154" lon="13.414273670023514"><ele>70.2</ele><time>2026-04-19T07:53:56Z</time></trkpt><trkpt lat="43.47483700172435" lon="13.414120921171527"><ele>70.0</ele><time>2026-04-19T07:53:57Z</time></trkpt><trkpt lat="43.47485355078895" lon="13.413963617706667"><ele>70.2</ele><time>2026-04-19T07:53:58Z</time></trkpt><trkpt lat="43.474868183480474" lon="13.413814609105419"><ele>70.4</ele><time>2026-04-19T07:53:59Z</time></trkpt><trkpt lat="43.47487927877923" lon="13.413676934633056"><ele>70.6</ele><time>2026-04-19T07:54:00Z</time></trkpt><trkpt lat="43.47489436678535" lon="13.413544357293373"><ele>70.8</ele><time>2026-04-19T07:54:01Z</time></trkpt><trkpt lat="43.47490756973173" lon="13.41342013844079"><ele>71.0</ele><time>2026-04-19T07:54:02Z</time></trkpt><trkpt lat="43.47492283902316" lon="13.413298110553537"><ele>71.0</ele><time>2026-04-19T07:54:03Z</time></trkpt><trkpt lat="43.47494071288407" lon="13.413145951881551"><ele>71.0</ele><time>2026-04-19T07:54:04Z</time></trkpt><trkpt lat="43.474956878435044" lon="13.412979050416018"><ele>71.0</ele><time>2026-04-19T07:54:05Z</time></trkpt><trkpt lat="43.474979292876775" lon="13.412778180215952"><ele>71.0</ele><time>2026-04-19T07:54:06Z</time></trkpt><trkpt lat="43.47500525964522" lon="13.41255146496933"><ele>71.33333333333334</ele><time>2026-04-19T07:54:07Z</time></trkpt><trkpt lat="43.475028242037375" lon="13.412329805355593"><ele>71.66666666666667</ele><time>2026-04-19T07:54:08Z</time></trkpt><trkpt lat="43.475054887643296" lon="13.41211071905397"><ele>72.0</ele><time>2026-04-19T07:54:09Z</time></trkpt><trkpt lat="43.47507904521491" lon="13.411910318212446"><ele>72.0</ele><time>2026-04-19T07:54:10.001Z</time></trkpt><trkpt lat="43.47510077141336" lon="13.411711816387676"><ele>72.0</ele><time>2026-04-19T07:54:11.001Z</time></trkpt><trkpt lat="43.47511814407227" lon="13.411541978407735"><ele>72.0</ele><time>2026-04-19T07:54:12.001Z</time></trkpt><trkpt lat="43.47513240893831" lon="13.411376969858399"><ele>72.0</ele><time>2026-04-19T07:54:13.001Z</time></trkpt><trkpt lat="43.47514219647251" lon="13.411207366024378"><ele>72.0</ele><time>2026-04-19T07:54:14.001Z</time></trkpt><trkpt lat="43.47514768859029" lon="13.41101149379697"><ele>72.0</ele><time>2026-04-19T07:54:15.001Z</time></trkpt><trkpt lat="43.475151465470034" lon="13.410798213393056"><ele>72.0</ele><time>2026-04-19T07:54:16.001Z</time></trkpt><trkpt lat="43.47515674171658" lon="13.410593105137808"><ele>72.0</ele><time>2026-04-19T07:54:17.001Z</time></trkpt><trkpt lat="43.47516138206127" lon="13.410416371362668"><ele>72.2</ele><time>2026-04-19T07:54:18.001Z</time></trkpt><trkpt lat="43.47516408416065" lon="13.410253221911438"><ele>72.4</ele><time>2026-04-19T07:54:19.001Z</time></trkpt><trkpt lat="43.475167550935836" lon="13.410096401493284"><ele>72.6</ele><time>2026-04-19T07:54:20.001Z</time></trkpt><trkpt lat="43.475169512798" lon="13.40995895119796"><ele>72.8</ele><time>2026-04-19T07:54:21.001Z</time></trkpt><trkpt lat="43.47517511139371" lon="13.409828986051382"><ele>73.0</ele><time>2026-04-19T07:54:22.001Z</time></trkpt><trkpt lat="43.47517464251585" lon="13.409729387315197"><ele>72.8</ele><time>2026-04-19T07:54:23.001Z</time></trkpt><trkpt lat="43.475149721478545" lon="13.40962042965754"><ele>72.6</ele><time>2026-04-19T07:54:25.001Z</time></trkpt><trkpt lat="43.475130492103155" lon="13.409537801003385"><ele>72.4</ele><time>2026-04-19T07:54:27.001Z</time></trkpt><trkpt lat="43.47503286300605" lon="13.409418992995127"><ele>72.2</ele><time>2026-04-19T07:54:29.001Z</time></trkpt><trkpt lat="43.47494276220685" lon="13.409337668290428"><ele>72.0</ele><time>2026-04-19T07:54:30.001Z</time></trkpt><trkpt lat="43.47483593508144" lon="13.409243554980094"><ele>72.0</ele><time>2026-04-19T07:54:31.001Z</time></trkpt><trkpt lat="43.47472141132168" lon="13.409155040245093"><ele>72.0</ele><time>2026-04-19T07:54:32.001Z</time></trkpt><trkpt lat="43.47460082894725" lon="13.409054583743155"><ele>72.0</ele><time>2026-04-19T07:54:33.001Z</time></trkpt><trkpt lat="43.47447712601291" lon="13.408940134750733"><ele>72.0</ele><time>2026-04-19T07:54:34.001Z</time></trkpt><trkpt lat="43.47434914400592" lon="13.40882303581943"><ele>72.25</ele><time>2026-04-19T07:54:35.001Z</time></trkpt><trkpt lat="43.47422122614715" lon="13.408710100634043"><ele>72.5</ele><time>2026-04-19T07:54:36.001Z</time></trkpt><trkpt lat="43.474103744651174" lon="13.408598573905083"><ele>72.75</ele><time>2026-04-19T07:54:37.001Z</time></trkpt><trkpt lat="43.47401012772125" lon="13.408487951078884"><ele>73.0</ele><time>2026-04-19T07:54:38.001Z</time></trkpt><trkpt lat="43.473909271570186" lon="13.408418642782001"><ele>73.0</ele><time>2026-04-19T07:54:39.001Z</time></trkpt><trkpt lat="43.47382143472399" lon="13.408336599037547"><ele>73.0</ele><time>2026-04-19T07:54:40.001Z</time></trkpt><trkpt lat="43.47374902481973" lon="13.40827095798429"><ele>73.0</ele><time>2026-04-19T07:54:41.001Z</time></trkpt><trkpt lat="43.47367966826955" lon="13.408223812004671"><ele>73.0</ele><time>2026-04-19T07:54:42.001Z</time></trkpt><trkpt lat="43.473595866023636" lon="13.408208980736052"><ele>73.0</ele><time>2026-04-19T07:54:43.001Z</time></trkpt><trkpt lat="43.47350945996177" lon="13.408228284620556"><ele>73.0</ele><time>2026-04-19T07:54:44.001Z</time></trkpt><trkpt lat="43.473428581006985" lon="13.408280925800403"><ele>74.0</ele><time>2026-04-19T07:54:45.001Z</time></trkpt><trkpt lat="43.47336032320157" lon="13.408344918346597"><ele>75.0</ele><time>2026-04-19T07:54:46.001Z</time></trkpt><trkpt lat="43.47328923097534" lon="13.408406550528227"><ele>76.0</ele><time>2026-04-19T07:54:47.001Z</time></trkpt><trkpt lat="43.47321445344429" lon="13.40847043953081"><ele>77.0</ele><time>2026-04-19T07:54:48.001Z</time></trkpt><trkpt lat="43.47313860293513" lon="13.40853144893651"><ele>78.0</ele><time>2026-04-19T07:54:49.001Z</time></trkpt><trkpt lat="43.47305918999518" lon="13.408585664301564"><ele>79.0</ele><time>2026-04-19T07:54:50.001Z</time></trkpt><trkpt lat="43.472992361813866" lon="13.408618214646571"><ele>81.16666666666666</ele><time>2026-04-19T07:54:51.001Z</time></trkpt><trkpt lat="43.47291849967057" lon="13.408631106680396"><ele>83.33333333333333</ele><time>2026-04-19T07:54:52.001Z</time></trkpt><trkpt lat="43.47285343746254" lon="13.408590040359716"><ele>85.5</ele><time>2026-04-19T07:54:53.001Z</time></trkpt><trkpt lat="43.47278713978363" lon="13.408578777248122"><ele>87.66666666666667</ele><time>2026-04-19T07:54:54.001Z</time></trkpt><trkpt lat="43.4726776993136" lon="13.40855700812711"><ele>89.83333333333334</ele><time>2026-04-19T07:54:56.001Z</time></trkpt><trkpt lat="43.47255663926276" lon="13.408545379998579"><ele>92.0</ele><time>2026-04-19T07:54:58.001Z</time></trkpt><trkpt lat="43.47249348380406" lon="13.408530899579608"><ele>92.0</ele><time>2026-04-19T07:54:59.001Z</time></trkpt><trkpt lat="43.4724232252761" lon="13.40850704780945"><ele>92.0</ele><time>2026-04-19T07:55:00.001Z</time></trkpt><trkpt lat="43.47234288542448" lon="13.408509446756302"><ele>92.0</ele><time>2026-04-19T07:55:01.001Z</time></trkpt><trkpt lat="43.47225879554657" lon="13.408492668004527"><ele>92.0</ele><time>2026-04-19T07:55:02.001Z</time></trkpt><trkpt lat="43.472184835274405" lon="13.408481714171508"><ele>92.0</ele><time>2026-04-19T07:55:03.001Z</time></trkpt><trkpt lat="43.47208084526819" lon="13.40846784890138"><ele>92.0</ele><time>2026-04-19T07:55:04.001Z</time></trkpt><trkpt lat="43.471973501092556" lon="13.408460776765775"><ele>92.66666666666667</ele><time>2026-04-19T07:55:05.001Z</time></trkpt><trkpt lat="43.47188361117957" lon="13.408442670620321"><ele>93.33333333333334</ele><time>2026-04-19T07:55:06.001Z</time></trkpt><trkpt lat="43.47180733527652" lon="13.408433184046194"><ele>94.0</ele><time>2026-04-19T07:55:07.001Z</time></trkpt><trkpt lat="43.47174139490222" lon="13.408410170535177"><ele>94.66666666666667</ele><time>2026-04-19T07:55:09.001Z</time></trkpt><trkpt lat="43.47169388536788" lon="13.408341655484037"><ele>95.33333333333333</ele><time>2026-04-19T07:55:12Z</time></trkpt><trkpt lat="43.47172359535863" lon="13.408236582851151"><ele>96.0</ele><time>2026-04-19T07:55:13Z</time></trkpt><trkpt lat="43.47169741310998" lon="13.408096085714677"><ele>96.0</ele><time>2026-04-19T07:55:15Z</time></trkpt><trkpt lat="43.471663324014415" lon="13.408004727675173"><ele>96.0</ele><time>2026-04-19T07:55:16Z</time></trkpt><trkpt lat="43.47160355719314" lon="13.407925160625535"><ele>96.0</ele><time>2026-04-19T07:55:17Z</time></trkpt><trkpt lat="43.471521700892936" lon="13.407852080375923"><ele>96.0</ele><time>2026-04-19T07:55:18Z</time></trkpt><trkpt lat="43.47145818037767" lon="13.407773333844595"><ele>96.0</ele><time>2026-04-19T07:55:19Z</time></trkpt><trkpt lat="43.47137615012983" lon="13.407662778199276"><ele>98.0</ele><time>2026-04-19T07:55:20Z</time></trkpt><trkpt lat="43.47128839550449" lon="13.407562872322277"><ele>100.0</ele><time>2026-04-19T07:55:21Z</time></trkpt><trkpt lat="43.471195835415685" lon="13.407455203215665"><ele>102.0</ele><time>2026-04-19T07:55:22Z</time></trkpt><trkpt lat="43.471091430217115" lon="13.407337669776656"><ele>104.0</ele><time>2026-04-19T07:55:23Z</time></trkpt><trkpt lat="43.47098930967041" lon="13.407219544414216"><ele>107.5</ele><time>2026-04-19T07:55:24Z</time></trkpt><trkpt lat="43.47090321055931" lon="13.407105604649383"><ele>111.0</ele><time>2026-04-19T07:55:25Z</time></trkpt><trkpt lat="43.47082473801349" lon="13.407005062623243"><ele>114.5</ele><time>2026-04-19T07:55:26Z</time></trkpt><trkpt lat="43.47073796304183" lon="13.406903020940332"><ele>118.0</ele><time>2026-04-19T07:55:27Z</time></trkpt><trkpt lat="43.470662521035365" lon="13.406792363352016"><ele>118.0</ele><time>2026-04-19T07:55:28Z</time></trkpt><trkpt lat="43.47059347832309" lon="13.406662232668872"><ele>118.00000000000001</ele><time>2026-04-19T07:55:29Z</time></trkpt><trkpt lat="43.470526690980925" lon="13.406540627864572"><ele>118.00000000000001</ele><time>2026-04-19T07:55:30Z</time></trkpt><trkpt lat="43.47046244187594" lon="13.406434094861208"><ele>118.0</ele><time>2026-04-19T07:55:31Z</time></trkpt><trkpt lat="43.47041726821956" lon="13.40631715853336"><ele>118.0</ele><time>2026-04-19T07:55:32Z</time></trkpt><trkpt lat="43.47036562866616" lon="13.406194419507734"><ele>116.33333333333334</ele><time>2026-04-19T07:55:33Z</time></trkpt><trkpt lat="43.470327040056425" lon="13.406114663604408"><ele>114.66666666666667</ele><time>2026-04-19T07:55:34Z</time></trkpt><trkpt lat="43.47028574054798" lon="13.406015172831205"><ele>113.0</ele><time>2026-04-19T07:55:35Z</time></trkpt><trkpt lat="43.47025336606996" lon="13.40593597792018"><ele>111.33333333333334</ele><time>2026-04-19T07:55:36Z</time></trkpt><trkpt lat="43.470219803359015" lon="13.405851257673199"><ele>109.66666666666667</ele><time>2026-04-19T07:55:37Z</time></trkpt><trkpt lat="43.47018336995833" lon="13.405692127809125"><ele>108.0</ele><time>2026-04-19T07:55:39Z</time></trkpt><trkpt lat="43.470184853753125" lon="13.405595127476237"><ele>107.4</ele><time>2026-04-19T07:55:40Z</time></trkpt><trkpt lat="43.47020851189768" lon="13.405473896547344"><ele>106.80000000000001</ele><time>2026-04-19T07:55:41Z</time></trkpt><trkpt lat="43.47025015103844" lon="13.405341251873832"><ele>106.2</ele><time>2026-04-19T07:55:42Z</time></trkpt><trkpt lat="43.47032192862332" lon="13.405201953421384"><ele>105.6</ele><time>2026-04-19T07:55:43Z</time></trkpt><trkpt lat="43.47036277218087" lon="13.405076126292748"><ele>105.0</ele><time>2026-04-19T07:55:44Z</time></trkpt><trkpt lat="43.47041102181813" lon="13.404947879528425"><ele>106.66666666666667</ele><time>2026-04-19T07:55:45Z</time></trkpt><trkpt lat="43.470478334262175" lon="13.404847650320061"><ele>108.33333333333334</ele><time>2026-04-19T07:55:46Z</time></trkpt><trkpt lat="43.470520784325835" lon="13.404737092298578"><ele>110.0</ele><time>2026-04-19T07:55:47Z</time></trkpt><trkpt lat="43.47056944082433" lon="13.404661456373487"><ele>111.66666666666667</ele><time>2026-04-19T07:55:48Z</time></trkpt><trkpt lat="43.47060535552897" lon="13.404587192372926"><ele>113.33333333333334</ele><time>2026-04-19T07:55:49Z</time></trkpt><trkpt lat="43.470611482769264" lon="13.404490067318307"><ele>115.0</ele><time>2026-04-19T07:55:50Z</time></trkpt><trkpt lat="43.47061985108032" lon="13.404396735555512"><ele>115.00000000000001</ele><time>2026-04-19T07:55:51Z</time></trkpt><trkpt lat="43.470558483489675" lon="13.404297385780863"><ele>115.0</ele><time>2026-04-19T07:55:52Z</time></trkpt><trkpt lat="43.470503105876496" lon="13.40418392378733"><ele>115.0</ele><time>2026-04-19T07:55:53Z</time></trkpt><trkpt lat="43.47045163266097" lon="13.404090933868991"><ele>115.0</ele><time>2026-04-19T07:55:54Z</time></trkpt><trkpt lat="43.47039900157065" lon="13.403999265191517"><ele>115.00000000000001</ele><time>2026-04-19T07:55:55Z</time></trkpt><trkpt lat="43.47035206225436" lon="13.403912889315553"><ele>115.0</ele><time>2026-04-19T07:55:56Z</time></trkpt><trkpt lat="43.47031078286918" lon="13.4038064341386"><ele>114.50000000000001</ele><time>2026-04-19T07:55:57Z</time></trkpt><trkpt lat="43.47025195451312" lon="13.403728821896157"><ele>114.0</ele><time>2026-04-19T07:55:58Z</time></trkpt><trkpt lat="43.470209866964154" lon="13.403612837586765"><ele>113.5</ele><time>2026-04-19T07:55:59Z</time></trkpt><trkpt lat="43.47015804858878" lon="13.403516678546744"><ele>113.0</ele><time>2026-04-19T07:56:00Z</time></trkpt><trkpt lat="43.47010583051575" lon="13.403431133039"><ele>112.50000000000001</ele><time>2026-04-19T07:56:01Z</time></trkpt><trkpt lat="43.470043136425346" lon="13.403336536954367"><ele>112.0</ele><time>2026-04-19T07:56:02Z</time></trkpt><trkpt lat="43.469985871801384" lon="13.403243130323164"><ele>112.0</ele><time>2026-04-19T07:56:03Z</time></trkpt><trkpt lat="43.469923938423726" lon="13.403144928030422"><ele>111.99999999999999</ele><time>2026-04-19T07:56:04Z</time></trkpt><trkpt lat="43.46986589908775" lon="13.403041793154182"><ele>111.99999999999999</ele><time>2026-04-19T07:56:05Z</time></trkpt><trkpt lat="43.46981229667443" lon="13.402928747160619"><ele>112.0</ele><time>2026-04-19T07:56:06.001Z</time></trkpt><trkpt lat="43.46974228759267" lon="13.402831400452591"><ele>112.0</ele><time>2026-04-19T07:56:07.001Z</time></trkpt><trkpt lat="43.469689050061824" lon="13.402724506987433"><ele>111.6</ele><time>2026-04-19T07:56:08.001Z</time></trkpt><trkpt lat="43.4696408052239" lon="13.402598480659133"><ele>111.19999999999999</ele><time>2026-04-19T07:56:09.001Z</time></trkpt><trkpt lat="43.46959533124357" lon="13.402466918824151"><ele>110.8</ele><time>2026-04-19T07:56:10.001Z</time></trkpt><trkpt lat="43.46954009004703" lon="13.402338973763472"><ele>110.4</ele><time>2026-04-19T07:56:11.001Z</time></trkpt><trkpt lat="43.46950502800236" lon="13.402196288185907"><ele>110.0</ele><time>2026-04-19T07:56:12.001Z</time></trkpt><trkpt lat="43.46946157502443" lon="13.40206379829775"><ele>111.6</ele><time>2026-04-19T07:56:13.001Z</time></trkpt><trkpt lat="43.46941416610078" lon="13.401923824356771"><ele>113.2</ele><time>2026-04-19T07:56:14.001Z</time></trkpt><trkpt lat="43.46936807241227" lon="13.401781304373218"><ele>114.80000000000001</ele><time>2026-04-19T07:56:15.001Z</time></trkpt><trkpt lat="43.469328287513555" lon="13.401636398173691"><ele>116.4</ele><time>2026-04-19T07:56:16.001Z</time></trkpt><trkpt lat="43.469312109187975" lon="13.401530005484204"><ele>118.0</ele><time>2026-04-19T07:56:17.001Z</time></trkpt><trkpt lat="43.46930017990329" lon="13.401438653971127"><ele>118.00000000000001</ele><time>2026-04-19T07:56:18.001Z</time></trkpt><trkpt lat="43.46929449004354" lon="13.401348137176882"><ele>118.0</ele><time>2026-04-19T07:56:19.001Z</time></trkpt><trkpt lat="43.46931021869696" lon="13.401229243645668"><ele>118.0</ele><time>2026-04-19T07:56:20.001Z</time></trkpt><trkpt lat="43.46933641089405" lon="13.401121578583693"><ele>118.0</ele><time>2026-04-19T07:56:21.001Z</time></trkpt><trkpt lat="43.46936802865393" lon="13.40101119035884"><ele>118.00000000000001</ele><time>2026-04-19T07:56:22.001Z</time></trkpt><trkpt lat="43.469403502707486" lon="13.40087226154988"><ele>118.0</ele><time>2026-04-19T07:56:23.001Z</time></trkpt><trkpt lat="43.46943246124957" lon="13.400717240042958"><ele>119.2</ele><time>2026-04-19T07:56:24.001Z</time></trkpt><trkpt lat="43.46946094887179" lon="13.400558637137825"><ele>120.4</ele><time>2026-04-19T07:56:25.001Z</time></trkpt><trkpt lat="43.4694905661289" lon="13.400393295034672"><ele>121.60000000000001</ele><time>2026-04-19T07:56:26.001Z</time></trkpt><trkpt lat="43.4695125785358" lon="13.400241669869011"><ele>122.80000000000001</ele><time>2026-04-19T07:56:27.001Z</time></trkpt><trkpt lat="43.46952777521325" lon="13.400120326538211"><ele>124.0</ele><time>2026-04-19T07:56:28.001Z</time></trkpt><trkpt lat="43.46954205505872" lon="13.400013607965422"><ele>124.83333333333334</ele><time>2026-04-19T07:56:29.001Z</time></trkpt><trkpt lat="43.469566082413216" lon="13.39992659741119"><ele>125.66666666666667</ele><time>2026-04-19T07:56:30.001Z</time></trkpt><trkpt lat="43.4695861696046" lon="13.399830509373718"><ele>126.5</ele><time>2026-04-19T07:56:31.001Z</time></trkpt><trkpt lat="43.46961992516102" lon="13.39973644702804"><ele>127.33333333333334</ele><time>2026-04-19T07:56:32.001Z</time></trkpt><trkpt lat="43.469641343972576" lon="13.399629964945131"><ele>128.16666666666666</ele><time>2026-04-19T07:56:33.001Z</time></trkpt><trkpt lat="43.46965961698556" lon="13.399519740469975"><ele>129.0</ele><time>2026-04-19T07:56:34.001Z</time></trkpt><trkpt lat="43.46967919176548" lon="13.399413186172056"><ele>130.0</ele><time>2026-04-19T07:56:35.001Z</time></trkpt><trkpt lat="43.469697075553334" lon="13.39931370505764"><ele>131.0</ele><time>2026-04-19T07:56:36.001Z</time></trkpt><trkpt lat="43.46971853636074" lon="13.39921492859598"><ele>132.0</ele><time>2026-04-19T07:56:37.001Z</time></trkpt><trkpt lat="43.46973928402855" lon="13.399125530912254"><ele>133.0</ele><time>2026-04-19T07:56:38.001Z</time></trkpt><trkpt lat="43.46975594445069" lon="13.399029337960528"><ele>134.0</ele><time>2026-04-19T07:56:40.001Z</time></trkpt><trkpt lat="43.46972204733061" lon="13.398937954662799"><ele>135.0</ele><time>2026-04-19T07:56:42.001Z</time></trkpt><trkpt lat="43.469666881762336" lon="13.398806987674988"><ele>135.0</ele><time>2026-04-19T07:56:44.001Z</time></trkpt><trkpt lat="43.469639846659426" lon="13.398714615042497"><ele>135.0</ele><time>2026-04-19T07:56:45.001Z</time></trkpt><trkpt lat="43.4696115454913" lon="13.398622933847854"><ele>135.0</ele><time>2026-04-19T07:56:46.001Z</time></trkpt><trkpt lat="43.46957843014419" lon="13.398537014609136"><ele>135.0</ele><time>2026-04-19T07:56:47.001Z</time></trkpt><trkpt lat="43.46953932915826" lon="13.398466587662817"><ele>135.0</ele><time>2026-04-19T07:56:48.001Z</time></trkpt><trkpt lat="43.46948296917898" lon="13.39841078915851"><ele>135.0</ele><time>2026-04-19T07:56:49.001Z</time></trkpt><trkpt lat="43.469418780596676" lon="13.39836793399585"><ele>135.0</ele><time>2026-04-19T07:56:50.001Z</time></trkpt><trkpt lat="43.46934829860741" lon="13.398322852867846"><ele>134.71428571428572</ele><time>2026-04-19T07:56:51.001Z</time></trkpt><trkpt lat="43.46927880069837" lon="13.398279018898558"><ele>134.42857142857142</ele><time>2026-04-19T07:56:52.001Z</time></trkpt><trkpt lat="43.46921450731632" lon="13.398248771126658"><ele>134.14285714285714</ele><time>2026-04-19T07:56:53.001Z</time></trkpt><trkpt lat="43.46916762578841" lon="13.398190430652352"><ele>133.85714285714286</ele><time>2026-04-19T07:56:54.001Z</time></trkpt><trkpt lat="43.46910909591562" lon="13.398146283789979"><ele>133.57142857142856</ele><time>2026-04-19T07:56:55.001Z</time></trkpt><trkpt lat="43.4690563124114" lon="13.398095444817633"><ele>133.28571428571428</ele><time>2026-04-19T07:56:56.001Z</time></trkpt><trkpt lat="43.469021984293086" lon="13.398018254818242"><ele>133.0</ele><time>2026-04-19T07:56:57.001Z</time></trkpt><trkpt lat="43.46899644491039" lon="13.397917674102766"><ele>131.66666666666669</ele><time>2026-04-19T07:56:58.001Z</time></trkpt><trkpt lat="43.46896443845686" lon="13.3977925557056"><ele>130.33333333333334</ele><time>2026-04-19T07:56:59.001Z</time></trkpt><trkpt lat="43.4689287971572" lon="13.397707978536332"><ele>129.0</ele><time>2026-04-19T07:57:00.001Z</time></trkpt><trkpt lat="43.46891073779097" lon="13.397616792961978"><ele>127.66666666666666</ele><time>2026-04-19T07:57:01.001Z</time></trkpt><trkpt lat="43.46891754993966" lon="13.397495170581118"><ele>126.33333333333333</ele><time>2026-04-19T07:57:03.001Z</time></trkpt><trkpt lat="43.469004573647005" lon="13.397419085790004"><ele>125.0</ele><time>2026-04-19T07:57:08.001Z</time></trkpt><trkpt lat="43.46908321072176" lon="13.397392391830367"><ele>125.0</ele><time>2026-04-19T07:57:10.001Z</time></trkpt><trkpt lat="43.46917400702013" lon="13.397336114956174"><ele>125.0</ele><time>2026-04-19T07:57:12.001Z</time></trkpt><trkpt lat="43.469269831686134" lon="13.397276806717887"><ele>125.0</ele><time>2026-04-19T07:57:14.001Z</time></trkpt><trkpt lat="43.46934877615291" lon="13.397233175590628"><ele>125.0</ele><time>2026-04-19T07:57:15.001Z</time></trkpt><trkpt lat="43.469429878792134" lon="13.397187177350698"><ele>125.0</ele><time>2026-04-19T07:57:16.001Z</time></trkpt><trkpt lat="43.46951619002756" lon="13.39713880082752"><ele>122.6</ele><time>2026-04-19T07:57:17.001Z</time></trkpt><trkpt lat="43.46960142577598" lon="13.39708257213962"><ele>120.2</ele><time>2026-04-19T07:57:18Z</time></trkpt><trkpt lat="43.46969316680997" lon="13.397021894742931"><ele>117.80000000000001</ele><time>2026-04-19T07:57:19Z</time></trkpt><trkpt lat="43.469803474479924" lon="13.39696697909336"><ele>115.4</ele><time>2026-04-19T07:57:20Z</time></trkpt><trkpt lat="43.469904486286524" lon="13.396906780073893"><ele>113.0</ele><time>2026-04-19T07:57:21Z</time></trkpt><trkpt lat="43.47001166933256" lon="13.396847817527327"><ele>112.0</ele><time>2026-04-19T07:57:22Z</time></trkpt><trkpt lat="43.47012645163522" lon="13.396786537518539"><ele>111.0</ele><time>2026-04-19T07:57:23Z</time></trkpt><trkpt lat="43.47023676952609" lon="13.396722626870337"><ele>110.0</ele><time>2026-04-19T07:57:24Z</time></trkpt><trkpt lat="43.47034483298656" lon="13.396655949330832"><ele>109.0</ele><time>2026-04-19T07:57:25Z</time></trkpt><trkpt lat="43.47044808214864" lon="13.396608630388778"><ele>109.00000000000001</ele><time>2026-04-19T07:57:26Z</time></trkpt><trkpt lat="43.47053101255158" lon="13.396562348603336"><ele>109.0</ele><time>2026-04-19T07:57:27Z</time></trkpt><trkpt lat="43.47060234286506" lon="13.396522644235043"><ele>109.0</ele><time>2026-04-19T07:57:28Z</time></trkpt><trkpt lat="43.47067779377723" lon="13.396481161008694"><ele>109.0</ele><time>2026-04-19T07:57:29Z</time></trkpt><trkpt lat="43.47075263953276" lon="13.396439444757524"><ele>109.00000000000001</ele><time>2026-04-19T07:57:30Z</time></trkpt><trkpt lat="43.470835013881114" lon="13.396395540384983"><ele>109.0</ele><time>2026-04-19T07:57:31Z</time></trkpt><trkpt lat="43.47092713235069" lon="13.396339022248064"><ele>109.16666666666667</ele><time>2026-04-19T07:57:33Z</time></trkpt><trkpt lat="43.47098353981204" lon="13.396283952557495"><ele>109.33333333333334</ele><time>2026-04-19T07:57:35Z</time></trkpt><trkpt lat="43.471028436487636" lon="13.396178893192186"><ele>109.5</ele><time>2026-04-19T07:57:39Z</time></trkpt><trkpt lat="43.471053815220586" lon="13.396058918364774"><ele>109.66666666666666</ele><time>2026-04-19T07:57:41Z</time></trkpt><trkpt lat="43.47108936808023" lon="13.3958940904874"><ele>109.83333333333333</ele><time>2026-04-19T07:57:43Z</time></trkpt><trkpt lat="43.47110892923922" lon="13.395800652831314"><ele>110.0</ele><time>2026-04-19T07:57:44Z</time></trkpt><trkpt lat="43.47112878937485" lon="13.39570817435546"><ele>109.99999999999999</ele><time>2026-04-19T07:57:45Z</time></trkpt><trkpt lat="43.4711570384636" lon="13.395620635847616"><ele>110.0</ele><time>2026-04-19T07:57:46Z</time></trkpt><trkpt lat="43.4711825590359" lon="13.395512914853892"><ele>110.0</ele><time>2026-04-19T07:57:47Z</time></trkpt><trkpt lat="43.471217699195" lon="13.395427127888624"><ele>110.0</ele><time>2026-04-19T07:57:48Z</time></trkpt><trkpt lat="43.471249277401" lon="13.395334179566202"><ele>110.0</ele><time>2026-04-19T07:57:49Z</time></trkpt><trkpt lat="43.471287133961575" lon="13.395234863293432"><ele>109.99999999999999</ele><time>2026-04-19T07:57:50Z</time></trkpt><trkpt lat="43.47130777860152" lon="13.39514921144724"><ele>110.0</ele><time>2026-04-19T07:57:51Z</time></trkpt><trkpt lat="43.47133410289733" lon="13.3950561846681"><ele>109.6</ele><time>2026-04-19T07:57:52Z</time></trkpt><trkpt lat="43.47132774004988" lon="13.394934801730118"><ele>109.2</ele><time>2026-04-19T07:57:53Z</time></trkpt><trkpt lat="43.471332305717766" lon="13.394814621646978"><ele>108.80000000000001</ele><time>2026-04-19T07:57:54Z</time></trkpt><trkpt lat="43.47133271787822" lon="13.39469038530279"><ele>108.4</ele><time>2026-04-19T07:57:55Z</time></trkpt><trkpt lat="43.47133671156715" lon="13.394562639195696"><ele>108.0</ele><time>2026-04-19T07:57:56Z</time></trkpt><trkpt lat="43.471344656972626" lon="13.394430618382248"><ele>106.80000000000001</ele><time>2026-04-19T07:57:57Z</time></trkpt><trkpt lat="43.47135585231911" lon="13.394305623923755"><ele>105.60000000000001</ele><time>2026-04-19T07:57:58Z</time></trkpt><trkpt lat="43.471374250019124" lon="13.394169100933896"><ele>104.4</ele><time>2026-04-19T07:57:59Z</time></trkpt><trkpt lat="43.47139436758323" lon="13.3940365623218"><ele>103.19999999999999</ele><time>2026-04-19T07:58:00Z</time></trkpt><trkpt lat="43.47141738028577" lon="13.393916557254398"><ele>102.0</ele><time>2026-04-19T07:58:01Z</time></trkpt><trkpt lat="43.47143706491834" lon="13.393812887734159"><ele>101.66666666666667</ele><time>2026-04-19T07:58:02Z</time></trkpt><trkpt lat="43.471465970742024" lon="13.393720271762644"><ele>101.33333333333334</ele><time>2026-04-19T07:58:03Z</time></trkpt><trkpt lat="43.471477658518914" lon="13.393615745578076"><ele>101.0</ele><time>2026-04-19T07:58:04.001Z</time></trkpt><trkpt lat="43.47147722236338" lon="13.393502473789221"><ele>100.66666666666667</ele><time>2026-04-19T07:58:05.001Z</time></trkpt><trkpt lat="43.471475909974295" lon="13.393396481282679"><ele>100.33333333333334</ele><time>2026-04-19T07:58:06.001Z</time></trkpt><trkpt lat="43.47143132672593" lon="13.393292319954401"><ele>100.0</ele><time>2026-04-19T07:58:07.001Z</time></trkpt><trkpt lat="43.47140289438175" lon="13.393204611953314"><ele>100.00000000000001</ele><time>2026-04-19T07:58:08.001Z</time></trkpt><trkpt lat="43.4713851483774" lon="13.39309320311813"><ele>100.0</ele><time>2026-04-19T07:58:09.001Z</time></trkpt><trkpt lat="43.471359489393265" lon="13.39299599428776"><ele>100.0</ele><time>2026-04-19T07:58:10.001Z</time></trkpt><trkpt lat="43.47134024680628" lon="13.39290972070049"><ele>100.0</ele><time>2026-04-19T07:58:11.001Z</time></trkpt><trkpt lat="43.47131405642677" lon="13.39282576546431"><ele>100.00000000000001</ele><time>2026-04-19T07:58:12.001Z</time></trkpt><trkpt lat="43.47137856889801" lon="13.392705170210675"><ele>100.0</ele><time>2026-04-19T07:58:14.001Z</time></trkpt><trkpt lat="43.47142699381642" lon="13.392646622608883"><ele>100.4</ele><time>2026-04-19T07:58:15.001Z</time></trkpt><trkpt lat="43.47153177526" lon="13.392586291841372"><ele>100.8</ele><time>2026-04-19T07:58:17.001Z</time></trkpt><trkpt lat="43.47165425090151" lon="13.392532019903252"><ele>101.19999999999999</ele><time>2026-04-19T07:58:19.001Z</time></trkpt><trkpt lat="43.471729325152374" lon="13.392527275877047"><ele>101.6</ele><time>2026-04-19T07:58:20.001Z</time></trkpt><trkpt lat="43.471804573315296" lon="13.392538543766275"><ele>102.0</ele><time>2026-04-19T07:58:21.001Z</time></trkpt><trkpt lat="43.47187881073204" lon="13.392558052771768"><ele>102.0</ele><time>2026-04-19T07:58:22.001Z</time></trkpt><trkpt lat="43.471946417509656" lon="13.392582130976958"><ele>102.0</ele><time>2026-04-19T07:58:23.001Z</time></trkpt><trkpt lat="43.47202945510454" lon="13.39261162836484"><ele>102.0</ele><time>2026-04-19T07:58:24.001Z</time></trkpt><trkpt lat="43.472113655313514" lon="13.392681136133042"><ele>102.0</ele><time>2026-04-19T07:58:25.001Z</time></trkpt><trkpt lat="43.47220489682919" lon="13.39273616231856"><ele>102.0</ele><time>2026-04-19T07:58:26.001Z</time></trkpt><trkpt lat="43.472295438074326" lon="13.392786025592223"><ele>99.33333333333333</ele><time>2026-04-19T07:58:27.001Z</time></trkpt><trkpt lat="43.472388771627195" lon="13.392843404937995"><ele>96.66666666666667</ele><time>2026-04-19T07:58:28.001Z</time></trkpt><trkpt lat="43.47246821005604" lon="13.392899422219447"><ele>94.0</ele><time>2026-04-19T07:58:29.001Z</time></trkpt><trkpt lat="43.47254895148809" lon="13.392943715428867"><ele>91.33333333333334</ele><time>2026-04-19T07:58:30.001Z</time></trkpt><trkpt lat="43.47262896493638" lon="13.392980225477409"><ele>88.66666666666667</ele><time>2026-04-19T07:58:31.001Z</time></trkpt><trkpt lat="43.47269938991324" lon="13.393011911684798"><ele>86.0</ele><time>2026-04-19T07:58:32.001Z</time></trkpt><trkpt lat="43.47276772393899" lon="13.393017405145445"><ele>86.0</ele><time>2026-04-19T07:58:33.001Z</time></trkpt><trkpt lat="43.47283205959859" lon="13.392997672173816"><ele>86.0</ele><time>2026-04-19T07:58:34.001Z</time></trkpt><trkpt lat="43.47295473347555" lon="13.392932230178308"><ele>86.0</ele><time>2026-04-19T07:58:36.001Z</time></trkpt><trkpt lat="43.473003772796645" lon="13.392857060799425"><ele>86.0</ele><time>2026-04-19T07:58:37.001Z</time></trkpt><trkpt lat="43.473043875696305" lon="13.39277616997726"><ele>86.0</ele><time>2026-04-19T07:58:38.001Z</time></trkpt><trkpt lat="43.47308475202573" lon="13.392683417430304"><ele>86.0</ele><time>2026-04-19T07:58:39.001Z</time></trkpt><trkpt lat="43.47311649518947" lon="13.39258865124774"><ele>86.00000000000001</ele><time>2026-04-19T07:58:40.001Z</time></trkpt><trkpt lat="43.47314919706946" lon="13.392485592239444"><ele>86.0</ele><time>2026-04-19T07:58:41.001Z</time></trkpt><trkpt lat="43.473177008836416" lon="13.392395276685686"><ele>86.0</ele><time>2026-04-19T07:58:42.001Z</time></trkpt><trkpt lat="43.473202948205056" lon="13.392309926602625"><ele>86.0</ele><time>2026-04-19T07:58:43.001Z</time></trkpt><trkpt lat="43.473234445501134" lon="13.392204049381657"><ele>86.0</ele><time>2026-04-19T07:58:45.001Z</time></trkpt><trkpt lat="43.4732660607116" lon="13.39211394273681"><ele>86.00000000000001</ele><time>2026-04-19T07:58:49.001Z</time></trkpt><trkpt lat="43.47330183238076" lon="13.392026642406632"><ele>86.0</ele><time>2026-04-19T07:58:51.001Z</time></trkpt><trkpt lat="43.47332293931223" lon="13.391928600653532"><ele>86.0</ele><time>2026-04-19T07:58:52.001Z</time></trkpt><trkpt lat="43.47337990550938" lon="13.391833936980236"><ele>86.0</ele><time>2026-04-19T07:58:53.001Z</time></trkpt><trkpt lat="43.47341510851943" lon="13.391692115282853"><ele>86.0</ele><time>2026-04-19T07:58:54.001Z</time></trkpt><trkpt lat="43.47347435741394" lon="13.391561584954637"><ele>86.0</ele><time>2026-04-19T07:58:55.001Z</time></trkpt><trkpt lat="43.473518474099954" lon="13.391410583631156"><ele>86.0</ele><time>2026-04-19T07:58:56.001Z</time></trkpt><trkpt lat="43.47356602609231" lon="13.391254750650424"><ele>86.8</ele><time>2026-04-19T07:58:57.001Z</time></trkpt><trkpt lat="43.47360603783904" lon="13.39111381869281"><ele>87.6</ele><time>2026-04-19T07:58:58.001Z</time></trkpt><trkpt lat="43.47364192750759" lon="13.390978205874598"><ele>88.4</ele><time>2026-04-19T07:58:59.001Z</time></trkpt><trkpt lat="43.47369222262993" lon="13.390853452679279"><ele>89.2</ele><time>2026-04-19T07:59:00.001Z</time></trkpt><trkpt lat="43.47373182744893" lon="13.39071655138611"><ele>90.0</ele><time>2026-04-19T07:59:01.001Z</time></trkpt><trkpt lat="43.47376922043917" lon="13.390591873184407"><ele>88.83333333333333</ele><time>2026-04-19T07:59:02.001Z</time></trkpt><trkpt lat="43.4738041796826" lon="13.390481392379296"><ele>87.66666666666667</ele><time>2026-04-19T07:59:03.001Z</time></trkpt><trkpt lat="43.47383484216648" lon="13.390382365916167"><ele>86.5</ele><time>2026-04-19T07:59:04.001Z</time></trkpt><trkpt lat="43.4738473177934" lon="13.390264405644091"><ele>85.33333333333334</ele><time>2026-04-19T07:59:05.001Z</time></trkpt><trkpt lat="43.47386279408491" lon="13.390144902438443"><ele>84.16666666666667</ele><time>2026-04-19T07:59:06.001Z</time></trkpt><trkpt lat="43.47387716559617" lon="13.390017939730242"><ele>83.0</ele><time>2026-04-19T07:59:07.001Z</time></trkpt><trkpt lat="43.47388413803559" lon="13.38988408417623"><ele>83.0</ele><time>2026-04-19T07:59:08.001Z</time></trkpt><trkpt lat="43.47389858442904" lon="13.38975819677714"><ele>83.0</ele><time>2026-04-19T07:59:09.001Z</time></trkpt><trkpt lat="43.47391641645491" lon="13.38962791653859"><ele>83.0</ele><time>2026-04-19T07:59:10.001Z</time></trkpt><trkpt lat="43.47391483308301" lon="13.389485610644215"><ele>83.0</ele><time>2026-04-19T07:59:11.001Z</time></trkpt><trkpt lat="43.47392878136641" lon="13.38934126600778"><ele>83.0</ele><time>2026-04-19T07:59:12.001Z</time></trkpt><trkpt lat="43.473939063296946" lon="13.389194824084122"><ele>83.4</ele><time>2026-04-19T07:59:13.001Z</time></trkpt><trkpt lat="43.47395209912738" lon="13.389040534301007"><ele>83.80000000000001</ele><time>2026-04-19T07:59:14.001Z</time></trkpt><trkpt lat="43.47396397979249" lon="13.388901808590761"><ele>84.2</ele><time>2026-04-19T07:59:15.001Z</time></trkpt><trkpt lat="43.47397315386181" lon="13.388769352880578"><ele>84.6</ele><time>2026-04-19T07:59:16.001Z</time></trkpt><trkpt lat="43.473987273219" lon="13.388648876576102"><ele>85.0</ele><time>2026-04-19T07:59:17.001Z</time></trkpt><trkpt lat="43.4740147065583" lon="13.388528148200393"><ele>85.6</ele><time>2026-04-19T07:59:18.002Z</time></trkpt><trkpt lat="43.47404795493323" lon="13.38842504361567"><ele>86.2</ele><time>2026-04-19T07:59:19.002Z</time></trkpt><trkpt lat="43.47409548071777" lon="13.388338841390421"><ele>86.80000000000001</ele><time>2026-04-19T07:59:20.002Z</time></trkpt><trkpt lat="43.474165632837" lon="13.388246652879115"><ele>87.4</ele><time>2026-04-19T07:59:21.002Z</time></trkpt><trkpt lat="43.47424473037099" lon="13.388157882681698"><ele>88.0</ele><time>2026-04-19T07:59:22.002Z</time></trkpt><trkpt lat="43.47432455573208" lon="13.38806900807972"><ele>88.66666666666666</ele><time>2026-04-19T07:59:23.002Z</time></trkpt><trkpt lat="43.47439522342563" lon="13.387988515030468"><ele>89.33333333333333</ele><time>2026-04-19T07:59:24Z</time></trkpt><trkpt lat="43.474453496193505" lon="13.387916613613692"><ele>90.0</ele><time>2026-04-19T07:59:25Z</time></trkpt><trkpt lat="43.474509410589974" lon="13.38785152431516"><ele>90.66666666666667</ele><time>2026-04-19T07:59:26Z</time></trkpt><trkpt lat="43.47458680734926" lon="13.387740396518424"><ele>91.33333333333334</ele><time>2026-04-19T07:59:28Z</time></trkpt><trkpt lat="43.474640595927724" lon="13.387663503267145"><ele>92.0</ele><time>2026-04-19T07:59:30Z</time></trkpt><trkpt lat="43.47467556471176" lon="13.387572080765493"><ele>92.0</ele><time>2026-04-19T07:59:33Z</time></trkpt><trkpt lat="43.474594417469056" lon="13.387476233806092"><ele>92.0</ele><time>2026-04-19T07:59:34Z</time></trkpt><trkpt lat="43.47454456288071" lon="13.387397364601146"><ele>92.0</ele><time>2026-04-19T07:59:35Z</time></trkpt><trkpt lat="43.47448621117772" lon="13.387323298668827"><ele>92.0</ele><time>2026-04-19T07:59:36Z</time></trkpt><trkpt lat="43.474420737886796" lon="13.387249893776618"><ele>92.0</ele><time>2026-04-19T07:59:37Z</time></trkpt><trkpt lat="43.47435599274902" lon="13.387144430466407"><ele>92.0</ele><time>2026-04-19T07:59:38Z</time></trkpt><trkpt lat="43.47428300501011" lon="13.387052237672927"><ele>91.8</ele><time>2026-04-19T07:59:39Z</time></trkpt><trkpt lat="43.474200826106724" lon="13.386948432539826"><ele>91.6</ele><time>2026-04-19T07:59:40Z</time></trkpt><trkpt lat="43.474129749242245" lon="13.386843299400784"><ele>91.39999999999999</ele><time>2026-04-19T07:59:41Z</time></trkpt><trkpt lat="43.47407371155116" lon="13.386728602018382"><ele>91.19999999999999</ele><time>2026-04-19T07:59:42Z</time></trkpt><trkpt lat="43.474019675649075" lon="13.386591655691822"><ele>91.0</ele><time>2026-04-19T07:59:43Z</time></trkpt><trkpt lat="43.47398936252658" lon="13.38643552222683"><ele>90.25</ele><time>2026-04-19T07:59:44Z</time></trkpt><trkpt lat="43.473975004615724" lon="13.386257925112103"><ele>89.5</ele><time>2026-04-19T07:59:45Z</time></trkpt><trkpt lat="43.47396805276453" lon="13.38608383661116"><ele>88.75</ele><time>2026-04-19T07:59:46Z</time></trkpt><trkpt lat="43.47396282693731" lon="13.38590502245124"><ele>88.0</ele><time>2026-04-19T07:59:47Z</time></trkpt><trkpt lat="43.47395968610234" lon="13.385722522570799"><ele>88.0</ele><time>2026-04-19T07:59:48Z</time></trkpt><trkpt lat="43.47394700637304" lon="13.385535385090046"><ele>88.0</ele><time>2026-04-19T07:59:49Z</time></trkpt><trkpt lat="43.47396412601997" lon="13.385342034898864"><ele>88.0</ele><time>2026-04-19T07:59:50Z</time></trkpt><trkpt lat="43.47397340656909" lon="13.385145118472591"><ele>88.0</ele><time>2026-04-19T07:59:51Z</time></trkpt><trkpt lat="43.47398565385718" lon="13.38493113636348"><ele>88.33333333333333</ele><time>2026-04-19T07:59:52Z</time></trkpt><trkpt lat="43.4739997677934" lon="13.38471703629549"><ele>88.66666666666667</ele><time>2026-04-19T07:59:53Z</time></trkpt><trkpt lat="43.47401475844182" lon="13.384502977719054"><ele>89.0</ele><time>2026-04-19T07:59:54Z</time></trkpt><trkpt lat="43.47402992542021" lon="13.384286401208234"><ele>89.33333333333334</ele><time>2026-04-19T07:59:55Z</time></trkpt><trkpt lat="43.47404524679932" lon="13.384059016802286"><ele>89.66666666666667</ele><time>2026-04-19T07:59:56Z</time></trkpt><trkpt lat="43.47405804775363" lon="13.383840229968646"><ele>90.0</ele><time>2026-04-19T07:59:57Z</time></trkpt><trkpt lat="43.474070432349784" lon="13.383621111388283"><ele>90.0</ele><time>2026-04-19T07:59:58Z</time></trkpt><trkpt lat="43.47408289687872" lon="13.383399135206709"><ele>90.0</ele><time>2026-04-19T07:59:59Z</time></trkpt><trkpt lat="43.47409795138397" lon="13.383177503251089"><ele>90.0</ele><time>2026-04-19T08:00:00Z</time></trkpt><trkpt lat="43.474116623392405" lon="13.382954473943652"><ele>92.66666666666666</ele><time>2026-04-19T08:00:01Z</time></trkpt><trkpt lat="43.47413691228964" lon="13.382749499507106"><ele>95.33333333333333</ele><time>2026-04-19T08:00:02Z</time></trkpt><trkpt lat="43.47415943095307" lon="13.382532726162525"><ele>98.0</ele><time>2026-04-19T08:00:03Z</time></trkpt><trkpt lat="43.47418079055055" lon="13.382329317440067"><ele>100.66666666666666</ele><time>2026-04-19T08:00:04Z</time></trkpt><trkpt lat="43.47420145944848" lon="13.382123735445147"><ele>103.33333333333334</ele><time>2026-04-19T08:00:05Z</time></trkpt><trkpt lat="43.47421786183916" lon="13.381917070471347"><ele>106.0</ele><time>2026-04-19T08:00:06Z</time></trkpt><trkpt lat="43.47422899856727" lon="13.381709029475392"><ele>106.0</ele><time>2026-04-19T08:00:07Z</time></trkpt><trkpt lat="43.47422508950009" lon="13.38150537623354"><ele>106.0</ele><time>2026-04-19T08:00:08Z</time></trkpt><trkpt lat="43.474211134168655" lon="13.381292134984541"><ele>106.0</ele><time>2026-04-19T08:00:09Z</time></trkpt><trkpt lat="43.47419123936237" lon="13.381077989864233"><ele>108.33333333333334</ele><time>2026-04-19T08:00:10Z</time></trkpt><trkpt lat="43.47417010134319" lon="13.380878341494752"><ele>110.66666666666666</ele><time>2026-04-19T08:00:11Z</time></trkpt><trkpt lat="43.47414925647365" lon="13.380676605104885"><ele>113.0</ele><time>2026-04-19T08:00:12Z</time></trkpt><trkpt lat="43.474128985740776" lon="13.380458837595288"><ele>114.33333333333333</ele><time>2026-04-19T08:00:13Z</time></trkpt><trkpt lat="43.474109818668175" lon="13.380252926757118"><ele>115.66666666666666</ele><time>2026-04-19T08:00:14Z</time></trkpt><trkpt lat="43.474090175636626" lon="13.380038413241676"><ele>117.0</ele><time>2026-04-19T08:00:15Z</time></trkpt><trkpt lat="43.474073237470364" lon="13.37982991146585"><ele>118.33333333333334</ele><time>2026-04-19T08:00:16.001Z</time></trkpt><trkpt lat="43.47406081194348" lon="13.379616372960031"><ele>119.66666666666667</ele><time>2026-04-19T08:00:17.001Z</time></trkpt><trkpt lat="43.474058405207906" lon="13.379398401068668"><ele>121.0</ele><time>2026-04-19T08:00:18.001Z</time></trkpt><trkpt lat="43.47406374338573" lon="13.379173395265013"><ele>121.0</ele><time>2026-04-19T08:00:19.001Z</time></trkpt><trkpt lat="43.47406411520361" lon="13.378940481554626"><ele>121.0</ele><time>2026-04-19T08:00:20.001Z</time></trkpt><trkpt lat="43.47404457997517" lon="13.378710446249022"><ele>121.0</ele><time>2026-04-19T08:00:21.001Z</time></trkpt><trkpt lat="43.47402879620478" lon="13.378481143240283"><ele>120.33333333333334</ele><time>2026-04-19T08:00:22.001Z</time></trkpt><trkpt lat="43.47402771322077" lon="13.378257799649084"><ele>119.66666666666666</ele><time>2026-04-19T08:00:23.001Z</time></trkpt><trkpt lat="43.47400636992165" lon="13.378051915397698"><ele>119.0</ele><time>2026-04-19T08:00:24.001Z</time></trkpt><trkpt lat="43.47397193009273" lon="13.37783915676962"><ele>119.0</ele><time>2026-04-19T08:00:25.001Z</time></trkpt><trkpt lat="43.47391518490718" lon="13.377662432808354"><ele>119.0</ele><time>2026-04-19T08:00:26.001Z</time></trkpt><trkpt lat="43.47387031966184" lon="13.37747152170028"><ele>119.0</ele><time>2026-04-19T08:00:27.001Z</time></trkpt><trkpt lat="43.47381914734181" lon="13.37730028698833"><ele>119.0</ele><time>2026-04-19T08:00:28.001Z</time></trkpt><trkpt lat="43.47379229177443" lon="13.377121567396745"><ele>124.2</ele><time>2026-04-19T08:00:29.001Z</time></trkpt><trkpt lat="43.47375945682211" lon="13.376972086304685"><ele>129.4</ele><time>2026-04-19T08:00:30.001Z</time></trkpt><trkpt lat="43.473720510717065" lon="13.376838930408898"><ele>134.6</ele><time>2026-04-19T08:00:31.001Z</time></trkpt><trkpt lat="43.47369307465057" lon="13.37670440143548"><ele>139.8</ele><time>2026-04-19T08:00:32.001Z</time></trkpt><trkpt lat="43.4736820276339" lon="13.376566837193057"><ele>145.0</ele><time>2026-04-19T08:00:33.001Z</time></trkpt><trkpt lat="43.47365806917278" lon="13.376410101522447"><ele>143.25</ele><time>2026-04-19T08:00:34.001Z</time></trkpt><trkpt lat="43.47363753115072" lon="13.376256844298847"><ele>141.5</ele><time>2026-04-19T08:00:35.001Z</time></trkpt><trkpt lat="43.47361517094598" lon="13.376091165853742"><ele>139.75</ele><time>2026-04-19T08:00:36.001Z</time></trkpt><trkpt lat="43.47361965431104" lon="13.375918584604866"><ele>138.0</ele><time>2026-04-19T08:00:37.001Z</time></trkpt><trkpt lat="43.473601315382204" lon="13.37573676835394"><ele>138.0</ele><time>2026-04-19T08:00:38.001Z</time></trkpt><trkpt lat="43.47360254647761" lon="13.375541646880949"><ele>138.0</ele><time>2026-04-19T08:00:39.001Z</time></trkpt><trkpt lat="43.47361390772956" lon="13.375347676863337"><ele>138.0</ele><time>2026-04-19T08:00:40.001Z</time></trkpt><trkpt lat="43.473624085511084" lon="13.375163466758208"><ele>138.0</ele><time>2026-04-19T08:00:41.001Z</time></trkpt><trkpt lat="43.473633339714425" lon="13.374999631426837"><ele>138.33333333333334</ele><time>2026-04-19T08:00:42.001Z</time></trkpt><trkpt lat="43.473642290310615" lon="13.374862298457591"><ele>138.66666666666666</ele><time>2026-04-19T08:00:43.001Z</time></trkpt><trkpt lat="43.47363707412049" lon="13.374755078090928"><ele>139.0</ele><time>2026-04-19T08:00:44.001Z</time></trkpt><trkpt lat="43.47363019099333" lon="13.374667885553976"><ele>139.33333333333331</ele><time>2026-04-19T08:00:45.001Z</time></trkpt><trkpt lat="43.47358288739733" lon="13.374599834693202"><ele>139.66666666666666</ele><time>2026-04-19T08:00:46.001Z</time></trkpt><trkpt lat="43.47349696268607" lon="13.374594431677457"><ele>140.0</ele><time>2026-04-19T08:00:47.001Z</time></trkpt><trkpt lat="43.47341663838271" lon="13.374670361600188"><ele>140.0</ele><time>2026-04-19T08:00:48.001Z</time></trkpt><trkpt lat="43.47336430105414" lon="13.374776832599457"><ele>140.0</ele><time>2026-04-19T08:00:49.001Z</time></trkpt><trkpt lat="43.47333309357864" lon="13.374924228126659"><ele>140.0</ele><time>2026-04-19T08:00:50.001Z</time></trkpt><trkpt lat="43.47330621632707" lon="13.375084141358329"><ele>140.0</ele><time>2026-04-19T08:00:51.001Z</time></trkpt><trkpt lat="43.473270866705484" lon="13.375240205818802"><ele>140.0</ele><time>2026-04-19T08:00:52.001Z</time></trkpt><trkpt lat="43.4732250787177" lon="13.375399032922253"><ele>139.5</ele><time>2026-04-19T08:00:53.001Z</time></trkpt><trkpt lat="43.473181418550276" lon="13.375560454012678"><ele>139.0</ele><time>2026-04-19T08:00:54.001Z</time></trkpt><trkpt lat="43.4731354127677" lon="13.375743594632302"><ele>138.5</ele><time>2026-04-19T08:00:55.001Z</time></trkpt><trkpt lat="43.47309462409534" lon="13.375907895664875"><ele>138.0</ele><time>2026-04-19T08:00:56.001Z</time></trkpt><trkpt lat="43.473064349828576" lon="13.376047364111207"><ele>138.0</ele><time>2026-04-19T08:00:57.001Z</time></trkpt><trkpt lat="43.47303665983354" lon="13.376177358468937"><ele>138.0</ele><time>2026-04-19T08:00:58.001Z</time></trkpt><trkpt lat="43.473002473014034" lon="13.376283524803672"><ele>138.0</ele><time>2026-04-19T08:00:59.001Z</time></trkpt><trkpt lat="43.472950603654006" lon="13.376382466219031"><ele>138.0</ele><time>2026-04-19T08:01:00.001Z</time></trkpt><trkpt lat="43.472888948958435" lon="13.376422165008137"><ele>138.0</ele><time>2026-04-19T08:01:01.001Z</time></trkpt><trkpt lat="43.47280668885139" lon="13.376431742751253"><ele>138.0</ele><time>2026-04-19T08:01:02.001Z</time></trkpt><trkpt lat="43.4727463865285" lon="13.376379200966138"><ele>140.20000000000002</ele><time>2026-04-19T08:01:03.001Z</time></trkpt><trkpt lat="43.47268671652921" lon="13.37634530015638"><ele>142.4</ele><time>2026-04-19T08:01:04.001Z</time></trkpt><trkpt lat="43.472598949021396" lon="13.376261566589259"><ele>144.60000000000002</ele><time>2026-04-19T08:01:06.001Z</time></trkpt><trkpt lat="43.47252218390366" lon="13.376181603406229"><ele>146.8</ele><time>2026-04-19T08:01:08.001Z</time></trkpt><trkpt lat="43.47257721075305" lon="13.376063498630776"><ele>149.0</ele><time>2026-04-19T08:01:13.001Z</time></trkpt><trkpt lat="43.472652115142786" lon="13.375917603266915"><ele>149.0</ele><time>2026-04-19T08:01:15.001Z</time></trkpt><trkpt lat="43.47269079292833" lon="13.375768585836841"><ele>149.0</ele><time>2026-04-19T08:01:17.001Z</time></trkpt><trkpt lat="43.47269714636369" lon="13.375654273051165"><ele>149.0</ele><time>2026-04-19T08:01:18.001Z</time></trkpt><trkpt lat="43.47269837596302" lon="13.375534273100365"><ele>149.0</ele><time>2026-04-19T08:01:19.001Z</time></trkpt><trkpt lat="43.472698503756156" lon="13.375411835681343"><ele>149.0</ele><time>2026-04-19T08:01:20.001Z</time></trkpt><trkpt lat="43.47270161214856" lon="13.375263744416376"><ele>149.75</ele><time>2026-04-19T08:01:21.001Z</time></trkpt><trkpt lat="43.472692283858" lon="13.375097916954639"><ele>150.5</ele><time>2026-04-19T08:01:22.001Z</time></trkpt><trkpt lat="43.47270016858486" lon="13.374939129293743"><ele>151.25</ele><time>2026-04-19T08:01:23.001Z</time></trkpt><trkpt lat="43.47271309184496" lon="13.374777062694823"><ele>152.0</ele><time>2026-04-19T08:01:24.001Z</time></trkpt><trkpt lat="43.472721561399155" lon="13.374611943535582"><ele>153.75</ele><time>2026-04-19T08:01:25.001Z</time></trkpt><trkpt lat="43.472730607679125" lon="13.374441857540731"><ele>155.5</ele><time>2026-04-19T08:01:26.001Z</time></trkpt><trkpt lat="43.472736232191316" lon="13.37427833122334"><ele>157.25</ele><time>2026-04-19T08:01:27.001Z</time></trkpt><trkpt lat="43.47273904595432" lon="13.37410622036628"><ele>159.0</ele><time>2026-04-19T08:01:28.001Z</time></trkpt><trkpt lat="43.472749488843334" lon="13.373960939496094"><ele>159.6</ele><time>2026-04-19T08:01:29Z</time></trkpt><trkpt lat="43.472771191560014" lon="13.373821542512436"><ele>160.2</ele><time>2026-04-19T08:01:30Z</time></trkpt><trkpt lat="43.47277955519886" lon="13.373677519140026"><ele>160.79999999999998</ele><time>2026-04-19T08:01:31Z</time></trkpt><trkpt lat="43.47278660768271" lon="13.373536328397382"><ele>161.4</ele><time>2026-04-19T08:01:32Z</time></trkpt><trkpt lat="43.472793630823695" lon="13.373371264046519"><ele>162.0</ele><time>2026-04-19T08:01:33Z</time></trkpt><trkpt lat="43.47278414621053" lon="13.373197307872099"><ele>162.5</ele><time>2026-04-19T08:01:34Z</time></trkpt><trkpt lat="43.472793622042715" lon="13.373022370117143"><ele>163.0</ele><time>2026-04-19T08:01:35Z</time></trkpt><trkpt lat="43.47280308002073" lon="13.372850403568531"><ele>163.5</ele><time>2026-04-19T08:01:36Z</time></trkpt><trkpt lat="43.47280167708371" lon="13.37267806986908"><ele>164.0</ele><time>2026-04-19T08:01:37Z</time></trkpt><trkpt lat="43.47279148772064" lon="13.372505945203608"><ele>164.0</ele><time>2026-04-19T08:01:38Z</time></trkpt><trkpt lat="43.472790427103064" lon="13.372323623366087"><ele>164.0</ele><time>2026-04-19T08:01:39Z</time></trkpt><trkpt lat="43.472767064482625" lon="13.372139882995477"><ele>164.0</ele><time>2026-04-19T08:01:40Z</time></trkpt><trkpt lat="43.4727189474031" lon="13.371964506797383"><ele>164.0</ele><time>2026-04-19T08:01:41Z</time></trkpt><trkpt lat="43.47268990499054" lon="13.371805323547699"><ele>164.0</ele><time>2026-04-19T08:01:42Z</time></trkpt><trkpt lat="43.47264777287855" lon="13.371649779336671"><ele>164.0</ele><time>2026-04-19T08:01:43Z</time></trkpt><trkpt lat="43.472577873357245" lon="13.37148249202891"><ele>164.0</ele><time>2026-04-19T08:01:44Z</time></trkpt><trkpt lat="43.4725183764833" lon="13.371285006335771"><ele>164.0</ele><time>2026-04-19T08:01:45Z</time></trkpt><trkpt lat="43.472453365479176" lon="13.371099926558777"><ele>164.33333333333331</ele><time>2026-04-19T08:01:46Z</time></trkpt><trkpt lat="43.472395075339556" lon="13.370919121446716"><ele>164.66666666666666</ele><time>2026-04-19T08:01:47Z</time></trkpt><trkpt lat="43.472341141918015" lon="13.370713146025178"><ele>165.0</ele><time>2026-04-19T08:01:48Z</time></trkpt><trkpt lat="43.47228000977238" lon="13.37050573481115"><ele>165.66666666666666</ele><time>2026-04-19T08:01:49Z</time></trkpt><trkpt lat="43.47223709607466" lon="13.370286364649445"><ele>166.33333333333331</ele><time>2026-04-19T08:01:50Z</time></trkpt><trkpt lat="43.47218722000963" lon="13.370089632012942"><ele>167.0</ele><time>2026-04-19T08:01:51Z</time></trkpt><trkpt lat="43.47215440697035" lon="13.369906505586687"><ele>167.0</ele><time>2026-04-19T08:01:52Z</time></trkpt><trkpt lat="43.472106678767226" lon="13.36973693976853"><ele>167.0</ele><time>2026-04-19T08:01:53Z</time></trkpt><trkpt lat="43.47206241112627" lon="13.369581548606048"><ele>167.0</ele><time>2026-04-19T08:01:54Z</time></trkpt><trkpt lat="43.472022485557574" lon="13.369442140479137"><ele>167.0</ele><time>2026-04-19T08:01:55Z</time></trkpt><trkpt lat="43.4719797904715" lon="13.36929311494592"><ele>169.0</ele><time>2026-04-19T08:01:56Z</time></trkpt><trkpt lat="43.47193884519984" lon="13.369140695378272"><ele>171.0</ele><time>2026-04-19T08:01:57Z</time></trkpt><trkpt lat="43.471899156863" lon="13.368992135503465"><ele>173.0</ele><time>2026-04-19T08:01:58Z</time></trkpt><trkpt lat="43.47186996175331" lon="13.368860084024343"><ele>175.0</ele><time>2026-04-19T08:01:59Z</time></trkpt><trkpt lat="43.47185262471463" lon="13.368750445839643"><ele>177.0</ele><time>2026-04-19T08:02:00Z</time></trkpt><trkpt lat="43.47183935403232" lon="13.368653477535698"><ele>177.0</ele><time>2026-04-19T08:02:01Z</time></trkpt><trkpt lat="43.47185241607027" lon="13.368542352981938"><ele>177.0</ele><time>2026-04-19T08:02:03Z</time></trkpt><trkpt lat="43.47188041039962" lon="13.368431716535882"><ele>177.0</ele><time>2026-04-19T08:02:05Z</time></trkpt><trkpt lat="43.47193638407813" lon="13.368256718376301"><ele>177.0</ele><time>2026-04-19T08:02:07Z</time></trkpt><trkpt lat="43.47197056094786" lon="13.36815319023191"><ele>177.0</ele><time>2026-04-19T08:02:08Z</time></trkpt><trkpt lat="43.47200708437408" lon="13.368034697742427"><ele>177.5</ele><time>2026-04-19T08:02:09Z</time></trkpt><trkpt lat="43.4720427824745" lon="13.367887287873375"><ele>178.0</ele><time>2026-04-19T08:02:10Z</time></trkpt><trkpt lat="43.47207100145762" lon="13.367721016576054"><ele>178.5</ele><time>2026-04-19T08:02:11Z</time></trkpt><trkpt lat="43.47208609368894" lon="13.367548402678421"><ele>179.0</ele><time>2026-04-19T08:02:12Z</time></trkpt><trkpt lat="43.47208666604454" lon="13.367380300080422"><ele>179.0</ele><time>2026-04-19T08:02:13Z</time></trkpt><trkpt lat="43.47207973721842" lon="13.367214803115733"><ele>179.0</ele><time>2026-04-19T08:02:14Z</time></trkpt><trkpt lat="43.47207275929601" lon="13.36704202609877"><ele>179.0</ele><time>2026-04-19T08:02:15Z</time></trkpt><trkpt lat="43.47206236066983" lon="13.36685806061433"><ele>179.0</ele><time>2026-04-19T08:02:16Z</time></trkpt><trkpt lat="43.47205192881356" lon="13.366660350237074"><ele>179.75</ele><time>2026-04-19T08:02:17Z</time></trkpt><trkpt lat="43.472041902052894" lon="13.366470317336592"><ele>180.5</ele><time>2026-04-19T08:02:18Z</time></trkpt><trkpt lat="43.472031657603885" lon="13.366276158806222"><ele>181.25</ele><time>2026-04-19T08:02:19Z</time></trkpt><trkpt lat="43.47202192105075" lon="13.366082818683232"><ele>182.0</ele><time>2026-04-19T08:02:20Z</time></trkpt><trkpt lat="43.47201358316924" lon="13.365872703660665"><ele>185.0</ele><time>2026-04-19T08:02:21Z</time></trkpt><trkpt lat="43.47200627567302" lon="13.365672889804683"><ele>188.0</ele><time>2026-04-19T08:02:22Z</time></trkpt><trkpt lat="43.4719936777426" lon="13.365459953108989"><ele>191.0</ele><time>2026-04-19T08:02:23Z</time></trkpt><trkpt lat="43.47197252027014" lon="13.365256171851202"><ele>193.0</ele><time>2026-04-19T08:02:24.001Z</time></trkpt><trkpt lat="43.47194673513784" lon="13.365062624607738"><ele>195.0</ele><time>2026-04-19T08:02:25.001Z</time></trkpt><trkpt lat="43.471914476486795" lon="13.364864302479662"><ele>197.0</ele><time>2026-04-19T08:02:26.001Z</time></trkpt><trkpt lat="43.47188114414878" lon="13.36466410061611"><ele>199.0</ele><time>2026-04-19T08:02:27.001Z</time></trkpt><trkpt lat="43.471843102978404" lon="13.364455522441789"><ele>199.79999999999998</ele><time>2026-04-19T08:02:28.001Z</time></trkpt><trkpt lat="43.47180739312904" lon="13.364291441809838"><ele>200.6</ele><time>2026-04-19T08:02:29.001Z</time></trkpt><trkpt lat="43.47176994118683" lon="13.36415225453866"><ele>201.4</ele><time>2026-04-19T08:02:30.001Z</time></trkpt><trkpt lat="43.47171776483716" lon="13.36404305273586"><ele>202.2</ele><time>2026-04-19T08:02:31.001Z</time></trkpt><trkpt lat="43.471686531208434" lon="13.36391488347782"><ele>203.0</ele><time>2026-04-19T08:02:32.001Z</time></trkpt><trkpt lat="43.47163447815344" lon="13.363775262947236"><ele>203.0</ele><time>2026-04-19T08:02:33.001Z</time></trkpt><trkpt lat="43.471585988910846" lon="13.363607110452033"><ele>203.0</ele><time>2026-04-19T08:02:34.001Z</time></trkpt><trkpt lat="43.471541994023234" lon="13.363435751926959"><ele>203.0</ele><time>2026-04-19T08:02:35.001Z</time></trkpt><trkpt lat="43.4715291704704" lon="13.363245257283012"><ele>203.0</ele><time>2026-04-19T08:02:36.001Z</time></trkpt><trkpt lat="43.47151406576286" lon="13.363056494370316"><ele>202.2</ele><time>2026-04-19T08:02:37.001Z</time></trkpt><trkpt lat="43.47150186872564" lon="13.362871491584249"><ele>201.4</ele><time>2026-04-19T08:02:38.001Z</time></trkpt><trkpt lat="43.47149576699936" lon="13.362721628667591"><ele>200.6</ele><time>2026-04-19T08:02:39.001Z</time></trkpt><trkpt lat="43.47148872546384" lon="13.362583647164474"><ele>199.79999999999998</ele><time>2026-04-19T08:02:40.001Z</time></trkpt><trkpt lat="43.47147517200159" lon="13.362466703834253"><ele>199.0</ele><time>2026-04-19T08:02:41.001Z</time></trkpt><trkpt lat="43.47145309470954" lon="13.362348540129622"><ele>199.0</ele><time>2026-04-19T08:02:42.001Z</time></trkpt><trkpt lat="43.47142226571965" lon="13.362229904388185"><ele>199.0</ele><time>2026-04-19T08:02:43.001Z</time></trkpt><trkpt lat="43.471370641815184" lon="13.362106713564218"><ele>199.0</ele><time>2026-04-19T08:02:44.001Z</time></trkpt><trkpt lat="43.47130934905429" lon="13.361998926751365"><ele>199.0</ele><time>2026-04-19T08:02:45.001Z</time></trkpt><trkpt lat="43.471226957158095" lon="13.361935025819593"><ele>199.0</ele><time>2026-04-19T08:02:46.001Z</time></trkpt><trkpt lat="43.47114449003935" lon="13.361861251923335"><ele>200.0</ele><time>2026-04-19T08:02:47.001Z</time></trkpt><trkpt lat="43.47103978214494" lon="13.36179189754854"><ele>201.0</ele><time>2026-04-19T08:02:48.001Z</time></trkpt><trkpt lat="43.4709068139152" lon="13.361722612976454"><ele>202.0</ele><time>2026-04-19T08:02:49.001Z</time></trkpt><trkpt lat="43.47077328452322" lon="13.361664049511512"><ele>203.0</ele><time>2026-04-19T08:02:50.001Z</time></trkpt><trkpt lat="43.47066437541181" lon="13.361596569363682"><ele>203.0</ele><time>2026-04-19T08:02:51.001Z</time></trkpt><trkpt lat="43.47056905437258" lon="13.36152052584496"><ele>203.0</ele><time>2026-04-19T08:02:52.001Z</time></trkpt><trkpt lat="43.470477978311216" lon="13.36145577174357"><ele>203.0</ele><time>2026-04-19T08:02:53.001Z</time></trkpt><trkpt lat="43.47039572780344" lon="13.361374159450374"><ele>203.0</ele><time>2026-04-19T08:02:54.001Z</time></trkpt><trkpt lat="43.47031792730009" lon="13.361259040205372"><ele>203.0</ele><time>2026-04-19T08:02:55.001Z</time></trkpt><trkpt lat="43.470237674136804" lon="13.361125329598377"><ele>202.75</ele><time>2026-04-19T08:02:56.001Z</time></trkpt><trkpt lat="43.47014414079714" lon="13.360979152092925"><ele>202.5</ele><time>2026-04-19T08:02:57.001Z</time></trkpt><trkpt lat="43.47006136885691" lon="13.36080516125238"><ele>202.25</ele><time>2026-04-19T08:02:58.001Z</time></trkpt><trkpt lat="43.46995848533811" lon="13.360643858713152"><ele>202.0</ele><time>2026-04-19T08:02:59.001Z</time></trkpt><trkpt lat="43.46984766609264" lon="13.360504761296344"><ele>202.75</ele><time>2026-04-19T08:03:00.001Z</time></trkpt><trkpt lat="43.4697501716127" lon="13.360394620708922"><ele>203.5</ele><time>2026-04-19T08:03:01.001Z</time></trkpt><trkpt lat="43.46966301238836" lon="13.360256256751368"><ele>204.25</ele><time>2026-04-19T08:03:02.001Z</time></trkpt><trkpt lat="43.46958143346577" lon="13.360109947827013"><ele>205.0</ele><time>2026-04-19T08:03:03.001Z</time></trkpt><trkpt lat="43.46950448380885" lon="13.359949937526878"><ele>204.75</ele><time>2026-04-19T08:03:04.001Z</time></trkpt><trkpt lat="43.46941821332828" lon="13.35978580850302"><ele>204.5</ele><time>2026-04-19T08:03:05.001Z</time></trkpt><trkpt lat="43.46934941679068" lon="13.359607697132542"><ele>204.25</ele><time>2026-04-19T08:03:06.001Z</time></trkpt><trkpt lat="43.46926668230227" lon="13.359428272870474"><ele>204.0</ele><time>2026-04-19T08:03:07.001Z</time></trkpt><trkpt lat="43.46918626327974" lon="13.359286026031723"><ele>204.0</ele><time>2026-04-19T08:03:08.001Z</time></trkpt><trkpt lat="43.46913074777326" lon="13.359141879460443"><ele>204.0</ele><time>2026-04-19T08:03:09.001Z</time></trkpt><trkpt lat="43.46907875969836" lon="13.358998662554264"><ele>204.0</ele><time>2026-04-19T08:03:10.001Z</time></trkpt><trkpt lat="43.469036316094126" lon="13.358862443854868"><ele>204.0</ele><time>2026-04-19T08:03:11.001Z</time></trkpt><trkpt lat="43.46901228139276" lon="13.358727460689517"><ele>204.0</ele><time>2026-04-19T08:03:12.001Z</time></trkpt><trkpt lat="43.469027350829755" lon="13.358587342691251"><ele>204.6</ele><time>2026-04-19T08:03:13.001Z</time></trkpt><trkpt lat="43.469049092324525" lon="13.358449387814543"><ele>205.2</ele><time>2026-04-19T08:03:14.001Z</time></trkpt><trkpt lat="43.469058574390864" lon="13.35831929383309"><ele>205.79999999999998</ele><time>2026-04-19T08:03:15.001Z</time></trkpt><trkpt lat="43.469055090504845" lon="13.358201661145102"><ele>206.39999999999998</ele><time>2026-04-19T08:03:16.001Z</time></trkpt><trkpt lat="43.46905992445499" lon="13.358111038320766"><ele>207.0</ele><time>2026-04-19T08:03:17.001Z</time></trkpt><trkpt lat="43.46904689040438" lon="13.357926545036731"><ele>207.0</ele><time>2026-04-19T08:03:19.001Z</time></trkpt><trkpt lat="43.469017972120334" lon="13.357819611358105"><ele>207.0</ele><time>2026-04-19T08:03:20.001Z</time></trkpt><trkpt lat="43.468962201223455" lon="13.357678969905491"><ele>207.0</ele><time>2026-04-19T08:03:21.001Z</time></trkpt><trkpt lat="43.46888251694019" lon="13.357532293090891"><ele>207.0</ele><time>2026-04-19T08:03:22.001Z</time></trkpt><trkpt lat="43.46880527737123" lon="13.357370142029897"><ele>210.5</ele><time>2026-04-19T08:03:23.001Z</time></trkpt><trkpt lat="43.46871730907698" lon="13.357229944730458"><ele>214.0</ele><time>2026-04-19T08:03:24.001Z</time></trkpt><trkpt lat="43.468619720897074" lon="13.357085706963481"><ele>217.5</ele><time>2026-04-19T08:03:25.001Z</time></trkpt><trkpt lat="43.46857100422241" lon="13.356936583810821"><ele>221.0</ele><time>2026-04-19T08:03:26.001Z</time></trkpt><trkpt lat="43.468523039542575" lon="13.356765130140026"><ele>221.0</ele><time>2026-04-19T08:03:27.001Z</time></trkpt><trkpt lat="43.46848006976146" lon="13.356577433002023"><ele>221.0</ele><time>2026-04-19T08:03:28.001Z</time></trkpt><trkpt lat="43.468439446936905" lon="13.356416191344524"><ele>221.0</ele><time>2026-04-19T08:03:29.001Z</time></trkpt><trkpt lat="43.46839043705515" lon="13.356293153231535"><ele>221.0</ele><time>2026-04-19T08:03:30.001Z</time></trkpt><trkpt lat="43.46835224884076" lon="13.356170434135171"><ele>220.25</ele><time>2026-04-19T08:03:31.001Z</time></trkpt><trkpt lat="43.46830141282323" lon="13.356013910796243"><ele>219.5</ele><time>2026-04-19T08:03:32.001Z</time></trkpt><trkpt lat="43.46824628998412" lon="13.355836172369761"><ele>218.75</ele><time>2026-04-19T08:03:33.001Z</time></trkpt><trkpt lat="43.4681926066874" lon="13.355664562783092"><ele>218.0</ele><time>2026-04-19T08:03:34.001Z</time></trkpt><trkpt lat="43.468130235907346" lon="13.355488467468158"><ele>216.25</ele><time>2026-04-19T08:03:35Z</time></trkpt><trkpt lat="43.46808591603174" lon="13.355306672707005"><ele>214.5</ele><time>2026-04-19T08:03:36Z</time></trkpt><trkpt lat="43.46803511638346" lon="13.355133106572314"><ele>212.75</ele><time>2026-04-19T08:03:37Z</time></trkpt><trkpt lat="43.4679865178818" lon="13.354939322269576"><ele>211.0</ele><time>2026-04-19T08:03:38Z</time></trkpt><trkpt lat="43.4679470466126" lon="13.354758051417514"><ele>211.5</ele><time>2026-04-19T08:03:39Z</time></trkpt><trkpt lat="43.46790944963863" lon="13.354551992129023"><ele>212.0</ele><time>2026-04-19T08:03:40Z</time></trkpt><trkpt lat="43.467864744777664" lon="13.3543460105638"><ele>212.5</ele><time>2026-04-19T08:03:41Z</time></trkpt><trkpt lat="43.46784190967561" lon="13.354159834563623"><ele>213.0</ele><time>2026-04-19T08:03:42Z</time></trkpt><trkpt lat="43.46783520210152" lon="13.353965030340053"><ele>213.60000000000002</ele><time>2026-04-19T08:03:43Z</time></trkpt><trkpt lat="43.46781347860376" lon="13.353788889156572"><ele>214.20000000000002</ele><time>2026-04-19T08:03:44Z</time></trkpt><trkpt lat="43.46777808352127" lon="13.353649279189463"><ele>214.8</ele><time>2026-04-19T08:03:45Z</time></trkpt><trkpt lat="43.46775696736701" lon="13.353519706591735"><ele>215.4</ele><time>2026-04-19T08:03:46Z</time></trkpt><trkpt lat="43.46773704270037" lon="13.353400053215937"><ele>216.0</ele><time>2026-04-19T08:03:47Z</time></trkpt><trkpt lat="43.46770819310789" lon="13.353284027278235"><ele>216.0</ele><time>2026-04-19T08:03:48Z</time></trkpt><trkpt lat="43.46767987072607" lon="13.353148295235501"><ele>216.00000000000003</ele><time>2026-04-19T08:03:49Z</time></trkpt><trkpt lat="43.46765101007721" lon="13.353018862858068"><ele>216.00000000000003</ele><time>2026-04-19T08:03:50Z</time></trkpt><trkpt lat="43.4676233541291" lon="13.352887023764655"><ele>216.0</ele><time>2026-04-19T08:03:51Z</time></trkpt><trkpt lat="43.4675939868988" lon="13.352752628277"><ele>216.0</ele><time>2026-04-19T08:03:52Z</time></trkpt><trkpt lat="43.467564296549654" lon="13.352633215655638"><ele>216.4</ele><time>2026-04-19T08:03:53Z</time></trkpt><trkpt lat="43.46754373453035" lon="13.352522749998323"><ele>216.8</ele><time>2026-04-19T08:03:54Z</time></trkpt><trkpt lat="43.46751866177264" lon="13.352401902213984"><ele>217.20000000000002</ele><time>2026-04-19T08:03:55Z</time></trkpt><trkpt lat="43.46749604711195" lon="13.352277276655204"><ele>217.60000000000002</ele><time>2026-04-19T08:03:56Z</time></trkpt><trkpt lat="43.46747533942865" lon="13.352158062766778"><ele>218.0</ele><time>2026-04-19T08:03:57Z</time></trkpt><trkpt lat="43.467448109656004" lon="13.35202986490434"><ele>218.0</ele><time>2026-04-19T08:03:58Z</time></trkpt><trkpt lat="43.46741764172743" lon="13.351900264223127"><ele>218.0</ele><time>2026-04-19T08:03:59Z</time></trkpt><trkpt lat="43.46740858908435" lon="13.35177043159635"><ele>218.0</ele><time>2026-04-19T08:04:00Z</time></trkpt><trkpt lat="43.46738363986773" lon="13.351642593323376"><ele>218.0</ele><time>2026-04-19T08:04:01Z</time></trkpt><trkpt lat="43.46736051286868" lon="13.351522346831231"><ele>218.0</ele><time>2026-04-19T08:04:02Z</time></trkpt><trkpt lat="43.46733938794859" lon="13.351409249186135"><ele>217.50000000000003</ele><time>2026-04-19T08:04:03Z</time></trkpt><trkpt lat="43.46731827342557" lon="13.3512962071984"><ele>217.0</ele><time>2026-04-19T08:04:04Z</time></trkpt><trkpt lat="43.46729896381225" lon="13.351182356837827"><ele>216.5</ele><time>2026-04-19T08:04:05Z</time></trkpt><trkpt lat="43.46727984790357" lon="13.351069260429352"><ele>216.0</ele><time>2026-04-19T08:04:06Z</time></trkpt><trkpt lat="43.46726016808403" lon="13.350947542613081"><ele>215.50000000000003</ele><time>2026-04-19T08:04:07Z</time></trkpt><trkpt lat="43.46724281615451" lon="13.350826227376908"><ele>215.0</ele><time>2026-04-19T08:04:08Z</time></trkpt><trkpt lat="43.46722761267529" lon="13.350697403297612"><ele>215.0</ele><time>2026-04-19T08:04:09Z</time></trkpt><trkpt lat="43.467202180142564" lon="13.350551161388514"><ele>215.0</ele><time>2026-04-19T08:04:10Z</time></trkpt><trkpt lat="43.467198656857775" lon="13.350398812223586"><ele>215.0</ele><time>2026-04-19T08:04:11Z</time></trkpt><trkpt lat="43.46719443520509" lon="13.35024108898427"><ele>215.0</ele><time>2026-04-19T08:04:12Z</time></trkpt><trkpt lat="43.467188731234124" lon="13.350080098953232"><ele>214.25</ele><time>2026-04-19T08:04:13Z</time></trkpt><trkpt lat="43.46717773373123" lon="13.349923356481051"><ele>213.5</ele><time>2026-04-19T08:04:14Z</time></trkpt><trkpt lat="43.467158389204954" lon="13.349767816999476"><ele>212.75</ele><time>2026-04-19T08:04:15Z</time></trkpt><trkpt lat="43.46712738739231" lon="13.349607178051249"><ele>212.0</ele><time>2026-04-19T08:04:16Z</time></trkpt><trkpt lat="43.467082881925876" lon="13.34945417099363"><ele>211.5</ele><time>2026-04-19T08:04:17Z</time></trkpt><trkpt lat="43.46703641330117" lon="13.349301372515361"><ele>211.0</ele><time>2026-04-19T08:04:18Z</time></trkpt><trkpt lat="43.466996057110805" lon="13.349146467272785"><ele>210.5</ele><time>2026-04-19T08:04:19Z</time></trkpt><trkpt lat="43.4669465623955" lon="13.348997578911979"><ele>210.0</ele><time>2026-04-19T08:04:20Z</time></trkpt><trkpt lat="43.466906745318745" lon="13.348846541282176"><ele>211.0</ele><time>2026-04-19T08:04:21Z</time></trkpt><trkpt lat="43.46686272003756" lon="13.348696861955576"><ele>212.0</ele><time>2026-04-19T08:04:22Z</time></trkpt><trkpt lat="43.466819602848894" lon="13.348546581891682"><ele>213.0</ele><time>2026-04-19T08:04:23Z</time></trkpt><trkpt lat="43.466774877549305" lon="13.348398104652993"><ele>214.0</ele><time>2026-04-19T08:04:24Z</time></trkpt><trkpt lat="43.46673233359727" lon="13.348256397987925"><ele>214.0</ele><time>2026-04-19T08:04:25Z</time></trkpt><trkpt lat="43.46668970310748" lon="13.348114156227348"><ele>214.0</ele><time>2026-04-19T08:04:26Z</time></trkpt><trkpt lat="43.46664052917314" lon="13.347964957776876"><ele>214.0</ele><time>2026-04-19T08:04:27Z</time></trkpt><trkpt lat="43.466599013104556" lon="13.347810837014254"><ele>214.0</ele><time>2026-04-19T08:04:28Z</time></trkpt><trkpt lat="43.46654382164293" lon="13.34764938709317"><ele>213.75</ele><time>2026-04-19T08:04:29Z</time></trkpt><trkpt lat="43.46649063298319" lon="13.34747250563398"><ele>213.5</ele><time>2026-04-19T08:04:30.001Z</time></trkpt><trkpt lat="43.466432972703785" lon="13.347310273700625"><ele>213.25</ele><time>2026-04-19T08:04:31.001Z</time></trkpt><trkpt lat="43.46636937633974" lon="13.347154147846908"><ele>213.0</ele><time>2026-04-19T08:04:32.001Z</time></trkpt><trkpt lat="43.46628568885366" lon="13.34699915282933"><ele>214.5</ele><time>2026-04-19T08:04:33.001Z</time></trkpt><trkpt lat="43.46620284847866" lon="13.346841942229682"><ele>216.0</ele><time>2026-04-19T08:04:34.001Z</time></trkpt><trkpt lat="43.46612341840706" lon="13.346679489158616"><ele>217.5</ele><time>2026-04-19T08:04:35.001Z</time></trkpt><trkpt lat="43.46604062300701" lon="13.34653187596011"><ele>219.0</ele><time>2026-04-19T08:04:36.001Z</time></trkpt><trkpt lat="43.465967069416266" lon="13.346387238833659"><ele>220.25</ele><time>2026-04-19T08:04:37.001Z</time></trkpt><trkpt lat="43.46589048206505" lon="13.34624576292854"><ele>221.5</ele><time>2026-04-19T08:04:38.001Z</time></trkpt><trkpt lat="43.465817524314886" lon="13.346116045499201"><ele>222.75</ele><time>2026-04-19T08:04:39.001Z</time></trkpt><trkpt lat="43.46575672259913" lon="13.345994055972769"><ele>224.0</ele><time>2026-04-19T08:04:40.001Z</time></trkpt><trkpt lat="43.465696278968494" lon="13.345877602116497"><ele>224.00000000000003</ele><time>2026-04-19T08:04:41.001Z</time></trkpt><trkpt lat="43.46565049159378" lon="13.345771149712172"><ele>224.0</ele><time>2026-04-19T08:04:42.001Z</time></trkpt><trkpt lat="43.465612380624755" lon="13.345692428885885"><ele>224.0</ele><time>2026-04-19T08:04:43.001Z</time></trkpt><trkpt lat="43.46557154148168" lon="13.345606596140865"><ele>224.0</ele><time>2026-04-19T08:04:44.001Z</time></trkpt><trkpt lat="43.465541046103866" lon="13.345524464024692"><ele>224.00000000000003</ele><time>2026-04-19T08:04:45.001Z</time></trkpt><trkpt lat="43.46551192987649" lon="13.345435075439347"><ele>224.0</ele><time>2026-04-19T08:04:46.001Z</time></trkpt><trkpt lat="43.4654795110154" lon="13.3453337088355"><ele>222.83333333333334</ele><time>2026-04-19T08:04:47.001Z</time></trkpt><trkpt lat="43.46545235702096" lon="13.345239744415743"><ele>221.66666666666669</ele><time>2026-04-19T08:04:48.001Z</time></trkpt><trkpt lat="43.46542247001711" lon="13.345136914196466"><ele>220.5</ele><time>2026-04-19T08:04:49.001Z</time></trkpt><trkpt lat="43.465395862248386" lon="13.34503168301838"><ele>219.33333333333331</ele><time>2026-04-19T08:04:50.001Z</time></trkpt><trkpt lat="43.46536439442228" lon="13.344929368729913"><ele>218.16666666666666</ele><time>2026-04-19T08:04:51.001Z</time></trkpt><trkpt lat="43.465330553408386" lon="13.344805942833926"><ele>217.0</ele><time>2026-04-19T08:04:52.001Z</time></trkpt><trkpt lat="43.46529507575916" lon="13.344666112180077"><ele>216.6</ele><time>2026-04-19T08:04:53.001Z</time></trkpt><trkpt lat="43.46526638352981" lon="13.344526523420301"><ele>216.2</ele><time>2026-04-19T08:04:54.001Z</time></trkpt><trkpt lat="43.46523911664041" lon="13.3443864285831"><ele>215.8</ele><time>2026-04-19T08:04:55.001Z</time></trkpt><trkpt lat="43.46521039532286" lon="13.344252455415255"><ele>215.4</ele><time>2026-04-19T08:04:56.001Z</time></trkpt><trkpt lat="43.46517633745864" lon="13.344107128507432"><ele>215.0</ele><time>2026-04-19T08:04:57.001Z</time></trkpt><trkpt lat="43.46515192620533" lon="13.343947726767638"><ele>215.0</ele><time>2026-04-19T08:04:58.001Z</time></trkpt><trkpt lat="43.4651268515131" lon="13.343786325133156"><ele>215.0</ele><time>2026-04-19T08:04:59.001Z</time></trkpt><trkpt lat="43.46507780649456" lon="13.343642282873233"><ele>215.0</ele><time>2026-04-19T08:05:00.001Z</time></trkpt><trkpt lat="43.46504054135263" lon="13.343480627633044"><ele>215.0</ele><time>2026-04-19T08:05:01.001Z</time></trkpt><trkpt lat="43.46500598742324" lon="13.34332853361544"><ele>215.0</ele><time>2026-04-19T08:05:02.001Z</time></trkpt><trkpt lat="43.46496320438671" lon="13.343172717482098"><ele>215.0</ele><time>2026-04-19T08:05:03.001Z</time></trkpt><trkpt lat="43.46492170437808" lon="13.343018702596003"><ele>215.0</ele><time>2026-04-19T08:05:04.001Z</time></trkpt><trkpt lat="43.464880608851814" lon="13.34287615750218"><ele>215.0</ele><time>2026-04-19T08:05:05.001Z</time></trkpt><trkpt lat="43.46484557810815" lon="13.342732087996955"><ele>214.8</ele><time>2026-04-19T08:05:06.001Z</time></trkpt><trkpt lat="43.464809126562876" lon="13.342591000345044"><ele>214.6</ele><time>2026-04-19T08:05:07.001Z</time></trkpt><trkpt lat="43.464770881388596" lon="13.342448832637716"><ele>214.39999999999998</ele><time>2026-04-19T08:05:08.001Z</time></trkpt><trkpt lat="43.464763707353896" lon="13.342301161865484"><ele>214.2</ele><time>2026-04-19T08:05:09.001Z</time></trkpt><trkpt lat="43.464752737800644" lon="13.34214165043323"><ele>214.0</ele><time>2026-04-19T08:05:10.001Z</time></trkpt><trkpt lat="43.46474268795674" lon="13.34197499696918"><ele>213.5</ele><time>2026-04-19T08:05:11.001Z</time></trkpt><trkpt lat="43.46472332976696" lon="13.341811658585113"><ele>213.0</ele><time>2026-04-19T08:05:12.001Z</time></trkpt><trkpt lat="43.464730308212026" lon="13.341636808664715"><ele>212.5</ele><time>2026-04-19T08:05:13.001Z</time></trkpt><trkpt lat="43.46470369619361" lon="13.341457833616163"><ele>212.0</ele><time>2026-04-19T08:05:14.001Z</time></trkpt><trkpt lat="43.464637480354995" lon="13.341294755171674"><ele>211.25</ele><time>2026-04-19T08:05:15.001Z</time></trkpt><trkpt lat="43.46457845308541" lon="13.341134775851943"><ele>210.5</ele><time>2026-04-19T08:05:16.001Z</time></trkpt><trkpt lat="43.46453056387557" lon="13.340960823900383"><ele>209.75</ele><time>2026-04-19T08:05:17.001Z</time></trkpt><trkpt lat="43.46446444033366" lon="13.340805629075646"><ele>209.0</ele><time>2026-04-19T08:05:18.001Z</time></trkpt><trkpt lat="43.46440617422819" lon="13.340645282545259"><ele>211.0</ele><time>2026-04-19T08:05:19.001Z</time></trkpt><trkpt lat="43.4643524803872" lon="13.340482994249863"><ele>213.0</ele><time>2026-04-19T08:05:20.001Z</time></trkpt><trkpt lat="43.464291065216095" lon="13.340332291012617"><ele>215.0</ele><time>2026-04-19T08:05:21.001Z</time></trkpt><trkpt lat="43.46423442745439" lon="13.340171646548276"><ele>217.0</ele><time>2026-04-19T08:05:22.001Z</time></trkpt><trkpt lat="43.46417672403301" lon="13.34001875607603"><ele>217.0</ele><time>2026-04-19T08:05:23.001Z</time></trkpt><trkpt lat="43.46411907866112" lon="13.339871929255832"><ele>217.0</ele><time>2026-04-19T08:05:24.001Z</time></trkpt><trkpt lat="43.464070200509276" lon="13.339737595257896"><ele>217.0</ele><time>2026-04-19T08:05:25.001Z</time></trkpt><trkpt lat="43.46402495151402" lon="13.339619181003295"><ele>217.0</ele><time>2026-04-19T08:05:26.001Z</time></trkpt><trkpt lat="43.463980479085116" lon="13.339500413015685"><ele>217.0</ele><time>2026-04-19T08:05:27.001Z</time></trkpt><trkpt lat="43.46393314520128" lon="13.339374685208947"><ele>217.33333333333331</ele><time>2026-04-19T08:05:28.001Z</time></trkpt><trkpt lat="43.463889400539315" lon="13.339255735681734"><ele>217.66666666666666</ele><time>2026-04-19T08:05:29.001Z</time></trkpt><trkpt lat="43.46385212277302" lon="13.339142148977363"><ele>218.0</ele><time>2026-04-19T08:05:30.001Z</time></trkpt><trkpt lat="43.46381620342694" lon="13.339047849065127"><ele>218.33333333333331</ele><time>2026-04-19T08:05:31.001Z</time></trkpt><trkpt lat="43.46378683695704" lon="13.338965105129803"><ele>218.66666666666666</ele><time>2026-04-19T08:05:32.001Z</time></trkpt><trkpt lat="43.46375233552961" lon="13.338872399120616"><ele>219.0</ele><time>2026-04-19T08:05:33.001Z</time></trkpt><trkpt lat="43.463714870064024" lon="13.338777576885658"><ele>218.33333333333334</ele><time>2026-04-19T08:05:34.001Z</time></trkpt><trkpt lat="43.46369391999139" lon="13.338684413434908"><ele>217.66666666666669</ele><time>2026-04-19T08:05:35.001Z</time></trkpt><trkpt lat="43.46364482918396" lon="13.338594159688864"><ele>217.0</ele><time>2026-04-19T08:05:36.001Z</time></trkpt><trkpt lat="43.463612279274955" lon="13.338491676368651"><ele>216.33333333333334</ele><time>2026-04-19T08:05:37.001Z</time></trkpt><trkpt lat="43.463572772419624" lon="13.338378306138566"><ele>215.66666666666669</ele><time>2026-04-19T08:05:38.001Z</time></trkpt><trkpt lat="43.463529875880354" lon="13.338269427914822"><ele>215.0</ele><time>2026-04-19T08:05:39.001Z</time></trkpt><trkpt lat="43.46349267468566" lon="13.338144105117799"><ele>214.0</ele><time>2026-04-19T08:05:40.002Z</time></trkpt><trkpt lat="43.46344246283902" lon="13.338024586619625"><ele>213.0</ele><time>2026-04-19T08:05:41Z</time></trkpt><trkpt lat="43.4633965177052" lon="13.337891845753651"><ele>212.0</ele><time>2026-04-19T08:05:42Z</time></trkpt><trkpt lat="43.463350458259356" lon="13.337760888049063"><ele>211.0</ele><time>2026-04-19T08:05:43Z</time></trkpt><trkpt lat="43.46330213933091" lon="13.337633011314855"><ele>210.0</ele><time>2026-04-19T08:05:44Z</time></trkpt><trkpt lat="43.46325535993489" lon="13.337499933607566"><ele>210.0</ele><time>2026-04-19T08:05:45Z</time></trkpt><trkpt lat="43.46320144171109" lon="13.33736151527002"><ele>210.0</ele><time>2026-04-19T08:05:46Z</time></trkpt><trkpt lat="43.46315493724215" lon="13.337231292447173"><ele>210.0</ele><time>2026-04-19T08:05:47Z</time></trkpt><trkpt lat="43.46310177865924" lon="13.337098813070629"><ele>210.0</ele><time>2026-04-19T08:05:48Z</time></trkpt><trkpt lat="43.46305361065079" lon="13.336959113607538"><ele>210.0</ele><time>2026-04-19T08:05:49Z</time></trkpt><trkpt lat="43.463003690274455" lon="13.336823426247577"><ele>209.2</ele><time>2026-04-19T08:05:50Z</time></trkpt><trkpt lat="43.462974315335906" lon="13.336689391159714"><ele>208.4</ele><time>2026-04-19T08:05:51Z</time></trkpt><trkpt lat="43.46293449816978" lon="13.336559866876245"><ele>207.60000000000002</ele><time>2026-04-19T08:05:52Z</time></trkpt><trkpt lat="43.462896409150055" lon="13.33643542856556"><ele>206.8</ele><time>2026-04-19T08:05:53Z</time></trkpt><trkpt lat="43.462855557081156" lon="13.336296227190154"><ele>206.0</ele><time>2026-04-19T08:05:54Z</time></trkpt><trkpt lat="43.46281502189398" lon="13.336151997937007"><ele>206.0</ele><time>2026-04-19T08:05:55Z</time></trkpt><trkpt lat="43.46276050716758" lon="13.33601623985448"><ele>206.0</ele><time>2026-04-19T08:05:56Z</time></trkpt><trkpt lat="43.462728851040836" lon="13.335876281857292"><ele>206.0</ele><time>2026-04-19T08:05:57Z</time></trkpt><trkpt lat="43.4626897503484" lon="13.335734568132033"><ele>206.0</ele><time>2026-04-19T08:05:58Z</time></trkpt><trkpt lat="43.462655443990016" lon="13.335592839252305"><ele>206.0</ele><time>2026-04-19T08:05:59Z</time></trkpt><trkpt lat="43.46262030244462" lon="13.335448603649949"><ele>206.8</ele><time>2026-04-19T08:06:00Z</time></trkpt><trkpt lat="43.46258981036192" lon="13.335310100776422"><ele>207.60000000000002</ele><time>2026-04-19T08:06:01Z</time></trkpt><trkpt lat="43.462563275825026" lon="13.335180362266115"><ele>208.4</ele><time>2026-04-19T08:06:02Z</time></trkpt><trkpt lat="43.46253516018805" lon="13.335064799671594"><ele>209.2</ele><time>2026-04-19T08:06:03Z</time></trkpt><trkpt lat="43.46250922417797" lon="13.334959508080026"><ele>210.0</ele><time>2026-04-19T08:06:04Z</time></trkpt><trkpt lat="43.462493469170894" lon="13.334853662606335"><ele>210.0</ele><time>2026-04-19T08:06:05Z</time></trkpt><trkpt lat="43.4624879693437" lon="13.334759819711367"><ele>210.0</ele><time>2026-04-19T08:06:06Z</time></trkpt><trkpt lat="43.462489324049905" lon="13.33464600516546"><ele>210.0</ele><time>2026-04-19T08:06:07Z</time></trkpt><trkpt lat="43.46249567781642" lon="13.334532477568338"><ele>210.0</ele><time>2026-04-19T08:06:08Z</time></trkpt><trkpt lat="43.46250654907865" lon="13.334430951328914"><ele>210.0</ele><time>2026-04-19T08:06:09Z</time></trkpt><trkpt lat="43.46251659055439" lon="13.33430872511085"><ele>210.0</ele><time>2026-04-19T08:06:10Z</time></trkpt><trkpt lat="43.46251994746158" lon="13.334187827066716"><ele>209.8</ele><time>2026-04-19T08:06:11Z</time></trkpt><trkpt lat="43.462521917145665" lon="13.334062108184781"><ele>209.6</ele><time>2026-04-19T08:06:12Z</time></trkpt><trkpt lat="43.46252859471985" lon="13.333910820075605"><ele>209.39999999999998</ele><time>2026-04-19T08:06:13Z</time></trkpt><trkpt lat="43.46250315637332" lon="13.333763445522466"><ele>209.2</ele><time>2026-04-19T08:06:14Z</time></trkpt><trkpt lat="43.46248737214785" lon="13.333607937874747"><ele>209.0</ele><time>2026-04-19T08:06:15Z</time></trkpt><trkpt lat="43.46248840117142" lon="13.33344856959416"><ele>208.0</ele><time>2026-04-19T08:06:16Z</time></trkpt><trkpt lat="43.46247544432245" lon="13.333291189319551"><ele>207.0</ele><time>2026-04-19T08:06:17Z</time></trkpt><trkpt lat="43.46246341851613" lon="13.333135413890485"><ele>206.0</ele><time>2026-04-19T08:06:18Z</time></trkpt><trkpt lat="43.46245108837408" lon="13.33297569631512"><ele>205.0</ele><time>2026-04-19T08:06:19Z</time></trkpt><trkpt lat="43.462438603814554" lon="13.332813978457025"><ele>204.2</ele><time>2026-04-19T08:06:20Z</time></trkpt><trkpt lat="43.46242711852949" lon="13.33266520468005"><ele>203.4</ele><time>2026-04-19T08:06:21Z</time></trkpt><trkpt lat="43.46241553983301" lon="13.332515220894607"><ele>202.60000000000002</ele><time>2026-04-19T08:06:22Z</time></trkpt><trkpt lat="43.46240427822252" lon="13.332369342767098"><ele>201.8</ele><time>2026-04-19T08:06:23Z</time></trkpt><trkpt lat="43.462369786508155" lon="13.33224106380903"><ele>201.0</ele><time>2026-04-19T08:06:24Z</time></trkpt><trkpt lat="43.462346543715164" lon="13.332119416505359"><ele>200.33333333333334</ele><time>2026-04-19T08:06:25Z</time></trkpt><trkpt lat="43.46231564628093" lon="13.332013451733715"><ele>199.66666666666669</ele><time>2026-04-19T08:06:26Z</time></trkpt><trkpt lat="43.46227804284843" lon="13.331900989214125"><ele>199.0</ele><time>2026-04-19T08:06:27Z</time></trkpt><trkpt lat="43.46224067352562" lon="13.33178869650265"><ele>198.33333333333334</ele><time>2026-04-19T08:06:28.001Z</time></trkpt><trkpt lat="43.462200928333246" lon="13.331680570538557"><ele>197.66666666666669</ele><time>2026-04-19T08:06:29.001Z</time></trkpt><trkpt lat="43.46216516099288" lon="13.331568973172889"><ele>197.0</ele><time>2026-04-19T08:06:30.001Z</time></trkpt><trkpt lat="43.46215184551789" lon="13.331447122250541"><ele>197.39999999999998</ele><time>2026-04-19T08:06:31.001Z</time></trkpt><trkpt lat="43.46212825564038" lon="13.331331174326394"><ele>197.79999999999998</ele><time>2026-04-19T08:06:32.001Z</time></trkpt><trkpt lat="43.462110149518516" lon="13.331206725566052"><ele>198.2</ele><time>2026-04-19T08:06:33.001Z</time></trkpt><trkpt lat="43.46209557113184" lon="13.331075435428225"><ele>198.6</ele><time>2026-04-19T08:06:34.001Z</time></trkpt><trkpt lat="43.46208149904974" lon="13.330934320081987"><ele>199.0</ele><time>2026-04-19T08:06:35.001Z</time></trkpt><trkpt lat="43.46206838215812" lon="13.330797116590988"><ele>199.0</ele><time>2026-04-19T08:06:36.001Z</time></trkpt><trkpt lat="43.46205609050391" lon="13.330664136502035"><ele>199.0</ele><time>2026-04-19T08:06:37.001Z</time></trkpt><trkpt lat="43.46204322518846" lon="13.330524570823258"><ele>199.0</ele><time>2026-04-19T08:06:38.001Z</time></trkpt><trkpt lat="43.462031519414325" lon="13.330383452378939"><ele>199.0</ele><time>2026-04-19T08:06:39.001Z</time></trkpt><trkpt lat="43.46201983313441" lon="13.330242568891903"><ele>199.0</ele><time>2026-04-19T08:06:40.001Z</time></trkpt><trkpt lat="43.462008754891" lon="13.330109015457097"><ele>199.79999999999998</ele><time>2026-04-19T08:06:41.001Z</time></trkpt><trkpt lat="43.461997730144816" lon="13.329976107007464"><ele>200.6</ele><time>2026-04-19T08:06:42.001Z</time></trkpt><trkpt lat="43.461986298289425" lon="13.32983829063232"><ele>201.4</ele><time>2026-04-19T08:06:43.001Z</time></trkpt><trkpt lat="43.46195929136245" lon="13.329714272515861"><ele>202.2</ele><time>2026-04-19T08:06:44.001Z</time></trkpt><trkpt lat="43.46195464216353" lon="13.329571051666445"><ele>203.0</ele><time>2026-04-19T08:06:45.001Z</time></trkpt><trkpt lat="43.46193608039193" lon="13.329437852647072"><ele>203.0</ele><time>2026-04-19T08:06:46.001Z</time></trkpt><trkpt lat="43.46192425318193" lon="13.3292956098935"><ele>203.0</ele><time>2026-04-19T08:06:47.001Z</time></trkpt><trkpt lat="43.46191235682731" lon="13.329144322408736"><ele>203.0</ele><time>2026-04-19T08:06:48.001Z</time></trkpt><trkpt lat="43.4618956592907" lon="13.32899319823205"><ele>203.0</ele><time>2026-04-19T08:06:49.001Z</time></trkpt><trkpt lat="43.46188776332805" lon="13.328833389760398"><ele>203.0</ele><time>2026-04-19T08:06:50.001Z</time></trkpt><trkpt lat="43.46187340803527" lon="13.3286783734969"><ele>203.0</ele><time>2026-04-19T08:06:51.001Z</time></trkpt><trkpt lat="43.461859802854136" lon="13.328521401992038"><ele>203.0</ele><time>2026-04-19T08:06:52.001Z</time></trkpt><trkpt lat="43.46185437808223" lon="13.328364845245012"><ele>203.0</ele><time>2026-04-19T08:06:53.001Z</time></trkpt><trkpt lat="43.46183088195378" lon="13.328207689036079"><ele>203.0</ele><time>2026-04-19T08:06:54.001Z</time></trkpt><trkpt lat="43.46180399903455" lon="13.32805309187611"><ele>202.25</ele><time>2026-04-19T08:06:55.001Z</time></trkpt><trkpt lat="43.46177956669943" lon="13.32789514354447"><ele>201.5</ele><time>2026-04-19T08:06:56.001Z</time></trkpt><trkpt lat="43.46175387052026" lon="13.32773544643345"><ele>200.75</ele><time>2026-04-19T08:06:57.001Z</time></trkpt><trkpt lat="43.4617304602948" lon="13.327581677104876"><ele>200.0</ele><time>2026-04-19T08:06:58.001Z</time></trkpt><trkpt lat="43.461702269694754" lon="13.327428458883828"><ele>200.0</ele><time>2026-04-19T08:06:59.001Z</time></trkpt><trkpt lat="43.46167505149856" lon="13.327276952721538"><ele>200.0</ele><time>2026-04-19T08:07:00.001Z</time></trkpt><trkpt lat="43.46164702390356" lon="13.327117081261429"><ele>200.0</ele><time>2026-04-19T08:07:01.001Z</time></trkpt><trkpt lat="43.46162005623318" lon="13.326946546551673"><ele>200.0</ele><time>2026-04-19T08:07:02.001Z</time></trkpt><trkpt lat="43.461598966766864" lon="13.326783657797401"><ele>199.25</ele><time>2026-04-19T08:07:03.001Z</time></trkpt><trkpt lat="43.46157194288188" lon="13.326613507119172"><ele>198.5</ele><time>2026-04-19T08:07:04.001Z</time></trkpt><trkpt lat="43.461541831279604" lon="13.326441204849319"><ele>197.75</ele><time>2026-04-19T08:07:05.001Z</time></trkpt><trkpt lat="43.461509230124406" lon="13.326256545306592"><ele>197.0</ele><time>2026-04-19T08:07:06.001Z</time></trkpt><trkpt lat="43.46147661043899" lon="13.326080211120098"><ele>195.5</ele><time>2026-04-19T08:07:07.001Z</time></trkpt><trkpt lat="43.46145074266761" lon="13.3259004026024"><ele>194.0</ele><time>2026-04-19T08:07:08.001Z</time></trkpt><trkpt lat="43.46142101350717" lon="13.325734763112834"><ele>192.5</ele><time>2026-04-19T08:07:09.001Z</time></trkpt><trkpt lat="43.46140957097442" lon="13.32556570438564"><ele>191.0</ele><time>2026-04-19T08:07:10.001Z</time></trkpt><trkpt lat="43.46138389958462" lon="13.32541182310675"><ele>190.4</ele><time>2026-04-19T08:07:11.001Z</time></trkpt><trkpt lat="43.4613425947354" lon="13.325265533848622"><ele>189.8</ele><time>2026-04-19T08:07:12.001Z</time></trkpt><trkpt lat="43.46132448164538" lon="13.325123648659108"><ele>189.20000000000002</ele><time>2026-04-19T08:07:13.001Z</time></trkpt><trkpt lat="43.46130109722234" lon="13.324990150780552"><ele>188.60000000000002</ele><time>2026-04-19T08:07:14.001Z</time></trkpt><trkpt lat="43.461278078338616" lon="13.324856080570719"><ele>188.0</ele><time>2026-04-19T08:07:15.001Z</time></trkpt><trkpt lat="43.46125603845312" lon="13.324725367667007"><ele>188.0</ele><time>2026-04-19T08:07:16.001Z</time></trkpt><trkpt lat="43.46123573101768" lon="13.324600891037974"><ele>188.0</ele><time>2026-04-19T08:07:17.001Z</time></trkpt><trkpt lat="43.46121301408937" lon="13.324471549257874"><ele>188.0</ele><time>2026-04-19T08:07:18.001Z</time></trkpt><trkpt lat="43.4612108299366" lon="13.324341133415876"><ele>188.0</ele><time>2026-04-19T08:07:19.001Z</time></trkpt><trkpt lat="43.461193051052575" lon="13.324201493110545"><ele>188.0</ele><time>2026-04-19T08:07:20.001Z</time></trkpt><trkpt lat="43.46115922500005" lon="13.324056990976272"><ele>188.0</ele><time>2026-04-19T08:07:21.001Z</time></trkpt><trkpt lat="43.46114263816947" lon="13.323901802452184"><ele>188.0</ele><time>2026-04-19T08:07:22.001Z</time></trkpt><trkpt lat="43.46112695584706" lon="13.323739432207558"><ele>188.0</ele><time>2026-04-19T08:07:23.001Z</time></trkpt><trkpt lat="43.46111136060538" lon="13.323575808460946"><ele>188.0</ele><time>2026-04-19T08:07:24.001Z</time></trkpt><trkpt lat="43.46109658646929" lon="13.323409135218755"><ele>186.5</ele><time>2026-04-19T08:07:25.001Z</time></trkpt><trkpt lat="43.46108047019358" lon="13.323244492631767"><ele>185.0</ele><time>2026-04-19T08:07:26.001Z</time></trkpt><trkpt lat="43.46106464469115" lon="13.323082499924965"><ele>183.5</ele><time>2026-04-19T08:07:27.001Z</time></trkpt><trkpt lat="43.461047987138464" lon="13.322913510234228"><ele>182.0</ele><time>2026-04-19T08:07:28.001Z</time></trkpt><trkpt lat="43.46102800342612" lon="13.322740529078377"><ele>180.5</ele><time>2026-04-19T08:07:29.001Z</time></trkpt><trkpt lat="43.461006786184065" lon="13.322576396155927"><ele>179.0</ele><time>2026-04-19T08:07:30.001Z</time></trkpt><trkpt lat="43.460983464904515" lon="13.32240933808654"><ele>177.5</ele><time>2026-04-19T08:07:31.001Z</time></trkpt><trkpt lat="43.46096350376507" lon="13.32224774502793"><ele>176.0</ele><time>2026-04-19T08:07:32.001Z</time></trkpt><trkpt lat="43.460940446060675" lon="13.322079439210693"><ele>174.75</ele><time>2026-04-19T08:07:33.001Z</time></trkpt><trkpt lat="43.46091718814299" lon="13.321918709862087"><ele>173.5</ele><time>2026-04-19T08:07:34.001Z</time></trkpt><trkpt lat="43.46089062548753" lon="13.321753861644925"><ele>172.25</ele><time>2026-04-19T08:07:35.001Z</time></trkpt><trkpt lat="43.460865238895714" lon="13.321591894798487"><ele>171.0</ele><time>2026-04-19T08:07:36.002Z</time></trkpt><trkpt lat="43.46083506335678" lon="13.321434979795015"><ele>170.0</ele><time>2026-04-19T08:07:37.002Z</time></trkpt><trkpt lat="43.460805224161" lon="13.32127438082469"><ele>169.0</ele><time>2026-04-19T08:07:38.002Z</time></trkpt><trkpt lat="43.4607762336181" lon="13.321120996273832"><ele>168.0</ele><time>2026-04-19T08:07:39.002Z</time></trkpt><trkpt lat="43.46074882390437" lon="13.320968041325417"><ele>167.0</ele><time>2026-04-19T08:07:40.002Z</time></trkpt><trkpt lat="43.460725173489784" lon="13.32081193568018"><ele>167.0</ele><time>2026-04-19T08:07:41.002Z</time></trkpt><trkpt lat="43.46070462346989" lon="13.32064541891378"><ele>167.0</ele><time>2026-04-19T08:07:42.002Z</time></trkpt><trkpt lat="43.46069155826036" lon="13.320481796897194"><ele>167.0</ele><time>2026-04-19T08:07:43.002Z</time></trkpt><trkpt lat="43.4606753476252" lon="13.320324466753474"><ele>167.0</ele><time>2026-04-19T08:07:44.002Z</time></trkpt><trkpt lat="43.460653429386134" lon="13.320163475392707"><ele>167.0</ele><time>2026-04-19T08:07:45.002Z</time></trkpt><trkpt lat="43.460641172938075" lon="13.320014570674296"><ele>167.0</ele><time>2026-04-19T08:07:46.002Z</time></trkpt><trkpt lat="43.4606331675431" lon="13.319861368735731"><ele>167.0</ele><time>2026-04-19T08:07:47Z</time></trkpt><trkpt lat="43.46063244396245" lon="13.31970798137648"><ele>167.0</ele><time>2026-04-19T08:07:48Z</time></trkpt><trkpt lat="43.460639479587165" lon="13.31955276400319"><ele>167.0</ele><time>2026-04-19T08:07:49Z</time></trkpt><trkpt lat="43.46065572795634" lon="13.319385488950562"><ele>166.5</ele><time>2026-04-19T08:07:50Z</time></trkpt><trkpt lat="43.46068189319371" lon="13.319225121293941"><ele>166.0</ele><time>2026-04-19T08:07:51Z</time></trkpt><trkpt lat="43.460697691886935" lon="13.319054621102577"><ele>165.5</ele><time>2026-04-19T08:07:52Z</time></trkpt><trkpt lat="43.460708030852786" lon="13.318884580623163"><ele>165.0</ele><time>2026-04-19T08:07:53Z</time></trkpt><trkpt lat="43.460707425359075" lon="13.318725842110052"><ele>164.0</ele><time>2026-04-19T08:07:54Z</time></trkpt><trkpt lat="43.46069651220451" lon="13.318563543526606"><ele>163.0</ele><time>2026-04-19T08:07:55Z</time></trkpt><trkpt lat="43.460671946519646" lon="13.318420247377428"><ele>162.0</ele><time>2026-04-19T08:07:56Z</time></trkpt><trkpt lat="43.460631811094856" lon="13.31827655174621"><ele>161.0</ele><time>2026-04-19T08:07:57Z</time></trkpt><trkpt lat="43.46057215330039" lon="13.31815704380737"><ele>160.0</ele><time>2026-04-19T08:07:58Z</time></trkpt><trkpt lat="43.460523214888106" lon="13.318038197032468"><ele>160.4</ele><time>2026-04-19T08:07:59Z</time></trkpt><trkpt lat="43.46046963409056" lon="13.317927183146804"><ele>160.8</ele><time>2026-04-19T08:08:00Z</time></trkpt><trkpt lat="43.460415841638316" lon="13.317818390102847"><ele>161.2</ele><time>2026-04-19T08:08:01Z</time></trkpt><trkpt lat="43.46033754106273" lon="13.317705017006015"><ele>161.6</ele><time>2026-04-19T08:08:02Z</time></trkpt><trkpt lat="43.46024231233337" lon="13.31763853488264"><ele>162.0</ele><time>2026-04-19T08:08:03Z</time></trkpt><trkpt lat="43.4601408477092" lon="13.31756378945348"><ele>162.0</ele><time>2026-04-19T08:08:04Z</time></trkpt><trkpt lat="43.46003889364104" lon="13.317496518306454"><ele>162.0</ele><time>2026-04-19T08:08:05Z</time></trkpt><trkpt lat="43.45994878616697" lon="13.317399478142248"><ele>162.0</ele><time>2026-04-19T08:08:06Z</time></trkpt><trkpt lat="43.45986632078067" lon="13.317297737214508"><ele>162.0</ele><time>2026-04-19T08:08:07Z</time></trkpt><trkpt lat="43.45979910175229" lon="13.317194709333219"><ele>162.0</ele><time>2026-04-19T08:08:08Z</time></trkpt><trkpt lat="43.459744034269576" lon="13.317085062591529"><ele>161.0</ele><time>2026-04-19T08:08:09Z</time></trkpt><trkpt lat="43.45969305141115" lon="13.316968348775077"><ele>160.0</ele><time>2026-04-19T08:08:10Z</time></trkpt><trkpt lat="43.45970284593754" lon="13.316818918376338"><ele>159.0</ele><time>2026-04-19T08:08:11Z</time></trkpt><trkpt lat="43.459700077520544" lon="13.31666305546775"><ele>158.0</ele><time>2026-04-19T08:08:12Z</time></trkpt><trkpt lat="43.45971089863348" lon="13.316503918643834"><ele>157.0</ele><time>2026-04-19T08:08:13Z</time></trkpt><trkpt lat="43.45971515905081" lon="13.316339625845197"><ele>158.25</ele><time>2026-04-19T08:08:14Z</time></trkpt><trkpt lat="43.45969377567872" lon="13.316173373801085"><ele>159.5</ele><time>2026-04-19T08:08:15Z</time></trkpt><trkpt lat="43.459662190650064" lon="13.316009140170248"><ele>160.75</ele><time>2026-04-19T08:08:16Z</time></trkpt><trkpt lat="43.45961394229927" lon="13.315848545574172"><ele>162.0</ele><time>2026-04-19T08:08:17Z</time></trkpt><trkpt lat="43.45955928193241" lon="13.31570264040735"><ele>162.0</ele><time>2026-04-19T08:08:18Z</time></trkpt><trkpt lat="43.459496587562825" lon="13.315585887986947"><ele>162.0</ele><time>2026-04-19T08:08:19Z</time></trkpt><trkpt lat="43.45943458961624" lon="13.315491267582727"><ele>162.0</ele><time>2026-04-19T08:08:20Z</time></trkpt><trkpt lat="43.45936547974381" lon="13.315412585325417"><ele>162.0</ele><time>2026-04-19T08:08:21Z</time></trkpt><trkpt lat="43.45930078236509" lon="13.31534413501272"><ele>162.0</ele><time>2026-04-19T08:08:22Z</time></trkpt><trkpt lat="43.45922850246944" lon="13.315256441131712"><ele>162.6</ele><time>2026-04-19T08:08:24Z</time></trkpt><trkpt lat="43.45917964570764" lon="13.31515715783947"><ele>163.2</ele><time>2026-04-19T08:08:41.001Z</time></trkpt><trkpt lat="43.459130930868284" lon="13.315027591036525"><ele>163.8</ele><time>2026-04-19T08:08:43.001Z</time></trkpt><trkpt lat="43.45918692260243" lon="13.314891632677876"><ele>164.4</ele><time>2026-04-19T08:08:44.001Z</time></trkpt><trkpt lat="43.45920183068982" lon="13.314787219853406"><ele>165.0</ele><time>2026-04-19T08:08:45.001Z</time></trkpt><trkpt lat="43.45921886200332" lon="13.314681699086606"><ele>165.5</ele><time>2026-04-19T08:08:46.001Z</time></trkpt><trkpt lat="43.459236240672645" lon="13.314574320110472"><ele>166.0</ele><time>2026-04-19T08:08:47.001Z</time></trkpt><trkpt lat="43.45926326651765" lon="13.314468055852835"><ele>166.5</ele><time>2026-04-19T08:08:48.001Z</time></trkpt><trkpt lat="43.45928468039829" lon="13.314378509229869"><ele>167.0</ele><time>2026-04-19T08:08:49.001Z</time></trkpt><trkpt lat="43.45932977390573" lon="13.314258889806696"><ele>167.5</ele><time>2026-04-19T08:08:51.001Z</time></trkpt><trkpt lat="43.459297339597235" lon="13.314379068202433"><ele>168.0</ele><time>2026-04-19T08:09:03.001Z</time></trkpt><trkpt lat="43.45925970301524" lon="13.314527606259118"><ele>168.0</ele><time>2026-04-19T08:09:05.001Z</time></trkpt><trkpt lat="43.45921924691095" lon="13.314695065001217"><ele>168.0</ele><time>2026-04-19T08:09:07.001Z</time></trkpt><trkpt lat="43.45916533628558" lon="13.314845905089694"><ele>168.0</ele><time>2026-04-19T08:09:09.001Z</time></trkpt><trkpt lat="43.45911436984399" lon="13.314943437698444"><ele>168.0</ele><time>2026-04-19T08:09:11.001Z</time></trkpt><trkpt lat="43.459027725385894" lon="13.314939051770565"><ele>168.0</ele><time>2026-04-19T08:09:13.001Z</time></trkpt><trkpt lat="43.45896596839348" lon="13.31487921895216"><ele>168.0</ele><time>2026-04-19T08:09:14.001Z</time></trkpt><trkpt lat="43.45891540322432" lon="13.314800462809963"><ele>168.0</ele><time>2026-04-19T08:09:15.001Z</time></trkpt><trkpt lat="43.458862324119636" lon="13.314722824211097"><ele>168.0</ele><time>2026-04-19T08:09:16.001Z</time></trkpt><trkpt lat="43.458807413045946" lon="13.314628818840383"><ele>168.0</ele><time>2026-04-19T08:09:17.001Z</time></trkpt><trkpt lat="43.45874937017605" lon="13.314529792430285"><ele>168.0</ele><time>2026-04-19T08:09:18.001Z</time></trkpt><trkpt lat="43.45868836406201" lon="13.314417140014871"><ele>168.0</ele><time>2026-04-19T08:09:19.001Z</time></trkpt><trkpt lat="43.4586301783854" lon="13.314302144267081"><ele>169.2</ele><time>2026-04-19T08:09:20.001Z</time></trkpt><trkpt lat="43.45857826481831" lon="13.314183703469096"><ele>170.4</ele><time>2026-04-19T08:09:21.001Z</time></trkpt><trkpt lat="43.45852408398111" lon="13.314060983057635"><ele>171.6</ele><time>2026-04-19T08:09:22.001Z</time></trkpt><trkpt lat="43.45847270733403" lon="13.313938237131136"><ele>172.79999999999998</ele><time>2026-04-19T08:09:23.001Z</time></trkpt><trkpt lat="43.45841776486265" lon="13.313806396698208"><ele>174.0</ele><time>2026-04-19T08:09:24.001Z</time></trkpt><trkpt lat="43.45837433268782" lon="13.31366528308551"><ele>175.25</ele><time>2026-04-19T08:09:25.001Z</time></trkpt><trkpt lat="43.45833620307456" lon="13.31352133458764"><ele>176.5</ele><time>2026-04-19T08:09:26.001Z</time></trkpt><trkpt lat="43.45829166319862" lon="13.31337271363924"><ele>177.75</ele><time>2026-04-19T08:09:27.001Z</time></trkpt><trkpt lat="43.4582480804866" lon="13.313226857485384"><ele>179.0</ele><time>2026-04-19T08:09:28.001Z</time></trkpt><trkpt lat="43.4582083170325" lon="13.31307447872549"><ele>180.5</ele><time>2026-04-19T08:09:29.001Z</time></trkpt><trkpt lat="43.45817398857389" lon="13.312918094248076"><ele>182.0</ele><time>2026-04-19T08:09:30.001Z</time></trkpt><trkpt lat="43.45814433199733" lon="13.312754825361898"><ele>183.5</ele><time>2026-04-19T08:09:31.001Z</time></trkpt><trkpt lat="43.45811371614821" lon="13.312591658172188"><ele>185.0</ele><time>2026-04-19T08:09:32.001Z</time></trkpt><trkpt lat="43.458079772859406" lon="13.312425068503188"><ele>185.0</ele><time>2026-04-19T08:09:33.001Z</time></trkpt><trkpt lat="43.45804168881794" lon="13.312258493170841"><ele>185.0</ele><time>2026-04-19T08:09:34.001Z</time></trkpt><trkpt lat="43.45799898059018" lon="13.31209232314837"><ele>185.0</ele><time>2026-04-19T08:09:35.001Z</time></trkpt><trkpt lat="43.45795560103301" lon="13.31193274314339"><ele>185.0</ele><time>2026-04-19T08:09:36.001Z</time></trkpt><trkpt lat="43.45790536716197" lon="13.311770393887093"><ele>188.0</ele><time>2026-04-19T08:09:37.001Z</time></trkpt><trkpt lat="43.45784586704047" lon="13.311602357162297"><ele>191.0</ele><time>2026-04-19T08:09:38.001Z</time></trkpt><trkpt lat="43.45777393846127" lon="13.31143638688418"><ele>194.0</ele><time>2026-04-19T08:09:39.001Z</time></trkpt><trkpt lat="43.457693213125296" lon="13.311279816852931"><ele>197.0</ele><time>2026-04-19T08:09:40.001Z</time></trkpt><trkpt lat="43.45761259740651" lon="13.311124504054439"><ele>197.5</ele><time>2026-04-19T08:09:41.001Z</time></trkpt><trkpt lat="43.45753811529511" lon="13.310974387026857"><ele>198.0</ele><time>2026-04-19T08:09:42.001Z</time></trkpt><trkpt lat="43.45746272056638" lon="13.310815343631058"><ele>198.5</ele><time>2026-04-19T08:09:43.001Z</time></trkpt><trkpt lat="43.4573817247395" lon="13.310652480423949"><ele>199.0</ele><time>2026-04-19T08:09:44.001Z</time></trkpt><trkpt lat="43.457295833178264" lon="13.310478988740542"><ele>198.5</ele><time>2026-04-19T08:09:45.001Z</time></trkpt><trkpt lat="43.45723039707781" lon="13.310296473012249"><ele>198.0</ele><time>2026-04-19T08:09:46.001Z</time></trkpt><trkpt lat="43.45715352034506" lon="13.310113732277875"><ele>197.5</ele><time>2026-04-19T08:09:47.001Z</time></trkpt><trkpt lat="43.45708735162944" lon="13.309934133741862"><ele>197.0</ele><time>2026-04-19T08:09:48.002Z</time></trkpt><trkpt lat="43.45702544449782" lon="13.309756908094725"><ele>199.0</ele><time>2026-04-19T08:09:49.002Z</time></trkpt><trkpt lat="43.45695368804995" lon="13.309594259555485"><ele>201.0</ele><time>2026-04-19T08:09:50.002Z</time></trkpt><trkpt lat="43.45690211319314" lon="13.309415734721531"><ele>203.0</ele><time>2026-04-19T08:09:51.002Z</time></trkpt><trkpt lat="43.45685129690017" lon="13.309241881569939"><ele>205.0</ele><time>2026-04-19T08:09:52.002Z</time></trkpt><trkpt lat="43.45679729999034" lon="13.309071411934895"><ele>206.0</ele><time>2026-04-19T08:09:53Z</time></trkpt><trkpt lat="43.456746221246185" lon="13.30890857276891"><ele>207.0</ele><time>2026-04-19T08:09:54Z</time></trkpt><trkpt lat="43.45671231377688" lon="13.308731433853357"><ele>208.0</ele><time>2026-04-19T08:09:55Z</time></trkpt><trkpt lat="43.456701316530854" lon="13.3085505256"><ele>209.0</ele><time>2026-04-19T08:09:56Z</time></trkpt><trkpt lat="43.45669863090915" lon="13.30836196087168"><ele>209.0</ele><time>2026-04-19T08:09:57Z</time></trkpt><trkpt lat="43.456704254985496" lon="13.308174792538294"><ele>209.0</ele><time>2026-04-19T08:09:58Z</time></trkpt><trkpt lat="43.45670331650776" lon="13.307990701397454"><ele>209.0</ele><time>2026-04-19T08:09:59Z</time></trkpt><trkpt lat="43.456694402897384" lon="13.307808039212295"><ele>209.0</ele><time>2026-04-19T08:10:00Z</time></trkpt><trkpt lat="43.45667310830619" lon="13.307617293037815"><ele>209.33333333333334</ele><time>2026-04-19T08:10:01Z</time></trkpt><trkpt lat="43.45664302846488" lon="13.307404581113024"><ele>209.66666666666669</ele><time>2026-04-19T08:10:02Z</time></trkpt><trkpt lat="43.456619796231934" lon="13.307205130105087"><ele>210.0</ele><time>2026-04-19T08:10:03Z</time></trkpt><trkpt lat="43.456593298816415" lon="13.306988669327362"><ele>210.0</ele><time>2026-04-19T08:10:04Z</time></trkpt><trkpt lat="43.456565895307534" lon="13.306786235242775"><ele>210.0</ele><time>2026-04-19T08:10:05Z</time></trkpt><trkpt lat="43.45653652773077" lon="13.30658126587735"><ele>210.0</ele><time>2026-04-19T08:10:06Z</time></trkpt><trkpt lat="43.45651011828628" lon="13.306378030761184"><ele>209.0</ele><time>2026-04-19T08:10:07Z</time></trkpt><trkpt lat="43.45648546398943" lon="13.30619095811795"><ele>208.0</ele><time>2026-04-19T08:10:08Z</time></trkpt><trkpt lat="43.45645922614913" lon="13.305982866521672"><ele>207.0</ele><time>2026-04-19T08:10:09Z</time></trkpt><trkpt lat="43.45643618661278" lon="13.305784636766848"><ele>206.0</ele><time>2026-04-19T08:10:10Z</time></trkpt><trkpt lat="43.456414459259385" lon="13.305592450052407"><ele>203.75</ele><time>2026-04-19T08:10:11Z</time></trkpt><trkpt lat="43.456395603730904" lon="13.305395352523682"><ele>201.5</ele><time>2026-04-19T08:10:12Z</time></trkpt><trkpt lat="43.45637133244376" lon="13.30520290569301"><ele>199.25</ele><time>2026-04-19T08:10:13Z</time></trkpt><trkpt lat="43.45633985973451" lon="13.30501522581442"><ele>197.0</ele><time>2026-04-19T08:10:14Z</time></trkpt><trkpt lat="43.45629230783473" lon="13.304817625048862"><ele>197.66666666666669</ele><time>2026-04-19T08:10:15Z</time></trkpt><trkpt lat="43.45623553717865" lon="13.304623693291463"><ele>198.33333333333331</ele><time>2026-04-19T08:10:16Z</time></trkpt><trkpt lat="43.456172847923824" lon="13.304434516345328"><ele>199.0</ele><time>2026-04-19T08:10:17Z</time></trkpt><trkpt lat="43.45610980881476" lon="13.304240293455626"><ele>199.0</ele><time>2026-04-19T08:10:18Z</time></trkpt><trkpt lat="43.4560479092326" lon="13.304042910469516"><ele>199.0</ele><time>2026-04-19T08:10:19Z</time></trkpt><trkpt lat="43.455986057020986" lon="13.303841554657218"><ele>199.0</ele><time>2026-04-19T08:10:20Z</time></trkpt><trkpt lat="43.45591958968599" lon="13.303631740827173"><ele>198.33333333333331</ele><time>2026-04-19T08:10:21Z</time></trkpt><trkpt lat="43.45585835247121" lon="13.303428700610821"><ele>197.66666666666669</ele><time>2026-04-19T08:10:22Z</time></trkpt><trkpt lat="43.455796052747644" lon="13.303245320581633"><ele>197.0</ele><time>2026-04-19T08:10:23Z</time></trkpt><trkpt lat="43.45573431095431" lon="13.30306465000359"><ele>196.5</ele><time>2026-04-19T08:10:24Z</time></trkpt><trkpt lat="43.455674076231986" lon="13.302880198401418"><ele>196.0</ele><time>2026-04-19T08:10:25Z</time></trkpt><trkpt lat="43.455613462625294" lon="13.302695977193485"><ele>195.5</ele><time>2026-04-19T08:10:26Z</time></trkpt><trkpt lat="43.45555950869569" lon="13.30251989439492"><ele>195.0</ele><time>2026-04-19T08:10:27Z</time></trkpt><trkpt lat="43.455509508421876" lon="13.302346615631935"><ele>194.5</ele><time>2026-04-19T08:10:28Z</time></trkpt><trkpt lat="43.455455986506394" lon="13.30216566197582"><ele>194.0</ele><time>2026-04-19T08:10:29Z</time></trkpt><trkpt lat="43.45540514339876" lon="13.301971279536678"><ele>193.5</ele><time>2026-04-19T08:10:30Z</time></trkpt><trkpt lat="43.45536436600985" lon="13.301776431462923"><ele>193.0</ele><time>2026-04-19T08:10:31Z</time></trkpt><trkpt lat="43.45533504572685" lon="13.301584660122911"><ele>197.0</ele><time>2026-04-19T08:10:32Z</time></trkpt><trkpt lat="43.455311251571636" lon="13.301394552962764"><ele>201.0</ele><time>2026-04-19T08:10:33Z</time></trkpt><trkpt lat="43.455280668699274" lon="13.301202768141316"><ele>205.0</ele><time>2026-04-19T08:10:34Z</time></trkpt><trkpt lat="43.455253356108386" lon="13.301018611109935"><ele>209.0</ele><time>2026-04-19T08:10:35Z</time></trkpt><trkpt lat="43.455230633468176" lon="13.300838057627843"><ele>209.0</ele><time>2026-04-19T08:10:36Z</time></trkpt><trkpt lat="43.455213681929116" lon="13.300669418213339"><ele>209.0</ele><time>2026-04-19T08:10:37Z</time></trkpt><trkpt lat="43.45520617900756" lon="13.300487461288938"><ele>209.0</ele><time>2026-04-19T08:10:38Z</time></trkpt><trkpt lat="43.45524115429992" lon="13.300313801468892"><ele>209.0</ele><time>2026-04-19T08:10:39Z</time></trkpt><trkpt lat="43.45527738431207" lon="13.300142486479531"><ele>209.0</ele><time>2026-04-19T08:10:40Z</time></trkpt><trkpt lat="43.45528579832815" lon="13.299950695334081"><ele>209.0</ele><time>2026-04-19T08:10:41Z</time></trkpt><trkpt lat="43.45530566275427" lon="13.299767296678851"><ele>209.0</ele><time>2026-04-19T08:10:42Z</time></trkpt><trkpt lat="43.455314835267984" lon="13.299574393321437"><ele>209.0</ele><time>2026-04-19T08:10:43.001Z</time></trkpt><trkpt lat="43.45531929786437" lon="13.299393407098286"><ele>209.25</ele><time>2026-04-19T08:10:44.001Z</time></trkpt><trkpt lat="43.455334889961684" lon="13.299199568635236"><ele>209.5</ele><time>2026-04-19T08:10:45.001Z</time></trkpt><trkpt lat="43.455345045533164" lon="13.298983406057658"><ele>209.75</ele><time>2026-04-19T08:10:46.001Z</time></trkpt><trkpt lat="43.45535519183827" lon="13.298779446990757"><ele>210.0</ele><time>2026-04-19T08:10:47.001Z</time></trkpt><trkpt lat="43.4553580926147" lon="13.298590531503274"><ele>210.0</ele><time>2026-04-19T08:10:48.001Z</time></trkpt><trkpt lat="43.45535277104126" lon="13.29840785723575"><ele>210.0</ele><time>2026-04-19T08:10:49.001Z</time></trkpt><trkpt lat="43.45533803056244" lon="13.298214572634556"><ele>210.0</ele><time>2026-04-19T08:10:50.001Z</time></trkpt><trkpt lat="43.45532234331924" lon="13.298030047625666"><ele>210.0</ele><time>2026-04-19T08:10:51.001Z</time></trkpt><trkpt lat="43.455307559210034" lon="13.297840499088224"><ele>210.0</ele><time>2026-04-19T08:10:52.001Z</time></trkpt><trkpt lat="43.455294357901245" lon="13.29764758895745"><ele>210.0</ele><time>2026-04-19T08:10:53.001Z</time></trkpt><trkpt lat="43.455275737324214" lon="13.297442451220048"><ele>210.0</ele><time>2026-04-19T08:10:54.001Z</time></trkpt><trkpt lat="43.45525709942795" lon="13.297244825625476"><ele>210.0</ele><time>2026-04-19T08:10:55.001Z</time></trkpt><trkpt lat="43.455241001852784" lon="13.297038222594956"><ele>209.25</ele><time>2026-04-19T08:10:56.001Z</time></trkpt><trkpt lat="43.45522618682055" lon="13.29684181303926"><ele>208.5</ele><time>2026-04-19T08:10:57.001Z</time></trkpt><trkpt lat="43.45522021615057" lon="13.296638074542008"><ele>207.75</ele><time>2026-04-19T08:10:58.001Z</time></trkpt><trkpt lat="43.45521505322684" lon="13.296437293772275"><ele>207.0</ele><time>2026-04-19T08:10:59.001Z</time></trkpt><trkpt lat="43.45521261396451" lon="13.296251822792607"><ele>207.0</ele><time>2026-04-19T08:11:00.001Z</time></trkpt><trkpt lat="43.455203943877436" lon="13.296085743979912"><ele>207.0</ele><time>2026-04-19T08:11:01.001Z</time></trkpt><trkpt lat="43.455183220658824" lon="13.295929233023134"><ele>207.0</ele><time>2026-04-19T08:11:02.001Z</time></trkpt><trkpt lat="43.45515348835429" lon="13.295767486790902"><ele>207.0</ele><time>2026-04-19T08:11:03.001Z</time></trkpt><trkpt lat="43.455102236334795" lon="13.295621908529696"><ele>205.75</ele><time>2026-04-19T08:11:04.001Z</time></trkpt><trkpt lat="43.4550269406302" lon="13.295476814590131"><ele>204.5</ele><time>2026-04-19T08:11:05.001Z</time></trkpt><trkpt lat="43.454935796293654" lon="13.295337163073059"><ele>203.25</ele><time>2026-04-19T08:11:06.001Z</time></trkpt><trkpt lat="43.454836633671846" lon="13.2952010097707"><ele>202.0</ele><time>2026-04-19T08:11:07.001Z</time></trkpt><trkpt lat="43.45472984078215" lon="13.295054530319804"><ele>202.0</ele><time>2026-04-19T08:11:08.001Z</time></trkpt><trkpt lat="43.45462356905628" lon="13.294895881171433"><ele>202.0</ele><time>2026-04-19T08:11:09.001Z</time></trkpt><trkpt lat="43.4545196194724" lon="13.294747996258753"><ele>202.0</ele><time>2026-04-19T08:11:10.001Z</time></trkpt><trkpt lat="43.45441573967823" lon="13.294595430904536"><ele>203.75</ele><time>2026-04-19T08:11:11.001Z</time></trkpt><trkpt lat="43.45431531002964" lon="13.294443946502273"><ele>205.5</ele><time>2026-04-19T08:11:12.001Z</time></trkpt><trkpt lat="43.45421205689826" lon="13.294303860564776"><ele>207.25</ele><time>2026-04-19T08:11:13.001Z</time></trkpt><trkpt lat="43.45410428564709" lon="13.29415273367815"><ele>209.0</ele><time>2026-04-19T08:11:14.001Z</time></trkpt><trkpt lat="43.453996979188716" lon="13.293994244111563"><ele>208.75</ele><time>2026-04-19T08:11:15.001Z</time></trkpt><trkpt lat="43.453900886780296" lon="13.293842899147705"><ele>208.5</ele><time>2026-04-19T08:11:16.001Z</time></trkpt><trkpt lat="43.45379561016652" lon="13.293685951279425"><ele>208.25</ele><time>2026-04-19T08:11:17.001Z</time></trkpt><trkpt lat="43.453696392123156" lon="13.293534905537204"><ele>208.0</ele><time>2026-04-19T08:11:18.001Z</time></trkpt><trkpt lat="43.45359790434511" lon="13.293397347937898"><ele>209.0</ele><time>2026-04-19T08:11:19.001Z</time></trkpt><trkpt lat="43.45350215257108" lon="13.293267174790422"><ele>210.0</ele><time>2026-04-19T08:11:20.001Z</time></trkpt><trkpt lat="43.45339403713089" lon="13.293129378115047"><ele>211.0</ele><time>2026-04-19T08:11:21.001Z</time></trkpt><trkpt lat="43.45328270172759" lon="13.292989617708354"><ele>212.0</ele><time>2026-04-19T08:11:22.001Z</time></trkpt><trkpt lat="43.453171192083424" lon="13.292862890249433"><ele>212.5</ele><time>2026-04-19T08:11:23.001Z</time></trkpt><trkpt lat="43.453054369571404" lon="13.292742544305232"><ele>213.0</ele><time>2026-04-19T08:11:24.001Z</time></trkpt><trkpt lat="43.45293692783314" lon="13.292629593473587"><ele>213.5</ele><time>2026-04-19T08:11:25.001Z</time></trkpt><trkpt lat="43.452823141622716" lon="13.29251683091308"><ele>214.0</ele><time>2026-04-19T08:11:26.001Z</time></trkpt><trkpt lat="43.452714321471916" lon="13.292403185223217"><ele>214.25</ele><time>2026-04-19T08:11:27.001Z</time></trkpt><trkpt lat="43.45260950650459" lon="13.29229015518214"><ele>214.5</ele><time>2026-04-19T08:11:28.001Z</time></trkpt><trkpt lat="43.452495717759824" lon="13.292166066134143"><ele>214.75</ele><time>2026-04-19T08:11:29.001Z</time></trkpt><trkpt lat="43.452383321520834" lon="13.292040032228476"><ele>215.0</ele><time>2026-04-19T08:11:30.001Z</time></trkpt><trkpt lat="43.45226522329393" lon="13.291910447175379"><ele>215.75</ele><time>2026-04-19T08:11:31.001Z</time></trkpt><trkpt lat="43.45215160763469" lon="13.291781145502265"><ele>216.5</ele><time>2026-04-19T08:11:32.001Z</time></trkpt><trkpt lat="43.45204340959097" lon="13.291664580164504"><ele>217.25</ele><time>2026-04-19T08:11:33.001Z</time></trkpt><trkpt lat="43.45193526497036" lon="13.291547949332658"><ele>218.0</ele><time>2026-04-19T08:11:34.001Z</time></trkpt><trkpt lat="43.45181902736344" lon="13.29145163453688"><ele>220.25</ele><time>2026-04-19T08:11:35.001Z</time></trkpt><trkpt lat="43.45168847002475" lon="13.29138133888031"><ele>222.5</ele><time>2026-04-19T08:11:36.001Z</time></trkpt><trkpt lat="43.45155741646721" lon="13.291334137887178"><ele>224.75</ele><time>2026-04-19T08:11:37.001Z</time></trkpt><trkpt lat="43.451424082262974" lon="13.29129804273766"><ele>227.0</ele><time>2026-04-19T08:11:38.001Z</time></trkpt><trkpt lat="43.45131490175027" lon="13.29125023938523"><ele>227.0</ele><time>2026-04-19T08:11:39.001Z</time></trkpt><trkpt lat="43.451209107084786" lon="13.291172072518497"><ele>227.0</ele><time>2026-04-19T08:11:40.001Z</time></trkpt><trkpt lat="43.45112488880148" lon="13.291047908294544"><ele>227.0</ele><time>2026-04-19T08:11:41.001Z</time></trkpt><trkpt lat="43.4510272209996" lon="13.290925449171505"><ele>227.0</ele><time>2026-04-19T08:11:42.001Z</time></trkpt><trkpt lat="43.450946784104936" lon="13.290784872178847"><ele>227.0</ele><time>2026-04-19T08:11:43.001Z</time></trkpt><trkpt lat="43.45085502791757" lon="13.29064099071264"><ele>227.0</ele><time>2026-04-19T08:11:44.001Z</time></trkpt><trkpt lat="43.45077135451955" lon="13.290512248694434"><ele>227.0</ele><time>2026-04-19T08:11:45.001Z</time></trkpt><trkpt lat="43.45068156886611" lon="13.290378168065239"><ele>227.0</ele><time>2026-04-19T08:11:46.002Z</time></trkpt><trkpt lat="43.45059316683799" lon="13.290257851829994"><ele>227.0</ele><time>2026-04-19T08:11:47.002Z</time></trkpt><trkpt lat="43.45049765881701" lon="13.290164486416348"><ele>227.0</ele><time>2026-04-19T08:11:48.002Z</time></trkpt><trkpt lat="43.45040353295416" lon="13.290073204855132"><ele>227.0</ele><time>2026-04-19T08:11:49.002Z</time></trkpt><trkpt lat="43.45030268900646" lon="13.289992760126754"><ele>227.0</ele><time>2026-04-19T08:11:50.002Z</time></trkpt><trkpt lat="43.450208627042315" lon="13.289935732675376"><ele>227.0</ele><time>2026-04-19T08:11:51.002Z</time></trkpt><trkpt lat="43.45012054095394" lon="13.289896171514197"><ele>227.0</ele><time>2026-04-19T08:11:52.002Z</time></trkpt><trkpt lat="43.45004179278505" lon="13.289860847183435"><ele>227.0</ele><time>2026-04-19T08:11:53.002Z</time></trkpt><trkpt lat="43.44997799397702" lon="13.289831412218481"><ele>227.0</ele><time>2026-04-19T08:11:54.002Z</time></trkpt><trkpt lat="43.4499155293878" lon="13.289781558063929"><ele>227.0</ele><time>2026-04-19T08:11:56.002Z</time></trkpt><trkpt lat="43.44989882671802" lon="13.289574033620445"><ele>227.6</ele><time>2026-04-19T08:12:01Z</time></trkpt><trkpt lat="43.45000931552047" lon="13.289645990991973"><ele>228.2</ele><time>2026-04-19T08:12:02Z</time></trkpt><trkpt lat="43.450084398935225" lon="13.289645927357562"><ele>228.8</ele><time>2026-04-19T08:12:03Z</time></trkpt><trkpt lat="43.45016120633282" lon="13.289635576095701"><ele>229.4</ele><time>2026-04-19T08:12:04Z</time></trkpt><trkpt lat="43.45025001678079" lon="13.289603036432466"><ele>230.0</ele><time>2026-04-19T08:12:05Z</time></trkpt><trkpt lat="43.45034503893698" lon="13.289565286625338"><ele>230.0</ele><time>2026-04-19T08:12:06Z</time></trkpt><trkpt lat="43.450454360306104" lon="13.289543215823098"><ele>230.0</ele><time>2026-04-19T08:12:07Z</time></trkpt><trkpt lat="43.45057466560775" lon="13.289503794269711"><ele>230.0</ele><time>2026-04-19T08:12:08Z</time></trkpt><trkpt lat="43.45068726554709" lon="13.289446709523258"><ele>230.0</ele><time>2026-04-19T08:12:09Z</time></trkpt><trkpt lat="43.450805490777164" lon="13.28943056020956"><ele>228.2</ele><time>2026-04-19T08:12:10Z</time></trkpt><trkpt lat="43.450914440345656" lon="13.28939036325607"><ele>226.4</ele><time>2026-04-19T08:12:11Z</time></trkpt><trkpt lat="43.45100916997898" lon="13.289335302194372"><ele>224.60000000000002</ele><time>2026-04-19T08:12:12Z</time></trkpt><trkpt lat="43.45111594496561" lon="13.289296437758786"><ele>222.8</ele><time>2026-04-19T08:12:13Z</time></trkpt><trkpt lat="43.451218472337985" lon="13.28926774876918"><ele>221.0</ele><time>2026-04-19T08:12:14Z</time></trkpt><trkpt lat="43.45132095449866" lon="13.28924155396866"><ele>218.8</ele><time>2026-04-19T08:12:15Z</time></trkpt><trkpt lat="43.45140898089685" lon="13.289217200508764"><ele>216.60000000000002</ele><time>2026-04-19T08:12:16Z</time></trkpt><trkpt lat="43.45150334814555" lon="13.289196608022177"><ele>214.4</ele><time>2026-04-19T08:12:17Z</time></trkpt><trkpt lat="43.45159934313228" lon="13.289169880326236"><ele>212.2</ele><time>2026-04-19T08:12:18Z</time></trkpt><trkpt lat="43.45170125235618" lon="13.289137958385204"><ele>210.0</ele><time>2026-04-19T08:12:19Z</time></trkpt><trkpt lat="43.451808538247676" lon="13.289106743050931"><ele>210.0</ele><time>2026-04-19T08:12:20Z</time></trkpt><trkpt lat="43.4519095223058" lon="13.28905549855849"><ele>210.0</ele><time>2026-04-19T08:12:21Z</time></trkpt><trkpt lat="43.45200310097753" lon="13.288997679525199"><ele>210.0</ele><time>2026-04-19T08:12:22Z</time></trkpt><trkpt lat="43.452103089370446" lon="13.288938184904268"><ele>210.0</ele><time>2026-04-19T08:12:23Z</time></trkpt><trkpt lat="43.45221679535787" lon="13.288882995576824"><ele>210.0</ele><time>2026-04-19T08:12:24Z</time></trkpt><trkpt lat="43.45232271819728" lon="13.288819917739323"><ele>205.6</ele><time>2026-04-19T08:12:25Z</time></trkpt><trkpt lat="43.45242880975707" lon="13.288766505847335"><ele>201.2</ele><time>2026-04-19T08:12:26Z</time></trkpt><trkpt lat="43.45252047341441" lon="13.28871631686057"><ele>196.8</ele><time>2026-04-19T08:12:27Z</time></trkpt><trkpt lat="43.4526160354497" lon="13.28866400865158"><ele>192.4</ele><time>2026-04-19T08:12:28Z</time></trkpt><trkpt lat="43.45271472366533" lon="13.288612585021562"><ele>188.0</ele><time>2026-04-19T08:12:29Z</time></trkpt><trkpt lat="43.45283002306975" lon="13.288572748356188"><ele>188.0</ele><time>2026-04-19T08:12:30Z</time></trkpt><trkpt lat="43.452947618760504" lon="13.28854864949766"><ele>188.0</ele><time>2026-04-19T08:12:31Z</time></trkpt><trkpt lat="43.453068785305476" lon="13.288540504853183"><ele>188.0</ele><time>2026-04-19T08:12:32Z</time></trkpt><trkpt lat="43.45318858641245" lon="13.288549784530131"><ele>188.0</ele><time>2026-04-19T08:12:33Z</time></trkpt><trkpt lat="43.45329850972268" lon="13.288569212955142"><ele>185.8</ele><time>2026-04-19T08:12:34Z</time></trkpt><trkpt lat="43.453391899619405" lon="13.28859850120287"><ele>183.60000000000002</ele><time>2026-04-19T08:12:35Z</time></trkpt><trkpt lat="43.45348683435459" lon="13.288634815899627"><ele>181.39999999999998</ele><time>2026-04-19T08:12:36Z</time></trkpt><trkpt lat="43.453577542569484" lon="13.288667633757873"><ele>179.2</ele><time>2026-04-19T08:12:37Z</time></trkpt><trkpt lat="43.45366797872761" lon="13.288695116961886"><ele>177.0</ele><time>2026-04-19T08:12:38Z</time></trkpt><trkpt lat="43.45374652518581" lon="13.288702173453247"><ele>176.0</ele><time>2026-04-19T08:12:39Z</time></trkpt><trkpt lat="43.4538299857046" lon="13.288679593687984"><ele>175.0</ele><time>2026-04-19T08:12:40Z</time></trkpt><trkpt lat="43.453920571548835" lon="13.288628828132909"><ele>174.0</ele><time>2026-04-19T08:12:41Z</time></trkpt><trkpt lat="43.454030572576265" lon="13.288557389258424"><ele>173.0</ele><time>2026-04-19T08:12:42Z</time></trkpt><trkpt lat="43.45415556743427" lon="13.288469507828008"><ele>172.0</ele><time>2026-04-19T08:12:43Z</time></trkpt><trkpt lat="43.45429174781307" lon="13.288391496739418"><ele>172.0</ele><time>2026-04-19T08:12:44Z</time></trkpt><trkpt lat="43.454409067906006" lon="13.288316853595436"><ele>172.0</ele><time>2026-04-19T08:12:45Z</time></trkpt><trkpt lat="43.454520525470485" lon="13.288250105691636"><ele>172.0</ele><time>2026-04-19T08:12:46Z</time></trkpt><trkpt lat="43.45462781423586" lon="13.288176427220161"><ele>172.0</ele><time>2026-04-19T08:12:47Z</time></trkpt><trkpt lat="43.45472775286433" lon="13.28808398015822"><ele>170.75</ele><time>2026-04-19T08:12:48Z</time></trkpt><trkpt lat="43.45482141950745" lon="13.28797413154209"><ele>169.5</ele><time>2026-04-19T08:12:49Z</time></trkpt><trkpt lat="43.45490882159121" lon="13.287847787910508"><ele>168.25</ele><time>2026-04-19T08:12:50Z</time></trkpt><trkpt lat="43.45499110100349" lon="13.287699139840994"><ele>167.0</ele><time>2026-04-19T08:12:51Z</time></trkpt><trkpt lat="43.455061271292706" lon="13.287535691447625"><ele>167.0</ele><time>2026-04-19T08:12:52.001Z</time></trkpt><trkpt lat="43.455129724017624" lon="13.287368404407362"><ele>167.0</ele><time>2026-04-19T08:12:53.001Z</time></trkpt><trkpt lat="43.455207782013716" lon="13.287225869283326"><ele>167.0</ele><time>2026-04-19T08:12:54.001Z</time></trkpt><trkpt lat="43.45527697900461" lon="13.28709622094721"><ele>167.0</ele><time>2026-04-19T08:12:55.001Z</time></trkpt><trkpt lat="43.45536863106857" lon="13.286984290493958"><ele>166.5</ele><time>2026-04-19T08:12:56.001Z</time></trkpt><trkpt lat="43.455471283564265" lon="13.286900859708059"><ele>166.0</ele><time>2026-04-19T08:12:57.001Z</time></trkpt><trkpt lat="43.455593678103355" lon="13.286816385570908"><ele>165.5</ele><time>2026-04-19T08:12:58.001Z</time></trkpt><trkpt lat="43.45572170364872" lon="13.286741412557326"><ele>165.0</ele><time>2026-04-19T08:12:59.001Z</time></trkpt><trkpt lat="43.45584882262853" lon="13.286678365922066"><ele>165.0</ele><time>2026-04-19T08:13:00.001Z</time></trkpt><trkpt lat="43.45596152089104" lon="13.286609267323415"><ele>165.0</ele><time>2026-04-19T08:13:01.001Z</time></trkpt><trkpt lat="43.45606902743193" lon="13.286558083737969"><ele>165.0</ele><time>2026-04-19T08:13:02.001Z</time></trkpt><trkpt lat="43.456167224706824" lon="13.286515907874088"><ele>165.0</ele><time>2026-04-19T08:13:03.001Z</time></trkpt><trkpt lat="43.45627936889025" lon="13.286485521874887"><ele>164.25</ele><time>2026-04-19T08:13:04.001Z</time></trkpt><trkpt lat="43.456403431913444" lon="13.2864728098355"><ele>163.5</ele><time>2026-04-19T08:13:05.001Z</time></trkpt><trkpt lat="43.456533453358034" lon="13.286462054453649"><ele>162.75</ele><time>2026-04-19T08:13:06.001Z</time></trkpt><trkpt lat="43.45666234457994" lon="13.286457481545153"><ele>162.0</ele><time>2026-04-19T08:13:07.001Z</time></trkpt><trkpt lat="43.456789461229" lon="13.286447147053293"><ele>162.0</ele><time>2026-04-19T08:13:08.001Z</time></trkpt><trkpt lat="43.45692013426701" lon="13.286430424557405"><ele>162.0</ele><time>2026-04-19T08:13:09.001Z</time></trkpt><trkpt lat="43.45703258570011" lon="13.28641493215898"><ele>162.0</ele><time>2026-04-19T08:13:10.001Z</time></trkpt><trkpt lat="43.45715037169886" lon="13.286385206660247"><ele>162.0</ele><time>2026-04-19T08:13:11.001Z</time></trkpt><trkpt lat="43.45725249368383" lon="13.286333384589506"><ele>160.5</ele><time>2026-04-19T08:13:12.001Z</time></trkpt><trkpt lat="43.45735303999081" lon="13.28626826367003"><ele>159.0</ele><time>2026-04-19T08:13:13.001Z</time></trkpt><trkpt lat="43.4574550201226" lon="13.286188814769114"><ele>157.5</ele><time>2026-04-19T08:13:14.001Z</time></trkpt><trkpt lat="43.45755808481607" lon="13.286121761914794"><ele>156.0</ele><time>2026-04-19T08:13:15.001Z</time></trkpt><trkpt lat="43.4576538370993" lon="13.286051262405932"><ele>156.0</ele><time>2026-04-19T08:13:16.001Z</time></trkpt><trkpt lat="43.45775991104033" lon="13.28599868354957"><ele>156.0</ele><time>2026-04-19T08:13:17.001Z</time></trkpt><trkpt lat="43.457859436870535" lon="13.28592929431042"><ele>156.0</ele><time>2026-04-19T08:13:18.001Z</time></trkpt><trkpt lat="43.45794508936794" lon="13.285862414980388"><ele>156.0</ele><time>2026-04-19T08:13:19.001Z</time></trkpt><trkpt lat="43.45800242688906" lon="13.285801689943153"><ele>156.0</ele><time>2026-04-19T08:13:20.001Z</time></trkpt><trkpt lat="43.45806763626787" lon="13.285741027195764"><ele>154.8</ele><time>2026-04-19T08:13:21.001Z</time></trkpt><trkpt lat="43.458128675612656" lon="13.285653740398132"><ele>153.6</ele><time>2026-04-19T08:13:22.001Z</time></trkpt><trkpt lat="43.45817481956192" lon="13.285548434675386"><ele>152.4</ele><time>2026-04-19T08:13:23.001Z</time></trkpt><trkpt lat="43.45821156373776" lon="13.285410192796586"><ele>151.2</ele><time>2026-04-19T08:13:24.001Z</time></trkpt><trkpt lat="43.458238622373564" lon="13.285274346496292"><ele>150.0</ele><time>2026-04-19T08:13:25.001Z</time></trkpt><trkpt lat="43.45824990264832" lon="13.285133799612234"><ele>150.0</ele><time>2026-04-19T08:13:26.001Z</time></trkpt><trkpt lat="43.45825149224312" lon="13.284977670686615"><ele>150.0</ele><time>2026-04-19T08:13:27.001Z</time></trkpt><trkpt lat="43.45824237865833" lon="13.284829777806491"><ele>150.0</ele><time>2026-04-19T08:13:28.001Z</time></trkpt><trkpt lat="43.45824325399976" lon="13.284660675859357"><ele>150.0</ele><time>2026-04-19T08:13:29.001Z</time></trkpt><trkpt lat="43.4582322358638" lon="13.284481842968592"><ele>150.5</ele><time>2026-04-19T08:13:30.001Z</time></trkpt><trkpt lat="43.458203323934995" lon="13.284300990347074"><ele>151.0</ele><time>2026-04-19T08:13:31.001Z</time></trkpt><trkpt lat="43.458194985702946" lon="13.284129716226548"><ele>151.5</ele><time>2026-04-19T08:13:32.001Z</time></trkpt><trkpt lat="43.45817418925411" lon="13.283956753144293"><ele>152.0</ele><time>2026-04-19T08:13:33.001Z</time></trkpt><trkpt lat="43.45816066144557" lon="13.283786404844786"><ele>152.0</ele><time>2026-04-19T08:13:34.001Z</time></trkpt><trkpt lat="43.458149028735875" lon="13.283630552308495"><ele>152.0</ele><time>2026-04-19T08:13:35.001Z</time></trkpt><trkpt lat="43.4581300682373" lon="13.28346324052642"><ele>152.0</ele><time>2026-04-19T08:13:36.001Z</time></trkpt><trkpt lat="43.45811564695414" lon="13.283280153908477"><ele>152.0</ele><time>2026-04-19T08:13:37.001Z</time></trkpt><trkpt lat="43.45809142838834" lon="13.283101637853719"><ele>151.6</ele><time>2026-04-19T08:13:38.001Z</time></trkpt><trkpt lat="43.458076787702346" lon="13.282935194909689"><ele>151.2</ele><time>2026-04-19T08:13:39.001Z</time></trkpt><trkpt lat="43.458083760306664" lon="13.282779903541194"><ele>150.8</ele><time>2026-04-19T08:13:40.001Z</time></trkpt><trkpt lat="43.45807033390126" lon="13.282634698730266"><ele>150.4</ele><time>2026-04-19T08:13:41.001Z</time></trkpt><trkpt lat="43.458089856771814" lon="13.28248947483683"><ele>150.0</ele><time>2026-04-19T08:13:42.001Z</time></trkpt><trkpt lat="43.458133000901924" lon="13.282335588656569"><ele>149.75</ele><time>2026-04-19T08:13:43.001Z</time></trkpt><trkpt lat="43.458205635792886" lon="13.282184035864974"><ele>149.5</ele><time>2026-04-19T08:13:44.001Z</time></trkpt><trkpt lat="43.458247726820346" lon="13.28202688498811"><ele>149.25</ele><time>2026-04-19T08:13:45.001Z</time></trkpt><trkpt lat="43.45830970778492" lon="13.281889727218307"><ele>149.0</ele><time>2026-04-19T08:13:46.001Z</time></trkpt><trkpt lat="43.45836495271534" lon="13.28177309148576"><ele>149.0</ele><time>2026-04-19T08:13:47.001Z</time></trkpt><trkpt lat="43.458441839448795" lon="13.281668790629908"><ele>149.0</ele><time>2026-04-19T08:13:48.001Z</time></trkpt><trkpt lat="43.45848980871558" lon="13.281553657833713"><ele>149.0</ele><time>2026-04-19T08:13:49.001Z</time></trkpt><trkpt lat="43.45854696423469" lon="13.281471064091013"><ele>149.0</ele><time>2026-04-19T08:13:50.001Z</time></trkpt><trkpt lat="43.45860289702401" lon="13.28140780383622"><ele>149.0</ele><time>2026-04-19T08:13:51.001Z</time></trkpt><trkpt lat="43.458670419086175" lon="13.28135616880176"><ele>149.0</ele><time>2026-04-19T08:13:52.001Z</time></trkpt><trkpt lat="43.458735205428816" lon="13.281334718033293"><ele>148.0</ele><time>2026-04-19T08:13:53.001Z</time></trkpt><trkpt lat="43.458810913720306" lon="13.28131821689368"><ele>147.0</ele><time>2026-04-19T08:13:54.002Z</time></trkpt><trkpt lat="43.45890127071051" lon="13.281302698696287"><ele>146.0</ele><time>2026-04-19T08:13:55.002Z</time></trkpt><trkpt lat="43.458997605256776" lon="13.281289902814382"><ele>145.0</ele><time>2026-04-19T08:13:56.002Z</time></trkpt><trkpt lat="43.45911554199436" lon="13.281277624160968"><ele>144.0</ele><time>2026-04-19T08:13:57.002Z</time></trkpt><trkpt lat="43.4592308733449" lon="13.281273213698302"><ele>144.0</ele><time>2026-04-19T08:13:58.002Z</time></trkpt><trkpt lat="43.459325665424295" lon="13.28124521115519"><ele>144.0</ele><time>2026-04-19T08:13:59.002Z</time></trkpt><trkpt lat="43.459433390029176" lon="13.28120945380284"><ele>144.0</ele><time>2026-04-19T08:14:00.002Z</time></trkpt><trkpt lat="43.45953033465432" lon="13.28115845243926"><ele>144.0</ele><time>2026-04-19T08:14:01.002Z</time></trkpt><trkpt lat="43.45962054771848" lon="13.281079784726616"><ele>144.0</ele><time>2026-04-19T08:14:02.002Z</time></trkpt><trkpt lat="43.45970492412697" lon="13.280986577046926"><ele>143.5</ele><time>2026-04-19T08:14:03.002Z</time></trkpt><trkpt lat="43.459787084223834" lon="13.280884020487658"><ele>143.0</ele><time>2026-04-19T08:14:04.002Z</time></trkpt><trkpt lat="43.45987332146928" lon="13.280778837313227"><ele>142.5</ele><time>2026-04-19T08:14:05Z</time></trkpt><trkpt lat="43.459963662168185" lon="13.280662716451982"><ele>142.0</ele><time>2026-04-19T08:14:06Z</time></trkpt><trkpt lat="43.460050482232056" lon="13.280546880118118"><ele>142.0</ele><time>2026-04-19T08:14:07Z</time></trkpt><trkpt lat="43.46015192108379" lon="13.280431945313133"><ele>142.0</ele><time>2026-04-19T08:14:08Z</time></trkpt><trkpt lat="43.46025775592036" lon="13.280321166865992"><ele>142.0</ele><time>2026-04-19T08:14:09Z</time></trkpt><trkpt lat="43.460361834063406" lon="13.280211140290058"><ele>142.0</ele><time>2026-04-19T08:14:10Z</time></trkpt><trkpt lat="43.4604594553425" lon="13.280103344509678"><ele>142.0</ele><time>2026-04-19T08:14:11Z</time></trkpt><trkpt lat="43.46054798298417" lon="13.280006686377128"><ele>142.0</ele><time>2026-04-19T08:14:12Z</time></trkpt><trkpt lat="43.46062918622154" lon="13.279918347506337"><ele>142.0</ele><time>2026-04-19T08:14:13Z</time></trkpt><trkpt lat="43.460703778665895" lon="13.279839530066791"><ele>142.0</ele><time>2026-04-19T08:14:14Z</time></trkpt><trkpt lat="43.46077073865143" lon="13.279762570588229"><ele>142.0</ele><time>2026-04-19T08:14:15Z</time></trkpt><trkpt lat="43.460807568762895" lon="13.279680683608705"><ele>142.5</ele><time>2026-04-19T08:14:16Z</time></trkpt><trkpt lat="43.46081756528287" lon="13.279586428715676"><ele>143.0</ele><time>2026-04-19T08:14:17Z</time></trkpt><trkpt lat="43.460796548328325" lon="13.279498823814038"><ele>143.5</ele><time>2026-04-19T08:14:18Z</time></trkpt><trkpt lat="43.46074725882258" lon="13.27941677078746"><ele>144.0</ele><time>2026-04-19T08:14:19Z</time></trkpt><trkpt lat="43.460678095896185" lon="13.27935561997136"><ele>144.5</ele><time>2026-04-19T08:14:20Z</time></trkpt><trkpt lat="43.460603156027325" lon="13.279278492596225"><ele>145.0</ele><time>2026-04-19T08:14:21Z</time></trkpt><trkpt lat="43.46051949045767" lon="13.279224466621315"><ele>145.0</ele><time>2026-04-19T08:14:22Z</time></trkpt><trkpt lat="43.460473750680414" lon="13.279115587894948"><ele>145.0</ele><time>2026-04-19T08:14:23Z</time></trkpt><trkpt lat="43.46042551590734" lon="13.279052542432547"><ele>145.0</ele><time>2026-04-19T08:14:24Z</time></trkpt><trkpt lat="43.46041906374715" lon="13.278952096751084"><ele>145.0</ele><time>2026-04-19T08:14:26Z</time></trkpt><trkpt lat="43.46047091502013" lon="13.278898939685762"><ele>145.0</ele><time>2026-04-19T08:14:28Z</time></trkpt><trkpt lat="43.46059970986804" lon="13.278856499367677"><ele>145.0</ele><time>2026-04-19T08:14:30Z</time></trkpt><trkpt lat="43.460672419406265" lon="13.278821399182208"><ele>145.6</ele><time>2026-04-19T08:14:31Z</time></trkpt><trkpt lat="43.46073089281028" lon="13.27877406353479"><ele>146.2</ele><time>2026-04-19T08:14:32Z</time></trkpt><trkpt lat="43.46079696087016" lon="13.278720961045332"><ele>146.8</ele><time>2026-04-19T08:14:33Z</time></trkpt><trkpt lat="43.460884019447846" lon="13.278638254871632"><ele>147.4</ele><time>2026-04-19T08:14:35Z</time></trkpt><trkpt lat="43.46095706147817" lon="13.27858624581948"><ele>148.0</ele><time>2026-04-19T08:14:37Z</time></trkpt><trkpt lat="43.46108602997044" lon="13.27864827883592"><ele>148.0</ele><time>2026-04-19T08:14:39Z</time></trkpt><trkpt lat="43.46119014520012" lon="13.27867101521787"><ele>148.0</ele><time>2026-04-19T08:14:40Z</time></trkpt><trkpt lat="43.46129227314481" lon="13.278706113990637"><ele>148.0</ele><time>2026-04-19T08:14:41Z</time></trkpt><trkpt lat="43.461398338076904" lon="13.27873036184801"><ele>148.0</ele><time>2026-04-19T08:14:42Z</time></trkpt><trkpt lat="43.461511003451214" lon="13.278737599784241"><ele>148.0</ele><time>2026-04-19T08:14:43Z</time></trkpt><trkpt lat="43.4616186674455" lon="13.278706380774123"><ele>148.75</ele><time>2026-04-19T08:14:44Z</time></trkpt><trkpt lat="43.46172061781249" lon="13.278628391845038"><ele>149.5</ele><time>2026-04-19T08:14:45Z</time></trkpt><trkpt lat="43.461814660227795" lon="13.27851462866497"><ele>150.25</ele><time>2026-04-19T08:14:46Z</time></trkpt><trkpt lat="43.46189648244098" lon="13.278383835279353"><ele>151.0</ele><time>2026-04-19T08:14:47Z</time></trkpt><trkpt lat="43.461978821804465" lon="13.27825505386915"><ele>151.0</ele><time>2026-04-19T08:14:48Z</time></trkpt><trkpt lat="43.46205269537327" lon="13.27814592259981"><ele>151.0</ele><time>2026-04-19T08:14:49Z</time></trkpt><trkpt lat="43.462119623172356" lon="13.278049181322219"><ele>151.0</ele><time>2026-04-19T08:14:50Z</time></trkpt><trkpt lat="43.46218224200165" lon="13.277991555966933"><ele>151.0</ele><time>2026-04-19T08:14:51.001Z</time></trkpt><trkpt lat="43.46224910267075" lon="13.277983745426328"><ele>151.0</ele><time>2026-04-19T08:14:52.001Z</time></trkpt><trkpt lat="43.46231075176067" lon="13.278035450846994"><ele>151.0</ele><time>2026-04-19T08:14:53.001Z</time></trkpt><trkpt lat="43.462370806243456" lon="13.278108543440094"><ele>154.2</ele><time>2026-04-19T08:14:54.001Z</time></trkpt><trkpt lat="43.46240377967629" lon="13.278231831312334"><ele>157.39999999999998</ele><time>2026-04-19T08:14:55.001Z</time></trkpt><trkpt lat="43.46245043688506" lon="13.278344625056947"><ele>160.6</ele><time>2026-04-19T08:14:56.001Z</time></trkpt><trkpt lat="43.4625197772188" lon="13.278472376393404"><ele>163.79999999999998</ele><time>2026-04-19T08:14:57.001Z</time></trkpt><trkpt lat="43.462569610465415" lon="13.278634357824592"><ele>167.0</ele><time>2026-04-19T08:14:58.001Z</time></trkpt><trkpt lat="43.46263971991973" lon="13.278802279593064"><ele>165.0</ele><time>2026-04-19T08:14:59.001Z</time></trkpt><trkpt lat="43.46270234402726" lon="13.278968309782947"><ele>163.0</ele><time>2026-04-19T08:15:00.001Z</time></trkpt><trkpt lat="43.4627670181967" lon="13.27914550257021"><ele>161.0</ele><time>2026-04-19T08:15:01.001Z</time></trkpt><trkpt lat="43.462828862739315" lon="13.279324386517528"><ele>159.0</ele><time>2026-04-19T08:15:02.001Z</time></trkpt><trkpt lat="43.46291168434339" lon="13.279495444525004"><ele>160.25</ele><time>2026-04-19T08:15:03.001Z</time></trkpt><trkpt lat="43.46300483515726" lon="13.279656513685486"><ele>161.5</ele><time>2026-04-19T08:15:04.001Z</time></trkpt><trkpt lat="43.46308593215436" lon="13.279799732614125"><ele>162.75</ele><time>2026-04-19T08:15:05.001Z</time></trkpt><trkpt lat="43.46315579487012" lon="13.279918224701833"><ele>164.0</ele><time>2026-04-19T08:15:06.001Z</time></trkpt><trkpt lat="43.46321748402246" lon="13.28002919507007"><ele>164.0</ele><time>2026-04-19T08:15:07.001Z</time></trkpt><trkpt lat="43.463261777846846" lon="13.28016831626928"><ele>164.0</ele><time>2026-04-19T08:15:08.001Z</time></trkpt><trkpt lat="43.463302421694905" lon="13.280315776765837"><ele>164.0</ele><time>2026-04-19T08:15:09.001Z</time></trkpt><trkpt lat="43.46334710692946" lon="13.28048217806696"><ele>164.0</ele><time>2026-04-19T08:15:10.001Z</time></trkpt><trkpt lat="43.463400081563556" lon="13.280657968895161"><ele>162.75</ele><time>2026-04-19T08:15:11.001Z</time></trkpt><trkpt lat="43.46345648265124" lon="13.280847548852384"><ele>161.5</ele><time>2026-04-19T08:15:12.001Z</time></trkpt><trkpt lat="43.463505311396425" lon="13.281032662042637"><ele>160.25</ele><time>2026-04-19T08:15:13.001Z</time></trkpt><trkpt lat="43.46354732343721" lon="13.281207967723672"><ele>159.0</ele><time>2026-04-19T08:15:14.001Z</time></trkpt><trkpt lat="43.46358812736448" lon="13.281378738909671"><ele>158.0</ele><time>2026-04-19T08:15:15.001Z</time></trkpt><trkpt lat="43.46361743936289" lon="13.281508152341665"><ele>157.0</ele><time>2026-04-19T08:15:16.001Z</time></trkpt><trkpt lat="43.463622513418265" lon="13.281670841470552"><ele>156.0</ele><time>2026-04-19T08:15:17.001Z</time></trkpt><trkpt lat="43.46361815017002" lon="13.281781137523875"><ele>155.0</ele><time>2026-04-19T08:15:18.001Z</time></trkpt><trkpt lat="43.463600405778685" lon="13.281890184258838"><ele>154.0</ele><time>2026-04-19T08:15:20.001Z</time></trkpt><trkpt lat="43.463593459275614" lon="13.281983797062528"><ele>153.0</ele><time>2026-04-19T08:15:35.001Z</time></trkpt><trkpt lat="43.463764281681705" lon="13.281958279635322"><ele>155.0</ele><time>2026-04-19T08:15:38.001Z</time></trkpt><trkpt lat="43.463821301868" lon="13.281883097494797"><ele>157.0</ele><time>2026-04-19T08:15:39.001Z</time></trkpt><trkpt lat="43.4638950769572" lon="13.28180353300532"><ele>159.0</ele><time>2026-04-19T08:15:40.001Z</time></trkpt><trkpt lat="43.46398564513735" lon="13.281729648058533"><ele>161.0</ele><time>2026-04-19T08:15:41.001Z</time></trkpt><trkpt lat="43.46407459755196" lon="13.281640369719204"><ele>163.0</ele><time>2026-04-19T08:15:42.001Z</time></trkpt><trkpt lat="43.464175557618574" lon="13.281543732401376"><ele>163.0</ele><time>2026-04-19T08:15:43.001Z</time></trkpt><trkpt lat="43.46427971637928" lon="13.281435454781551"><ele>163.0</ele><time>2026-04-19T08:15:44.001Z</time></trkpt><trkpt lat="43.4643968572053" lon="13.281325406542786"><ele>163.0</ele><time>2026-04-19T08:15:45.001Z</time></trkpt><trkpt lat="43.46451697881239" lon="13.281211016397126"><ele>163.0</ele><time>2026-04-19T08:15:46.001Z</time></trkpt><trkpt lat="43.46464307992687" lon="13.281099945825687"><ele>165.25</ele><time>2026-04-19T08:15:47.001Z</time></trkpt><trkpt lat="43.464764916326665" lon="13.280986382749026"><ele>167.5</ele><time>2026-04-19T08:15:48.001Z</time></trkpt><trkpt lat="43.464888835383924" lon="13.280861412646162"><ele>169.75</ele><time>2026-04-19T08:15:49.001Z</time></trkpt><trkpt lat="43.46500004416418" lon="13.280733816810997"><ele>172.0</ele><time>2026-04-19T08:15:50.001Z</time></trkpt><trkpt lat="43.465086063011825" lon="13.280588186284254"><ele>173.5</ele><time>2026-04-19T08:15:51.001Z</time></trkpt><trkpt lat="43.465157044466366" lon="13.2804183043589"><ele>175.0</ele><time>2026-04-19T08:15:52.002Z</time></trkpt><trkpt lat="43.46522007646178" lon="13.28023368568881"><ele>176.5</ele><time>2026-04-19T08:15:53.002Z</time></trkpt><trkpt lat="43.46528248984372" lon="13.28008622285556"><ele>178.0</ele><time>2026-04-19T08:15:54.002Z</time></trkpt><trkpt lat="43.465365380362876" lon="13.279985945519122"><ele>180.75</ele><time>2026-04-19T08:15:55.002Z</time></trkpt><trkpt lat="43.46544684906034" lon="13.279933188510325"><ele>183.5</ele><time>2026-04-19T08:15:56.002Z</time></trkpt><trkpt lat="43.465559794202186" lon="13.279956869455583"><ele>186.25</ele><time>2026-04-19T08:15:57.002Z</time></trkpt><trkpt lat="43.46568807020454" lon="13.279961650543502"><ele>189.0</ele><time>2026-04-19T08:15:58.002Z</time></trkpt><trkpt lat="43.465815416418565" lon="13.279926215922224"><ele>189.0</ele><time>2026-04-19T08:15:59.002Z</time></trkpt><trkpt lat="43.46593412184889" lon="13.2798836044323"><ele>189.0</ele><time>2026-04-19T08:16:00.002Z</time></trkpt><trkpt lat="43.466030974107724" lon="13.27980442576612"><ele>189.0</ele><time>2026-04-19T08:16:01.002Z</time></trkpt><trkpt lat="43.46612640251102" lon="13.279681811401069"><ele>189.0</ele><time>2026-04-19T08:16:02.002Z</time></trkpt><trkpt lat="43.46621530364793" lon="13.279527741608828"><ele>191.75</ele><time>2026-04-19T08:16:03.002Z</time></trkpt><trkpt lat="43.46631030283103" lon="13.27938756541399"><ele>194.5</ele><time>2026-04-19T08:16:04.002Z</time></trkpt><trkpt lat="43.46640706582141" lon="13.279251125808385"><ele>197.25</ele><time>2026-04-19T08:16:05.002Z</time></trkpt><trkpt lat="43.46650905990105" lon="13.279102640695465"><ele>200.0</ele><time>2026-04-19T08:16:06.002Z</time></trkpt><trkpt lat="43.46661266622045" lon="13.278955145492649"><ele>202.33333333333334</ele><time>2026-04-19T08:16:07.002Z</time></trkpt><trkpt lat="43.46671790729229" lon="13.278797949323758"><ele>204.66666666666669</ele><time>2026-04-19T08:16:08.002Z</time></trkpt><trkpt lat="43.46684097981674" lon="13.27863808352707"><ele>207.0</ele><time>2026-04-19T08:16:09.002Z</time></trkpt><trkpt lat="43.466954061738164" lon="13.278473290248229"><ele>207.0</ele><time>2026-04-19T08:16:10.002Z</time></trkpt><trkpt lat="43.46707535207253" lon="13.27832048498823"><ele>207.0</ele><time>2026-04-19T08:16:11Z</time></trkpt><trkpt lat="43.46720471152277" lon="13.27816587512456"><ele>207.0</ele><time>2026-04-19T08:16:12Z</time></trkpt><trkpt lat="43.46733110037074" lon="13.278018933434153"><ele>211.66666666666669</ele><time>2026-04-19T08:16:13Z</time></trkpt><trkpt lat="43.4674601616792" lon="13.277861910158634"><ele>216.33333333333334</ele><time>2026-04-19T08:16:14Z</time></trkpt><trkpt lat="43.467587268861216" lon="13.277715637220934"><ele>221.0</ele><time>2026-04-19T08:16:15Z</time></trkpt><trkpt lat="43.4677183705506" lon="13.277570469437679"><ele>221.0</ele><time>2026-04-19T08:16:16Z</time></trkpt><trkpt lat="43.46785101814899" lon="13.277441073423724"><ele>221.0</ele><time>2026-04-19T08:16:17Z</time></trkpt><trkpt lat="43.467979632440965" lon="13.27732081389404"><ele>221.0</ele><time>2026-04-19T08:16:18Z</time></trkpt><trkpt lat="43.46809685177824" lon="13.277217648904914"><ele>225.66666666666669</ele><time>2026-04-19T08:16:19Z</time></trkpt><trkpt lat="43.468223064586056" lon="13.27710214556195"><ele>230.33333333333331</ele><time>2026-04-19T08:16:20Z</time></trkpt><trkpt lat="43.468358608572615" lon="13.276974582463694"><ele>235.0</ele><time>2026-04-19T08:16:21Z</time></trkpt><trkpt lat="43.468499404156155" lon="13.2768427057544"><ele>235.0</ele><time>2026-04-19T08:16:22Z</time></trkpt><trkpt lat="43.468637630897625" lon="13.276721628699033"><ele>235.0</ele><time>2026-04-19T08:16:23Z</time></trkpt><trkpt lat="43.46876278901684" lon="13.276607100755118"><ele>235.0</ele><time>2026-04-19T08:16:24Z</time></trkpt><trkpt lat="43.46886942983947" lon="13.276508001153115"><ele>235.0</ele><time>2026-04-19T08:16:25Z</time></trkpt><trkpt lat="43.4689645138194" lon="13.276407831552449"><ele>235.75</ele><time>2026-04-19T08:16:26Z</time></trkpt><trkpt lat="43.46903370260494" lon="13.276307255960957"><ele>236.5</ele><time>2026-04-19T08:16:27Z</time></trkpt><trkpt lat="43.46908160191852" lon="13.27618132714"><ele>237.25</ele><time>2026-04-19T08:16:28Z</time></trkpt><trkpt lat="43.46910849942688" lon="13.27601838674504"><ele>238.0</ele><time>2026-04-19T08:16:29Z</time></trkpt><trkpt lat="43.46912421771669" lon="13.275842798383257"><ele>238.0</ele><time>2026-04-19T08:16:30Z</time></trkpt><trkpt lat="43.46912940767527" lon="13.275650847648688"><ele>238.0</ele><time>2026-04-19T08:16:31Z</time></trkpt><trkpt lat="43.46913433547281" lon="13.275470543508186"><ele>238.0</ele><time>2026-04-19T08:16:32Z</time></trkpt><trkpt lat="43.469128513068114" lon="13.275316258715824"><ele>238.0</ele><time>2026-04-19T08:16:33Z</time></trkpt><trkpt lat="43.46911238009672" lon="13.275148576541744"><ele>238.0</ele><time>2026-04-19T08:16:34Z</time></trkpt><trkpt lat="43.46908411534158" lon="13.274982450669569"><ele>238.0</ele><time>2026-04-19T08:16:35Z</time></trkpt><trkpt lat="43.46906155903215" lon="13.274829578492138"><ele>238.0</ele><time>2026-04-19T08:16:36Z</time></trkpt><trkpt lat="43.46907563778061" lon="13.274679587158934"><ele>238.0</ele><time>2026-04-19T08:16:37Z</time></trkpt><trkpt lat="43.469101482530625" lon="13.274544791170637"><ele>238.0</ele><time>2026-04-19T08:16:38Z</time></trkpt><trkpt lat="43.469149220631245" lon="13.274423645849039"><ele>238.0</ele><time>2026-04-19T08:16:39Z</time></trkpt><trkpt lat="43.46921784636793" lon="13.27431778218063"><ele>238.0</ele><time>2026-04-19T08:16:40Z</time></trkpt><trkpt lat="43.46932596335712" lon="13.274240073940048"><ele>238.0</ele><time>2026-04-19T08:16:41Z</time></trkpt><trkpt lat="43.469456780343684" lon="13.274227338193128"><ele>238.0</ele><time>2026-04-19T08:16:42Z</time></trkpt><trkpt lat="43.469597806046934" lon="13.27418157897983"><ele>237.33333333333331</ele><time>2026-04-19T08:16:43Z</time></trkpt><trkpt lat="43.46973996719712" lon="13.274116551664624"><ele>236.66666666666669</ele><time>2026-04-19T08:16:44Z</time></trkpt><trkpt lat="43.46988845782617" lon="13.27408120536941"><ele>236.0</ele><time>2026-04-19T08:16:45Z</time></trkpt><trkpt lat="43.4700451302709" lon="13.274044014090874"><ele>236.0</ele><time>2026-04-19T08:16:46Z</time></trkpt><trkpt lat="43.47018950566834" lon="13.273978562101217"><ele>236.0</ele><time>2026-04-19T08:16:47Z</time></trkpt><trkpt lat="43.47033559769799" lon="13.273932753361114"><ele>236.0</ele><time>2026-04-19T08:16:48Z</time></trkpt><trkpt lat="43.47047403171511" lon="13.273898257563678"><ele>236.0</ele><time>2026-04-19T08:16:49Z</time></trkpt><trkpt lat="43.47062237683396" lon="13.273849985607525"><ele>236.25</ele><time>2026-04-19T08:16:50Z</time></trkpt><trkpt lat="43.47076812805083" lon="13.273803985535762"><ele>236.5</ele><time>2026-04-19T08:16:51Z</time></trkpt><trkpt lat="43.4709153138786" lon="13.273757214673514"><ele>236.75</ele><time>2026-04-19T08:16:52Z</time></trkpt><trkpt lat="43.47105945635738" lon="13.2737162150642"><ele>237.0</ele><time>2026-04-19T08:16:53Z</time></trkpt><trkpt lat="43.47120153805216" lon="13.273680717208313"><ele>238.2</ele><time>2026-04-19T08:16:54Z</time></trkpt><trkpt lat="43.471328449795735" lon="13.27365262936145"><ele>239.39999999999998</ele><time>2026-04-19T08:16:55Z</time></trkpt><trkpt lat="43.471437288310504" lon="13.27363003271092"><ele>240.60000000000002</ele><time>2026-04-19T08:16:56Z</time></trkpt><trkpt lat="43.471527659375965" lon="13.27360280457197"><ele>241.8</ele><time>2026-04-19T08:16:57Z</time></trkpt><trkpt lat="43.47159862083543" lon="13.273527114771293"><ele>243.0</ele><time>2026-04-19T08:16:58Z</time></trkpt><trkpt lat="43.47164740070243" lon="13.273399645642645"><ele>243.0</ele><time>2026-04-19T08:16:59Z</time></trkpt><trkpt lat="43.471656088046245" lon="13.27327032752755"><ele>243.0</ele><time>2026-04-19T08:17:00Z</time></trkpt><trkpt lat="43.47163501618405" lon="13.27313388198574"><ele>243.0</ele><time>2026-04-19T08:17:01Z</time></trkpt><trkpt lat="43.47160319651761" lon="13.272987037147173"><ele>243.0</ele><time>2026-04-19T08:17:02.001Z</time></trkpt><trkpt lat="43.47158660438142" lon="13.272818345268256"><ele>243.0</ele><time>2026-04-19T08:17:03.001Z</time></trkpt><trkpt lat="43.471571241586894" lon="13.27263959380575"><ele>242.8</ele><time>2026-04-19T08:17:04.001Z</time></trkpt><trkpt lat="43.471560172851525" lon="13.272470961782636"><ele>242.60000000000002</ele><time>2026-04-19T08:17:05.001Z</time></trkpt><trkpt lat="43.47155007395531" lon="13.272318306355954"><ele>242.39999999999998</ele><time>2026-04-19T08:17:06.001Z</time></trkpt><trkpt lat="43.471539997163724" lon="13.272178912420857"><ele>242.2</ele><time>2026-04-19T08:17:07.001Z</time></trkpt><trkpt lat="43.471527684216454" lon="13.272044717815135"><ele>242.0</ele><time>2026-04-19T08:17:08.001Z</time></trkpt><trkpt lat="43.471526493810394" lon="13.271929554390741"><ele>241.50000000000003</ele><time>2026-04-19T08:17:09.001Z</time></trkpt><trkpt lat="43.471542127854676" lon="13.271833272262471"><ele>241.0</ele><time>2026-04-19T08:17:10.001Z</time></trkpt><trkpt lat="43.47165983939877" lon="13.271767801316688"><ele>240.5</ele><time>2026-04-19T08:17:12.001Z</time></trkpt><trkpt lat="43.471726533172884" lon="13.271759576452894"><ele>240.0</ele><time>2026-04-19T08:17:13.001Z</time></trkpt><trkpt lat="43.47179304643058" lon="13.271818628171669"><ele>239.50000000000003</ele><time>2026-04-19T08:17:14.001Z</time></trkpt><trkpt lat="43.471866074093505" lon="13.271859446774492"><ele>239.0</ele><time>2026-04-19T08:17:15.001Z</time></trkpt><trkpt lat="43.4719299570073" lon="13.271872154812833"><ele>239.0</ele><time>2026-04-19T08:17:16.001Z</time></trkpt><trkpt lat="43.47199987965185" lon="13.271887849861361"><ele>238.99999999999997</ele><time>2026-04-19T08:17:18.001Z</time></trkpt><trkpt lat="43.47196941819248" lon="13.271706112244727"><ele>238.99999999999997</ele><time>2026-04-19T08:17:21.001Z</time></trkpt><trkpt lat="43.47187012123219" lon="13.27159233268509"><ele>239.0</ele><time>2026-04-19T08:17:23.001Z</time></trkpt><trkpt lat="43.471819656443294" lon="13.271483079612754"><ele>239.0</ele><time>2026-04-19T08:17:24.001Z</time></trkpt><trkpt lat="43.471756651654516" lon="13.271383244376535"><ele>237.39999999999998</ele><time>2026-04-19T08:17:25.001Z</time></trkpt><trkpt lat="43.471692781553074" lon="13.271282116955073"><ele>235.79999999999998</ele><time>2026-04-19T08:17:26.001Z</time></trkpt><trkpt lat="43.47162363641933" lon="13.271171216369778"><ele>234.20000000000002</ele><time>2026-04-19T08:17:27.001Z</time></trkpt><trkpt lat="43.471537735989955" lon="13.271065232258207"><ele>232.60000000000002</ele><time>2026-04-19T08:17:28.001Z</time></trkpt><trkpt lat="43.47146673282681" lon="13.270917511590406"><ele>231.0</ele><time>2026-04-19T08:17:29.001Z</time></trkpt><trkpt lat="43.47138709332892" lon="13.27077790180003"><ele>231.0</ele><time>2026-04-19T08:17:30.001Z</time></trkpt><trkpt lat="43.471315313817215" lon="13.270641089500998"><ele>231.0</ele><time>2026-04-19T08:17:31.001Z</time></trkpt><trkpt lat="43.47123481748764" lon="13.27051214472962"><ele>231.0</ele><time>2026-04-19T08:17:32.001Z</time></trkpt><trkpt lat="43.471153452491365" lon="13.27037571740343"><ele>231.0</ele><time>2026-04-19T08:17:33.001Z</time></trkpt><trkpt lat="43.47107162532201" lon="13.270241811475541"><ele>231.25</ele><time>2026-04-19T08:17:34.001Z</time></trkpt><trkpt lat="43.47099031934421" lon="13.270102438458158"><ele>231.5</ele><time>2026-04-19T08:17:35.001Z</time></trkpt><trkpt lat="43.470903823428884" lon="13.269963137777255"><ele>231.75</ele><time>2026-04-19T08:17:36.001Z</time></trkpt><trkpt lat="43.470817950217146" lon="13.269820662056322"><ele>232.0</ele><time>2026-04-19T08:17:37.001Z</time></trkpt><trkpt lat="43.470736115536596" lon="13.26968793315694"><ele>232.0</ele><time>2026-04-19T08:17:38.001Z</time></trkpt><trkpt lat="43.4706618005881" lon="13.269565557996422"><ele>232.0</ele><time>2026-04-19T08:17:39.001Z</time></trkpt><trkpt lat="43.4705909080677" lon="13.26944953553595"><ele>232.0</ele><time>2026-04-19T08:17:40.001Z</time></trkpt><trkpt lat="43.47052800709956" lon="13.269352969646334"><ele>232.0</ele><time>2026-04-19T08:17:41.001Z</time></trkpt><trkpt lat="43.47046341868988" lon="13.269239848942847"><ele>232.0</ele><time>2026-04-19T08:17:42.001Z</time></trkpt><trkpt lat="43.470404670486914" lon="13.269117006785612"><ele>231.39999999999998</ele><time>2026-04-19T08:17:43.001Z</time></trkpt><trkpt lat="43.47036703109146" lon="13.268984093208767"><ele>230.79999999999998</ele><time>2026-04-19T08:17:44.001Z</time></trkpt><trkpt lat="43.470351733775686" lon="13.268839019131201"><ele>230.2</ele><time>2026-04-19T08:17:45.001Z</time></trkpt><trkpt lat="43.470359557407164" lon="13.268684358887912"><ele>229.6</ele><time>2026-04-19T08:17:46.001Z</time></trkpt><trkpt lat="43.470399140896824" lon="13.26853558938595"><ele>229.0</ele><time>2026-04-19T08:17:47.001Z</time></trkpt><trkpt lat="43.47047580685598" lon="13.268398346713933"><ele>229.0</ele><time>2026-04-19T08:17:48.001Z</time></trkpt><trkpt lat="43.47054461745892" lon="13.268241909300206"><ele>229.0</ele><time>2026-04-19T08:17:49.001Z</time></trkpt><trkpt lat="43.470637612832085" lon="13.268093748164565"><ele>229.0</ele><time>2026-04-19T08:17:50.001Z</time></trkpt><trkpt lat="43.4707298823152" lon="13.267949996620805"><ele>229.0</ele><time>2026-04-19T08:17:51.001Z</time></trkpt><trkpt lat="43.47081935772846" lon="13.267802126467297"><ele>230.0</ele><time>2026-04-19T08:17:52.001Z</time></trkpt><trkpt lat="43.47090034223349" lon="13.267662216080561"><ele>231.0</ele><time>2026-04-19T08:17:53.001Z</time></trkpt><trkpt lat="43.470977904057314" lon="13.267526270939207"><ele>232.0</ele><time>2026-04-19T08:17:54.001Z</time></trkpt><trkpt lat="43.471060922337394" lon="13.267388308782056"><ele>233.0</ele><time>2026-04-19T08:17:55.001Z</time></trkpt><trkpt lat="43.47113880846999" lon="13.267252943301383"><ele>233.0</ele><time>2026-04-19T08:17:56.001Z</time></trkpt><trkpt lat="43.47121287234792" lon="13.267135986137339"><ele>233.0</ele><time>2026-04-19T08:17:57.002Z</time></trkpt><trkpt lat="43.47128142113591" lon="13.267009580001577"><ele>233.0</ele><time>2026-04-19T08:17:58.002Z</time></trkpt><trkpt lat="43.471348123908356" lon="13.266896346065945"><ele>233.0</ele><time>2026-04-19T08:17:59.002Z</time></trkpt><trkpt lat="43.471392311841186" lon="13.266753771206497"><ele>233.0</ele><time>2026-04-19T08:18:00.002Z</time></trkpt><trkpt lat="43.47142418874322" lon="13.266607083129582"><ele>230.5</ele><time>2026-04-19T08:18:01.002Z</time></trkpt><trkpt lat="43.47143889503553" lon="13.266459275623735"><ele>228.0</ele><time>2026-04-19T08:18:02.002Z</time></trkpt><trkpt lat="43.47144384211787" lon="13.266298719758613"><ele>225.5</ele><time>2026-04-19T08:18:03.002Z</time></trkpt><trkpt lat="43.47143886058753" lon="13.266128619757946"><ele>223.0</ele><time>2026-04-19T08:18:04.002Z</time></trkpt><trkpt lat="43.471419513995535" lon="13.265957125177586"><ele>222.25</ele><time>2026-04-19T08:18:05.002Z</time></trkpt><trkpt lat="43.47137895921031" lon="13.265796787355862"><ele>221.5</ele><time>2026-04-19T08:18:06.002Z</time></trkpt><trkpt lat="43.47131437341993" lon="13.265652558502643"><ele>220.75</ele><time>2026-04-19T08:18:07.002Z</time></trkpt><trkpt lat="43.47123152967796" lon="13.265523024678192"><ele>220.0</ele><time>2026-04-19T08:18:08.002Z</time></trkpt><trkpt lat="43.47113500439275" lon="13.265394371214143"><ele>222.0</ele><time>2026-04-19T08:18:09.002Z</time></trkpt><trkpt lat="43.47103909259158" lon="13.265264514031387"><ele>224.0</ele><time>2026-04-19T08:18:10.002Z</time></trkpt><trkpt lat="43.47094855219158" lon="13.265130000009234"><ele>226.0</ele><time>2026-04-19T08:18:11.002Z</time></trkpt><trkpt lat="43.47085067683495" lon="13.264999914112224"><ele>228.0</ele><time>2026-04-19T08:18:12.002Z</time></trkpt><trkpt lat="43.47075350284508" lon="13.264865209116115"><ele>229.0</ele><time>2026-04-19T08:18:13.002Z</time></trkpt><trkpt lat="43.47066100797262" lon="13.264729641244339"><ele>230.0</ele><time>2026-04-19T08:18:14.002Z</time></trkpt><trkpt lat="43.47056132402882" lon="13.264601162865917"><ele>231.0</ele><time>2026-04-19T08:18:15.002Z</time></trkpt><trkpt lat="43.47045855907928" lon="13.264464906702775"><ele>232.0</ele><time>2026-04-19T08:18:16.002Z</time></trkpt><trkpt lat="43.47036062838707" lon="13.264328325706158"><ele>230.75</ele><time>2026-04-19T08:18:17Z</time></trkpt><trkpt lat="43.470259452785946" lon="13.264189810111958"><ele>229.5</ele><time>2026-04-19T08:18:18Z</time></trkpt><trkpt lat="43.470159640135265" lon="13.264053989562411"><ele>228.25</ele><time>2026-04-19T08:18:19Z</time></trkpt><trkpt lat="43.47005838177745" lon="13.263910147137986"><ele>227.0</ele><time>2026-04-19T08:18:20Z</time></trkpt><trkpt lat="43.469952184197936" lon="13.263760444856421"><ele>227.0</ele><time>2026-04-19T08:18:21Z</time></trkpt><trkpt lat="43.46984532614767" lon="13.26361658471113"><ele>227.0</ele><time>2026-04-19T08:18:22Z</time></trkpt><trkpt lat="43.46974902483663" lon="13.26348281517429"><ele>227.0</ele><time>2026-04-19T08:18:23Z</time></trkpt><trkpt lat="43.4696533299008" lon="13.263344687487185"><ele>227.0</ele><time>2026-04-19T08:18:24Z</time></trkpt><trkpt lat="43.46954876542393" lon="13.263202795369446"><ele>227.0</ele><time>2026-04-19T08:18:25Z</time></trkpt><trkpt lat="43.469442657571186" lon="13.26306037643646"><ele>227.0</ele><time>2026-04-19T08:18:26Z</time></trkpt><trkpt lat="43.4693362771138" lon="13.262925964801491"><ele>227.0</ele><time>2026-04-19T08:18:27Z</time></trkpt><trkpt lat="43.46924326766855" lon="13.262800126197028"><ele>227.0</ele><time>2026-04-19T08:18:28Z</time></trkpt><trkpt lat="43.46915596012787" lon="13.262676333144059"><ele>227.0</ele><time>2026-04-19T08:18:29Z</time></trkpt><trkpt lat="43.46907337440792" lon="13.2625551653891"><ele>227.0</ele><time>2026-04-19T08:18:30Z</time></trkpt><trkpt lat="43.46901254657369" lon="13.262442308068293"><ele>227.0</ele><time>2026-04-19T08:18:31Z</time></trkpt><trkpt lat="43.46897575182684" lon="13.262328615494651"><ele>227.0</ele><time>2026-04-19T08:18:32Z</time></trkpt><trkpt lat="43.468967183894044" lon="13.262191185022932"><ele>227.0</ele><time>2026-04-19T08:18:33Z</time></trkpt><trkpt lat="43.46899848518613" lon="13.262035369489308"><ele>226.75</ele><time>2026-04-19T08:18:34Z</time></trkpt><trkpt lat="43.469009352614506" lon="13.26186719974385"><ele>226.5</ele><time>2026-04-19T08:18:35Z</time></trkpt><trkpt lat="43.469040044928576" lon="13.261706448972092"><ele>226.25</ele><time>2026-04-19T08:18:36Z</time></trkpt><trkpt lat="43.469076548903296" lon="13.26154119200439"><ele>226.0</ele><time>2026-04-19T08:18:37Z</time></trkpt><trkpt lat="43.469124798422726" lon="13.261366602548431"><ele>225.0</ele><time>2026-04-19T08:18:38Z</time></trkpt><trkpt lat="43.46918396227903" lon="13.261189934044818"><ele>224.0</ele><time>2026-04-19T08:18:39Z</time></trkpt><trkpt lat="43.469249073469854" lon="13.260995403589433"><ele>223.0</ele><time>2026-04-19T08:18:40Z</time></trkpt><trkpt lat="43.46930515078915" lon="13.260809624196893"><ele>222.0</ele><time>2026-04-19T08:18:41Z</time></trkpt><trkpt lat="43.46936593366838" lon="13.26063280822469"><ele>222.0</ele><time>2026-04-19T08:18:42Z</time></trkpt><trkpt lat="43.46941704302751" lon="13.260479201800102"><ele>222.0</ele><time>2026-04-19T08:18:43Z</time></trkpt><trkpt lat="43.469457032488606" lon="13.260335457967285"><ele>222.0</ele><time>2026-04-19T08:18:44Z</time></trkpt><trkpt lat="43.4694707567852" lon="13.260217039393934"><ele>222.0</ele><time>2026-04-19T08:18:45Z</time></trkpt><trkpt lat="43.46945474064342" lon="13.260117500158143"><ele>222.0</ele><time>2026-04-19T08:18:46Z</time></trkpt><trkpt lat="43.469406146783086" lon="13.26002162402873"><ele>222.0</ele><time>2026-04-19T08:18:47Z</time></trkpt><trkpt lat="43.4693419238873" lon="13.259946415350598"><ele>222.0</ele><time>2026-04-19T08:18:48Z</time></trkpt><trkpt lat="43.46926966410209" lon="13.259884606688928"><ele>222.0</ele><time>2026-04-19T08:18:49Z</time></trkpt><trkpt lat="43.469192450853356" lon="13.259824045112111"><ele>222.0</ele><time>2026-04-19T08:18:50Z</time></trkpt><trkpt lat="43.469107815310956" lon="13.259755393113544"><ele>222.0</ele><time>2026-04-19T08:18:51Z</time></trkpt><trkpt lat="43.469024402682045" lon="13.259677750029532"><ele>222.25</ele><time>2026-04-19T08:18:52Z</time></trkpt><trkpt lat="43.46892656305241" lon="13.259595462131452"><ele>222.5</ele><time>2026-04-19T08:18:53Z</time></trkpt><trkpt lat="43.46882052877344" lon="13.25950753345944"><ele>222.75</ele><time>2026-04-19T08:18:54Z</time></trkpt><trkpt lat="43.468703704857" lon="13.259414956791936"><ele>223.0</ele><time>2026-04-19T08:18:55Z</time></trkpt><trkpt lat="43.46858594472812" lon="13.259317964315292"><ele>223.0</ele><time>2026-04-19T08:18:56Z</time></trkpt><trkpt lat="43.46846008197461" lon="13.259217025260833"><ele>223.0</ele><time>2026-04-19T08:18:57Z</time></trkpt><trkpt lat="43.46833671204679" lon="13.259107172969763"><ele>223.0</ele><time>2026-04-19T08:18:58Z</time></trkpt><trkpt lat="43.468206275170054" lon="13.258999822423444"><ele>223.0</ele><time>2026-04-19T08:18:59Z</time></trkpt><trkpt lat="43.4680730600976" lon="13.258886642478025"><ele>225.66666666666666</ele><time>2026-04-19T08:19:00Z</time></trkpt><trkpt lat="43.46793649148271" lon="13.25879232196232"><ele>228.33333333333331</ele><time>2026-04-19T08:19:01Z</time></trkpt><trkpt lat="43.46779487192097" lon="13.258712235483914"><ele>231.0</ele><time>2026-04-19T08:19:02Z</time></trkpt><trkpt lat="43.46765473255153" lon="13.258654399686725"><ele>231.0</ele><time>2026-04-19T08:19:03Z</time></trkpt><trkpt lat="43.46751191564399" lon="13.258609099183063"><ele>231.0</ele><time>2026-04-19T08:19:04Z</time></trkpt><trkpt lat="43.467363749141576" lon="13.258564702845959"><ele>231.0</ele><time>2026-04-19T08:19:05.001Z</time></trkpt><trkpt lat="43.46721923288453" lon="13.25851156815788"><ele>231.0</ele><time>2026-04-19T08:19:06.001Z</time></trkpt><trkpt lat="43.46707433811744" lon="13.258449912033687"><ele>231.25</ele><time>2026-04-19T08:19:07.001Z</time></trkpt><trkpt lat="43.46694041915808" lon="13.258389661570005"><ele>231.5</ele><time>2026-04-19T08:19:08.001Z</time></trkpt><trkpt lat="43.466818944985555" lon="13.258332526633389"><ele>231.75</ele><time>2026-04-19T08:19:09.001Z</time></trkpt><trkpt lat="43.46669596608265" lon="13.25833074881062"><ele>232.0</ele><time>2026-04-19T08:19:10.001Z</time></trkpt><trkpt lat="43.466571867793796" lon="13.258356294105058"><ele>232.0</ele><time>2026-04-19T08:19:11.001Z</time></trkpt><trkpt lat="43.46644862592738" lon="13.258436104702838"><ele>232.0</ele><time>2026-04-19T08:19:12.001Z</time></trkpt><trkpt lat="43.46631986312731" lon="13.258537829174394"><ele>232.0</ele><time>2026-04-19T08:19:13.001Z</time></trkpt><trkpt lat="43.46619611483039" lon="13.25862401154614"><ele>232.0</ele><time>2026-04-19T08:19:14.001Z</time></trkpt><trkpt lat="43.46607642186601" lon="13.258674650499287"><ele>232.6</ele><time>2026-04-19T08:19:15.001Z</time></trkpt><trkpt lat="43.46595743279273" lon="13.258690590053863"><ele>233.2</ele><time>2026-04-19T08:19:16.001Z</time></trkpt><trkpt lat="43.46584274452078" lon="13.25868785372039"><ele>233.8</ele><time>2026-04-19T08:19:17.001Z</time></trkpt><trkpt lat="43.46573974970073" lon="13.258671899461522"><ele>234.4</ele><time>2026-04-19T08:19:18.001Z</time></trkpt><trkpt lat="43.4656526353342" lon="13.258630954133361"><ele>235.0</ele><time>2026-04-19T08:19:19.001Z</time></trkpt><trkpt lat="43.46558661423968" lon="13.258563357240718"><ele>234.99999999999997</ele><time>2026-04-19T08:19:20.001Z</time></trkpt><trkpt lat="43.46554390148052" lon="13.258476358136221"><ele>235.0</ele><time>2026-04-19T08:19:21.001Z</time></trkpt><trkpt lat="43.46552011050999" lon="13.258380295294916"><ele>235.0</ele><time>2026-04-19T08:19:22.001Z</time></trkpt><trkpt lat="43.46551796661665" lon="13.258269480382157"><ele>235.0</ele><time>2026-04-19T08:19:23.001Z</time></trkpt><trkpt lat="43.46553307610464" lon="13.258146433197822"><ele>234.99999999999997</ele><time>2026-04-19T08:19:24.001Z</time></trkpt><trkpt lat="43.4655578084387" lon="13.258009630077444"><ele>235.0</ele><time>2026-04-19T08:19:25.001Z</time></trkpt><trkpt lat="43.46558663052208" lon="13.257857056637626"><ele>235.5</ele><time>2026-04-19T08:19:26.001Z</time></trkpt><trkpt lat="43.46562007487676" lon="13.257693207303523"><ele>236.0</ele><time>2026-04-19T08:19:27.001Z</time></trkpt><trkpt lat="43.46565300362587" lon="13.25752023569588"><ele>236.5</ele><time>2026-04-19T08:19:28.001Z</time></trkpt><trkpt lat="43.465679598408265" lon="13.257354318031162"><ele>237.0</ele><time>2026-04-19T08:19:29.001Z</time></trkpt><trkpt lat="43.46569956861789" lon="13.257206892308576"><ele>237.39999999999998</ele><time>2026-04-19T08:19:30.001Z</time></trkpt><trkpt lat="43.46570406348762" lon="13.257070992476656"><ele>237.79999999999998</ele><time>2026-04-19T08:19:31.001Z</time></trkpt><trkpt lat="43.46568039668247" lon="13.256936887148854"><ele>238.2</ele><time>2026-04-19T08:19:32.001Z</time></trkpt><trkpt lat="43.465632293305056" lon="13.256794410042842"><ele>238.6</ele><time>2026-04-19T08:19:33.001Z</time></trkpt><trkpt lat="43.46556827861112" lon="13.256649399257501"><ele>239.0</ele><time>2026-04-19T08:19:34.001Z</time></trkpt><trkpt lat="43.46549492026472" lon="13.25650452819042"><ele>237.25</ele><time>2026-04-19T08:19:35.001Z</time></trkpt><trkpt lat="43.465432954320725" lon="13.256348818786567"><ele>235.5</ele><time>2026-04-19T08:19:36.001Z</time></trkpt><trkpt lat="43.465362996194905" lon="13.256190269454185"><ele>233.75</ele><time>2026-04-19T08:19:37.001Z</time></trkpt><trkpt lat="43.46529565960362" lon="13.256022749249134"><ele>232.0</ele><time>2026-04-19T08:19:38.001Z</time></trkpt><trkpt lat="43.465233362931635" lon="13.255858432043246"><ele>232.0</ele><time>2026-04-19T08:19:39.001Z</time></trkpt><trkpt lat="43.46517012088002" lon="13.25570584728291"><ele>232.0</ele><time>2026-04-19T08:19:40.001Z</time></trkpt><trkpt lat="43.465110615779494" lon="13.255559696199622"><ele>232.0</ele><time>2026-04-19T08:19:41.001Z</time></trkpt><trkpt lat="43.46505412003603" lon="13.255426269234812"><ele>232.0</ele><time>2026-04-19T08:19:42.001Z</time></trkpt><trkpt lat="43.465003882778234" lon="13.255299880323417"><ele>232.0</ele><time>2026-04-19T08:19:43.001Z</time></trkpt><trkpt lat="43.4649562740485" lon="13.255172357464854"><ele>232.0</ele><time>2026-04-19T08:19:44.001Z</time></trkpt><trkpt lat="43.46493099365534" lon="13.255028274508476"><ele>232.0</ele><time>2026-04-19T08:19:45.001Z</time></trkpt><trkpt lat="43.46489216331286" lon="13.254876443081626"><ele>232.0</ele><time>2026-04-19T08:19:46.001Z</time></trkpt><trkpt lat="43.46485977134161" lon="13.25471244202192"><ele>231.0</ele><time>2026-04-19T08:19:47.001Z</time></trkpt><trkpt lat="43.46481549122891" lon="13.254544232897342"><ele>230.0</ele><time>2026-04-19T08:19:48.001Z</time></trkpt><trkpt lat="43.46478982096787" lon="13.254349887356256"><ele>229.0</ele><time>2026-04-19T08:19:49.001Z</time></trkpt><trkpt lat="43.46476855067204" lon="13.25415390071445"><ele>228.0</ele><time>2026-04-19T08:19:50.001Z</time></trkpt><trkpt lat="43.464756213738134" lon="13.25395669079634"><ele>227.0</ele><time>2026-04-19T08:19:51.001Z</time></trkpt><trkpt lat="43.46473521622161" lon="13.253762143467315"><ele>226.0</ele><time>2026-04-19T08:19:52.001Z</time></trkpt><trkpt lat="43.46471956300796" lon="13.253560320068388"><ele>225.0</ele><time>2026-04-19T08:19:53.001Z</time></trkpt><trkpt lat="43.46469624911726" lon="13.253350362698882"><ele>224.0</ele><time>2026-04-19T08:19:54.001Z</time></trkpt><trkpt lat="43.46469753400899" lon="13.253146903683447"><ele>222.33333333333334</ele><time>2026-04-19T08:19:55.001Z</time></trkpt><trkpt lat="43.4646665496423" lon="13.252939790617265"><ele>220.66666666666669</ele><time>2026-04-19T08:19:56.001Z</time></trkpt><trkpt lat="43.464655099815786" lon="13.252729947769241"><ele>219.0</ele><time>2026-04-19T08:19:57.001Z</time></trkpt><trkpt lat="43.46463871067331" lon="13.25252029940645"><ele>219.0</ele><time>2026-04-19T08:19:58.002Z</time></trkpt><trkpt lat="43.46461971777812" lon="13.252312177090959"><ele>219.0</ele><time>2026-04-19T08:19:59.002Z</time></trkpt><trkpt lat="43.464603324080144" lon="13.252127312396802"><ele>219.0</ele><time>2026-04-19T08:20:00.002Z</time></trkpt><trkpt lat="43.464588051918234" lon="13.25192262499184"><ele>219.0</ele><time>2026-04-19T08:20:01.002Z</time></trkpt><trkpt lat="43.46457349260367" lon="13.251730000648374"><ele>219.5</ele><time>2026-04-19T08:20:02.002Z</time></trkpt><trkpt lat="43.46456076811305" lon="13.25152961370027"><ele>220.0</ele><time>2026-04-19T08:20:03.002Z</time></trkpt><trkpt lat="43.46454309099752" lon="13.251339436585372"><ele>220.5</ele><time>2026-04-19T08:20:04.002Z</time></trkpt><trkpt lat="43.464525089280606" lon="13.251145729637763"><ele>221.0</ele><time>2026-04-19T08:20:05.002Z</time></trkpt><trkpt lat="43.46450795742299" lon="13.250957835679722"><ele>221.25</ele><time>2026-04-19T08:20:06.002Z</time></trkpt><trkpt lat="43.464508373847195" lon="13.250767820712934"><ele>221.5</ele><time>2026-04-19T08:20:07.002Z</time></trkpt><trkpt lat="43.46447800533743" lon="13.250579897056584"><ele>221.75</ele><time>2026-04-19T08:20:08.002Z</time></trkpt><trkpt lat="43.46448109355549" lon="13.25039558303427"><ele>222.0</ele><time>2026-04-19T08:20:09.002Z</time></trkpt><trkpt lat="43.464468296561364" lon="13.250212362831052"><ele>223.25</ele><time>2026-04-19T08:20:10.002Z</time></trkpt><trkpt lat="43.46445509910092" lon="13.250023294794593"><ele>224.5</ele><time>2026-04-19T08:20:11.002Z</time></trkpt><trkpt lat="43.46443841421848" lon="13.249854338146337"><ele>225.75</ele><time>2026-04-19T08:20:12.002Z</time></trkpt><trkpt lat="43.46441779755014" lon="13.24967108004528"><ele>227.0</ele><time>2026-04-19T08:20:13.002Z</time></trkpt><trkpt lat="43.46440129759394" lon="13.24948854393294"><ele>227.0</ele><time>2026-04-19T08:20:14.002Z</time></trkpt><trkpt lat="43.46438056127762" lon="13.24931985942533"><ele>227.0</ele><time>2026-04-19T08:20:15.002Z</time></trkpt><trkpt lat="43.46434143128183" lon="13.249162120318044"><ele>227.0</ele><time>2026-04-19T08:20:16.002Z</time></trkpt><trkpt lat="43.46429003697625" lon="13.248994085712308"><ele>227.0</ele><time>2026-04-19T08:20:17.002Z</time></trkpt><trkpt lat="43.464218599985415" lon="13.248810447516757"><ele>225.66666666666669</ele><time>2026-04-19T08:20:18.002Z</time></trkpt><trkpt lat="43.46415272634116" lon="13.24862423368338"><ele>224.33333333333331</ele><time>2026-04-19T08:20:19.002Z</time></trkpt><trkpt lat="43.46408495391677" lon="13.248436085511303"><ele>223.0</ele><time>2026-04-19T08:20:20.002Z</time></trkpt><trkpt lat="43.46401632493231" lon="13.248238257533515"><ele>220.66666666666666</ele><time>2026-04-19T08:20:21.002Z</time></trkpt><trkpt lat="43.463944102951146" lon="13.248029601750206"><ele>218.33333333333331</ele><time>2026-04-19T08:20:22.002Z</time></trkpt><trkpt lat="43.46387131733866" lon="13.247820476032501"><ele>216.0</ele><time>2026-04-19T08:20:23Z</time></trkpt><trkpt lat="43.46381305161565" lon="13.247596264130156"><ele>216.66666666666669</ele><time>2026-04-19T08:20:24Z</time></trkpt><trkpt lat="43.46374458980091" lon="13.247392471943188"><ele>217.33333333333334</ele><time>2026-04-19T08:20:25Z</time></trkpt><trkpt lat="43.46367350101758" lon="13.247184004008439"><ele>218.0</ele><time>2026-04-19T08:20:26Z</time></trkpt><trkpt lat="43.46360119695854" lon="13.246971972524673"><ele>218.0</ele><time>2026-04-19T08:20:27Z</time></trkpt><trkpt lat="43.46353197562207" lon="13.246768980664795"><ele>218.0</ele><time>2026-04-19T08:20:28Z</time></trkpt><trkpt lat="43.46346313569086" lon="13.246567107600868"><ele>218.0</ele><time>2026-04-19T08:20:29Z</time></trkpt><trkpt lat="43.46339253286972" lon="13.246360064929695"><ele>217.66666666666669</ele><time>2026-04-19T08:20:30Z</time></trkpt><trkpt lat="43.463325514864366" lon="13.246163534644277"><ele>217.33333333333331</ele><time>2026-04-19T08:20:31Z</time></trkpt><trkpt lat="43.463257656248814" lon="13.245960333794656"><ele>217.0</ele><time>2026-04-19T08:20:32Z</time></trkpt><trkpt lat="43.46318987964032" lon="13.245756652181482"><ele>215.66666666666666</ele><time>2026-04-19T08:20:33Z</time></trkpt><trkpt lat="43.46312443672625" lon="13.245559984220138"><ele>214.33333333333331</ele><time>2026-04-19T08:20:34Z</time></trkpt><trkpt lat="43.463057315046775" lon="13.245360906989063"><ele>213.0</ele><time>2026-04-19T08:20:35Z</time></trkpt><trkpt lat="43.46298737584886" lon="13.245159020039935"><ele>214.33333333333331</ele><time>2026-04-19T08:20:36Z</time></trkpt><trkpt lat="43.46292002029126" lon="13.24496563365694"><ele>215.66666666666666</ele><time>2026-04-19T08:20:37Z</time></trkpt><trkpt lat="43.46285516860874" lon="13.244779436511305"><ele>217.0</ele><time>2026-04-19T08:20:38Z</time></trkpt><trkpt lat="43.46278572924696" lon="13.244580067688158"><ele>217.0</ele><time>2026-04-19T08:20:39Z</time></trkpt><trkpt lat="43.46271890169934" lon="13.244390362082061"><ele>217.0</ele><time>2026-04-19T08:20:40Z</time></trkpt><trkpt lat="43.462650497096725" lon="13.244199611813045"><ele>217.0</ele><time>2026-04-19T08:20:41Z</time></trkpt><trkpt lat="43.462584193962506" lon="13.244010508505614"><ele>216.25</ele><time>2026-04-19T08:20:42Z</time></trkpt><trkpt lat="43.46252828368103" lon="13.24382557643665"><ele>215.5</ele><time>2026-04-19T08:20:43Z</time></trkpt><trkpt lat="43.4624807157525" lon="13.243638582209504"><ele>214.75</ele><time>2026-04-19T08:20:44Z</time></trkpt><trkpt lat="43.46242303091754" lon="13.243440772043888"><ele>214.0</ele><time>2026-04-19T08:20:45Z</time></trkpt><trkpt lat="43.46238906470351" lon="13.243243975266573"><ele>214.25</ele><time>2026-04-19T08:20:46Z</time></trkpt><trkpt lat="43.46235940622706" lon="13.243074797333085"><ele>214.5</ele><time>2026-04-19T08:20:47Z</time></trkpt><trkpt lat="43.46233185092209" lon="13.24290800316074"><ele>214.75</ele><time>2026-04-19T08:20:48Z</time></trkpt><trkpt lat="43.462298151453986" lon="13.2427407987867"><ele>215.0</ele><time>2026-04-19T08:20:49Z</time></trkpt><trkpt lat="43.46226621603318" lon="13.242598593896682"><ele>215.0</ele><time>2026-04-19T08:20:50Z</time></trkpt><trkpt lat="43.462239923032634" lon="13.242457725023291"><ele>215.0</ele><time>2026-04-19T08:20:51Z</time></trkpt><trkpt lat="43.462247364239964" lon="13.24232158098572"><ele>215.0</ele><time>2026-04-19T08:20:52Z</time></trkpt><trkpt lat="43.46223762834618" lon="13.242166686909027"><ele>215.0</ele><time>2026-04-19T08:20:53Z</time></trkpt><trkpt lat="43.46229131043456" lon="13.242023214638152"><ele>215.0</ele><time>2026-04-19T08:20:54Z</time></trkpt><trkpt lat="43.462340433377655" lon="13.241869646550038"><ele>214.75</ele><time>2026-04-19T08:20:55Z</time></trkpt><trkpt lat="43.46237930960898" lon="13.2417122622759"><ele>214.5</ele><time>2026-04-19T08:20:56Z</time></trkpt><trkpt lat="43.46243699880715" lon="13.241553952845196"><ele>214.25</ele><time>2026-04-19T08:20:57Z</time></trkpt><trkpt lat="43.46249867017184" lon="13.241392921095482"><ele>214.0</ele><time>2026-04-19T08:20:58Z</time></trkpt><trkpt lat="43.46255774557701" lon="13.24123376800188"><ele>212.75</ele><time>2026-04-19T08:20:59Z</time></trkpt><trkpt lat="43.46261886140035" lon="13.24108434317726"><ele>211.5</ele><time>2026-04-19T08:21:00Z</time></trkpt><trkpt lat="43.46270227222293" lon="13.240931197302977"><ele>210.25</ele><time>2026-04-19T08:21:01Z</time></trkpt><trkpt lat="43.46279239914378" lon="13.240786912638196"><ele>209.0</ele><time>2026-04-19T08:21:02Z</time></trkpt><trkpt lat="43.46289008576202" lon="13.24064072145212"><ele>209.0</ele><time>2026-04-19T08:21:03Z</time></trkpt><trkpt lat="43.46298260689308" lon="13.240490159048978"><ele>209.0</ele><time>2026-04-19T08:21:04.001Z</time></trkpt><trkpt lat="43.46308354499851" lon="13.240343100723896"><ele>209.0</ele><time>2026-04-19T08:21:05.001Z</time></trkpt><trkpt lat="43.46316947549218" lon="13.240181443449343"><ele>209.0</ele><time>2026-04-19T08:21:06.001Z</time></trkpt><trkpt lat="43.463246057321356" lon="13.240004313139025"><ele>209.0</ele><time>2026-04-19T08:21:07.001Z</time></trkpt><trkpt lat="43.463320083224495" lon="13.239838609451347"><ele>209.0</ele><time>2026-04-19T08:21:08.001Z</time></trkpt><trkpt lat="43.46339154219583" lon="13.239664784795227"><ele>209.0</ele><time>2026-04-19T08:21:09.001Z</time></trkpt><trkpt lat="43.463458127845264" lon="13.239496864119186"><ele>209.0</ele><time>2026-04-19T08:21:10.001Z</time></trkpt><trkpt lat="43.463515441215435" lon="13.23932852519547"><ele>209.25</ele><time>2026-04-19T08:21:11.001Z</time></trkpt><trkpt lat="43.463555237957905" lon="13.239151594366815"><ele>209.5</ele><time>2026-04-19T08:21:12.001Z</time></trkpt><trkpt lat="43.463580647154416" lon="13.238968733907253"><ele>209.75</ele><time>2026-04-19T08:21:13.001Z</time></trkpt><trkpt lat="43.46359214663164" lon="13.238773574074358"><ele>210.0</ele><time>2026-04-19T08:21:14.001Z</time></trkpt><trkpt lat="43.46360025814762" lon="13.238583775903123"><ele>209.0</ele><time>2026-04-19T08:21:15.001Z</time></trkpt><trkpt lat="43.4636285168404" lon="13.238394643421037"><ele>208.0</ele><time>2026-04-19T08:21:16.001Z</time></trkpt><trkpt lat="43.463646140252166" lon="13.238195028819632"><ele>207.0</ele><time>2026-04-19T08:21:17.001Z</time></trkpt><trkpt lat="43.46364870253441" lon="13.238001264939781"><ele>206.0</ele><time>2026-04-19T08:21:18.001Z</time></trkpt><trkpt lat="43.46368002946533" lon="13.237811176526247"><ele>205.75</ele><time>2026-04-19T08:21:19.001Z</time></trkpt><trkpt lat="43.46370111837523" lon="13.237609067643875"><ele>205.5</ele><time>2026-04-19T08:21:20.001Z</time></trkpt><trkpt lat="43.46373397781986" lon="13.237420954146902"><ele>205.25</ele><time>2026-04-19T08:21:21.001Z</time></trkpt><trkpt lat="43.463770091760864" lon="13.237251329735933"><ele>205.0</ele><time>2026-04-19T08:21:22.001Z</time></trkpt><trkpt lat="43.463812100541034" lon="13.237088287287248"><ele>206.0</ele><time>2026-04-19T08:21:23.001Z</time></trkpt><trkpt lat="43.46384392405165" lon="13.236928676569574"><ele>207.0</ele><time>2026-04-19T08:21:24.001Z</time></trkpt><trkpt lat="43.463893770846056" lon="13.236777626455572"><ele>208.0</ele><time>2026-04-19T08:21:25.001Z</time></trkpt><trkpt lat="43.46394236808575" lon="13.236632541970202"><ele>209.0</ele><time>2026-04-19T08:21:26.001Z</time></trkpt><trkpt lat="43.4640215028002" lon="13.236347235272246"><ele>209.0</ele><time>2026-04-19T08:21:28.001Z</time></trkpt><trkpt lat="43.464050809024286" lon="13.236206904913487"><ele>209.0</ele><time>2026-04-19T08:21:29.001Z</time></trkpt><trkpt lat="43.46409125806962" lon="13.236072131170419"><ele>209.0</ele><time>2026-04-19T08:21:30.001Z</time></trkpt><trkpt lat="43.46415398562045" lon="13.235950468957858"><ele>209.0</ele><time>2026-04-19T08:21:31.001Z</time></trkpt><trkpt lat="43.46419717051969" lon="13.235813507427011"><ele>209.0</ele><time>2026-04-19T08:21:32.001Z</time></trkpt><trkpt lat="43.46426589999585" lon="13.235680257116583"><ele>208.25</ele><time>2026-04-19T08:21:33.001Z</time></trkpt><trkpt lat="43.464343754564986" lon="13.235549296926916"><ele>207.5</ele><time>2026-04-19T08:21:34.001Z</time></trkpt><trkpt lat="43.46443228871466" lon="13.235425769274869"><ele>206.75</ele><time>2026-04-19T08:21:35.001Z</time></trkpt><trkpt lat="43.46453935979542" lon="13.23533633284949"><ele>206.0</ele><time>2026-04-19T08:21:36.001Z</time></trkpt><trkpt lat="43.46464129186801" lon="13.235244997510943"><ele>207.75</ele><time>2026-04-19T08:21:37.001Z</time></trkpt><trkpt lat="43.46474975462384" lon="13.235169227783006"><ele>209.5</ele><time>2026-04-19T08:21:38.001Z</time></trkpt><trkpt lat="43.464869797377446" lon="13.235095988959104"><ele>211.25</ele><time>2026-04-19T08:21:39.001Z</time></trkpt><trkpt lat="43.4649848127473" lon="13.235012737115317"><ele>213.0</ele><time>2026-04-19T08:21:40.001Z</time></trkpt><trkpt lat="43.465106694558344" lon="13.234945013090522"><ele>213.0</ele><time>2026-04-19T08:21:41.001Z</time></trkpt><trkpt lat="43.465229087607675" lon="13.234868875581684"><ele>213.0</ele><time>2026-04-19T08:21:42.001Z</time></trkpt><trkpt lat="43.46535388505521" lon="13.234790035240902"><ele>213.0</ele><time>2026-04-19T08:21:43.001Z</time></trkpt><trkpt lat="43.465478417475566" lon="13.234708021012029"><ele>213.0</ele><time>2026-04-19T08:21:44.001Z</time></trkpt><trkpt lat="43.465606596731455" lon="13.234625537963955"><ele>214.25</ele><time>2026-04-19T08:21:45.001Z</time></trkpt><trkpt lat="43.46574036699669" lon="13.234554955079458"><ele>215.5</ele><time>2026-04-19T08:21:46.001Z</time></trkpt><trkpt lat="43.46586965224614" lon="13.234460860794567"><ele>216.75</ele><time>2026-04-19T08:21:47.001Z</time></trkpt><trkpt lat="43.4660042417353" lon="13.234370573536884"><ele>218.0</ele><time>2026-04-19T08:21:48.001Z</time></trkpt><trkpt lat="43.466126721429674" lon="13.23425723939505"><ele>218.0</ele><time>2026-04-19T08:21:49.001Z</time></trkpt><trkpt lat="43.466241033027124" lon="13.234128247220967"><ele>218.0</ele><time>2026-04-19T08:21:50.001Z</time></trkpt><trkpt lat="43.4663553766454" lon="13.233994098037188"><ele>218.0</ele><time>2026-04-19T08:21:51.001Z</time></trkpt><trkpt lat="43.46647035781181" lon="13.23386095488258"><ele>218.0</ele><time>2026-04-19T08:21:52.001Z</time></trkpt><trkpt lat="43.466584889454055" lon="13.23372686359459"><ele>219.25</ele><time>2026-04-19T08:21:53.001Z</time></trkpt><trkpt lat="43.46669962287735" lon="13.233589946363184"><ele>220.5</ele><time>2026-04-19T08:21:54.001Z</time></trkpt><trkpt lat="43.4668118020203" lon="13.233451358043595"><ele>221.75</ele><time>2026-04-19T08:21:55.001Z</time></trkpt><trkpt lat="43.46691959713253" lon="13.233318476353247"><ele>223.0</ele><time>2026-04-19T08:21:56.001Z</time></trkpt><trkpt lat="43.467028537466064" lon="13.23318175611089"><ele>224.25</ele><time>2026-04-19T08:21:57.001Z</time></trkpt><trkpt lat="43.46713907181165" lon="13.233040855314"><ele>225.5</ele><time>2026-04-19T08:21:58.002Z</time></trkpt><trkpt lat="43.467250951945594" lon="13.232903823885472"><ele>226.75</ele><time>2026-04-19T08:21:59.002Z</time></trkpt><trkpt lat="43.467365673159" lon="13.232772991863289"><ele>228.0</ele><time>2026-04-19T08:22:00.002Z</time></trkpt><trkpt lat="43.467501342552495" lon="13.232667629320085"><ele>228.0</ele><time>2026-04-19T08:22:01.002Z</time></trkpt><trkpt lat="43.46763337868899" lon="13.232559798039745"><ele>228.0</ele><time>2026-04-19T08:22:02.002Z</time></trkpt><trkpt lat="43.46776354759883" lon="13.232460442478034"><ele>228.0</ele><time>2026-04-19T08:22:03.002Z</time></trkpt><trkpt lat="43.46789088799474" lon="13.232343127189303"><ele>229.66666666666669</ele><time>2026-04-19T08:22:04.002Z</time></trkpt><trkpt lat="43.46802532527445" lon="13.232238504895943"><ele>231.33333333333334</ele><time>2026-04-19T08:22:05.002Z</time></trkpt><trkpt lat="43.46815940293723" lon="13.232131922711341"><ele>233.0</ele><time>2026-04-19T08:22:06.002Z</time></trkpt><trkpt lat="43.46828645128185" lon="13.232013059769516"><ele>233.0</ele><time>2026-04-19T08:22:07.002Z</time></trkpt><trkpt lat="43.468417888352846" lon="13.231890681947181"><ele>233.0</ele><time>2026-04-19T08:22:08.002Z</time></trkpt><trkpt lat="43.468534757928424" lon="13.231757413181041"><ele>233.0</ele><time>2026-04-19T08:22:09.002Z</time></trkpt><trkpt lat="43.46863615752429" lon="13.231641851245103"><ele>233.0</ele><time>2026-04-19T08:22:10.002Z</time></trkpt><trkpt lat="43.46873640784733" lon="13.23152584558292"><ele>232.8</ele><time>2026-04-19T08:22:11.002Z</time></trkpt><trkpt lat="43.46881767048429" lon="13.23142319614729"><ele>232.60000000000002</ele><time>2026-04-19T08:22:12.002Z</time></trkpt><trkpt lat="43.46887203071836" lon="13.231328667172853"><ele>232.39999999999998</ele><time>2026-04-19T08:22:13.002Z</time></trkpt><trkpt lat="43.468925375450524" lon="13.231214223212808"><ele>232.2</ele><time>2026-04-19T08:22:14.002Z</time></trkpt><trkpt lat="43.46897753365869" lon="13.231074207165499"><ele>232.0</ele><time>2026-04-19T08:22:15.002Z</time></trkpt><trkpt lat="43.46903047850496" lon="13.23091699819078"><ele>232.0</ele><time>2026-04-19T08:22:16.002Z</time></trkpt><trkpt lat="43.46908090431852" lon="13.230754231996158"><ele>232.0</ele><time>2026-04-19T08:22:17.002Z</time></trkpt><trkpt lat="43.46912231193042" lon="13.230599268874094"><ele>232.0</ele><time>2026-04-19T08:22:18.002Z</time></trkpt><trkpt lat="43.46915372332215" lon="13.230448974893108"><ele>232.0</ele><time>2026-04-19T08:22:19.002Z</time></trkpt><trkpt lat="43.46918350874741" lon="13.230295909880303"><ele>232.25</ele><time>2026-04-19T08:22:20.002Z</time></trkpt><trkpt lat="43.46917762716246" lon="13.2301250669593"><ele>232.5</ele><time>2026-04-19T08:22:21.002Z</time></trkpt><trkpt lat="43.46913356739482" lon="13.229953465382835"><ele>232.75</ele><time>2026-04-19T08:22:22.002Z</time></trkpt><trkpt lat="43.469103187616874" lon="13.229766128622218"><ele>233.0</ele><time>2026-04-19T08:22:23.002Z</time></trkpt><trkpt lat="43.46903280546955" lon="13.229616116258006"><ele>231.75</ele><time>2026-04-19T08:22:24.002Z</time></trkpt><trkpt lat="43.468973929232234" lon="13.22945793788704"><ele>230.5</ele><time>2026-04-19T08:22:25.002Z</time></trkpt><trkpt lat="43.468927934270866" lon="13.22930720741393"><ele>229.25</ele><time>2026-04-19T08:22:26.002Z</time></trkpt><trkpt lat="43.468873911229565" lon="13.22917951638784"><ele>228.0</ele><time>2026-04-19T08:22:27.002Z</time></trkpt><trkpt lat="43.468815241120744" lon="13.229039486292136"><ele>228.2</ele><time>2026-04-19T08:22:28.002Z</time></trkpt><trkpt lat="43.46875127023802" lon="13.228897500744907"><ele>228.4</ele><time>2026-04-19T08:22:29Z</time></trkpt><trkpt lat="43.46870243369894" lon="13.228751477100259"><ele>228.59999999999997</ele><time>2026-04-19T08:22:30Z</time></trkpt><trkpt lat="43.4686705883177" lon="13.228608387248146"><ele>228.79999999999998</ele><time>2026-04-19T08:22:31Z</time></trkpt><trkpt lat="43.46865366366054" lon="13.228471124013703"><ele>229.0</ele><time>2026-04-19T08:22:32Z</time></trkpt><trkpt lat="43.46865336858221" lon="13.228335290903589"><ele>229.0</ele><time>2026-04-19T08:22:33Z</time></trkpt><trkpt lat="43.468663520708986" lon="13.228193159570422"><ele>229.0</ele><time>2026-04-19T08:22:34Z</time></trkpt><trkpt lat="43.4686804156857" lon="13.228034012590879"><ele>229.0</ele><time>2026-04-19T08:22:35Z</time></trkpt><trkpt lat="43.46872133302172" lon="13.227872054051637"><ele>229.0</ele><time>2026-04-19T08:22:36Z</time></trkpt><trkpt lat="43.468749978547166" lon="13.227706633401755"><ele>228.5</ele><time>2026-04-19T08:22:37Z</time></trkpt><trkpt lat="43.468752563364" lon="13.227532671250078"><ele>228.0</ele><time>2026-04-19T08:22:38Z</time></trkpt><trkpt lat="43.4687524999931" lon="13.227346802229327"><ele>227.5</ele><time>2026-04-19T08:22:39Z</time></trkpt><trkpt lat="43.46873664073298" lon="13.227158497158895"><ele>227.0</ele><time>2026-04-19T08:22:40Z</time></trkpt><trkpt lat="43.46873203755088" lon="13.226966761078298"><ele>227.0</ele><time>2026-04-19T08:22:41Z</time></trkpt><trkpt lat="43.468736014105104" lon="13.226767378786246"><ele>227.0</ele><time>2026-04-19T08:22:42Z</time></trkpt><trkpt lat="43.468734605931296" lon="13.226572687514443"><ele>227.0</ele><time>2026-04-19T08:22:43Z</time></trkpt><trkpt lat="43.46872632771586" lon="13.226376979123753"><ele>227.0</ele><time>2026-04-19T08:22:44Z</time></trkpt><trkpt lat="43.46871580466226" lon="13.226191181726726"><ele>226.75</ele><time>2026-04-19T08:22:45Z</time></trkpt><trkpt lat="43.46870285541105" lon="13.22600648854702"><ele>226.5</ele><time>2026-04-19T08:22:46Z</time></trkpt><trkpt lat="43.46869031841644" lon="13.225827675408645"><ele>226.25</ele><time>2026-04-19T08:22:47Z</time></trkpt><trkpt lat="43.46866670672754" lon="13.225646682364237"><ele>226.0</ele><time>2026-04-19T08:22:48Z</time></trkpt><trkpt lat="43.468656758139666" lon="13.225465037794432"><ele>226.0</ele><time>2026-04-19T08:22:49Z</time></trkpt><trkpt lat="43.4686477469343" lon="13.22527470017586"><ele>226.0</ele><time>2026-04-19T08:22:50Z</time></trkpt><trkpt lat="43.46864275605872" lon="13.225089252257325"><ele>226.0</ele><time>2026-04-19T08:22:51Z</time></trkpt><trkpt lat="43.468622003366136" lon="13.224909597893427"><ele>226.0</ele><time>2026-04-19T08:22:52Z</time></trkpt><trkpt lat="43.46859817320858" lon="13.224741020825302"><ele>225.5</ele><time>2026-04-19T08:22:53Z</time></trkpt><trkpt lat="43.468568279094605" lon="13.224567702241359"><ele>225.0</ele><time>2026-04-19T08:22:54Z</time></trkpt><trkpt lat="43.46851687290186" lon="13.224386673728091"><ele>224.5</ele><time>2026-04-19T08:22:55Z</time></trkpt><trkpt lat="43.4684543600224" lon="13.224197838017396"><ele>224.0</ele><time>2026-04-19T08:22:56Z</time></trkpt><trkpt lat="43.46839290118639" lon="13.224012100580135"><ele>223.66666666666669</ele><time>2026-04-19T08:22:57Z</time></trkpt><trkpt lat="43.46836770078962" lon="13.223809495788027"><ele>223.33333333333331</ele><time>2026-04-19T08:22:58Z</time></trkpt><trkpt lat="43.468343225225354" lon="13.22359784262518"><ele>223.0</ele><time>2026-04-19T08:22:59Z</time></trkpt><trkpt lat="43.46832469063706" lon="13.22337580588575"><ele>223.0</ele><time>2026-04-19T08:23:00Z</time></trkpt><trkpt lat="43.46829061383247" lon="13.223152506937717"><ele>223.0</ele><time>2026-04-19T08:23:01Z</time></trkpt><trkpt lat="43.46827434819019" lon="13.22294219019166"><ele>223.0</ele><time>2026-04-19T08:23:02Z</time></trkpt><trkpt lat="43.468257612812906" lon="13.22274501031875"><ele>223.33333333333331</ele><time>2026-04-19T08:23:03Z</time></trkpt><trkpt lat="43.46823623670725" lon="13.222538216559176"><ele>223.66666666666669</ele><time>2026-04-19T08:23:04Z</time></trkpt><trkpt lat="43.46822948477488" lon="13.22233565380716"><ele>224.0</ele><time>2026-04-19T08:23:05Z</time></trkpt><trkpt lat="43.46820645119747" lon="13.222119562032118"><ele>224.25</ele><time>2026-04-19T08:23:06Z</time></trkpt><trkpt lat="43.468182025205444" lon="13.221912911847738"><ele>224.5</ele><time>2026-04-19T08:23:07Z</time></trkpt><trkpt lat="43.468157144846586" lon="13.221702417498333"><ele>224.75</ele><time>2026-04-19T08:23:08.001Z</time></trkpt><trkpt lat="43.468136169987865" lon="13.221509570217224"><ele>225.0</ele><time>2026-04-19T08:23:09.001Z</time></trkpt><trkpt lat="43.468122157496566" lon="13.221321963311551"><ele>225.66666666666669</ele><time>2026-04-19T08:23:10.001Z</time></trkpt><trkpt lat="43.46812015079034" lon="13.22112832796414"><ele>226.33333333333334</ele><time>2026-04-19T08:23:11.001Z</time></trkpt><trkpt lat="43.468132262529195" lon="13.220952873453113"><ele>227.0</ele><time>2026-04-19T08:23:12.001Z</time></trkpt><trkpt lat="43.4681961463041" lon="13.220586916577357"><ele>227.25</ele><time>2026-04-19T08:23:14.001Z</time></trkpt><trkpt lat="43.468222135441955" lon="13.220392392521914"><ele>227.5</ele><time>2026-04-19T08:23:15.001Z</time></trkpt><trkpt lat="43.468246661667514" lon="13.220194999709792"><ele>227.75</ele><time>2026-04-19T08:23:16.001Z</time></trkpt><trkpt lat="43.46826599292331" lon="13.21999795220203"><ele>228.0</ele><time>2026-04-19T08:23:17.001Z</time></trkpt><trkpt lat="43.46827481764987" lon="13.219816389980139"><ele>228.0</ele><time>2026-04-19T08:23:18.001Z</time></trkpt><trkpt lat="43.46830431283473" lon="13.21964084900534"><ele>228.0</ele><time>2026-04-19T08:23:19.001Z</time></trkpt><trkpt lat="43.468308168966345" lon="13.219474732785832"><ele>228.0</ele><time>2026-04-19T08:23:20.001Z</time></trkpt><trkpt lat="43.468325500802784" lon="13.219356719676512"><ele>228.0</ele><time>2026-04-19T08:23:21.001Z</time></trkpt><trkpt lat="43.46834455542231" lon="13.219265419207142"><ele>228.0</ele><time>2026-04-19T08:23:22.001Z</time></trkpt><trkpt lat="43.4683614420468" lon="13.219138276522617"><ele>228.0</ele><time>2026-04-19T08:23:23.001Z</time></trkpt><trkpt lat="43.46838156488862" lon="13.218990629006392"><ele>228.0</ele><time>2026-04-19T08:23:24.001Z</time></trkpt><trkpt lat="43.46841220961812" lon="13.218834345656985"><ele>228.0</ele><time>2026-04-19T08:23:25.001Z</time></trkpt><trkpt lat="43.468460356238154" lon="13.218683568989313"><ele>228.0</ele><time>2026-04-19T08:23:26.001Z</time></trkpt><trkpt lat="43.468519823714104" lon="13.218548136244644"><ele>227.5</ele><time>2026-04-19T08:23:27.001Z</time></trkpt><trkpt lat="43.46858234896589" lon="13.218416230624094"><ele>227.0</ele><time>2026-04-19T08:23:28.001Z</time></trkpt><trkpt lat="43.46864707402452" lon="13.21828257413825"><ele>226.5</ele><time>2026-04-19T08:23:29.001Z</time></trkpt><trkpt lat="43.468708116654376" lon="13.218151364329259"><ele>226.0</ele><time>2026-04-19T08:23:30.001Z</time></trkpt><trkpt lat="43.46876662676082" lon="13.218004876546441"><ele>223.4</ele><time>2026-04-19T08:23:31.001Z</time></trkpt><trkpt lat="43.46882047711649" lon="13.217868574233675"><ele>220.8</ele><time>2026-04-19T08:23:32.001Z</time></trkpt><trkpt lat="43.468874396196" lon="13.217740925396027"><ele>218.20000000000002</ele><time>2026-04-19T08:23:33.001Z</time></trkpt><trkpt lat="43.468924655232655" lon="13.21761634440795"><ele>215.60000000000002</ele><time>2026-04-19T08:23:34.001Z</time></trkpt><trkpt lat="43.46896691270539" lon="13.217501573111035"><ele>213.0</ele><time>2026-04-19T08:23:35.001Z</time></trkpt><trkpt lat="43.469005700857146" lon="13.217387772214138"><ele>212.60000000000002</ele><time>2026-04-19T08:23:36.001Z</time></trkpt><trkpt lat="43.469026810903195" lon="13.217259638840813"><ele>212.20000000000002</ele><time>2026-04-19T08:23:37.001Z</time></trkpt><trkpt lat="43.46903176898909" lon="13.217142451690933"><ele>211.8</ele><time>2026-04-19T08:23:38.001Z</time></trkpt><trkpt lat="43.46902320959421" lon="13.217004299623326"><ele>211.4</ele><time>2026-04-19T08:23:40.001Z</time></trkpt><trkpt lat="43.46914586409514" lon="13.21689572197559"><ele>211.0</ele><time>2026-04-19T08:23:43.001Z</time></trkpt><trkpt lat="43.4692376340512" lon="13.216864250371536"><ele>211.0</ele><time>2026-04-19T08:23:44.001Z</time></trkpt><trkpt lat="43.46933814927568" lon="13.21680525721719"><ele>211.0</ele><time>2026-04-19T08:23:45.001Z</time></trkpt><trkpt lat="43.46945330377079" lon="13.216711844152961"><ele>211.0</ele><time>2026-04-19T08:23:46.001Z</time></trkpt><trkpt lat="43.469560433661584" lon="13.216596661167033"><ele>211.0</ele><time>2026-04-19T08:23:47.001Z</time></trkpt><trkpt lat="43.4696707985559" lon="13.216478236400707"><ele>208.66666666666666</ele><time>2026-04-19T08:23:48.001Z</time></trkpt><trkpt lat="43.469788236410665" lon="13.216347349680184"><ele>206.33333333333331</ele><time>2026-04-19T08:23:49.001Z</time></trkpt><trkpt lat="43.469909575012615" lon="13.216208500742193"><ele>204.0</ele><time>2026-04-19T08:23:50.001Z</time></trkpt><trkpt lat="43.47003136238579" lon="13.216083605424597"><ele>204.0</ele><time>2026-04-19T08:23:51.001Z</time></trkpt><trkpt lat="43.470147472198065" lon="13.215940155275309"><ele>204.0</ele><time>2026-04-19T08:23:52.001Z</time></trkpt><trkpt lat="43.4702592357673" lon="13.215803808344154"><ele>204.0</ele><time>2026-04-19T08:23:53.001Z</time></trkpt><trkpt lat="43.47035630691456" lon="13.215652524814477"><ele>200.66666666666669</ele><time>2026-04-19T08:23:54.001Z</time></trkpt><trkpt lat="43.47046268176436" lon="13.215493570088194"><ele>197.33333333333334</ele><time>2026-04-19T08:23:55.001Z</time></trkpt><trkpt lat="43.4705576505758" lon="13.215333179156309"><ele>194.0</ele><time>2026-04-19T08:23:56.001Z</time></trkpt><trkpt lat="43.470647278006744" lon="13.215165171900699"><ele>194.0</ele><time>2026-04-19T08:23:57.001Z</time></trkpt><trkpt lat="43.47073801178275" lon="13.214990342164848"><ele>194.0</ele><time>2026-04-19T08:23:58.001Z</time></trkpt><trkpt lat="43.470824400706455" lon="13.214817357775022"><ele>194.0</ele><time>2026-04-19T08:23:59.001Z</time></trkpt><trkpt lat="43.470906959184425" lon="13.214636389040143"><ele>192.66666666666669</ele><time>2026-04-19T08:24:00.001Z</time></trkpt><trkpt lat="43.470989811131375" lon="13.214451823119353"><ele>191.33333333333334</ele><time>2026-04-19T08:24:01.001Z</time></trkpt><trkpt lat="43.471071899989276" lon="13.214271956783547"><ele>190.0</ele><time>2026-04-19T08:24:02.002Z</time></trkpt><trkpt lat="43.47115568741085" lon="13.214089588153993"><ele>188.66666666666669</ele><time>2026-04-19T08:24:03.002Z</time></trkpt><trkpt lat="43.47123581170002" lon="13.213908453345928"><ele>187.33333333333334</ele><time>2026-04-19T08:24:04.002Z</time></trkpt><trkpt lat="43.47131479440191" lon="13.21372554686713"><ele>186.0</ele><time>2026-04-19T08:24:05.002Z</time></trkpt><trkpt lat="43.471398359586075" lon="13.213543816321707"><ele>185.66666666666666</ele><time>2026-04-19T08:24:06.002Z</time></trkpt><trkpt lat="43.471482808723586" lon="13.213362275748562"><ele>185.33333333333331</ele><time>2026-04-19T08:24:07.002Z</time></trkpt><trkpt lat="43.47156562162158" lon="13.213178289879906"><ele>185.0</ele><time>2026-04-19T08:24:08.002Z</time></trkpt><trkpt lat="43.471645939756016" lon="13.212993443401462"><ele>186.0</ele><time>2026-04-19T08:24:09.002Z</time></trkpt><trkpt lat="43.471722224092986" lon="13.212810906751676"><ele>187.0</ele><time>2026-04-19T08:24:10.002Z</time></trkpt><trkpt lat="43.47179272863913" lon="13.212624119097674"><ele>188.0</ele><time>2026-04-19T08:24:11.002Z</time></trkpt><trkpt lat="43.47186431598144" lon="13.212422817526098"><ele>188.66666666666666</ele><time>2026-04-19T08:24:12.002Z</time></trkpt><trkpt lat="43.47192791787496" lon="13.21222366375728"><ele>189.33333333333334</ele><time>2026-04-19T08:24:13.002Z</time></trkpt><trkpt lat="43.472009858200785" lon="13.212009885051446"><ele>190.0</ele><time>2026-04-19T08:24:14.002Z</time></trkpt><trkpt lat="43.47207254830876" lon="13.211820842844336"><ele>186.0</ele><time>2026-04-19T08:24:15.002Z</time></trkpt><trkpt lat="43.47214098939322" lon="13.21161540861058"><ele>182.0</ele><time>2026-04-19T08:24:16.002Z</time></trkpt><trkpt lat="43.472209874716384" lon="13.211408800932011"><ele>178.0</ele><time>2026-04-19T08:24:17.002Z</time></trkpt><trkpt lat="43.472270679815765" lon="13.211209447480472"><ele>177.66666666666669</ele><time>2026-04-19T08:24:18.002Z</time></trkpt><trkpt lat="43.47230593329001" lon="13.21099682823359"><ele>177.33333333333334</ele><time>2026-04-19T08:24:19.002Z</time></trkpt><trkpt lat="43.47233434788622" lon="13.210780522367862"><ele>177.0</ele><time>2026-04-19T08:24:20.002Z</time></trkpt><trkpt lat="43.472341577354456" lon="13.210561290183884"><ele>176.0</ele><time>2026-04-19T08:24:21.002Z</time></trkpt><trkpt lat="43.472338897497494" lon="13.210334969288684"><ele>175.0</ele><time>2026-04-19T08:24:22.002Z</time></trkpt><trkpt lat="43.472338207952255" lon="13.210103138845415"><ele>174.0</ele><time>2026-04-19T08:24:23.002Z</time></trkpt><trkpt lat="43.47233075450855" lon="13.209881303796644"><ele>173.75</ele><time>2026-04-19T08:24:24.002Z</time></trkpt><trkpt lat="43.47231591432473" lon="13.20968068377855"><ele>173.5</ele><time>2026-04-19T08:24:25.002Z</time></trkpt><trkpt lat="43.47231705614565" lon="13.209473701620452"><ele>173.25</ele><time>2026-04-19T08:24:26.002Z</time></trkpt><trkpt lat="43.47230224604435" lon="13.209282123602458"><ele>173.0</ele><time>2026-04-19T08:24:27.002Z</time></trkpt><trkpt lat="43.472283875607495" lon="13.209107190283422"><ele>172.5</ele><time>2026-04-19T08:24:28.002Z</time></trkpt><trkpt lat="43.47227004011794" lon="13.208959431886083"><ele>172.0</ele><time>2026-04-19T08:24:29.002Z</time></trkpt><trkpt lat="43.47226286941442" lon="13.208833585946708"><ele>171.5</ele><time>2026-04-19T08:24:30.002Z</time></trkpt><trkpt lat="43.4722712209992" lon="13.208716233947817"><ele>171.0</ele><time>2026-04-19T08:24:31.002Z</time></trkpt><trkpt lat="43.47230827829958" lon="13.208625554149855"><ele>170.5</ele><time>2026-04-19T08:24:32.002Z</time></trkpt><trkpt lat="43.472353610672776" lon="13.208546032023797"><ele>170.0</ele><time>2026-04-19T08:24:33.002Z</time></trkpt><trkpt lat="43.47242241907937" lon="13.208522635058722"><ele>170.0</ele><time>2026-04-19T08:24:34.002Z</time></trkpt><trkpt lat="43.47248363948196" lon="13.208557898716688"><ele>170.0</ele><time>2026-04-19T08:24:35Z</time></trkpt><trkpt lat="43.47254073365614" lon="13.208656321225268"><ele>170.0</ele><time>2026-04-19T08:24:37Z</time></trkpt><trkpt lat="43.47259943926468" lon="13.208724250004892"><ele>170.0</ele><time>2026-04-19T08:24:40Z</time></trkpt><trkpt lat="43.472640649814565" lon="13.208569565445123"><ele>170.0</ele><time>2026-04-19T08:24:43Z</time></trkpt><trkpt lat="43.47270914888587" lon="13.208403858109014"><ele>170.0</ele><time>2026-04-19T08:24:45Z</time></trkpt><trkpt lat="43.47275666402196" lon="13.208275166718593"><ele>170.0</ele><time>2026-04-19T08:24:46Z</time></trkpt><trkpt lat="43.472809345574525" lon="13.20814554959168"><ele>170.0</ele><time>2026-04-19T08:24:47Z</time></trkpt><trkpt lat="43.472867819548085" lon="13.208003726745234"><ele>170.0</ele><time>2026-04-19T08:24:48Z</time></trkpt><trkpt lat="43.4729300251899" lon="13.207852853394112"><ele>168.25</ele><time>2026-04-19T08:24:49Z</time></trkpt><trkpt lat="43.47299516426591" lon="13.207694864682399"><ele>166.5</ele><time>2026-04-19T08:24:50Z</time></trkpt><trkpt lat="43.47304818295761" lon="13.207541760261513"><ele>164.75</ele><time>2026-04-19T08:24:51Z</time></trkpt><trkpt lat="43.47311925815115" lon="13.207403638720233"><ele>163.0</ele><time>2026-04-19T08:24:52Z</time></trkpt><trkpt lat="43.473169584772144" lon="13.207227449226785"><ele>163.0</ele><time>2026-04-19T08:24:53Z</time></trkpt><trkpt lat="43.47323549914263" lon="13.207066420638352"><ele>163.0</ele><time>2026-04-19T08:24:54Z</time></trkpt><trkpt lat="43.473292055256714" lon="13.206900581822646"><ele>163.0</ele><time>2026-04-19T08:24:55Z</time></trkpt><trkpt lat="43.47336194415119" lon="13.206728698452219"><ele>163.0</ele><time>2026-04-19T08:24:56Z</time></trkpt><trkpt lat="43.47342229920984" lon="13.206542455459138"><ele>164.25</ele><time>2026-04-19T08:24:57Z</time></trkpt><trkpt lat="43.47349042992577" lon="13.206367318671097"><ele>165.5</ele><time>2026-04-19T08:24:58Z</time></trkpt><trkpt lat="43.47358409006523" lon="13.206231936802334"><ele>166.75</ele><time>2026-04-19T08:24:59Z</time></trkpt><trkpt lat="43.47366393008053" lon="13.206102890663823"><ele>168.0</ele><time>2026-04-19T08:25:00Z</time></trkpt><trkpt lat="43.47374097331062" lon="13.205989455855578"><ele>167.16666666666666</ele><time>2026-04-19T08:25:01Z</time></trkpt><trkpt lat="43.47380469597023" lon="13.205871353777955"><ele>166.33333333333334</ele><time>2026-04-19T08:25:02Z</time></trkpt><trkpt lat="43.473865744002126" lon="13.20576532282897"><ele>165.5</ele><time>2026-04-19T08:25:03Z</time></trkpt><trkpt lat="43.47392727953263" lon="13.205683894333331"><ele>164.66666666666669</ele><time>2026-04-19T08:25:04Z</time></trkpt><trkpt lat="43.47397931655967" lon="13.205602272182107"><ele>163.83333333333334</ele><time>2026-04-19T08:25:05Z</time></trkpt><trkpt lat="43.474033277115055" lon="13.205531707866852"><ele>163.0</ele><time>2026-04-19T08:25:06Z</time></trkpt><trkpt lat="43.474086795074456" lon="13.205452695381869"><ele>163.0</ele><time>2026-04-19T08:25:07Z</time></trkpt><trkpt lat="43.4741318856923" lon="13.205353632608743"><ele>163.0</ele><time>2026-04-19T08:25:08Z</time></trkpt><trkpt lat="43.47416047265866" lon="13.205231009676154"><ele>163.0</ele><time>2026-04-19T08:25:09Z</time></trkpt><trkpt lat="43.47417724494381" lon="13.205096773565764"><ele>163.0</ele><time>2026-04-19T08:25:10Z</time></trkpt><trkpt lat="43.4741865155913" lon="13.204943754578931"><ele>163.0</ele><time>2026-04-19T08:25:11Z</time></trkpt><trkpt lat="43.47418777597524" lon="13.204772221494983"><ele>162.0</ele><time>2026-04-19T08:25:12.001Z</time></trkpt><trkpt lat="43.47417183481575" lon="13.204590013346728"><ele>161.0</ele><time>2026-04-19T08:25:13.001Z</time></trkpt><trkpt lat="43.47415230064469" lon="13.20440841712649"><ele>160.0</ele><time>2026-04-19T08:25:14.001Z</time></trkpt><trkpt lat="43.47413193969021" lon="13.20422251130057"><ele>159.0</ele><time>2026-04-19T08:25:15.001Z</time></trkpt><trkpt lat="43.4741089072153" lon="13.20402391908167"><ele>158.25</ele><time>2026-04-19T08:25:16.001Z</time></trkpt><trkpt lat="43.47410714575464" lon="13.203827883511435"><ele>157.5</ele><time>2026-04-19T08:25:17.001Z</time></trkpt><trkpt lat="43.47407505252623" lon="13.203654403811436"><ele>156.75</ele><time>2026-04-19T08:25:18.001Z</time></trkpt><trkpt lat="43.47406129037923" lon="13.203488211156007"><ele>156.0</ele><time>2026-04-19T08:25:19.001Z</time></trkpt><trkpt lat="43.47403860768242" lon="13.20332144195913"><ele>155.0</ele><time>2026-04-19T08:25:20.001Z</time></trkpt><trkpt lat="43.47399256563113" lon="13.203156010600436"><ele>154.0</ele><time>2026-04-19T08:25:21.001Z</time></trkpt><trkpt lat="43.47392477256061" lon="13.202987397136802"><ele>153.0</ele><time>2026-04-19T08:25:22.001Z</time></trkpt><trkpt lat="43.473849977503555" lon="13.202814144446378"><ele>152.0</ele><time>2026-04-19T08:25:23.001Z</time></trkpt><trkpt lat="43.473791494572595" lon="13.202630918871256"><ele>152.5</ele><time>2026-04-19T08:25:24.001Z</time></trkpt><trkpt lat="43.4737084437243" lon="13.202473554457127"><ele>153.0</ele><time>2026-04-19T08:25:25.001Z</time></trkpt><trkpt lat="43.473645628430724" lon="13.202294207033926"><ele>153.5</ele><time>2026-04-19T08:25:26.001Z</time></trkpt><trkpt lat="43.473576330518576" lon="13.202106410150982"><ele>154.0</ele><time>2026-04-19T08:25:27.001Z</time></trkpt><trkpt lat="43.47350890372288" lon="13.201925829558231"><ele>152.66666666666669</ele><time>2026-04-19T08:25:28.001Z</time></trkpt><trkpt lat="43.473443664698905" lon="13.20173504798041"><ele>151.33333333333334</ele><time>2026-04-19T08:25:29.001Z</time></trkpt><trkpt lat="43.473396612553074" lon="13.201528330164905"><ele>150.0</ele><time>2026-04-19T08:25:30.001Z</time></trkpt><trkpt lat="43.473338573474265" lon="13.201333332678642"><ele>149.33333333333334</ele><time>2026-04-19T08:25:31.001Z</time></trkpt><trkpt lat="43.4732640543426" lon="13.201139330211143"><ele>148.66666666666669</ele><time>2026-04-19T08:25:32.001Z</time></trkpt><trkpt lat="43.473205234542625" lon="13.200932153667276"><ele>148.0</ele><time>2026-04-19T08:25:33.001Z</time></trkpt><trkpt lat="43.47315194003558" lon="13.200726963164877"><ele>147.0</ele><time>2026-04-19T08:25:34.001Z</time></trkpt><trkpt lat="43.47310427274254" lon="13.200530838712584"><ele>146.0</ele><time>2026-04-19T08:25:35.001Z</time></trkpt><trkpt lat="43.47306546907262" lon="13.200320956662457"><ele>145.0</ele><time>2026-04-19T08:25:36.001Z</time></trkpt><trkpt lat="43.473040092926475" lon="13.200107772091828"><ele>145.0</ele><time>2026-04-19T08:25:37.001Z</time></trkpt><trkpt lat="43.4730203152264" lon="13.199892857868182"><ele>145.0</ele><time>2026-04-19T08:25:38.001Z</time></trkpt><trkpt lat="43.47302442970586" lon="13.199678454456077"><ele>145.0</ele><time>2026-04-19T08:25:39.001Z</time></trkpt><trkpt lat="43.47300065296537" lon="13.1994742645732"><ele>144.0</ele><time>2026-04-19T08:25:40.001Z</time></trkpt><trkpt lat="43.472985874045996" lon="13.19926375427382"><ele>143.0</ele><time>2026-04-19T08:25:41.001Z</time></trkpt><trkpt lat="43.47297242202108" lon="13.199048735883695"><ele>142.0</ele><time>2026-04-19T08:25:42.001Z</time></trkpt><trkpt lat="43.47296267809125" lon="13.198831381568294"><ele>141.66666666666669</ele><time>2026-04-19T08:25:43.001Z</time></trkpt><trkpt lat="43.47295468952344" lon="13.198618241489351"><ele>141.33333333333334</ele><time>2026-04-19T08:25:44.001Z</time></trkpt><trkpt lat="43.4729679438297" lon="13.19840239421782"><ele>141.0</ele><time>2026-04-19T08:25:45.001Z</time></trkpt><trkpt lat="43.47298467048797" lon="13.1982098521742"><ele>141.66666666666666</ele><time>2026-04-19T08:25:46.001Z</time></trkpt><trkpt lat="43.47301616184183" lon="13.198009989147526"><ele>142.33333333333331</ele><time>2026-04-19T08:25:47.001Z</time></trkpt><trkpt lat="43.47305406567937" lon="13.19780518887758"><ele>143.0</ele><time>2026-04-19T08:25:48.001Z</time></trkpt><trkpt lat="43.47309600851132" lon="13.197599015765599"><ele>143.0</ele><time>2026-04-19T08:25:49.001Z</time></trkpt><trkpt lat="43.473134367930705" lon="13.197381330749119"><ele>143.0</ele><time>2026-04-19T08:25:50.001Z</time></trkpt><trkpt lat="43.47315401360639" lon="13.197141763799712"><ele>143.0</ele><time>2026-04-19T08:25:51.001Z</time></trkpt><trkpt lat="43.47317455328038" lon="13.196914802305077"><ele>142.66666666666666</ele><time>2026-04-19T08:25:52.001Z</time></trkpt><trkpt lat="43.47320752860546" lon="13.196681142000399"><ele>142.33333333333334</ele><time>2026-04-19T08:25:53.001Z</time></trkpt><trkpt lat="43.473222882079924" lon="13.196452583529537"><ele>142.0</ele><time>2026-04-19T08:25:54.001Z</time></trkpt><trkpt lat="43.47323795939321" lon="13.196228138748191"><ele>142.0</ele><time>2026-04-19T08:25:55.001Z</time></trkpt><trkpt lat="43.473251692677394" lon="13.196014957155505"><ele>142.0</ele><time>2026-04-19T08:25:56.001Z</time></trkpt><trkpt lat="43.473265553905094" lon="13.195801655337092"><ele>142.0</ele><time>2026-04-19T08:25:57.001Z</time></trkpt><trkpt lat="43.47327927237288" lon="13.195590550535387"><ele>142.0</ele><time>2026-04-19T08:25:58.001Z</time></trkpt><trkpt lat="43.47329479353294" lon="13.195390386496586"><ele>142.0</ele><time>2026-04-19T08:25:59.001Z</time></trkpt><trkpt lat="43.47331391079732" lon="13.195184520930194"><ele>142.0</ele><time>2026-04-19T08:26:00.001Z</time></trkpt><trkpt lat="43.473336446394484" lon="13.194979517923677"><ele>142.0</ele><time>2026-04-19T08:26:01.001Z</time></trkpt><trkpt lat="43.47336237516076" lon="13.19475981793287"><ele>142.0</ele><time>2026-04-19T08:26:02.001Z</time></trkpt><trkpt lat="43.47338817603281" lon="13.194548536588808"><ele>142.0</ele><time>2026-04-19T08:26:03.001Z</time></trkpt><trkpt lat="43.473413096084684" lon="13.194336502450625"><ele>142.0</ele><time>2026-04-19T08:26:04.001Z</time></trkpt><trkpt lat="43.4734343625786" lon="13.194132684153926"><ele>141.0</ele><time>2026-04-19T08:26:05.002Z</time></trkpt><trkpt lat="43.473454378275854" lon="13.1939227656793"><ele>140.0</ele><time>2026-04-19T08:26:06.002Z</time></trkpt><trkpt lat="43.47347380695368" lon="13.193711098004862"><ele>139.0</ele><time>2026-04-19T08:26:07.002Z</time></trkpt><trkpt lat="43.47349397886988" lon="13.193501220338108"><ele>139.0</ele><time>2026-04-19T08:26:08.002Z</time></trkpt><trkpt lat="43.47351721640282" lon="13.193293086102624"><ele>139.0</ele><time>2026-04-19T08:26:09.002Z</time></trkpt><trkpt lat="43.47354588540248" lon="13.193079040921159"><ele>139.0</ele><time>2026-04-19T08:26:10.002Z</time></trkpt><trkpt lat="43.473577420394435" lon="13.192875720534195"><ele>139.0</ele><time>2026-04-19T08:26:11.002Z</time></trkpt><trkpt lat="43.473609752451715" lon="13.192667261324337"><ele>139.0</ele><time>2026-04-19T08:26:12.002Z</time></trkpt><trkpt lat="43.47364209489414" lon="13.19245873488322"><ele>139.0</ele><time>2026-04-19T08:26:13.002Z</time></trkpt><trkpt lat="43.47367470868351" lon="13.192250646810715"><ele>138.75</ele><time>2026-04-19T08:26:14.002Z</time></trkpt><trkpt lat="43.4736906928444" lon="13.1920591246788"><ele>138.5</ele><time>2026-04-19T08:26:15.002Z</time></trkpt><trkpt lat="43.47372104078936" lon="13.191883396452704"><ele>138.25</ele><time>2026-04-19T08:26:16.002Z</time></trkpt><trkpt lat="43.47376712481217" lon="13.191732983850052"><ele>138.0</ele><time>2026-04-19T08:26:17.002Z</time></trkpt><trkpt lat="43.473796637106275" lon="13.191627411393858"><ele>136.20000000000002</ele><time>2026-04-19T08:26:18.002Z</time></trkpt><trkpt lat="43.4738222752303" lon="13.191540613057496"><ele>134.4</ele><time>2026-04-19T08:26:19.002Z</time></trkpt><trkpt lat="43.473890512477354" lon="13.19147828287732"><ele>132.60000000000002</ele><time>2026-04-19T08:26:20.002Z</time></trkpt><trkpt lat="43.473988807562655" lon="13.191417226413634"><ele>130.8</ele><time>2026-04-19T08:26:21.002Z</time></trkpt><trkpt lat="43.47410345307916" lon="13.191363659810488"><ele>129.0</ele><time>2026-04-19T08:26:22.002Z</time></trkpt><trkpt lat="43.474229604629144" lon="13.191318824151326"><ele>129.0</ele><time>2026-04-19T08:26:23.002Z</time></trkpt><trkpt lat="43.474364923133976" lon="13.19127378005178"><ele>129.0</ele><time>2026-04-19T08:26:24.002Z</time></trkpt><trkpt lat="43.47450271735057" lon="13.191223818693997"><ele>129.0</ele><time>2026-04-19T08:26:25.002Z</time></trkpt><trkpt lat="43.47464938667875" lon="13.191170225118576"><ele>129.0</ele><time>2026-04-19T08:26:26.002Z</time></trkpt><trkpt lat="43.47478640910973" lon="13.191116698483931"><ele>126.5</ele><time>2026-04-19T08:26:27.002Z</time></trkpt><trkpt lat="43.47491710979539" lon="13.191064447577823"><ele>124.0</ele><time>2026-04-19T08:26:28.002Z</time></trkpt><trkpt lat="43.47504528010025" lon="13.191013191674195"><ele>121.5</ele><time>2026-04-19T08:26:29.002Z</time></trkpt><trkpt lat="43.47517617581435" lon="13.190963743362937"><ele>119.0</ele><time>2026-04-19T08:26:30.002Z</time></trkpt><trkpt lat="43.475311061483005" lon="13.190914859062831"><ele>116.33333333333333</ele><time>2026-04-19T08:26:31.002Z</time></trkpt><trkpt lat="43.47546129171753" lon="13.190859449293917"><ele>113.66666666666666</ele><time>2026-04-19T08:26:32.002Z</time></trkpt><trkpt lat="43.47561602872139" lon="13.19080288075635"><ele>111.0</ele><time>2026-04-19T08:26:33.002Z</time></trkpt><trkpt lat="43.47576866221765" lon="13.190746442075957"><ele>111.0</ele><time>2026-04-19T08:26:34.002Z</time></trkpt><trkpt lat="43.47591960136005" lon="13.190689269635149"><ele>111.0</ele><time>2026-04-19T08:26:35.002Z</time></trkpt><trkpt lat="43.47605609839907" lon="13.190639295790552"><ele>111.0</ele><time>2026-04-19T08:26:36.002Z</time></trkpt><trkpt lat="43.476190672092486" lon="13.190582905970492"><ele>111.0</ele><time>2026-04-19T08:26:37.002Z</time></trkpt><trkpt lat="43.47631839040967" lon="13.190510999825921"><ele>109.33333333333334</ele><time>2026-04-19T08:26:38.002Z</time></trkpt><trkpt lat="43.47644607337041" lon="13.190413250965372"><ele>107.66666666666667</ele><time>2026-04-19T08:26:39.002Z</time></trkpt><trkpt lat="43.47657343224735" lon="13.190291649255473"><ele>106.0</ele><time>2026-04-19T08:26:40.002Z</time></trkpt><trkpt lat="43.47669754132088" lon="13.190160584532265"><ele>106.0</ele><time>2026-04-19T08:26:41Z</time></trkpt><trkpt lat="43.47681841974165" lon="13.190026548647134"><ele>106.0</ele><time>2026-04-19T08:26:42Z</time></trkpt><trkpt lat="43.476936053098115" lon="13.189900669254008"><ele>106.0</ele><time>2026-04-19T08:26:43Z</time></trkpt><trkpt lat="43.47706067963882" lon="13.189779625236001"><ele>105.25</ele><time>2026-04-19T08:26:44Z</time></trkpt><trkpt lat="43.47718352446091" lon="13.189672776164649"><ele>104.5</ele><time>2026-04-19T08:26:45Z</time></trkpt><trkpt lat="43.4773129903042" lon="13.189570506913947"><ele>103.75</ele><time>2026-04-19T08:26:46Z</time></trkpt><trkpt lat="43.47744868968422" lon="13.189472842066426"><ele>103.0</ele><time>2026-04-19T08:26:47Z</time></trkpt><trkpt lat="43.477578233641225" lon="13.189383102859928"><ele>103.0</ele><time>2026-04-19T08:26:48Z</time></trkpt><trkpt lat="43.47772345005433" lon="13.189287410157402"><ele>103.0</ele><time>2026-04-19T08:26:49Z</time></trkpt><trkpt lat="43.477857563258205" lon="13.189199926471725"><ele>103.0</ele><time>2026-04-19T08:26:50Z</time></trkpt><trkpt lat="43.477996678657" lon="13.189104265659749"><ele>102.66666666666667</ele><time>2026-04-19T08:26:51Z</time></trkpt><trkpt lat="43.47812885593707" lon="13.189023235877388"><ele>102.33333333333334</ele><time>2026-04-19T08:26:52Z</time></trkpt><trkpt lat="43.47826641212655" lon="13.188919342841496"><ele>102.0</ele><time>2026-04-19T08:26:53Z</time></trkpt><trkpt lat="43.47840248188795" lon="13.188834400204605"><ele>101.66666666666666</ele><time>2026-04-19T08:26:54Z</time></trkpt><trkpt lat="43.4785480141039" lon="13.188737950990708"><ele>101.33333333333333</ele><time>2026-04-19T08:26:55Z</time></trkpt><trkpt lat="43.478686974269166" lon="13.188643577197205"><ele>101.0</ele><time>2026-04-19T08:26:56Z</time></trkpt><trkpt lat="43.47882611678885" lon="13.188550247033863"><ele>100.66666666666666</ele><time>2026-04-19T08:26:57Z</time></trkpt><trkpt lat="43.47896608398538" lon="13.188451018140098"><ele>100.33333333333334</ele><time>2026-04-19T08:26:58Z</time></trkpt><trkpt lat="43.47910447875862" lon="13.188352258404656"><ele>100.0</ele><time>2026-04-19T08:26:59Z</time></trkpt><trkpt lat="43.4792424195852" lon="13.188254814566536"><ele>99.66666666666667</ele><time>2026-04-19T08:27:00Z</time></trkpt><trkpt lat="43.47937950855097" lon="13.188157626385905"><ele>99.33333333333334</ele><time>2026-04-19T08:27:01Z</time></trkpt><trkpt lat="43.47952378805243" lon="13.188056823180283"><ele>99.0</ele><time>2026-04-19T08:27:02Z</time></trkpt><trkpt lat="43.47966528053675" lon="13.187960267513974"><ele>98.66666666666666</ele><time>2026-04-19T08:27:03Z</time></trkpt><trkpt lat="43.47980767896672" lon="13.187865188099527"><ele>98.33333333333333</ele><time>2026-04-19T08:27:04Z</time></trkpt><trkpt lat="43.47994940959397" lon="13.187766039392717"><ele>98.0</ele><time>2026-04-19T08:27:05Z</time></trkpt><trkpt lat="43.48009029578245" lon="13.187667157057827"><ele>98.0</ele><time>2026-04-19T08:27:06Z</time></trkpt><trkpt lat="43.48022408977362" lon="13.18757116782612"><ele>98.0</ele><time>2026-04-19T08:27:07Z</time></trkpt><trkpt lat="43.48036632646278" lon="13.187475515994665"><ele>98.0</ele><time>2026-04-19T08:27:08Z</time></trkpt><trkpt lat="43.48050390607728" lon="13.187380903427433"><ele>98.0</ele><time>2026-04-19T08:27:09Z</time></trkpt><trkpt lat="43.48064525064975" lon="13.187286394627595"><ele>98.0</ele><time>2026-04-19T08:27:10Z</time></trkpt><trkpt lat="43.48078222497196" lon="13.187190814013245"><ele>98.0</ele><time>2026-04-19T08:27:11Z</time></trkpt><trkpt lat="43.4809144859532" lon="13.187093525677817"><ele>98.0</ele><time>2026-04-19T08:27:12Z</time></trkpt><trkpt lat="43.48104592698213" lon="13.18700336174202"><ele>98.0</ele><time>2026-04-19T08:27:13Z</time></trkpt><trkpt lat="43.481167259900225" lon="13.186925281374329"><ele>98.0</ele><time>2026-04-19T08:27:14Z</time></trkpt><trkpt lat="43.48128553289249" lon="13.186849213250724"><ele>98.0</ele><time>2026-04-19T08:27:15Z</time></trkpt><trkpt lat="43.48140246827333" lon="13.186767801068623"><ele>98.0</ele><time>2026-04-19T08:27:16Z</time></trkpt><trkpt lat="43.48152595681787" lon="13.186677335731586"><ele>98.0</ele><time>2026-04-19T08:27:17.001Z</time></trkpt><trkpt lat="43.48165072645974" lon="13.186571987083678"><ele>98.0</ele><time>2026-04-19T08:27:18.001Z</time></trkpt><trkpt lat="43.481772049549065" lon="13.18644959187113"><ele>98.0</ele><time>2026-04-19T08:27:19.001Z</time></trkpt><trkpt lat="43.48189465065426" lon="13.186316508786037"><ele>98.0</ele><time>2026-04-19T08:27:20.001Z</time></trkpt><trkpt lat="43.482025493818284" lon="13.186176569833066"><ele>98.0</ele><time>2026-04-19T08:27:21.001Z</time></trkpt><trkpt lat="43.482149691489965" lon="13.186045413092112"><ele>98.0</ele><time>2026-04-19T08:27:22.001Z</time></trkpt><trkpt lat="43.48226944502301" lon="13.185917491825185"><ele>97.75</ele><time>2026-04-19T08:27:23.001Z</time></trkpt><trkpt lat="43.482402351392174" lon="13.185809225326588"><ele>97.5</ele><time>2026-04-19T08:27:24.001Z</time></trkpt><trkpt lat="43.482514826303955" lon="13.185672024073554"><ele>97.25</ele><time>2026-04-19T08:27:25.001Z</time></trkpt><trkpt lat="43.48262739057987" lon="13.185549593534555"><ele>97.0</ele><time>2026-04-19T08:27:26.001Z</time></trkpt><trkpt lat="43.482735504436185" lon="13.18543901775708"><ele>97.0</ele><time>2026-04-19T08:27:27.001Z</time></trkpt><trkpt lat="43.482832791962856" lon="13.185340598719113"><ele>97.0</ele><time>2026-04-19T08:27:28.001Z</time></trkpt><trkpt lat="43.48293077285089" lon="13.185235485024778"><ele>97.0</ele><time>2026-04-19T08:27:29.001Z</time></trkpt><trkpt lat="43.483013872609256" lon="13.185113880855482"><ele>97.0</ele><time>2026-04-19T08:27:30.001Z</time></trkpt><trkpt lat="43.483081807032846" lon="13.184969961521455"><ele>97.5</ele><time>2026-04-19T08:27:31.001Z</time></trkpt><trkpt lat="43.483118749331936" lon="13.184802275323063"><ele>98.0</ele><time>2026-04-19T08:27:32.001Z</time></trkpt><trkpt lat="43.483130991535326" lon="13.184625667381198"><ele>98.5</ele><time>2026-04-19T08:27:33.001Z</time></trkpt><trkpt lat="43.48313164670046" lon="13.184463399059613"><ele>99.0</ele><time>2026-04-19T08:27:34.001Z</time></trkpt><trkpt lat="43.4831659544305" lon="13.184332636208161"><ele>99.0</ele><time>2026-04-19T08:27:35.001Z</time></trkpt><trkpt lat="43.483193068020455" lon="13.184226332401861"><ele>99.0</ele><time>2026-04-19T08:27:36.001Z</time></trkpt><trkpt lat="43.48325176167399" lon="13.184171941978859"><ele>99.0</ele><time>2026-04-19T08:27:37.001Z</time></trkpt><trkpt lat="43.48339074480785" lon="13.184080330943369"><ele>99.0</ele><time>2026-04-19T08:27:39.001Z</time></trkpt><trkpt lat="43.48346155304911" lon="13.184026089012091"><ele>99.0</ele><time>2026-04-19T08:27:40.001Z</time></trkpt><trkpt lat="43.483519024064634" lon="13.18393698066895"><ele>98.80000000000001</ele><time>2026-04-19T08:27:42.001Z</time></trkpt><trkpt lat="43.48341843694377" lon="13.183740491764206"><ele>98.60000000000001</ele><time>2026-04-19T08:27:44.001Z</time></trkpt><trkpt lat="43.48336407543058" lon="13.18365866145534"><ele>98.4</ele><time>2026-04-19T08:27:45.001Z</time></trkpt><trkpt lat="43.48330105384615" lon="13.183566816738379"><ele>98.2</ele><time>2026-04-19T08:27:46.001Z</time></trkpt><trkpt lat="43.483231985971734" lon="13.18346884532509"><ele>98.0</ele><time>2026-04-19T08:27:47.001Z</time></trkpt><trkpt lat="43.48312836771354" lon="13.183370001360368"><ele>98.0</ele><time>2026-04-19T08:27:48.001Z</time></trkpt><trkpt lat="43.483040687929844" lon="13.183242298151205"><ele>98.0</ele><time>2026-04-19T08:27:49.001Z</time></trkpt><trkpt lat="43.48295130491361" lon="13.18311198494304"><ele>98.0</ele><time>2026-04-19T08:27:50.001Z</time></trkpt><trkpt lat="43.48286252075999" lon="13.182988735817025"><ele>98.0</ele><time>2026-04-19T08:27:51.001Z</time></trkpt><trkpt lat="43.48276555980211" lon="13.182844780820531"><ele>98.0</ele><time>2026-04-19T08:27:52.001Z</time></trkpt><trkpt lat="43.48267270101704" lon="13.18270346900285"><ele>98.0</ele><time>2026-04-19T08:27:53.001Z</time></trkpt><trkpt lat="43.48257474363082" lon="13.18255910078543"><ele>98.0</ele><time>2026-04-19T08:27:54.001Z</time></trkpt><trkpt lat="43.48247934860179" lon="13.182415166183944"><ele>98.0</ele><time>2026-04-19T08:27:55.001Z</time></trkpt><trkpt lat="43.482397043874535" lon="13.18226552760143"><ele>98.0</ele><time>2026-04-19T08:27:56.001Z</time></trkpt><trkpt lat="43.4823073816764" lon="13.182136213661174"><ele>98.0</ele><time>2026-04-19T08:27:57.001Z</time></trkpt><trkpt lat="43.48221142202482" lon="13.181998869704444"><ele>98.0</ele><time>2026-04-19T08:27:58.001Z</time></trkpt><trkpt lat="43.48211259129059" lon="13.18188908948821"><ele>98.0</ele><time>2026-04-19T08:27:59.001Z</time></trkpt><trkpt lat="43.4820230486852" lon="13.18173303853836"><ele>98.5</ele><time>2026-04-19T08:28:00.001Z</time></trkpt><trkpt lat="43.48192898149884" lon="13.181600281036866"><ele>99.0</ele><time>2026-04-19T08:28:01.001Z</time></trkpt><trkpt lat="43.481831835622756" lon="13.181463177007727"><ele>99.5</ele><time>2026-04-19T08:28:02.001Z</time></trkpt><trkpt lat="43.48172045886283" lon="13.181337598463045"><ele>100.0</ele><time>2026-04-19T08:28:03.001Z</time></trkpt><trkpt lat="43.48162216482525" lon="13.181197375840442"><ele>100.0</ele><time>2026-04-19T08:28:04.001Z</time></trkpt><trkpt lat="43.48154115934893" lon="13.181041135542388"><ele>100.0</ele><time>2026-04-19T08:28:05.001Z</time></trkpt><trkpt lat="43.48142914278233" lon="13.180913064486212"><ele>100.0</ele><time>2026-04-19T08:28:06.001Z</time></trkpt><trkpt lat="43.48133517853258" lon="13.180779730900491"><ele>100.0</ele><time>2026-04-19T08:28:07.001Z</time></trkpt><trkpt lat="43.48124724636545" lon="13.180652209633092"><ele>100.0</ele><time>2026-04-19T08:28:08.001Z</time></trkpt><trkpt lat="43.481156830661874" lon="13.180517759010467"><ele>100.0</ele><time>2026-04-19T08:28:09.001Z</time></trkpt><trkpt lat="43.481057460048014" lon="13.180377686881734"><ele>100.0</ele><time>2026-04-19T08:28:10.001Z</time></trkpt><trkpt lat="43.48095207296829" lon="13.180232217489229"><ele>100.0</ele><time>2026-04-19T08:28:11.001Z</time></trkpt><trkpt lat="43.4808473449864" lon="13.180081317732174"><ele>100.0</ele><time>2026-04-19T08:28:12.002Z</time></trkpt><trkpt lat="43.48074708037979" lon="13.179941182537513"><ele>100.0</ele><time>2026-04-19T08:28:13.002Z</time></trkpt><trkpt lat="43.48064602551542" lon="13.179800575949171"><ele>100.0</ele><time>2026-04-19T08:28:14.002Z</time></trkpt><trkpt lat="43.48054732951644" lon="13.179657549204423"><ele>100.0</ele><time>2026-04-19T08:28:15.002Z</time></trkpt><trkpt lat="43.48043951041237" lon="13.17950467581646"><ele>100.5</ele><time>2026-04-19T08:28:16.002Z</time></trkpt><trkpt lat="43.480334470979145" lon="13.17935636731444"><ele>101.0</ele><time>2026-04-19T08:28:17.002Z</time></trkpt><trkpt lat="43.48023828524768" lon="13.179217150957712"><ele>101.5</ele><time>2026-04-19T08:28:18.002Z</time></trkpt><trkpt lat="43.480154903171886" lon="13.179064221225893"><ele>102.0</ele><time>2026-04-19T08:28:19.002Z</time></trkpt><trkpt lat="43.480056586171514" lon="13.178952250816286"><ele>102.0</ele><time>2026-04-19T08:28:20.002Z</time></trkpt><trkpt lat="43.47997544247095" lon="13.178833185077023"><ele>102.0</ele><time>2026-04-19T08:28:21.002Z</time></trkpt><trkpt lat="43.479903788550125" lon="13.178706317508686"><ele>102.0</ele><time>2026-04-19T08:28:22.002Z</time></trkpt><trkpt lat="43.47982425638155" lon="13.178586233307339"><ele>102.0</ele><time>2026-04-19T08:28:23.002Z</time></trkpt><trkpt lat="43.47974225294205" lon="13.178471138081898"><ele>102.0</ele><time>2026-04-19T08:28:24.002Z</time></trkpt><trkpt lat="43.47966600438507" lon="13.178369682165169"><ele>102.0</ele><time>2026-04-19T08:28:25.002Z</time></trkpt><trkpt lat="43.479600157433524" lon="13.178278220203119"><ele>102.0</ele><time>2026-04-19T08:28:26.002Z</time></trkpt><trkpt lat="43.47955273159467" lon="13.178215309756554"><ele>102.0</ele><time>2026-04-19T08:28:27.002Z</time></trkpt><trkpt lat="43.47951662445538" lon="13.178131759466968"><ele>102.0</ele><time>2026-04-19T08:28:30.002Z</time></trkpt><trkpt lat="43.47937055555387" lon="13.178195231049287"><ele>102.6</ele><time>2026-04-19T08:28:32.002Z</time></trkpt><trkpt lat="43.47930279295904" lon="13.178251536655626"><ele>103.19999999999999</ele><time>2026-04-19T08:28:33.002Z</time></trkpt><trkpt lat="43.479226606110444" lon="13.178326103065668"><ele>103.8</ele><time>2026-04-19T08:28:34.002Z</time></trkpt><trkpt lat="43.47914034271186" lon="13.178409744021724"><ele>104.4</ele><time>2026-04-19T08:28:35.002Z</time></trkpt><trkpt lat="43.479039603840256" lon="13.178464316151585"><ele>105.0</ele><time>2026-04-19T08:28:36.002Z</time></trkpt><trkpt lat="43.478965686365456" lon="13.178518776245035"><ele>105.0</ele><time>2026-04-19T08:28:37.002Z</time></trkpt><trkpt lat="43.478910755005366" lon="13.178565193214599"><ele>105.0</ele><time>2026-04-19T08:28:38.002Z</time></trkpt><trkpt lat="43.47884560254005" lon="13.17857066483446"><ele>105.0</ele><time>2026-04-19T08:28:40.002Z</time></trkpt><trkpt lat="43.47876776699909" lon="13.178417581965329"><ele>105.0</ele><time>2026-04-19T08:28:41.002Z</time></trkpt><trkpt lat="43.47871590563245" lon="13.178306951026073"><ele>105.0</ele><time>2026-04-19T08:28:42.002Z</time></trkpt><trkpt lat="43.47866271701756" lon="13.178180434344421"><ele>105.2</ele><time>2026-04-19T08:28:43.002Z</time></trkpt><trkpt lat="43.47860642174544" lon="13.178055981343032"><ele>105.4</ele><time>2026-04-19T08:28:44.002Z</time></trkpt><trkpt lat="43.47855453814285" lon="13.177944026039627"><ele>105.6</ele><time>2026-04-19T08:28:45.002Z</time></trkpt><trkpt lat="43.4784989879532" lon="13.177817056820649"><ele>105.8</ele><time>2026-04-19T08:28:46.002Z</time></trkpt><trkpt lat="43.478436968446736" lon="13.17768479481983"><ele>106.0</ele><time>2026-04-19T08:28:47Z</time></trkpt><trkpt lat="43.47837664594807" lon="13.177550607929867"><ele>106.0</ele><time>2026-04-19T08:28:48Z</time></trkpt><trkpt lat="43.47831211535005" lon="13.177412702910717"><ele>106.0</ele><time>2026-04-19T08:28:49Z</time></trkpt><trkpt lat="43.47824739568849" lon="13.177278676375083"><ele>106.0</ele><time>2026-04-19T08:28:50Z</time></trkpt><trkpt lat="43.478179306539964" lon="13.17713540456933"><ele>106.0</ele><time>2026-04-19T08:28:51Z</time></trkpt><trkpt lat="43.478110486334195" lon="13.17699272299561"><ele>106.0</ele><time>2026-04-19T08:28:52Z</time></trkpt><trkpt lat="43.47804499985465" lon="13.176855235752502"><ele>106.0</ele><time>2026-04-19T08:28:53Z</time></trkpt><trkpt lat="43.47797612201928" lon="13.176708980108755"><ele>106.0</ele><time>2026-04-19T08:28:54Z</time></trkpt><trkpt lat="43.47791109248325" lon="13.176566129937411"><ele>106.0</ele><time>2026-04-19T08:28:55Z</time></trkpt><trkpt lat="43.47784684896275" lon="13.176430994493566"><ele>106.33333333333334</ele><time>2026-04-19T08:28:56Z</time></trkpt><trkpt lat="43.47779247638075" lon="13.176315202633024"><ele>106.66666666666667</ele><time>2026-04-19T08:28:57Z</time></trkpt><trkpt lat="43.47774786186198" lon="13.176212724635716"><ele>107.0</ele><time>2026-04-19T08:28:58Z</time></trkpt><trkpt lat="43.47774255770895" lon="13.17610953188516"><ele>107.33333333333334</ele><time>2026-04-19T08:28:59Z</time></trkpt><trkpt lat="43.477711713610205" lon="13.176022461930378"><ele>107.66666666666667</ele><time>2026-04-19T08:29:00Z</time></trkpt><trkpt lat="43.47772360400216" lon="13.175905498856753"><ele>108.0</ele><time>2026-04-19T08:29:01Z</time></trkpt><trkpt lat="43.47775683970476" lon="13.175807737208366"><ele>108.0</ele><time>2026-04-19T08:29:02Z</time></trkpt><trkpt lat="43.47780430322831" lon="13.175710822312316"><ele>108.0</ele><time>2026-04-19T08:29:03Z</time></trkpt><trkpt lat="43.47785306375328" lon="13.1756073583584"><ele>108.0</ele><time>2026-04-19T08:29:04Z</time></trkpt><trkpt lat="43.47790527377011" lon="13.17549709915621"><ele>108.0</ele><time>2026-04-19T08:29:05Z</time></trkpt><trkpt lat="43.477969183391885" lon="13.175407027105576"><ele>108.0</ele><time>2026-04-19T08:29:06Z</time></trkpt><trkpt lat="43.4780039852764" lon="13.175319906879052"><ele>108.0</ele><time>2026-04-19T08:29:07Z</time></trkpt><trkpt lat="43.47804319542151" lon="13.175242243058719"><ele>107.80000000000001</ele><time>2026-04-19T08:29:08Z</time></trkpt><trkpt lat="43.478112043340886" lon="13.17515097385458"><ele>107.60000000000001</ele><time>2026-04-19T08:29:10Z</time></trkpt><trkpt lat="43.47807202945651" lon="13.175018377500226"><ele>107.39999999999999</ele><time>2026-04-19T08:29:16Z</time></trkpt><trkpt lat="43.47803784318523" lon="13.174895433939195"><ele>107.19999999999999</ele><time>2026-04-19T08:29:18Z</time></trkpt><trkpt lat="43.47811208780843" lon="13.174824452424392"><ele>107.0</ele><time>2026-04-19T08:29:20Z</time></trkpt><trkpt lat="43.47823054370409" lon="13.174759175887779"><ele>107.0</ele><time>2026-04-19T08:29:22Z</time></trkpt><trkpt lat="43.47831990941741" lon="13.17475276923859"><ele>106.99999999999999</ele><time>2026-04-19T08:29:23Z</time></trkpt><trkpt lat="43.4784117352818" lon="13.174761321754701"><ele>106.99999999999999</ele><time>2026-04-19T08:29:24Z</time></trkpt><trkpt lat="43.47850748899469" lon="13.174760710884676"><ele>107.0</ele><time>2026-04-19T08:29:25Z</time></trkpt><trkpt lat="43.47860624801978" lon="13.174743107525654"><ele>107.0</ele><time>2026-04-19T08:29:26Z</time></trkpt><trkpt lat="43.47869543498969" lon="13.174698370070779"><ele>107.0</ele><time>2026-04-19T08:29:27.001Z</time></trkpt><trkpt lat="43.47877362638436" lon="13.17462479545136"><ele>106.99999999999999</ele><time>2026-04-19T08:29:28.001Z</time></trkpt><trkpt lat="43.47884323234316" lon="13.174518469677942"><ele>106.99999999999999</ele><time>2026-04-19T08:29:29.001Z</time></trkpt><trkpt lat="43.478907815629206" lon="13.174381269360518"><ele>107.0</ele><time>2026-04-19T08:29:30.001Z</time></trkpt><trkpt lat="43.47897295512138" lon="13.174234747649646"><ele>107.0</ele><time>2026-04-19T08:29:31.001Z</time></trkpt><trkpt lat="43.479063017906945" lon="13.174105370030794"><ele>107.25</ele><time>2026-04-19T08:29:32.001Z</time></trkpt><trkpt lat="43.479129055031734" lon="13.17396907269778"><ele>107.5</ele><time>2026-04-19T08:29:33.001Z</time></trkpt><trkpt lat="43.479217375042424" lon="13.17385560139052"><ele>107.75</ele><time>2026-04-19T08:29:34.001Z</time></trkpt><trkpt lat="43.47932445562864" lon="13.173773430630089"><ele>108.0</ele><time>2026-04-19T08:29:35.001Z</time></trkpt><trkpt lat="43.47942945734735" lon="13.173675106317681"><ele>108.0</ele><time>2026-04-19T08:29:36.001Z</time></trkpt><trkpt lat="43.47953184806641" lon="13.173561649681755"><ele>108.0</ele><time>2026-04-19T08:29:37.001Z</time></trkpt><trkpt lat="43.47965515996309" lon="13.173480128126673"><ele>108.0</ele><time>2026-04-19T08:29:38.001Z</time></trkpt><trkpt lat="43.47977667272817" lon="13.173380685706336"><ele>108.0</ele><time>2026-04-19T08:29:39.001Z</time></trkpt><trkpt lat="43.479904318432865" lon="13.173308715145257"><ele>108.5</ele><time>2026-04-19T08:29:40.001Z</time></trkpt><trkpt lat="43.48002820744957" lon="13.173220468232202"><ele>109.0</ele><time>2026-04-19T08:29:41.001Z</time></trkpt><trkpt lat="43.48014726250017" lon="13.173104151697908"><ele>109.5</ele><time>2026-04-19T08:29:42.001Z</time></trkpt><trkpt lat="43.48026913299142" lon="13.17301463879925"><ele>110.0</ele><time>2026-04-19T08:29:43.001Z</time></trkpt><trkpt lat="43.4803876901239" lon="13.172919580320137"><ele>110.0</ele><time>2026-04-19T08:29:44.001Z</time></trkpt><trkpt lat="43.48049644412216" lon="13.172831602846633"><ele>110.0</ele><time>2026-04-19T08:29:45.001Z</time></trkpt><trkpt lat="43.48061380596977" lon="13.17273950905573"><ele>110.0</ele><time>2026-04-19T08:29:46.001Z</time></trkpt><trkpt lat="43.480735185957116" lon="13.172648692197097"><ele>110.0</ele><time>2026-04-19T08:29:47.001Z</time></trkpt><trkpt lat="43.48086189324241" lon="13.172560221466352"><ele>110.0</ele><time>2026-04-19T08:29:48.001Z</time></trkpt><trkpt lat="43.4809860491685" lon="13.172461931763426"><ele>110.0</ele><time>2026-04-19T08:29:49.001Z</time></trkpt><trkpt lat="43.48112115334958" lon="13.172377262726922"><ele>110.0</ele><time>2026-04-19T08:29:50.001Z</time></trkpt><trkpt lat="43.48125679246327" lon="13.172286994186933"><ele>110.0</ele><time>2026-04-19T08:29:51.001Z</time></trkpt><trkpt lat="43.4813670695595" lon="13.172203895669636"><ele>110.75</ele><time>2026-04-19T08:29:52.001Z</time></trkpt><trkpt lat="43.48146319016773" lon="13.172115667071573"><ele>111.5</ele><time>2026-04-19T08:29:53.001Z</time></trkpt><trkpt lat="43.481542440211065" lon="13.172001009830893"><ele>112.25</ele><time>2026-04-19T08:29:54.001Z</time></trkpt><trkpt lat="43.48161198444497" lon="13.171847814120714"><ele>113.0</ele><time>2026-04-19T08:29:55.001Z</time></trkpt><trkpt lat="43.48167958577732" lon="13.17167639946055"><ele>114.75</ele><time>2026-04-19T08:29:56.001Z</time></trkpt><trkpt lat="43.48174516331454" lon="13.171502603929063"><ele>116.5</ele><time>2026-04-19T08:29:57.001Z</time></trkpt><trkpt lat="43.48182910609589" lon="13.171347035711205"><ele>118.25</ele><time>2026-04-19T08:29:58.001Z</time></trkpt><trkpt lat="43.48189937637597" lon="13.171158995924111"><ele>120.0</ele><time>2026-04-19T08:29:59.001Z</time></trkpt><trkpt lat="43.48199236777455" lon="13.170999975538846"><ele>120.0</ele><time>2026-04-19T08:30:00.001Z</time></trkpt><trkpt lat="43.48207543578167" lon="13.170843658061651"><ele>120.0</ele><time>2026-04-19T08:30:01.001Z</time></trkpt><trkpt lat="43.48216726814049" lon="13.170717899285172"><ele>120.0</ele><time>2026-04-19T08:30:02.001Z</time></trkpt><trkpt lat="43.48225081267518" lon="13.170565951095185"><ele>120.0</ele><time>2026-04-19T08:30:03.001Z</time></trkpt><trkpt lat="43.48234093823056" lon="13.170419059086914"><ele>119.5</ele><time>2026-04-19T08:30:04.001Z</time></trkpt><trkpt lat="43.48243355679972" lon="13.170260582777702"><ele>119.0</ele><time>2026-04-19T08:30:05.001Z</time></trkpt><trkpt lat="43.482544230983784" lon="13.170125937674525"><ele>118.5</ele><time>2026-04-19T08:30:06.001Z</time></trkpt><trkpt lat="43.48262645589362" lon="13.169972224936863"><ele>118.0</ele><time>2026-04-19T08:30:07.001Z</time></trkpt><trkpt lat="43.482735518447214" lon="13.16982831882569"><ele>119.25</ele><time>2026-04-19T08:30:08.001Z</time></trkpt><trkpt lat="43.48283376041586" lon="13.169689989145589"><ele>120.5</ele><time>2026-04-19T08:30:09.001Z</time></trkpt><trkpt lat="43.48292709471739" lon="13.169563963912331"><ele>121.75</ele><time>2026-04-19T08:30:10.001Z</time></trkpt><trkpt lat="43.48302334290028" lon="13.169432654111239"><ele>123.0</ele><time>2026-04-19T08:30:11.001Z</time></trkpt><trkpt lat="43.48312289579026" lon="13.169312696437617"><ele>121.5</ele><time>2026-04-19T08:30:12.001Z</time></trkpt><trkpt lat="43.483211708520344" lon="13.169190614400375"><ele>120.0</ele><time>2026-04-19T08:30:13.001Z</time></trkpt><trkpt lat="43.48330504265482" lon="13.169058500564837"><ele>118.5</ele><time>2026-04-19T08:30:14.001Z</time></trkpt><trkpt lat="43.483395663981" lon="13.16892246766769"><ele>117.0</ele><time>2026-04-19T08:30:15.001Z</time></trkpt><trkpt lat="43.48348714703685" lon="13.168782498049573"><ele>117.0</ele><time>2026-04-19T08:30:16.001Z</time></trkpt><trkpt lat="43.48357797002104" lon="13.168645756141087"><ele>117.0</ele><time>2026-04-19T08:30:17.001Z</time></trkpt><trkpt lat="43.48366474734279" lon="13.168508020517246"><ele>117.0</ele><time>2026-04-19T08:30:18.001Z</time></trkpt><trkpt lat="43.483733846388496" lon="13.168348245797974"><ele>117.0</ele><time>2026-04-19T08:30:19.001Z</time></trkpt><trkpt lat="43.483823988468146" lon="13.168201257389367"><ele>115.25</ele><time>2026-04-19T08:30:20.001Z</time></trkpt><trkpt lat="43.48390438382604" lon="13.168053118211693"><ele>113.5</ele><time>2026-04-19T08:30:21.001Z</time></trkpt><trkpt lat="43.4839942726038" lon="13.167889469136224"><ele>111.75</ele><time>2026-04-19T08:30:22.001Z</time></trkpt><trkpt lat="43.48408388163646" lon="13.167731589599887"><ele>110.0</ele><time>2026-04-19T08:30:23.002Z</time></trkpt><trkpt lat="43.48417923432776" lon="13.167573157503004"><ele>110.0</ele><time>2026-04-19T08:30:24.002Z</time></trkpt><trkpt lat="43.48427564150388" lon="13.167428229885452"><ele>110.0</ele><time>2026-04-19T08:30:25.002Z</time></trkpt><trkpt lat="43.484399542562144" lon="13.167298837561194"><ele>110.0</ele><time>2026-04-19T08:30:26.002Z</time></trkpt><trkpt lat="43.48450320439301" lon="13.167155948156593"><ele>110.0</ele><time>2026-04-19T08:30:27.002Z</time></trkpt><trkpt lat="43.48458629206057" lon="13.16701780684445"><ele>109.5</ele><time>2026-04-19T08:30:28.002Z</time></trkpt><trkpt lat="43.48468878597266" lon="13.166905064101467"><ele>109.0</ele><time>2026-04-19T08:30:29.002Z</time></trkpt><trkpt lat="43.48479303983465" lon="13.166812960640014"><ele>108.5</ele><time>2026-04-19T08:30:30.002Z</time></trkpt><trkpt lat="43.48490758071022" lon="13.166737331124724"><ele>108.0</ele><time>2026-04-19T08:30:31.002Z</time></trkpt><trkpt lat="43.485028209767144" lon="13.1666928240235"><ele>108.0</ele><time>2026-04-19T08:30:32.002Z</time></trkpt><trkpt lat="43.48514351124721" lon="13.166673304089576"><ele>108.00000000000001</ele><time>2026-04-19T08:30:33.002Z</time></trkpt><trkpt lat="43.48525735800041" lon="13.166670332345058"><ele>108.00000000000001</ele><time>2026-04-19T08:30:34.002Z</time></trkpt><trkpt lat="43.48535682824622" lon="13.166678948178594"><ele>108.0</ele><time>2026-04-19T08:30:35.002Z</time></trkpt><trkpt lat="43.48543708617645" lon="13.166681882649678"><ele>108.0</ele><time>2026-04-19T08:30:36.002Z</time></trkpt><trkpt lat="43.48552093265291" lon="13.16658613405942"><ele>108.4</ele><time>2026-04-19T08:30:38.002Z</time></trkpt><trkpt lat="43.48553802914182" lon="13.166490377708682"><ele>108.80000000000001</ele><time>2026-04-19T08:30:39.002Z</time></trkpt><trkpt lat="43.48556316714092" lon="13.166376213648002"><ele>109.2</ele><time>2026-04-19T08:30:40.002Z</time></trkpt><trkpt lat="43.485613113039" lon="13.166263753259592"><ele>109.6</ele><time>2026-04-19T08:30:41.002Z</time></trkpt><trkpt lat="43.48564991580814" lon="13.166141294701246"><ele>110.0</ele><time>2026-04-19T08:30:42.002Z</time></trkpt><trkpt lat="43.48569309622801" lon="13.165997614954613"><ele>110.0</ele><time>2026-04-19T08:30:43.002Z</time></trkpt><trkpt lat="43.48572996637027" lon="13.165839964249177"><ele>110.0</ele><time>2026-04-19T08:30:44.002Z</time></trkpt><trkpt lat="43.485774464048205" lon="13.165674464900306"><ele>110.0</ele><time>2026-04-19T08:30:45.002Z</time></trkpt><trkpt lat="43.485839423417296" lon="13.165522964752858"><ele>110.0</ele><time>2026-04-19T08:30:46.002Z</time></trkpt><trkpt lat="43.4858714987657" lon="13.165364534166622"><ele>110.2</ele><time>2026-04-19T08:30:47.002Z</time></trkpt><trkpt lat="43.48592307505398" lon="13.16522515230261"><ele>110.4</ele><time>2026-04-19T08:30:48.002Z</time></trkpt><trkpt lat="43.48596049230939" lon="13.165086960738277"><ele>110.6</ele><time>2026-04-19T08:30:49.002Z</time></trkpt><trkpt lat="43.48600057080048" lon="13.164963670497707"><ele>110.8</ele><time>2026-04-19T08:30:50.002Z</time></trkpt><trkpt lat="43.48603972290974" lon="13.164838334039741"><ele>111.0</ele><time>2026-04-19T08:30:51.002Z</time></trkpt><trkpt lat="43.48608264794865" lon="13.164703437458513"><ele>111.0</ele><time>2026-04-19T08:30:52.002Z</time></trkpt><trkpt lat="43.486123694229605" lon="13.164566531102356"><ele>111.0</ele><time>2026-04-19T08:30:53Z</time></trkpt><trkpt lat="43.486164117479696" lon="13.1644346967895"><ele>111.0</ele><time>2026-04-19T08:30:54Z</time></trkpt><trkpt lat="43.48626165409861" lon="13.164168122889851"><ele>111.0</ele><time>2026-04-19T08:30:56Z</time></trkpt><trkpt lat="43.4863047547831" lon="13.164030098432965"><ele>111.0</ele><time>2026-04-19T08:30:57Z</time></trkpt><trkpt lat="43.486334100539494" lon="13.16388270432631"><ele>111.0</ele><time>2026-04-19T08:30:58Z</time></trkpt><trkpt lat="43.486379350536716" lon="13.163738348115402"><ele>111.0</ele><time>2026-04-19T08:30:59Z</time></trkpt><trkpt lat="43.48642190766435" lon="13.16359819955813"><ele>111.0</ele><time>2026-04-19T08:31:00Z</time></trkpt><trkpt lat="43.48646339730595" lon="13.163463741912496"><ele>111.0</ele><time>2026-04-19T08:31:01Z</time></trkpt><trkpt lat="43.48650388627358" lon="13.163337834595993"><ele>111.0</ele><time>2026-04-19T08:31:02Z</time></trkpt><trkpt lat="43.48654338448879" lon="13.163207000653598"><ele>111.0</ele><time>2026-04-19T08:31:03Z</time></trkpt><trkpt lat="43.48658278207185" lon="13.163081730014865"><ele>111.0</ele><time>2026-04-19T08:31:04Z</time></trkpt><trkpt lat="43.48664009808334" lon="13.1629558525549"><ele>111.0</ele><time>2026-04-19T08:31:05Z</time></trkpt><trkpt lat="43.48667976754147" lon="13.162834806393782"><ele>111.0</ele><time>2026-04-19T08:31:06Z</time></trkpt><trkpt lat="43.486719776393144" lon="13.162712724650886"><ele>111.4</ele><time>2026-04-19T08:31:07Z</time></trkpt><trkpt lat="43.48676176307064" lon="13.16258460949177"><ele>111.8</ele><time>2026-04-19T08:31:08Z</time></trkpt><trkpt lat="43.486801441434444" lon="13.16246016121912"><ele>112.20000000000002</ele><time>2026-04-19T08:31:09Z</time></trkpt><trkpt lat="43.48684244009564" lon="13.162331939133432"><ele>112.60000000000001</ele><time>2026-04-19T08:31:10Z</time></trkpt><trkpt lat="43.486882638660255" lon="13.162202422888138"><ele>113.0</ele><time>2026-04-19T08:31:11Z</time></trkpt><trkpt lat="43.48692381992302" lon="13.162067178314244"><ele>113.75</ele><time>2026-04-19T08:31:12Z</time></trkpt><trkpt lat="43.486966494338176" lon="13.161927029986431"><ele>114.5</ele><time>2026-04-19T08:31:13Z</time></trkpt><trkpt lat="43.48700886348159" lon="13.16178788405207"><ele>115.25</ele><time>2026-04-19T08:31:14Z</time></trkpt><trkpt lat="43.48703722067495" lon="13.161635491738549"><ele>116.0</ele><time>2026-04-19T08:31:15Z</time></trkpt><trkpt lat="43.487083381814614" lon="13.161485804153765"><ele>115.0</ele><time>2026-04-19T08:31:16Z</time></trkpt><trkpt lat="43.48713172559123" lon="13.161335496027716"><ele>114.0</ele><time>2026-04-19T08:31:17Z</time></trkpt><trkpt lat="43.48717066526965" lon="13.161188244440913"><ele>113.0</ele><time>2026-04-19T08:31:18Z</time></trkpt><trkpt lat="43.48721148828152" lon="13.161047953250234"><ele>112.0</ele><time>2026-04-19T08:31:19Z</time></trkpt><trkpt lat="43.48726878441581" lon="13.16092125265858"><ele>112.0</ele><time>2026-04-19T08:31:20Z</time></trkpt><trkpt lat="43.487308778967595" lon="13.160793911513625"><ele>111.99999999999999</ele><time>2026-04-19T08:31:21Z</time></trkpt><trkpt lat="43.487348807923496" lon="13.160655805518914"><ele>111.99999999999999</ele><time>2026-04-19T08:31:22Z</time></trkpt><trkpt lat="43.487388193394494" lon="13.160516413191463"><ele>112.0</ele><time>2026-04-19T08:31:23Z</time></trkpt><trkpt lat="43.4874106114822" lon="13.160382452618126"><ele>112.0</ele><time>2026-04-19T08:31:24Z</time></trkpt><trkpt lat="43.48745169440679" lon="13.160271605234223"><ele>112.33333333333334</ele><time>2026-04-19T08:31:25Z</time></trkpt><trkpt lat="43.48748090507548" lon="13.160172972484837"><ele>112.66666666666667</ele><time>2026-04-19T08:31:26Z</time></trkpt><trkpt lat="43.487508949769335" lon="13.160084031138505"><ele>113.0</ele><time>2026-04-19T08:31:27Z</time></trkpt><trkpt lat="43.487532718167785" lon="13.159999669094773"><ele>113.33333333333334</ele><time>2026-04-19T08:31:28Z</time></trkpt><trkpt lat="43.48756865035805" lon="13.159902498558223"><ele>113.66666666666667</ele><time>2026-04-19T08:31:30Z</time></trkpt><trkpt lat="43.48765748520001" lon="13.159871448076828"><ele>114.0</ele><time>2026-04-19T08:31:33Z</time></trkpt><trkpt lat="43.487750047464864" lon="13.159883767927846"><ele>114.0</ele><time>2026-04-19T08:31:35Z</time></trkpt><trkpt lat="43.487817248174856" lon="13.159871794398533"><ele>114.0</ele><time>2026-04-19T08:31:39.001Z</time></trkpt><trkpt lat="43.48781919951598" lon="13.159714288187544"><ele>114.0</ele><time>2026-04-19T08:31:41.001Z</time></trkpt><trkpt lat="43.48779520130976" lon="13.159614849876904"><ele>114.0</ele><time>2026-04-19T08:31:42.001Z</time></trkpt><trkpt lat="43.48777891973271" lon="13.159450990271084"><ele>114.0</ele><time>2026-04-19T08:31:44.001Z</time></trkpt><trkpt lat="43.487794539325634" lon="13.159342760514342"><ele>114.0</ele><time>2026-04-19T08:31:45.001Z</time></trkpt><trkpt lat="43.48781682006025" lon="13.159241759025035"><ele>114.0</ele><time>2026-04-19T08:31:46.001Z</time></trkpt><trkpt lat="43.48783739581803" lon="13.159136088776073"><ele>114.0</ele><time>2026-04-19T08:31:47.001Z</time></trkpt><trkpt lat="43.487854586699086" lon="13.15903610286296"><ele>114.0</ele><time>2026-04-19T08:31:48.001Z</time></trkpt><trkpt lat="43.48786354074198" lon="13.158912189908309"><ele>114.0</ele><time>2026-04-19T08:31:49.001Z</time></trkpt><trkpt lat="43.48786369870581" lon="13.158779112402742"><ele>114.0</ele><time>2026-04-19T08:31:50.001Z</time></trkpt><trkpt lat="43.48786415508969" lon="13.158646793072379"><ele>114.0</ele><time>2026-04-19T08:31:51.001Z</time></trkpt><trkpt lat="43.48786780547316" lon="13.158488758417631"><ele>114.0</ele><time>2026-04-19T08:31:52.001Z</time></trkpt><trkpt lat="43.48787914510129" lon="13.158326965279404"><ele>114.0</ele><time>2026-04-19T08:31:53.001Z</time></trkpt><trkpt lat="43.48788577172481" lon="13.158172697512146"><ele>114.0</ele><time>2026-04-19T08:31:54.001Z</time></trkpt><trkpt lat="43.4878946429614" lon="13.158023360143813"><ele>113.6</ele><time>2026-04-19T08:31:55.001Z</time></trkpt><trkpt lat="43.48790485824685" lon="13.15787049598401"><ele>113.2</ele><time>2026-04-19T08:31:56.001Z</time></trkpt><trkpt lat="43.48791404645041" lon="13.1577214697047"><ele>112.79999999999998</ele><time>2026-04-19T08:31:57.001Z</time></trkpt><trkpt lat="43.48792380584732" lon="13.157573998363878"><ele>112.39999999999999</ele><time>2026-04-19T08:31:58.001Z</time></trkpt><trkpt lat="43.48794045018389" lon="13.157424497640811"><ele>112.0</ele><time>2026-04-19T08:31:59.001Z</time></trkpt><trkpt lat="43.48796853117434" lon="13.157281465724212"><ele>112.0</ele><time>2026-04-19T08:32:00.001Z</time></trkpt><trkpt lat="43.48800147903547" lon="13.157137109111172"><ele>111.99999999999999</ele><time>2026-04-19T08:32:01.001Z</time></trkpt><trkpt lat="43.48804761728654" lon="13.156998165124849"><ele>111.99999999999999</ele><time>2026-04-19T08:32:02.001Z</time></trkpt><trkpt lat="43.48810468213828" lon="13.156871933173115"><ele>112.0</ele><time>2026-04-19T08:32:03.001Z</time></trkpt><trkpt lat="43.48817686423611" lon="13.156765477236974"><ele>112.0</ele><time>2026-04-19T08:32:04.001Z</time></trkpt><trkpt lat="43.48825389444524" lon="13.156677631074288"><ele>112.0</ele><time>2026-04-19T08:32:05.001Z</time></trkpt><trkpt lat="43.48833880599536" lon="13.15659818202487"><ele>111.99999999999999</ele><time>2026-04-19T08:32:06.001Z</time></trkpt><trkpt lat="43.48842639112318" lon="13.156528079451393"><ele>111.99999999999999</ele><time>2026-04-19T08:32:07.001Z</time></trkpt><trkpt lat="43.48851331696277" lon="13.156453778385922"><ele>112.0</ele><time>2026-04-19T08:32:08.001Z</time></trkpt><trkpt lat="43.48859043345128" lon="13.156369604421696"><ele>112.0</ele><time>2026-04-19T08:32:09.001Z</time></trkpt><trkpt lat="43.48865537320963" lon="13.156288739351178"><ele>112.16666666666667</ele><time>2026-04-19T08:32:10.001Z</time></trkpt><trkpt lat="43.48870865590235" lon="13.156203288104445"><ele>112.33333333333334</ele><time>2026-04-19T08:32:11.001Z</time></trkpt><trkpt lat="43.4887487727572" lon="13.15612664567384"><ele>112.5</ele><time>2026-04-19T08:32:12.001Z</time></trkpt><trkpt lat="43.48882958372389" lon="13.15599830869906"><ele>112.66666666666666</ele><time>2026-04-19T08:32:14.001Z</time></trkpt><trkpt lat="43.48888789413774" lon="13.155924755006044"><ele>112.83333333333333</ele><time>2026-04-19T08:32:15.001Z</time></trkpt><trkpt lat="43.48895973998108" lon="13.15586093616154"><ele>113.0</ele><time>2026-04-19T08:32:16.001Z</time></trkpt><trkpt lat="43.48904926502805" lon="13.155819282579698"><ele>113.0</ele><time>2026-04-19T08:32:17.001Z</time></trkpt><trkpt lat="43.48915399263863" lon="13.15580947175588"><ele>113.00000000000001</ele><time>2026-04-19T08:32:18.001Z</time></trkpt><trkpt lat="43.48926325132323" lon="13.155826875559987"><ele>113.00000000000001</ele><time>2026-04-19T08:32:19.001Z</time></trkpt><trkpt lat="43.4893743201059" lon="13.155846869859602"><ele>113.0</ele><time>2026-04-19T08:32:20.001Z</time></trkpt><trkpt lat="43.48948374049564" lon="13.155862578376142"><ele>113.0</ele><time>2026-04-19T08:32:21.001Z</time></trkpt><trkpt lat="43.48958652548177" lon="13.15587445194247"><ele>112.49999999999999</ele><time>2026-04-19T08:32:22.001Z</time></trkpt><trkpt lat="43.489676302376864" lon="13.155891084983969"><ele>112.0</ele><time>2026-04-19T08:32:23.001Z</time></trkpt><trkpt lat="43.489748738798795" lon="13.155906663290066"><ele>111.5</ele><time>2026-04-19T08:32:24.001Z</time></trkpt><trkpt lat="43.48984822625058" lon="13.1559402763774"><ele>111.0</ele><time>2026-04-19T08:32:26.001Z</time></trkpt><trkpt lat="43.48992205128613" lon="13.155960000698727"><ele>110.49999999999999</ele><time>2026-04-19T08:32:31.002Z</time></trkpt><trkpt lat="43.48998863986127" lon="13.15598358626867"><ele>110.0</ele><time>2026-04-19T08:32:34.002Z</time></trkpt><trkpt lat="43.4900518284282" lon="13.155838077819368"><ele>109.99999999999999</ele><time>2026-04-19T08:32:37.002Z</time></trkpt><trkpt lat="43.490086687604986" lon="13.155763252678588"><ele>110.0</ele><time>2026-04-19T08:32:38.002Z</time></trkpt><trkpt lat="43.49011828964561" lon="13.155678433830463"><ele>110.0</ele><time>2026-04-19T08:32:39.002Z</time></trkpt><trkpt lat="43.490144156672706" lon="13.155593757341656"><ele>110.0</ele><time>2026-04-19T08:32:40.002Z</time></trkpt><trkpt lat="43.49016710016437" lon="13.155498605695243"><ele>110.0</ele><time>2026-04-19T08:32:41.002Z</time></trkpt><trkpt lat="43.490187423665574" lon="13.155402770819226"><ele>109.99999999999999</ele><time>2026-04-19T08:32:42.002Z</time></trkpt><trkpt lat="43.49020749721768" lon="13.155297744929861"><ele>110.0</ele><time>2026-04-19T08:32:43.002Z</time></trkpt><trkpt lat="43.49022516941139" lon="13.155199213772129"><ele>110.16666666666666</ele><time>2026-04-19T08:32:44.002Z</time></trkpt><trkpt lat="43.49024119183211" lon="13.155109880936013"><ele>110.33333333333333</ele><time>2026-04-19T08:32:45.002Z</time></trkpt><trkpt lat="43.49025364444165" lon="13.155013851727826"><ele>110.5</ele><time>2026-04-19T08:32:46.002Z</time></trkpt><trkpt lat="43.490264514962355" lon="13.154923757158961"><ele>110.66666666666666</ele><time>2026-04-19T08:32:47.002Z</time></trkpt><trkpt lat="43.49026058670042" lon="13.1548226842043"><ele>110.83333333333333</ele><time>2026-04-19T08:32:48.002Z</time></trkpt><trkpt lat="43.490289914408955" lon="13.154709429396867"><ele>111.0</ele><time>2026-04-19T08:32:49.002Z</time></trkpt><trkpt lat="43.490309387529614" lon="13.154584427483547"><ele>111.19999999999999</ele><time>2026-04-19T08:32:50.002Z</time></trkpt><trkpt lat="43.49036351799847" lon="13.15448119216349"><ele>111.39999999999999</ele><time>2026-04-19T08:32:51.002Z</time></trkpt><trkpt lat="43.49039841824946" lon="13.154366290481942"><ele>111.6</ele><time>2026-04-19T08:32:52.002Z</time></trkpt><trkpt lat="43.49046593226095" lon="13.154280850357376"><ele>111.8</ele><time>2026-04-19T08:32:53.002Z</time></trkpt><trkpt lat="43.49051323347012" lon="13.154176990248338"><ele>112.0</ele><time>2026-04-19T08:32:54.002Z</time></trkpt><trkpt lat="43.49057691405969" lon="13.154071071598722"><ele>111.8</ele><time>2026-04-19T08:32:55.002Z</time></trkpt><trkpt lat="43.49064199057294" lon="13.15398075000365"><ele>111.6</ele><time>2026-04-19T08:32:56.002Z</time></trkpt><trkpt lat="43.49071024388813" lon="13.153890964196272"><ele>111.39999999999999</ele><time>2026-04-19T08:32:57.002Z</time></trkpt><trkpt lat="43.490773533219354" lon="13.15378958571881"><ele>111.19999999999999</ele><time>2026-04-19T08:32:58.002Z</time></trkpt><trkpt lat="43.49084472025961" lon="13.153699951576554"><ele>111.0</ele><time>2026-04-19T08:32:58.999Z</time></trkpt><trkpt lat="43.490912989095314" lon="13.153585340572972"><ele>111.0</ele><time>2026-04-19T08:32:59.999Z</time></trkpt><trkpt lat="43.49097651101633" lon="13.153466404669066"><ele>111.0</ele><time>2026-04-19T08:33:00.999Z</time></trkpt><trkpt lat="43.49102655333464" lon="13.153331675853753"><ele>111.0</ele><time>2026-04-19T08:33:01.999Z</time></trkpt><trkpt lat="43.49108688291446" lon="13.15320489036529"><ele>111.0</ele><time>2026-04-19T08:33:02.999Z</time></trkpt><trkpt lat="43.49115412438211" lon="13.153082782841263"><ele>111.0</ele><time>2026-04-19T08:33:03.999Z</time></trkpt><trkpt lat="43.491203230222816" lon="13.152942971022132"><ele>111.4</ele><time>2026-04-19T08:33:04.999Z</time></trkpt><trkpt lat="43.4912478584329" lon="13.152813421450086"><ele>111.8</ele><time>2026-04-19T08:33:05.999Z</time></trkpt><trkpt lat="43.491279537820326" lon="13.152678561506464"><ele>112.20000000000002</ele><time>2026-04-19T08:33:06.999Z</time></trkpt><trkpt lat="43.49132669520153" lon="13.152545901927665"><ele>112.60000000000001</ele><time>2026-04-19T08:33:07.999Z</time></trkpt><trkpt lat="43.491367791529235" lon="13.152408300085229"><ele>113.0</ele><time>2026-04-19T08:33:08.999Z</time></trkpt><trkpt lat="43.491408464353924" lon="13.15228419623849"><ele>111.25</ele><time>2026-04-19T08:33:10Z</time></trkpt><trkpt lat="43.49145765721282" lon="13.152154636085706"><ele>109.5</ele><time>2026-04-19T08:33:11Z</time></trkpt><trkpt lat="43.491507152339764" lon="13.15200536140043"><ele>107.75</ele><time>2026-04-19T08:33:12Z</time></trkpt><trkpt lat="43.49158432589685" lon="13.151845304153806"><ele>106.0</ele><time>2026-04-19T08:33:13Z</time></trkpt><trkpt lat="43.491654135820454" lon="13.15166147127329"><ele>107.0</ele><time>2026-04-19T08:33:14Z</time></trkpt><trkpt lat="43.491732703388514" lon="13.15146930788535"><ele>108.0</ele><time>2026-04-19T08:33:15Z</time></trkpt><trkpt lat="43.49181724372708" lon="13.151270599576463"><ele>109.0</ele><time>2026-04-19T08:33:16Z</time></trkpt><trkpt lat="43.49189094893468" lon="13.151076432195106"><ele>109.0</ele><time>2026-04-19T08:33:17Z</time></trkpt><trkpt lat="43.491977514461375" lon="13.15089959607494"><ele>109.0</ele><time>2026-04-19T08:33:18Z</time></trkpt><trkpt lat="43.49205923751519" lon="13.15071751548958"><ele>109.0</ele><time>2026-04-19T08:33:19Z</time></trkpt><trkpt lat="43.492151535434424" lon="13.150531483104828"><ele>108.5</ele><time>2026-04-19T08:33:20Z</time></trkpt><trkpt lat="43.4922494628729" lon="13.150372981106292"><ele>108.0</ele><time>2026-04-19T08:33:21Z</time></trkpt><trkpt lat="43.49234405746256" lon="13.150217418975805"><ele>107.5</ele><time>2026-04-19T08:33:22Z</time></trkpt><trkpt lat="43.49244119328019" lon="13.150065781335064"><ele>107.0</ele><time>2026-04-19T08:33:23Z</time></trkpt><trkpt lat="43.49252656104371" lon="13.149919595456629"><ele>107.0</ele><time>2026-04-19T08:33:24Z</time></trkpt><trkpt lat="43.49261076228133" lon="13.14976697861519"><ele>107.0</ele><time>2026-04-19T08:33:25Z</time></trkpt><trkpt lat="43.49269586526467" lon="13.149605274593872"><ele>107.0</ele><time>2026-04-19T08:33:26Z</time></trkpt><trkpt lat="43.49277131027421" lon="13.149442966848394"><ele>107.0</ele><time>2026-04-19T08:33:27Z</time></trkpt><trkpt lat="43.49284682611834" lon="13.149274105222403"><ele>107.0</ele><time>2026-04-19T08:33:28Z</time></trkpt><trkpt lat="43.49292021929568" lon="13.149093837064372"><ele>107.0</ele><time>2026-04-19T08:33:29Z</time></trkpt><trkpt lat="43.4929814769852" lon="13.148887196660684"><ele>107.0</ele><time>2026-04-19T08:33:30Z</time></trkpt><trkpt lat="43.49303384553007" lon="13.148671512846203"><ele>106.5</ele><time>2026-04-19T08:33:31Z</time></trkpt><trkpt lat="43.493086144335884" lon="13.14846638526767"><ele>106.0</ele><time>2026-04-19T08:33:32Z</time></trkpt><trkpt lat="43.49313270258214" lon="13.14829525274934"><ele>105.5</ele><time>2026-04-19T08:33:33Z</time></trkpt><trkpt lat="43.49318743325203" lon="13.148113350168394"><ele>105.0</ele><time>2026-04-19T08:33:34Z</time></trkpt><trkpt lat="43.49324409727628" lon="13.147924587959698"><ele>105.0</ele><time>2026-04-19T08:33:35Z</time></trkpt><trkpt lat="43.49330713539206" lon="13.147728503506155"><ele>105.0</ele><time>2026-04-19T08:33:36Z</time></trkpt><trkpt lat="43.493386369703174" lon="13.14754430090426"><ele>105.0</ele><time>2026-04-19T08:33:37Z</time></trkpt><trkpt lat="43.493447544951" lon="13.147349544492954"><ele>105.33333333333334</ele><time>2026-04-19T08:33:38Z</time></trkpt><trkpt lat="43.49353604743076" lon="13.147182704337858"><ele>105.66666666666667</ele><time>2026-04-19T08:33:39Z</time></trkpt><trkpt lat="43.493601164732304" lon="13.146986878402288"><ele>106.0</ele><time>2026-04-19T08:33:40Z</time></trkpt><trkpt lat="43.49367519207793" lon="13.146804675236625"><ele>106.0</ele><time>2026-04-19T08:33:41Z</time></trkpt><trkpt lat="43.49374091478948" lon="13.146617689802774"><ele>106.0</ele><time>2026-04-19T08:33:42Z</time></trkpt><trkpt lat="43.49379952483889" lon="13.146429218679282"><ele>106.0</ele><time>2026-04-19T08:33:43Z</time></trkpt><trkpt lat="43.493851129562145" lon="13.146253486255429"><ele>106.0</ele><time>2026-04-19T08:33:44Z</time></trkpt><trkpt lat="43.49389425887429" lon="13.146078794062927"><ele>104.0</ele><time>2026-04-19T08:33:45Z</time></trkpt><trkpt lat="43.49392719895392" lon="13.145902252214011"><ele>102.0</ele><time>2026-04-19T08:33:46Z</time></trkpt><trkpt lat="43.49394578581731" lon="13.145720540023389"><ele>100.0</ele><time>2026-04-19T08:33:47Z</time></trkpt><trkpt lat="43.493937191499775" lon="13.145542577604898"><ele>98.0</ele><time>2026-04-19T08:33:48Z</time></trkpt><trkpt lat="43.493934190454226" lon="13.145355928116023"><ele>97.75</ele><time>2026-04-19T08:33:49Z</time></trkpt><trkpt lat="43.493917707663336" lon="13.145160359196465"><ele>97.5</ele><time>2026-04-19T08:33:50Z</time></trkpt><trkpt lat="43.49392221190503" lon="13.144990558709813"><ele>97.25</ele><time>2026-04-19T08:33:51Z</time></trkpt><trkpt lat="43.49391845104108" lon="13.14480914922944"><ele>97.0</ele><time>2026-04-19T08:33:52Z</time></trkpt><trkpt lat="43.49392249327797" lon="13.144617339865865"><ele>97.0</ele><time>2026-04-19T08:33:53.001Z</time></trkpt><trkpt lat="43.49392049856838" lon="13.144428644012939"><ele>97.0</ele><time>2026-04-19T08:33:54.001Z</time></trkpt><trkpt lat="43.49392252667782" lon="13.144268083170703"><ele>97.0</ele><time>2026-04-19T08:33:55.001Z</time></trkpt><trkpt lat="43.49392123347889" lon="13.144127719429282"><ele>97.0</ele><time>2026-04-19T08:33:56.001Z</time></trkpt><trkpt lat="43.493915309964954" lon="13.14397704845573"><ele>97.5</ele><time>2026-04-19T08:33:57.001Z</time></trkpt><trkpt lat="43.493923769018096" lon="13.143819989500171"><ele>98.0</ele><time>2026-04-19T08:33:58.001Z</time></trkpt><trkpt lat="43.4939566410907" lon="13.143675242899452"><ele>98.5</ele><time>2026-04-19T08:33:59.001Z</time></trkpt><trkpt lat="43.49401218223745" lon="13.143532806690823"><ele>99.0</ele><time>2026-04-19T08:34:00.001Z</time></trkpt><trkpt lat="43.49408569171767" lon="13.143389661845486"><ele>99.0</ele><time>2026-04-19T08:34:01.001Z</time></trkpt><trkpt lat="43.49416300272698" lon="13.143237943889286"><ele>99.0</ele><time>2026-04-19T08:34:02.001Z</time></trkpt><trkpt lat="43.49424120355199" lon="13.143077631458743"><ele>99.0</ele><time>2026-04-19T08:34:03.001Z</time></trkpt><trkpt lat="43.49431450284658" lon="13.142925475362045"><ele>99.0</ele><time>2026-04-19T08:34:04.001Z</time></trkpt><trkpt lat="43.494383723512016" lon="13.142780556808459"><ele>99.5</ele><time>2026-04-19T08:34:05.001Z</time></trkpt><trkpt lat="43.49444888499656" lon="13.142636731481605"><ele>100.0</ele><time>2026-04-19T08:34:06.001Z</time></trkpt><trkpt lat="43.494501797567715" lon="13.142498118805685"><ele>100.5</ele><time>2026-04-19T08:34:07.001Z</time></trkpt><trkpt lat="43.49454111416896" lon="13.142359642470137"><ele>101.0</ele><time>2026-04-19T08:34:08.001Z</time></trkpt><trkpt lat="43.494563052384855" lon="13.142204153866107"><ele>101.75</ele><time>2026-04-19T08:34:09.001Z</time></trkpt><trkpt lat="43.49457424855829" lon="13.142038127302785"><ele>102.5</ele><time>2026-04-19T08:34:10.001Z</time></trkpt><trkpt lat="43.49457384982374" lon="13.141865096301494"><ele>103.25</ele><time>2026-04-19T08:34:11.001Z</time></trkpt><trkpt lat="43.494591544412664" lon="13.141687197537435"><ele>104.0</ele><time>2026-04-19T08:34:12.001Z</time></trkpt><trkpt lat="43.49458842056977" lon="13.141522244084234"><ele>104.0</ele><time>2026-04-19T08:34:13.001Z</time></trkpt><trkpt lat="43.49455909685974" lon="13.141355551231891"><ele>104.0</ele><time>2026-04-19T08:34:14.001Z</time></trkpt><trkpt lat="43.49454436835378" lon="13.141199455316308"><ele>104.0</ele><time>2026-04-19T08:34:15.001Z</time></trkpt><trkpt lat="43.49451323064075" lon="13.141032144959002"><ele>104.0</ele><time>2026-04-19T08:34:16.001Z</time></trkpt><trkpt lat="43.49447558461631" lon="13.14087557656284"><ele>104.0</ele><time>2026-04-19T08:34:17.001Z</time></trkpt><trkpt lat="43.49445801191155" lon="13.140713713980956"><ele>104.0</ele><time>2026-04-19T08:34:18.001Z</time></trkpt><trkpt lat="43.49443578424362" lon="13.140547027416797"><ele>104.0</ele><time>2026-04-19T08:34:19.001Z</time></trkpt><trkpt lat="43.494426934092274" lon="13.140388300501897"><ele>104.0</ele><time>2026-04-19T08:34:20.001Z</time></trkpt><trkpt lat="43.49442775215141" lon="13.140248173122343"><ele>104.0</ele><time>2026-04-19T08:34:21.001Z</time></trkpt><trkpt lat="43.49443441672234" lon="13.140090365906007"><ele>104.0</ele><time>2026-04-19T08:34:22.001Z</time></trkpt><trkpt lat="43.49444683765652" lon="13.139913579114426"><ele>104.0</ele><time>2026-04-19T08:34:23.001Z</time></trkpt><trkpt lat="43.49446422520927" lon="13.139716933580049"><ele>104.0</ele><time>2026-04-19T08:34:24.001Z</time></trkpt><trkpt lat="43.49449299231078" lon="13.139521999691054"><ele>104.0</ele><time>2026-04-19T08:34:25.001Z</time></trkpt><trkpt lat="43.494527878002074" lon="13.139340425595204"><ele>104.0</ele><time>2026-04-19T08:34:26.001Z</time></trkpt><trkpt lat="43.494562987468285" lon="13.139176093989677"><ele>104.0</ele><time>2026-04-19T08:34:27.001Z</time></trkpt><trkpt lat="43.49457511961701" lon="13.13901550849774"><ele>104.0</ele><time>2026-04-19T08:34:28.001Z</time></trkpt><trkpt lat="43.49459012325362" lon="13.13884173112473"><ele>102.75</ele><time>2026-04-19T08:34:29.001Z</time></trkpt><trkpt lat="43.49459334095184" lon="13.138653921275"><ele>101.5</ele><time>2026-04-19T08:34:30.001Z</time></trkpt><trkpt lat="43.49461917643568" lon="13.138467416294397"><ele>100.25</ele><time>2026-04-19T08:34:31.001Z</time></trkpt><trkpt lat="43.49462441936087" lon="13.138304775974568"><ele>99.0</ele><time>2026-04-19T08:34:32.001Z</time></trkpt><trkpt lat="43.49460244209068" lon="13.138169783860448"><ele>99.6</ele><time>2026-04-19T08:34:33.001Z</time></trkpt><trkpt lat="43.494581687797535" lon="13.138039083494832"><ele>100.2</ele><time>2026-04-19T08:34:34.001Z</time></trkpt><trkpt lat="43.494547218826135" lon="13.137915354557864"><ele>100.8</ele><time>2026-04-19T08:34:35.001Z</time></trkpt><trkpt lat="43.49453677040829" lon="13.137782593974057"><ele>101.39999999999999</ele><time>2026-04-19T08:34:36.001Z</time></trkpt><trkpt lat="43.494532620389414" lon="13.137668252417757"><ele>102.0</ele><time>2026-04-19T08:34:37.001Z</time></trkpt><trkpt lat="43.49453643150914" lon="13.137545366712079"><ele>102.0</ele><time>2026-04-19T08:34:38.001Z</time></trkpt><trkpt lat="43.49454965557257" lon="13.137425519086523"><ele>102.0</ele><time>2026-04-19T08:34:39.001Z</time></trkpt><trkpt lat="43.49455063748764" lon="13.137295121629473"><ele>102.0</ele><time>2026-04-19T08:34:40.001Z</time></trkpt><trkpt lat="43.49458346844621" lon="13.137157037982638"><ele>102.0</ele><time>2026-04-19T08:34:41.001Z</time></trkpt><trkpt lat="43.49462217379768" lon="13.137001610234812"><ele>102.0</ele><time>2026-04-19T08:34:42.001Z</time></trkpt><trkpt lat="43.49466882518975" lon="13.136841004541283"><ele>101.5</ele><time>2026-04-19T08:34:43.002Z</time></trkpt><trkpt lat="43.4947507243182" lon="13.13669181577338"><ele>101.0</ele><time>2026-04-19T08:34:44.002Z</time></trkpt><trkpt lat="43.494805479606185" lon="13.13651455246914"><ele>100.5</ele><time>2026-04-19T08:34:45.002Z</time></trkpt><trkpt lat="43.49486657534473" lon="13.136338849903527"><ele>100.0</ele><time>2026-04-19T08:34:46.002Z</time></trkpt><trkpt lat="43.494918135716894" lon="13.136153023651277"><ele>100.0</ele><time>2026-04-19T08:34:47.002Z</time></trkpt><trkpt lat="43.494968894214146" lon="13.135960539536857"><ele>100.0</ele><time>2026-04-19T08:34:48.002Z</time></trkpt><trkpt lat="43.49502321722022" lon="13.13577189609487"><ele>100.0</ele><time>2026-04-19T08:34:49.002Z</time></trkpt><trkpt lat="43.4950935802377" lon="13.135601302127625"><ele>100.0</ele><time>2026-04-19T08:34:50.002Z</time></trkpt><trkpt lat="43.49512599990247" lon="13.135427991444448"><ele>99.75</ele><time>2026-04-19T08:34:51.002Z</time></trkpt><trkpt lat="43.49515578381222" lon="13.135266800906036"><ele>99.5</ele><time>2026-04-19T08:34:52.002Z</time></trkpt><trkpt lat="43.495166907827205" lon="13.13511307833197"><ele>99.25</ele><time>2026-04-19T08:34:53.002Z</time></trkpt><trkpt lat="43.4951517153177" lon="13.134936544948848"><ele>99.0</ele><time>2026-04-19T08:34:54.002Z</time></trkpt><trkpt lat="43.49514014087876" lon="13.134743602989506"><ele>99.5</ele><time>2026-04-19T08:34:55.002Z</time></trkpt><trkpt lat="43.495107548575014" lon="13.134553569069805"><ele>100.0</ele><time>2026-04-19T08:34:56.002Z</time></trkpt><trkpt lat="43.49505302019554" lon="13.134356826293658"><ele>100.5</ele><time>2026-04-19T08:34:57.002Z</time></trkpt><trkpt lat="43.495014023207375" lon="13.134155787544655"><ele>101.0</ele><time>2026-04-19T08:34:58.002Z</time></trkpt><trkpt lat="43.49494764898034" lon="13.133973174416635"><ele>101.0</ele><time>2026-04-19T08:34:59.002Z</time></trkpt><trkpt lat="43.494874801824274" lon="13.133795012420629"><ele>101.0</ele><time>2026-04-19T08:35:00.002Z</time></trkpt><trkpt lat="43.4948188426273" lon="13.133625959228794"><ele>101.0</ele><time>2026-04-19T08:35:01.002Z</time></trkpt><trkpt lat="43.49473981315839" lon="13.133445214261531"><ele>101.0</ele><time>2026-04-19T08:35:02.002Z</time></trkpt><trkpt lat="43.49465105776273" lon="13.133267166052068"><ele>100.75</ele><time>2026-04-19T08:35:03.002Z</time></trkpt><trkpt lat="43.494553419039704" lon="13.133113362472152"><ele>100.5</ele><time>2026-04-19T08:35:04.002Z</time></trkpt><trkpt lat="43.494469136117175" lon="13.132960303847058"><ele>100.25</ele><time>2026-04-19T08:35:05Z</time></trkpt><trkpt lat="43.494403778991824" lon="13.132785395418965"><ele>100.0</ele><time>2026-04-19T08:35:06Z</time></trkpt><trkpt lat="43.494345363405245" lon="13.132615436664327"><ele>100.0</ele><time>2026-04-19T08:35:07Z</time></trkpt><trkpt lat="43.49430117378439" lon="13.13242449838791"><ele>100.0</ele><time>2026-04-19T08:35:08Z</time></trkpt><trkpt lat="43.49427013750377" lon="13.132222785513491"><ele>100.0</ele><time>2026-04-19T08:35:09Z</time></trkpt><trkpt lat="43.49426416864656" lon="13.132019309926863"><ele>100.0</ele><time>2026-04-19T08:35:10Z</time></trkpt><trkpt lat="43.49426386587223" lon="13.131832424533568"><ele>100.25</ele><time>2026-04-19T08:35:11Z</time></trkpt><trkpt lat="43.494270357697204" lon="13.13164279829626"><ele>100.5</ele><time>2026-04-19T08:35:12Z</time></trkpt><trkpt lat="43.494258113049035" lon="13.131450854623882"><ele>100.75</ele><time>2026-04-19T08:35:13Z</time></trkpt><trkpt lat="43.49425228176509" lon="13.131258291062936"><ele>101.0</ele><time>2026-04-19T08:35:14Z</time></trkpt><trkpt lat="43.49422031553339" lon="13.131071809904661"><ele>101.0</ele><time>2026-04-19T08:35:15Z</time></trkpt><trkpt lat="43.49415957712656" lon="13.130902113894683"><ele>101.0</ele><time>2026-04-19T08:35:16Z</time></trkpt><trkpt lat="43.49407785599904" lon="13.130737526702552"><ele>101.0</ele><time>2026-04-19T08:35:17Z</time></trkpt><trkpt lat="43.49401120578668" lon="13.130567154003366"><ele>101.0</ele><time>2026-04-19T08:35:18Z</time></trkpt><trkpt lat="43.49393394819812" lon="13.130404869249647"><ele>101.0</ele><time>2026-04-19T08:35:19Z</time></trkpt><trkpt lat="43.493866546990404" lon="13.130239225638201"><ele>101.0</ele><time>2026-04-19T08:35:20Z</time></trkpt><trkpt lat="43.4938146017996" lon="13.130067341633643"><ele>101.0</ele><time>2026-04-19T08:35:21Z</time></trkpt><trkpt lat="43.49378762068306" lon="13.129889576021469"><ele>101.0</ele><time>2026-04-19T08:35:22Z</time></trkpt><trkpt lat="43.49377350612189" lon="13.129696797416328"><ele>101.0</ele><time>2026-04-19T08:35:23Z</time></trkpt><trkpt lat="43.49375974741599" lon="13.129492694992459"><ele>101.0</ele><time>2026-04-19T08:35:24Z</time></trkpt><trkpt lat="43.49374522984848" lon="13.12928170542272"><ele>101.0</ele><time>2026-04-19T08:35:25Z</time></trkpt><trkpt lat="43.49372531168279" lon="13.12907030539338"><ele>102.0</ele><time>2026-04-19T08:35:26Z</time></trkpt><trkpt lat="43.49368367439984" lon="13.12887908734407"><ele>103.0</ele><time>2026-04-19T08:35:27Z</time></trkpt><trkpt lat="43.49364131487632" lon="13.128680093720005"><ele>104.0</ele><time>2026-04-19T08:35:28Z</time></trkpt><trkpt lat="43.493578315178645" lon="13.128502692986531"><ele>105.0</ele><time>2026-04-19T08:35:29Z</time></trkpt><trkpt lat="43.49349022889782" lon="13.128335015075352"><ele>104.0</ele><time>2026-04-19T08:35:30Z</time></trkpt><trkpt lat="43.493414214295136" lon="13.1281698577731"><ele>103.0</ele><time>2026-04-19T08:35:31Z</time></trkpt><trkpt lat="43.49332935450723" lon="13.128010309822516"><ele>102.0</ele><time>2026-04-19T08:35:32Z</time></trkpt><trkpt lat="43.49325218380411" lon="13.127856049136188"><ele>101.0</ele><time>2026-04-19T08:35:33Z</time></trkpt><trkpt lat="43.493191784808225" lon="13.12771291859571"><ele>101.0</ele><time>2026-04-19T08:35:34Z</time></trkpt><trkpt lat="43.493149110423516" lon="13.127568601161213"><ele>101.0</ele><time>2026-04-19T08:35:35Z</time></trkpt><trkpt lat="43.49312711633139" lon="13.12740417296344"><ele>101.0</ele><time>2026-04-19T08:35:36Z</time></trkpt><trkpt lat="43.49311735797359" lon="13.127239424290291"><ele>101.0</ele><time>2026-04-19T08:35:37Z</time></trkpt><trkpt lat="43.493136551252896" lon="13.127075320747927"><ele>101.25</ele><time>2026-04-19T08:35:38Z</time></trkpt><trkpt lat="43.4931763997099" lon="13.12691059359434"><ele>101.5</ele><time>2026-04-19T08:35:39Z</time></trkpt><trkpt lat="43.4932301250398" lon="13.126741862799603"><ele>101.75</ele><time>2026-04-19T08:35:40Z</time></trkpt><trkpt lat="43.49327266306644" lon="13.126575338950397"><ele>102.0</ele><time>2026-04-19T08:35:41Z</time></trkpt><trkpt lat="43.493344243294985" lon="13.12644476535741"><ele>102.8</ele><time>2026-04-19T08:35:42Z</time></trkpt><trkpt lat="43.49340094957732" lon="13.126316418262533"><ele>103.6</ele><time>2026-04-19T08:35:43Z</time></trkpt><trkpt lat="43.49346584380599" lon="13.12618975848264"><ele>104.39999999999999</ele><time>2026-04-19T08:35:44Z</time></trkpt><trkpt lat="43.49353152291482" lon="13.126076122751005"><ele>105.19999999999999</ele><time>2026-04-19T08:35:45Z</time></trkpt><trkpt lat="43.49359426446034" lon="13.125980833085084"><ele>106.0</ele><time>2026-04-19T08:35:46Z</time></trkpt><trkpt lat="43.49365089650381" lon="13.125894953185279"><ele>106.00000000000001</ele><time>2026-04-19T08:35:47Z</time></trkpt><trkpt lat="43.493692361496166" lon="13.125813586584016"><ele>106.0</ele><time>2026-04-19T08:35:48Z</time></trkpt><trkpt lat="43.493754560555736" lon="13.125731078454796"><ele>106.0</ele><time>2026-04-19T08:35:50.001Z</time></trkpt><trkpt lat="43.49382700292008" lon="13.125616697065777"><ele>106.0</ele><time>2026-04-19T08:35:52.001Z</time></trkpt><trkpt lat="43.49387564401454" lon="13.125553243513313"><ele>106.00000000000001</ele><time>2026-04-19T08:35:53.001Z</time></trkpt><trkpt lat="43.493932859866156" lon="13.125473609348232"><ele>106.0</ele><time>2026-04-19T08:35:54.001Z</time></trkpt><trkpt lat="43.494002274387476" lon="13.125414370850756"><ele>105.19999999999999</ele><time>2026-04-19T08:35:55.001Z</time></trkpt><trkpt lat="43.49407990110658" lon="13.12539669906283"><ele>104.39999999999999</ele><time>2026-04-19T08:35:56.001Z</time></trkpt><trkpt lat="43.494156178811686" lon="13.125447836223078"><ele>103.6</ele><time>2026-04-19T08:35:57.001Z</time></trkpt><trkpt lat="43.494258604629486" lon="13.125455939993836"><ele>102.8</ele><time>2026-04-19T08:35:58.001Z</time></trkpt><trkpt lat="43.49436646361415" lon="13.125486438490954"><ele>102.0</ele><time>2026-04-19T08:35:59.001Z</time></trkpt><trkpt lat="43.49448092667526" lon="13.125509447515093"><ele>102.0</ele><time>2026-04-19T08:36:00.001Z</time></trkpt><trkpt lat="43.4945923012696" lon="13.125525429751349"><ele>102.0</ele><time>2026-04-19T08:36:01.001Z</time></trkpt><trkpt lat="43.49470301189681" lon="13.125541753150934"><ele>102.0</ele><time>2026-04-19T08:36:02.001Z</time></trkpt><trkpt lat="43.49481835905949" lon="13.125565273545856"><ele>102.0</ele><time>2026-04-19T08:36:03.001Z</time></trkpt><trkpt lat="43.49493290589016" lon="13.125590755978692"><ele>102.0</ele><time>2026-04-19T08:36:04.001Z</time></trkpt><trkpt lat="43.495047403424714" lon="13.125617032423438"><ele>102.0</ele><time>2026-04-19T08:36:05.001Z</time></trkpt><trkpt lat="43.49518936227444" lon="13.125629785203454"><ele>102.0</ele><time>2026-04-19T08:36:06.001Z</time></trkpt><trkpt lat="43.49529622743252" lon="13.125656375492479"><ele>102.0</ele><time>2026-04-19T08:36:07.001Z</time></trkpt><trkpt lat="43.4954219574194" lon="13.12568115516119"><ele>102.0</ele><time>2026-04-19T08:36:08.001Z</time></trkpt><trkpt lat="43.495550464647444" lon="13.125704251485518"><ele>102.0</ele><time>2026-04-19T08:36:09.001Z</time></trkpt><trkpt lat="43.495678179987706" lon="13.125724536980968"><ele>102.0</ele><time>2026-04-19T08:36:10.001Z</time></trkpt><trkpt lat="43.495800801206826" lon="13.12574740225762"><ele>102.0</ele><time>2026-04-19T08:36:11.001Z</time></trkpt><trkpt lat="43.495929367234766" lon="13.125772286238726"><ele>102.0</ele><time>2026-04-19T08:36:12.001Z</time></trkpt><trkpt lat="43.496054533251005" lon="13.125799808583995"><ele>102.0</ele><time>2026-04-19T08:36:13.001Z</time></trkpt><trkpt lat="43.49618550617629" lon="13.125824914462404"><ele>102.0</ele><time>2026-04-19T08:36:14.001Z</time></trkpt><trkpt lat="43.49632119167826" lon="13.125854439392977"><ele>102.0</ele><time>2026-04-19T08:36:15.001Z</time></trkpt><trkpt lat="43.49645953758897" lon="13.125880691663587"><ele>102.0</ele><time>2026-04-19T08:36:16.001Z</time></trkpt><trkpt lat="43.496597797550905" lon="13.125905057501802"><ele>102.0</ele><time>2026-04-19T08:36:17.001Z</time></trkpt><trkpt lat="43.49672104386147" lon="13.12592803692623"><ele>102.0</ele><time>2026-04-19T08:36:18.001Z</time></trkpt><trkpt lat="43.496834466005026" lon="13.125943372680165"><ele>102.0</ele><time>2026-04-19T08:36:19.001Z</time></trkpt><trkpt lat="43.49693841027317" lon="13.125950728707878"><ele>102.0</ele><time>2026-04-19T08:36:20.001Z</time></trkpt><trkpt lat="43.49703299500386" lon="13.125947722163195"><ele>102.0</ele><time>2026-04-19T08:36:21.001Z</time></trkpt><trkpt lat="43.49711414485987" lon="13.125934921676112"><ele>102.0</ele><time>2026-04-19T08:36:22.001Z</time></trkpt><trkpt lat="43.49719422737213" lon="13.125935282508326"><ele>102.0</ele><time>2026-04-19T08:36:23.001Z</time></trkpt><trkpt lat="43.497276031954975" lon="13.12595385656911"><ele>102.0</ele><time>2026-04-19T08:36:24.001Z</time></trkpt><trkpt lat="43.49736243719248" lon="13.12595529605705"><ele>102.0</ele><time>2026-04-19T08:36:25.001Z</time></trkpt><trkpt lat="43.49745938059304" lon="13.125953187595096"><ele>102.0</ele><time>2026-04-19T08:36:26.001Z</time></trkpt><trkpt lat="43.49756365652467" lon="13.125970182474257"><ele>102.0</ele><time>2026-04-19T08:36:27.001Z</time></trkpt><trkpt lat="43.497671342107964" lon="13.126015157645238"><ele>102.0</ele><time>2026-04-19T08:36:28.001Z</time></trkpt><trkpt lat="43.49778429987043" lon="13.126061387750145"><ele>102.0</ele><time>2026-04-19T08:36:29.001Z</time></trkpt><trkpt lat="43.49790307570096" lon="13.12609524193366"><ele>101.75</ele><time>2026-04-19T08:36:30.001Z</time></trkpt><trkpt lat="43.498017160063085" lon="13.126117901531806"><ele>101.5</ele><time>2026-04-19T08:36:31.001Z</time></trkpt><trkpt lat="43.49813206923357" lon="13.126137925472111"><ele>101.25</ele><time>2026-04-19T08:36:32.001Z</time></trkpt><trkpt lat="43.49824654689518" lon="13.126162701329704"><ele>101.0</ele><time>2026-04-19T08:36:33.001Z</time></trkpt><trkpt lat="43.4983614803534" lon="13.126185791877194"><ele>101.0</ele><time>2026-04-19T08:36:34.001Z</time></trkpt><trkpt lat="43.49847702706845" lon="13.126210616787976"><ele>101.0</ele><time>2026-04-19T08:36:35.002Z</time></trkpt><trkpt lat="43.498593388192646" lon="13.126242032298801"><ele>101.0</ele><time>2026-04-19T08:36:36.002Z</time></trkpt><trkpt lat="43.49870979996571" lon="13.126281320390284"><ele>101.0</ele><time>2026-04-19T08:36:37.002Z</time></trkpt><trkpt lat="43.498821928216124" lon="13.1263361103854"><ele>101.25</ele><time>2026-04-19T08:36:38.002Z</time></trkpt><trkpt lat="43.49892505915139" lon="13.126417414429197"><ele>101.5</ele><time>2026-04-19T08:36:39.002Z</time></trkpt><trkpt lat="43.49901622167325" lon="13.126508715970312"><ele>101.75</ele><time>2026-04-19T08:36:40.002Z</time></trkpt><trkpt lat="43.49910582816057" lon="13.12660538924406"><ele>102.0</ele><time>2026-04-19T08:36:41.002Z</time></trkpt><trkpt lat="43.49919645610734" lon="13.126704313278866"><ele>102.19999999999999</ele><time>2026-04-19T08:36:42.002Z</time></trkpt><trkpt lat="43.49928431663559" lon="13.1268010363562"><ele>102.4</ele><time>2026-04-19T08:36:43.002Z</time></trkpt><trkpt lat="43.499373984809836" lon="13.12689891835237"><ele>102.6</ele><time>2026-04-19T08:36:44.002Z</time></trkpt><trkpt lat="43.49945749305136" lon="13.126993629799967"><ele>102.80000000000001</ele><time>2026-04-19T08:36:45.002Z</time></trkpt><trkpt lat="43.49952836754065" lon="13.127085355717737"><ele>103.0</ele><time>2026-04-19T08:36:46.002Z</time></trkpt><trkpt lat="43.49958531968485" lon="13.127190474085065"><ele>103.2</ele><time>2026-04-19T08:36:47.002Z</time></trkpt><trkpt lat="43.499621689569025" lon="13.127318266177522"><ele>103.4</ele><time>2026-04-19T08:36:48.002Z</time></trkpt><trkpt lat="43.49961764368036" lon="13.127460428977495"><ele>103.60000000000001</ele><time>2026-04-19T08:36:49.002Z</time></trkpt><trkpt lat="43.49964029894794" lon="13.127602099507238"><ele>103.80000000000001</ele><time>2026-04-19T08:36:50.002Z</time></trkpt><trkpt lat="43.499643778428165" lon="13.127756976115107"><ele>104.0</ele><time>2026-04-19T08:36:51.002Z</time></trkpt><trkpt lat="43.49965382324497" lon="13.127911935700949"><ele>104.0</ele><time>2026-04-19T08:36:52.002Z</time></trkpt><trkpt lat="43.49966254155857" lon="13.128075756607576"><ele>104.0</ele><time>2026-04-19T08:36:53.002Z</time></trkpt><trkpt lat="43.499670857821066" lon="13.128239164678908"><ele>104.0</ele><time>2026-04-19T08:36:54.002Z</time></trkpt><trkpt lat="43.49967930982613" lon="13.128400017809446"><ele>104.0</ele><time>2026-04-19T08:36:55.002Z</time></trkpt><trkpt lat="43.49968885204701" lon="13.128557012939144"><ele>104.0</ele><time>2026-04-19T08:36:56.002Z</time></trkpt><trkpt lat="43.49969335394167" lon="13.128705139900893"><ele>104.0</ele><time>2026-04-19T08:36:57.002Z</time></trkpt><trkpt lat="43.499692600784705" lon="13.1288344807864"><ele>104.0</ele><time>2026-04-19T08:36:58.002Z</time></trkpt><trkpt lat="43.49969217321642" lon="13.12894378574739"><ele>104.0</ele><time>2026-04-19T08:36:59.002Z</time></trkpt><trkpt lat="43.499690207511144" lon="13.129091682130765"><ele>104.0</ele><time>2026-04-19T08:37:01.002Z</time></trkpt><trkpt lat="43.49969796877192" lon="13.128996875433929"><ele>104.0</ele><time>2026-04-19T08:37:08.002Z</time></trkpt><trkpt lat="43.499719440479296" lon="13.128897294574076"><ele>104.0</ele><time>2026-04-19T08:37:09.002Z</time></trkpt><trkpt lat="43.49971531216637" lon="13.128783523994706"><ele>104.0</ele><time>2026-04-19T08:37:10.002Z</time></trkpt><trkpt lat="43.499713316005476" lon="13.12865034091655"><ele>104.0</ele><time>2026-04-19T08:37:11Z</time></trkpt><trkpt lat="43.499705925903015" lon="13.128512947701907"><ele>104.0</ele><time>2026-04-19T08:37:12Z</time></trkpt><trkpt lat="43.49969935438535" lon="13.128380360553813"><ele>104.0</ele><time>2026-04-19T08:37:13Z</time></trkpt><trkpt lat="43.4996922548968" lon="13.12823381436768"><ele>104.0</ele><time>2026-04-19T08:37:14Z</time></trkpt><trkpt lat="43.49968739742903" lon="13.12808652783373"><ele>104.0</ele><time>2026-04-19T08:37:15Z</time></trkpt><trkpt lat="43.49967761742981" lon="13.127942174666403"><ele>104.0</ele><time>2026-04-19T08:37:16Z</time></trkpt><trkpt lat="43.4996656982487" lon="13.127812149445987"><ele>104.0</ele><time>2026-04-19T08:37:17Z</time></trkpt><trkpt lat="43.49965922885314" lon="13.127692345520389"><ele>103.99999999999999</ele><time>2026-04-19T08:37:18Z</time></trkpt><trkpt lat="43.49965215566381" lon="13.127587138250409"><ele>104.0</ele><time>2026-04-19T08:37:19Z</time></trkpt><trkpt lat="43.49964927062933" lon="13.127461829526212"><ele>104.0</ele><time>2026-04-19T08:37:21Z</time></trkpt><trkpt lat="43.49964369279482" lon="13.12734278711202"><ele>104.0</ele><time>2026-04-19T08:37:24Z</time></trkpt><trkpt lat="43.499629808086496" lon="13.127247224274203"><ele>103.99999999999999</ele><time>2026-04-19T08:37:28Z</time></trkpt><trkpt lat="43.499597054222015" lon="13.127112052988089"><ele>104.0</ele><time>2026-04-19T08:37:31Z</time></trkpt><trkpt lat="43.49955773379418" lon="13.127042746906413"><ele>103.80000000000001</ele><time>2026-04-19T08:37:33Z</time></trkpt><trkpt lat="43.49949062373272" lon="13.126968568640708"><ele>103.60000000000001</ele><time>2026-04-19T08:37:43Z</time></trkpt><trkpt lat="43.49938785606522" lon="13.126861566353012"><ele>103.4</ele><time>2026-04-19T08:37:45Z</time></trkpt><trkpt lat="43.499335721767004" lon="13.126806418436656"><ele>103.2</ele><time>2026-04-19T08:37:46Z</time></trkpt><trkpt lat="43.49928167300908" lon="13.126755048401039"><ele>103.0</ele><time>2026-04-19T08:37:47Z</time></trkpt><trkpt lat="43.499190414694255" lon="13.126655736511465"><ele>103.00000000000001</ele><time>2026-04-19T08:37:49Z</time></trkpt><trkpt lat="43.499133914941076" lon="13.126577439115339"><ele>103.0</ele><time>2026-04-19T08:37:51Z</time></trkpt><trkpt lat="43.499086716943886" lon="13.126504273295602"><ele>103.0</ele><time>2026-04-19T08:37:56.001Z</time></trkpt><trkpt lat="43.49914156396721" lon="13.12659240168868"><ele>103.0</ele><time>2026-04-19T08:38:01.001Z</time></trkpt><trkpt lat="43.49919301109446" lon="13.126647805012135"><ele>103.00000000000001</ele><time>2026-04-19T08:38:02.001Z</time></trkpt><trkpt lat="43.49929625163694" lon="13.12676043485303"><ele>103.0</ele><time>2026-04-19T08:38:03.001Z</time></trkpt><trkpt lat="43.49937338531597" lon="13.126888674883633"><ele>103.0</ele><time>2026-04-19T08:38:04.001Z</time></trkpt><trkpt lat="43.49945343244768" lon="13.126978876354379"><ele>103.0</ele><time>2026-04-19T08:38:05.001Z</time></trkpt><trkpt lat="43.49953304381452" lon="13.127080744089477"><ele>103.0</ele><time>2026-04-19T08:38:06.001Z</time></trkpt><trkpt lat="43.499581307497394" lon="13.127193944762203"><ele>103.0</ele><time>2026-04-19T08:38:07.001Z</time></trkpt><trkpt lat="43.49961644043572" lon="13.127324910207086"><ele>103.0</ele><time>2026-04-19T08:38:08.001Z</time></trkpt><trkpt lat="43.49963150798916" lon="13.127484075682547"><ele>103.25</ele><time>2026-04-19T08:38:09.001Z</time></trkpt><trkpt lat="43.49964042766082" lon="13.127651021800489"><ele>103.5</ele><time>2026-04-19T08:38:10.001Z</time></trkpt><trkpt lat="43.49965065163852" lon="13.12782101750175"><ele>103.75</ele><time>2026-04-19T08:38:11.001Z</time></trkpt><trkpt lat="43.49966077252511" lon="13.127991331923726"><ele>104.0</ele><time>2026-04-19T08:38:12.001Z</time></trkpt><trkpt lat="43.49967323295252" lon="13.128172408780735"><ele>104.0</ele><time>2026-04-19T08:38:13.001Z</time></trkpt><trkpt lat="43.49968163791343" lon="13.128358936476275"><ele>104.0</ele><time>2026-04-19T08:38:14.001Z</time></trkpt><trkpt lat="43.49968679593409" lon="13.128552400169816"><ele>104.0</ele><time>2026-04-19T08:38:15.001Z</time></trkpt><trkpt lat="43.4996961312981" lon="13.128752186489807"><ele>104.0</ele><time>2026-04-19T08:38:16.001Z</time></trkpt><trkpt lat="43.49970370302842" lon="13.128959761288646"><ele>103.5</ele><time>2026-04-19T08:38:17.001Z</time></trkpt><trkpt lat="43.4997100224141" lon="13.129158671290448"><ele>103.0</ele><time>2026-04-19T08:38:18.001Z</time></trkpt><trkpt lat="43.49971289172841" lon="13.129364974374564"><ele>102.5</ele><time>2026-04-19T08:38:19.001Z</time></trkpt><trkpt lat="43.49971982191996" lon="13.129574789012286"><ele>102.0</ele><time>2026-04-19T08:38:20.001Z</time></trkpt><trkpt lat="43.49972630439197" lon="13.129792021543441"><ele>101.5</ele><time>2026-04-19T08:38:21.001Z</time></trkpt><trkpt lat="43.49973184277675" lon="13.13000658290406"><ele>101.0</ele><time>2026-04-19T08:38:22.001Z</time></trkpt><trkpt lat="43.49973319153831" lon="13.130204526726109"><ele>100.5</ele><time>2026-04-19T08:38:23.001Z</time></trkpt><trkpt lat="43.49972967196248" lon="13.130382845829953"><ele>100.0</ele><time>2026-04-19T08:38:24.001Z</time></trkpt><trkpt lat="43.4997248560458" lon="13.130564339608238"><ele>100.0</ele><time>2026-04-19T08:38:25.001Z</time></trkpt><trkpt lat="43.49972281228571" lon="13.13073900880135"><ele>100.0</ele><time>2026-04-19T08:38:26.001Z</time></trkpt><trkpt lat="43.499722931858656" lon="13.130913888832826"><ele>100.0</ele><time>2026-04-19T08:38:27.001Z</time></trkpt><trkpt lat="43.49971830165866" lon="13.131078908416882"><ele>100.0</ele><time>2026-04-19T08:38:28.001Z</time></trkpt><trkpt lat="43.4997078217365" lon="13.131232854207648"><ele>100.0</ele><time>2026-04-19T08:38:29.001Z</time></trkpt><trkpt lat="43.49966602201068" lon="13.131370316220865"><ele>100.0</ele><time>2026-04-19T08:38:30.001Z</time></trkpt><trkpt lat="43.49966292614997" lon="13.131489926418757"><ele>100.0</ele><time>2026-04-19T08:38:31.001Z</time></trkpt><trkpt lat="43.49964594419164" lon="13.131592674104585"><ele>100.0</ele><time>2026-04-19T08:38:32.001Z</time></trkpt><trkpt lat="43.49966246279783" lon="13.131684753201638"><ele>100.0</ele><time>2026-04-19T08:38:33.001Z</time></trkpt><trkpt lat="43.499772309864774" lon="13.131770331893222"><ele>99.83333333333334</ele><time>2026-04-19T08:38:35.001Z</time></trkpt><trkpt lat="43.49985514427199" lon="13.13175858706831"><ele>99.66666666666667</ele><time>2026-04-19T08:38:36.001Z</time></trkpt><trkpt lat="43.49992180490309" lon="13.131748203591298"><ele>99.5</ele><time>2026-04-19T08:38:37.001Z</time></trkpt><trkpt lat="43.49998740607534" lon="13.131755073346074"><ele>99.33333333333334</ele><time>2026-04-19T08:38:38.001Z</time></trkpt><trkpt lat="43.500065806981674" lon="13.131764160104625"><ele>99.16666666666667</ele><time>2026-04-19T08:38:39.001Z</time></trkpt><trkpt lat="43.50019806815522" lon="13.131769877900492"><ele>99.0</ele><time>2026-04-19T08:38:40.001Z</time></trkpt><trkpt lat="43.500303333622625" lon="13.131752909931047"><ele>99.80000000000001</ele><time>2026-04-19T08:38:41.002Z</time></trkpt><trkpt lat="43.50041784295648" lon="13.131744236181348"><ele>100.60000000000001</ele><time>2026-04-19T08:38:42.002Z</time></trkpt><trkpt lat="43.50053404537391" lon="13.131740274375451"><ele>101.4</ele><time>2026-04-19T08:38:43.002Z</time></trkpt><trkpt lat="43.50064845321361" lon="13.131750472955362"><ele>102.2</ele><time>2026-04-19T08:38:44.002Z</time></trkpt><trkpt lat="43.500739793848915" lon="13.131800746233079"><ele>103.0</ele><time>2026-04-19T08:38:45.002Z</time></trkpt><trkpt lat="43.500807368757144" lon="13.131894568126347"><ele>103.0</ele><time>2026-04-19T08:38:46.002Z</time></trkpt><trkpt lat="43.50084460992446" lon="13.13201601393981"><ele>103.0</ele><time>2026-04-19T08:38:47.002Z</time></trkpt><trkpt lat="43.500865957571854" lon="13.13214964194754"><ele>103.0</ele><time>2026-04-19T08:38:48.002Z</time></trkpt><trkpt lat="43.50089151830144" lon="13.132282645192284"><ele>103.0</ele><time>2026-04-19T08:38:49.002Z</time></trkpt><trkpt lat="43.50092155743128" lon="13.13241300143648"><ele>103.0</ele><time>2026-04-19T08:38:50.002Z</time></trkpt><trkpt lat="43.50095513956596" lon="13.132548981730517"><ele>102.80000000000001</ele><time>2026-04-19T08:38:51.002Z</time></trkpt><trkpt lat="43.50099078961318" lon="13.13269987123352"><ele>102.6</ele><time>2026-04-19T08:38:52.002Z</time></trkpt><trkpt lat="43.50102137710809" lon="13.132851224884671"><ele>102.4</ele><time>2026-04-19T08:38:53.002Z</time></trkpt><trkpt lat="43.501055094145094" lon="13.1329753351573"><ele>102.19999999999999</ele><time>2026-04-19T08:38:54.002Z</time></trkpt><trkpt lat="43.501102645462844" lon="13.133070543737853"><ele>102.0</ele><time>2026-04-19T08:38:55.002Z</time></trkpt><trkpt lat="43.50117330929794" lon="13.133132139044744"><ele>102.0</ele><time>2026-04-19T08:38:56.002Z</time></trkpt><trkpt lat="43.501247007445684" lon="13.133142162750747"><ele>102.0</ele><time>2026-04-19T08:38:57.002Z</time></trkpt><trkpt lat="43.5013293581842" lon="13.133103349494057"><ele>102.0</ele><time>2026-04-19T08:38:58.002Z</time></trkpt><trkpt lat="43.50138742901256" lon="13.133033990054434"><ele>102.0</ele><time>2026-04-19T08:38:59.002Z</time></trkpt><trkpt lat="43.50144826755521" lon="13.132988042343547"><ele>102.0</ele><time>2026-04-19T08:39:01.002Z</time></trkpt><trkpt lat="43.50150566027509" lon="13.132854875224748"><ele>102.0</ele><time>2026-04-19T08:39:04.002Z</time></trkpt><trkpt lat="43.501585350244625" lon="13.132759968859315"><ele>104.0</ele><time>2026-04-19T08:39:06.002Z</time></trkpt><trkpt lat="43.5016939068392" lon="13.132732097156017"><ele>106.0</ele><time>2026-04-19T08:39:08.002Z</time></trkpt><trkpt lat="43.50175873685511" lon="13.132719726315623"><ele>107.99999999999999</ele><time>2026-04-19T08:39:09.002Z</time></trkpt><trkpt lat="43.50182963124995" lon="13.132708607739294"><ele>110.0</ele><time>2026-04-19T08:39:10.002Z</time></trkpt><trkpt lat="43.50189612795024" lon="13.132684356578746"><ele>112.0</ele><time>2026-04-19T08:39:12.002Z</time></trkpt><trkpt lat="43.50193446301465" lon="13.132505119647462"><ele>112.00000000000001</ele><time>2026-04-19T08:39:14.002Z</time></trkpt><trkpt lat="43.501920224926714" lon="13.13239757200569"><ele>112.0</ele><time>2026-04-19T08:39:15.002Z</time></trkpt><trkpt lat="43.50190312764945" lon="13.132268427350272"><ele>112.0</ele><time>2026-04-19T08:39:16.002Z</time></trkpt><trkpt lat="43.50188570292779" lon="13.132136808997638"><ele>112.0</ele><time>2026-04-19T08:39:16.999Z</time></trkpt><trkpt lat="43.501869647570416" lon="13.132015534174514"><ele>112.00000000000001</ele><time>2026-04-19T08:39:17.999Z</time></trkpt><trkpt lat="43.50184364651602" lon="13.131923520737079"><ele>112.0</ele><time>2026-04-19T08:39:19.999Z</time></trkpt><trkpt lat="43.501903596642926" lon="13.131952378556386"><ele>112.16666666666667</ele><time>2026-04-19T08:39:24Z</time></trkpt><trkpt lat="43.50201584877919" lon="13.13194930584557"><ele>112.33333333333334</ele><time>2026-04-19T08:39:26Z</time></trkpt><trkpt lat="43.50207633574793" lon="13.1319179565244"><ele>112.5</ele><time>2026-04-19T08:39:27Z</time></trkpt><trkpt lat="43.502148478150836" lon="13.131897098260767"><ele>112.66666666666666</ele><time>2026-04-19T08:39:28Z</time></trkpt><trkpt lat="43.5022152301727" lon="13.13187958775012"><ele>112.83333333333333</ele><time>2026-04-19T08:39:29Z</time></trkpt><trkpt lat="43.502291092970374" lon="13.131854608594137"><ele>113.0</ele><time>2026-04-19T08:39:31Z</time></trkpt><trkpt lat="43.5024160377818" lon="13.131854618331765"><ele>112.99999999999999</ele><time>2026-04-19T08:39:36Z</time></trkpt><trkpt lat="43.5024903457862" lon="13.131833130614476"><ele>113.0</ele><time>2026-04-19T08:39:37Z</time></trkpt><trkpt lat="43.50257094779398" lon="13.131809822836654"><ele>113.0</ele><time>2026-04-19T08:39:38Z</time></trkpt><trkpt lat="43.502658664572046" lon="13.13178445767734"><ele>113.0</ele><time>2026-04-19T08:39:39Z</time></trkpt><trkpt lat="43.502760142353445" lon="13.13175511323562"><ele>112.99999999999999</ele><time>2026-04-19T08:39:40Z</time></trkpt><trkpt lat="43.50284931751519" lon="13.131728414258346"><ele>113.0</ele><time>2026-04-19T08:39:41Z</time></trkpt><trkpt lat="43.50292079479389" lon="13.13170703744378"><ele>113.4</ele><time>2026-04-19T08:39:42Z</time></trkpt><trkpt lat="43.50300129056216" lon="13.131678917688536"><ele>113.80000000000001</ele><time>2026-04-19T08:39:43Z</time></trkpt><trkpt lat="43.503090181436455" lon="13.131647869793994"><ele>114.2</ele><time>2026-04-19T08:39:44Z</time></trkpt><trkpt lat="43.5031900668998" lon="13.131611383063508"><ele>114.6</ele><time>2026-04-19T08:39:45Z</time></trkpt><trkpt lat="43.50329656600557" lon="13.131572480462081"><ele>115.0</ele><time>2026-04-19T08:39:46Z</time></trkpt><trkpt lat="43.50341073785632" lon="13.13153077507524"><ele>115.25</ele><time>2026-04-19T08:39:47Z</time></trkpt><trkpt lat="43.50351511943634" lon="13.131469804277826"><ele>115.5</ele><time>2026-04-19T08:39:48Z</time></trkpt><trkpt lat="43.5036309471572" lon="13.131448603575851"><ele>115.75</ele><time>2026-04-19T08:39:49Z</time></trkpt><trkpt lat="43.503744548894396" lon="13.131406192605219"><ele>116.0</ele><time>2026-04-19T08:39:50Z</time></trkpt><trkpt lat="43.503862812798616" lon="13.131362041054619"><ele>116.5</ele><time>2026-04-19T08:39:51Z</time></trkpt><trkpt lat="43.503980339419584" lon="13.131317157840552"><ele>117.0</ele><time>2026-04-19T08:39:52Z</time></trkpt><trkpt lat="43.50409998355408" lon="13.131271510955779"><ele>117.5</ele><time>2026-04-19T08:39:53Z</time></trkpt><trkpt lat="43.50421428821643" lon="13.131227901193116"><ele>118.0</ele><time>2026-04-19T08:39:54Z</time></trkpt><trkpt lat="43.50433181864047" lon="13.131183060732429"><ele>118.0</ele><time>2026-04-19T08:39:55Z</time></trkpt><trkpt lat="43.504444989861874" lon="13.131138817890708"><ele>118.0</ele><time>2026-04-19T08:39:56Z</time></trkpt><trkpt lat="43.504558508908026" lon="13.131093950371511"><ele>118.0</ele><time>2026-04-19T08:39:57Z</time></trkpt><trkpt lat="43.50467766339647" lon="13.131046855479708"><ele>118.0</ele><time>2026-04-19T08:39:58Z</time></trkpt><trkpt lat="43.50478658803124" lon="13.131003803868836"><ele>118.0</ele><time>2026-04-19T08:39:59.001Z</time></trkpt><trkpt lat="43.504892965377245" lon="13.130962206166462"><ele>118.00000000000001</ele><time>2026-04-19T08:40:00.001Z</time></trkpt><trkpt lat="43.50500205347246" lon="13.130919813671463"><ele>118.00000000000001</ele><time>2026-04-19T08:40:01.001Z</time></trkpt><trkpt lat="43.50510778621433" lon="13.13087872506717"><ele>118.0</ele><time>2026-04-19T08:40:02.001Z</time></trkpt><trkpt lat="43.505203852896855" lon="13.13084305556933"><ele>118.0</ele><time>2026-04-19T08:40:03.001Z</time></trkpt><trkpt lat="43.50529143275946" lon="13.130810803102753"><ele>118.00000000000001</ele><time>2026-04-19T08:40:04.001Z</time></trkpt><trkpt lat="43.50537325790203" lon="13.130780669656444"><ele>118.0</ele><time>2026-04-19T08:40:05.001Z</time></trkpt><trkpt lat="43.50545102069088" lon="13.130754868901624"><ele>118.0</ele><time>2026-04-19T08:40:06.001Z</time></trkpt><trkpt lat="43.50552623819925" lon="13.13072882624461"><ele>118.0</ele><time>2026-04-19T08:40:07.001Z</time></trkpt><trkpt lat="43.50559507022388" lon="13.130706030816281"><ele>118.00000000000001</ele><time>2026-04-19T08:40:08.001Z</time></trkpt><trkpt lat="43.50567927518405" lon="13.13067005239067"><ele>118.0</ele><time>2026-04-19T08:40:15.001Z</time></trkpt><trkpt lat="43.50572574559837" lon="13.130563639749814"><ele>118.33333333333334</ele><time>2026-04-19T08:40:17.001Z</time></trkpt><trkpt lat="43.50572758132562" lon="13.130456552510298"><ele>118.66666666666667</ele><time>2026-04-19T08:40:18.001Z</time></trkpt><trkpt lat="43.505732523161065" lon="13.130344971577411"><ele>119.0</ele><time>2026-04-19T08:40:19.001Z</time></trkpt><trkpt lat="43.50574595739695" lon="13.130225862292626"><ele>119.33333333333334</ele><time>2026-04-19T08:40:20.001Z</time></trkpt><trkpt lat="43.505763534921954" lon="13.130103161357527"><ele>119.66666666666667</ele><time>2026-04-19T08:40:21.001Z</time></trkpt><trkpt lat="43.50578069819837" lon="13.129972131929595"><ele>120.0</ele><time>2026-04-19T08:40:22.001Z</time></trkpt><trkpt lat="43.50579135072187" lon="13.129843093540167"><ele>120.0</ele><time>2026-04-19T08:40:23.001Z</time></trkpt><trkpt lat="43.505803717748805" lon="13.1297168742145"><ele>120.0</ele><time>2026-04-19T08:40:24.001Z</time></trkpt><trkpt lat="43.505822553497545" lon="13.129594233855052"><ele>120.0</ele><time>2026-04-19T08:40:25.001Z</time></trkpt><trkpt lat="43.505837593086724" lon="13.129460532456173"><ele>120.0</ele><time>2026-04-19T08:40:26.001Z</time></trkpt><trkpt lat="43.50585331187873" lon="13.129326857822994"><ele>120.0</ele><time>2026-04-19T08:40:27.001Z</time></trkpt><trkpt lat="43.50586323696731" lon="13.129188327136845"><ele>120.2</ele><time>2026-04-19T08:40:28.001Z</time></trkpt><trkpt lat="43.50587158112878" lon="13.12904292425733"><ele>120.4</ele><time>2026-04-19T08:40:29.001Z</time></trkpt><trkpt lat="43.50589515095999" lon="13.12888584514677"><ele>120.6</ele><time>2026-04-19T08:40:30.001Z</time></trkpt><trkpt lat="43.50587606706745" lon="13.128742802439787"><ele>120.8</ele><time>2026-04-19T08:40:31.001Z</time></trkpt><trkpt lat="43.50586196069503" lon="13.128613758280455"><ele>121.0</ele><time>2026-04-19T08:40:32.001Z</time></trkpt><trkpt lat="43.505866468227" lon="13.12849269340781"><ele>121.0</ele><time>2026-04-19T08:40:33.001Z</time></trkpt><trkpt lat="43.50585706580736" lon="13.128361088508749"><ele>121.0</ele><time>2026-04-19T08:40:34.001Z</time></trkpt><trkpt lat="43.50583658625902" lon="13.128233792795681"><ele>121.0</ele><time>2026-04-19T08:40:35.001Z</time></trkpt><trkpt lat="43.50583448720846" lon="13.12808921159395"><ele>121.0</ele><time>2026-04-19T08:40:36.001Z</time></trkpt><trkpt lat="43.50583527608677" lon="13.127957947718748"><ele>121.0</ele><time>2026-04-19T08:40:37.001Z</time></trkpt><trkpt lat="43.50584584037177" lon="13.127841941965277"><ele>121.25</ele><time>2026-04-19T08:40:38.001Z</time></trkpt><trkpt lat="43.505866206835115" lon="13.12770868626051"><ele>121.5</ele><time>2026-04-19T08:40:39.001Z</time></trkpt><trkpt lat="43.50591697664774" lon="13.127561065827951"><ele>121.75</ele><time>2026-04-19T08:40:40.002Z</time></trkpt><trkpt lat="43.50596353876454" lon="13.127415976930058"><ele>122.0</ele><time>2026-04-19T08:40:41.002Z</time></trkpt><trkpt lat="43.50601041525587" lon="13.127260660101921"><ele>122.0</ele><time>2026-04-19T08:40:42.002Z</time></trkpt><trkpt lat="43.506032759954394" lon="13.127109880610554"><ele>122.0</ele><time>2026-04-19T08:40:43.002Z</time></trkpt><trkpt lat="43.50606905044463" lon="13.126940287350717"><ele>122.0</ele><time>2026-04-19T08:40:44.002Z</time></trkpt><trkpt lat="43.506103149057466" lon="13.12677727006231"><ele>122.0</ele><time>2026-04-19T08:40:45.002Z</time></trkpt><trkpt lat="43.50613677937295" lon="13.126610454162703"><ele>122.19999999999999</ele><time>2026-04-19T08:40:46.002Z</time></trkpt><trkpt lat="43.50616692366285" lon="13.126458689443515"><ele>122.39999999999999</ele><time>2026-04-19T08:40:47.002Z</time></trkpt><trkpt lat="43.50619638450582" lon="13.1263219410888"><ele>122.60000000000001</ele><time>2026-04-19T08:40:48.002Z</time></trkpt><trkpt lat="43.50622243583498" lon="13.126191115916875"><ele>122.80000000000001</ele><time>2026-04-19T08:40:49.002Z</time></trkpt><trkpt lat="43.506244226465626" lon="13.126066353928241"><ele>123.0</ele><time>2026-04-19T08:40:50.002Z</time></trkpt><trkpt lat="43.50627567649344" lon="13.125924422607733"><ele>123.2</ele><time>2026-04-19T08:40:51.002Z</time></trkpt><trkpt lat="43.50630748809496" lon="13.125793034312313"><ele>123.4</ele><time>2026-04-19T08:40:52.002Z</time></trkpt><trkpt lat="43.50634108318032" lon="13.12566416398098"><ele>123.60000000000001</ele><time>2026-04-19T08:40:53.002Z</time></trkpt><trkpt lat="43.50637373743768" lon="13.125531073395655"><ele>123.80000000000001</ele><time>2026-04-19T08:40:54.002Z</time></trkpt><trkpt lat="43.50640742527278" lon="13.125388702632282"><ele>124.0</ele><time>2026-04-19T08:40:55.002Z</time></trkpt><trkpt lat="43.506442905938776" lon="13.125244529504249"><ele>124.0</ele><time>2026-04-19T08:40:56.002Z</time></trkpt><trkpt lat="43.506479335971385" lon="13.125087139320522"><ele>124.0</ele><time>2026-04-19T08:40:57.002Z</time></trkpt><trkpt lat="43.506518247610344" lon="13.12492515601458"><ele>124.0</ele><time>2026-04-19T08:40:58.002Z</time></trkpt><trkpt lat="43.5065529011244" lon="13.124773199898039"><ele>124.0</ele><time>2026-04-19T08:40:59.002Z</time></trkpt><trkpt lat="43.50662235669985" lon="13.124470734540036"><ele>124.0</ele><time>2026-04-19T08:41:01.002Z</time></trkpt><trkpt lat="43.506653434747356" lon="13.12431567736691"><ele>124.0</ele><time>2026-04-19T08:41:02.002Z</time></trkpt><trkpt lat="43.50668239971623" lon="13.124166542503733"><ele>124.0</ele><time>2026-04-19T08:41:03.002Z</time></trkpt><trkpt lat="43.506707101850665" lon="13.124033845573475"><ele>124.0</ele><time>2026-04-19T08:41:04.002Z</time></trkpt><trkpt lat="43.50673275000217" lon="13.123882947870612"><ele>124.0</ele><time>2026-04-19T08:41:05.002Z</time></trkpt><trkpt lat="43.506758584165595" lon="13.123736818896699"><ele>124.25</ele><time>2026-04-19T08:41:06.002Z</time></trkpt><trkpt lat="43.506781342060286" lon="13.123582031763943"><ele>124.5</ele><time>2026-04-19T08:41:07.002Z</time></trkpt><trkpt lat="43.50680092576898" lon="13.123432394119249"><ele>124.75</ele><time>2026-04-19T08:41:08.002Z</time></trkpt><trkpt lat="43.50681969655634" lon="13.123268870214469"><ele>125.0</ele><time>2026-04-19T08:41:09.002Z</time></trkpt><trkpt lat="43.5068347575598" lon="13.12310255933128"><ele>125.0</ele><time>2026-04-19T08:41:10.002Z</time></trkpt><trkpt lat="43.50684345619856" lon="13.122939577360292"><ele>125.0</ele><time>2026-04-19T08:41:11.002Z</time></trkpt><trkpt lat="43.506839934855435" lon="13.122770144369374"><ele>125.0</ele><time>2026-04-19T08:41:12.002Z</time></trkpt><trkpt lat="43.506828476351075" lon="13.12260912490702"><ele>125.0</ele><time>2026-04-19T08:41:13.002Z</time></trkpt><trkpt lat="43.506825121155536" lon="13.12245129703317"><ele>124.99999999999999</ele><time>2026-04-19T08:41:14.002Z</time></trkpt><trkpt lat="43.506832608649994" lon="13.122297331014712"><ele>125.0</ele><time>2026-04-19T08:41:15.002Z</time></trkpt><trkpt lat="43.506837240493475" lon="13.122168586865167"><ele>125.0</ele><time>2026-04-19T08:41:16.002Z</time></trkpt><trkpt lat="43.50683667733516" lon="13.122060312522693"><ele>125.0</ele><time>2026-04-19T08:41:17.002Z</time></trkpt><trkpt lat="43.50683905188557" lon="13.121972635374615"><ele>124.99999999999999</ele><time>2026-04-19T08:41:18.002Z</time></trkpt><trkpt lat="43.506861790592666" lon="13.121879803417931"><ele>125.0</ele><time>2026-04-19T08:41:20.002Z</time></trkpt><trkpt lat="43.506857082801105" lon="13.121738396975944"><ele>125.0</ele><time>2026-04-19T08:41:22.002Z</time></trkpt><trkpt lat="43.50682776582211" lon="13.121625450292209"><ele>125.0</ele><time>2026-04-19T08:41:23Z</time></trkpt><trkpt lat="43.506794557893976" lon="13.121502106039683"><ele>125.0</ele><time>2026-04-19T08:41:24Z</time></trkpt><trkpt lat="43.50679159719794" lon="13.121381760878068"><ele>125.0</ele><time>2026-04-19T08:41:25Z</time></trkpt><trkpt lat="43.50675903597189" lon="13.121258523490013"><ele>125.0</ele><time>2026-04-19T08:41:26Z</time></trkpt><trkpt lat="43.50673930898746" lon="13.121113643106497"><ele>124.75</ele><time>2026-04-19T08:41:27Z</time></trkpt><trkpt lat="43.506718802194946" lon="13.120956290083075"><ele>124.5</ele><time>2026-04-19T08:41:28Z</time></trkpt><trkpt lat="43.506695914637874" lon="13.120794787156266"><ele>124.25</ele><time>2026-04-19T08:41:29Z</time></trkpt><trkpt lat="43.50668145129955" lon="13.120642502907819"><ele>124.0</ele><time>2026-04-19T08:41:30Z</time></trkpt><trkpt lat="43.506653402363106" lon="13.120490377378788"><ele>123.4</ele><time>2026-04-19T08:41:31Z</time></trkpt><trkpt lat="43.50662601284856" lon="13.120344973612111"><ele>122.80000000000001</ele><time>2026-04-19T08:41:32Z</time></trkpt><trkpt lat="43.50659686062669" lon="13.120203577075035"><ele>122.19999999999999</ele><time>2026-04-19T08:41:33Z</time></trkpt><trkpt lat="43.5065674945345" lon="13.1200608083963"><ele>121.6</ele><time>2026-04-19T08:41:34Z</time></trkpt><trkpt lat="43.50653556634026" lon="13.119905583385988"><ele>121.0</ele><time>2026-04-19T08:41:35Z</time></trkpt><trkpt lat="43.50650435361861" lon="13.119753837190324"><ele>119.75</ele><time>2026-04-19T08:41:36Z</time></trkpt><trkpt lat="43.50646996464441" lon="13.119586648935956"><ele>118.5</ele><time>2026-04-19T08:41:37Z</time></trkpt><trkpt lat="43.506437147459614" lon="13.119410567212897"><ele>117.25</ele><time>2026-04-19T08:41:38Z</time></trkpt><trkpt lat="43.50639666394489" lon="13.119240884712067"><ele>116.0</ele><time>2026-04-19T08:41:39Z</time></trkpt><trkpt lat="43.50639189967513" lon="13.119059685846377"><ele>115.5</ele><time>2026-04-19T08:41:40Z</time></trkpt><trkpt lat="43.50639762295922" lon="13.118881228570304"><ele>115.0</ele><time>2026-04-19T08:41:41Z</time></trkpt><trkpt lat="43.506411619980646" lon="13.11869601861868"><ele>114.5</ele><time>2026-04-19T08:41:42Z</time></trkpt><trkpt lat="43.50642446893639" lon="13.11852307738047"><ele>114.0</ele><time>2026-04-19T08:41:43Z</time></trkpt><trkpt lat="43.50643944990301" lon="13.118358652235205"><ele>115.16666666666667</ele><time>2026-04-19T08:41:44Z</time></trkpt><trkpt lat="43.50643131337509" lon="13.118213592506631"><ele>116.33333333333334</ele><time>2026-04-19T08:41:45Z</time></trkpt><trkpt lat="43.506436905725955" lon="13.11807957558491"><ele>117.5</ele><time>2026-04-19T08:41:46Z</time></trkpt><trkpt lat="43.506442390297444" lon="13.117964569255053"><ele>118.66666666666667</ele><time>2026-04-19T08:41:47Z</time></trkpt><trkpt lat="43.506455674714765" lon="13.117834495474868"><ele>119.83333333333334</ele><time>2026-04-19T08:41:49Z</time></trkpt><trkpt lat="43.506517230232205" lon="13.117812532083343"><ele>121.0</ele><time>2026-04-19T08:41:50Z</time></trkpt><trkpt lat="43.50661703125447" lon="13.117814386021994"><ele>121.00000000000001</ele><time>2026-04-19T08:41:52Z</time></trkpt><trkpt lat="43.50668104318677" lon="13.117809724819496"><ele>121.0</ele><time>2026-04-19T08:41:53Z</time></trkpt><trkpt lat="43.50676027047758" lon="13.117807049526144"><ele>121.0</ele><time>2026-04-19T08:41:54Z</time></trkpt><trkpt lat="43.50685139603739" lon="13.117806877557417"><ele>121.0</ele><time>2026-04-19T08:41:55Z</time></trkpt><trkpt lat="43.50693694016471" lon="13.117852945252956"><ele>121.00000000000001</ele><time>2026-04-19T08:41:56Z</time></trkpt><trkpt lat="43.50702257343998" lon="13.117891866094324"><ele>121.0</ele><time>2026-04-19T08:41:57Z</time></trkpt><trkpt lat="43.50711931071762" lon="13.117919369065637"><ele>122.4</ele><time>2026-04-19T08:41:58Z</time></trkpt><trkpt lat="43.50720519599146" lon="13.11800079620557"><ele>123.8</ele><time>2026-04-19T08:41:59Z</time></trkpt><trkpt lat="43.50730680381596" lon="13.118046633381077"><ele>125.20000000000002</ele><time>2026-04-19T08:42:00.001Z</time></trkpt><trkpt lat="43.507391654811386" lon="13.118116229137286"><ele>126.60000000000001</ele><time>2026-04-19T08:42:01.001Z</time></trkpt><trkpt lat="43.50746023014241" lon="13.118179183795869"><ele>128.0</ele><time>2026-04-19T08:42:02.001Z</time></trkpt><trkpt lat="43.507523745190255" lon="13.118227331668052"><ele>127.83333333333333</ele><time>2026-04-19T08:42:03.001Z</time></trkpt><trkpt lat="43.50758808216159" lon="13.118270233950257"><ele>127.66666666666666</ele><time>2026-04-19T08:42:04.001Z</time></trkpt><trkpt lat="43.507660334127415" lon="13.118284350854866"><ele>127.5</ele><time>2026-04-19T08:42:05.001Z</time></trkpt><trkpt lat="43.507730524441975" lon="13.1182682838004"><ele>127.33333333333334</ele><time>2026-04-19T08:42:06.001Z</time></trkpt><trkpt lat="43.507800782659686" lon="13.118265241964915"><ele>127.16666666666667</ele><time>2026-04-19T08:42:07.001Z</time></trkpt><trkpt lat="43.507887943937824" lon="13.118248761267326"><ele>127.0</ele><time>2026-04-19T08:42:08.001Z</time></trkpt><trkpt lat="43.50797125518507" lon="13.11821209275795"><ele>127.0</ele><time>2026-04-19T08:42:09.001Z</time></trkpt><trkpt lat="43.508064371679964" lon="13.118196919502868"><ele>126.99999999999999</ele><time>2026-04-19T08:42:10.001Z</time></trkpt><trkpt lat="43.50815083761138" lon="13.118152106040059"><ele>126.99999999999999</ele><time>2026-04-19T08:42:11.001Z</time></trkpt><trkpt lat="43.508226564000076" lon="13.118058502630886"><ele>127.0</ele><time>2026-04-19T08:42:12.001Z</time></trkpt><trkpt lat="43.5082842656347" lon="13.117941277736602"><ele>127.0</ele><time>2026-04-19T08:42:13.001Z</time></trkpt><trkpt lat="43.50835320393395" lon="13.117852878882893"><ele>127.0</ele><time>2026-04-19T08:42:14.001Z</time></trkpt><trkpt lat="43.50841150507824" lon="13.117786033835765"><ele>126.99999999999999</ele><time>2026-04-19T08:42:15.001Z</time></trkpt><trkpt lat="43.5084902090552" lon="13.117741531621515"><ele>126.99999999999999</ele><time>2026-04-19T08:42:16.001Z</time></trkpt><trkpt lat="43.50858348889997" lon="13.117734631801678"><ele>127.0</ele><time>2026-04-19T08:42:17.001Z</time></trkpt><trkpt lat="43.508698171086486" lon="13.117732176734323"><ele>127.0</ele><time>2026-04-19T08:42:18.001Z</time></trkpt><trkpt lat="43.508817097697886" lon="13.117718379159301"><ele>125.8</ele><time>2026-04-19T08:42:19.001Z</time></trkpt><trkpt lat="43.50893532897383" lon="13.117713164988476"><ele>124.6</ele><time>2026-04-19T08:42:20.001Z</time></trkpt><trkpt lat="43.50904514460565" lon="13.117710934532463"><ele>123.39999999999999</ele><time>2026-04-19T08:42:21.001Z</time></trkpt><trkpt lat="43.509153923349075" lon="13.117701833545548"><ele>122.19999999999999</ele><time>2026-04-19T08:42:22.001Z</time></trkpt><trkpt lat="43.5092577930243" lon="13.117669579156209"><ele>121.0</ele><time>2026-04-19T08:42:23.001Z</time></trkpt><trkpt lat="43.50935597053763" lon="13.117631523393444"><ele>121.0</ele><time>2026-04-19T08:42:24.001Z</time></trkpt><trkpt lat="43.50943259536108" lon="13.117517145002855"><ele>121.0</ele><time>2026-04-19T08:42:25.001Z</time></trkpt><trkpt lat="43.5094992910595" lon="13.117404996219692"><ele>121.0</ele><time>2026-04-19T08:42:26.001Z</time></trkpt><trkpt lat="43.50955451278334" lon="13.117273988072546"><ele>121.0</ele><time>2026-04-19T08:42:27.001Z</time></trkpt><trkpt lat="43.50960930106179" lon="13.11715493038969"><ele>121.0</ele><time>2026-04-19T08:42:28.001Z</time></trkpt><trkpt lat="43.50965305207587" lon="13.117018991432671"><ele>122.6</ele><time>2026-04-19T08:42:29.001Z</time></trkpt><trkpt lat="43.509693932116605" lon="13.116893134667686"><ele>124.19999999999999</ele><time>2026-04-19T08:42:30.001Z</time></trkpt><trkpt lat="43.50973749031852" lon="13.116767174285695"><ele>125.80000000000001</ele><time>2026-04-19T08:42:31.001Z</time></trkpt><trkpt lat="43.50978155940089" lon="13.116639736606986"><ele>127.4</ele><time>2026-04-19T08:42:32.001Z</time></trkpt><trkpt lat="43.50982507668576" lon="13.116512473938926"><ele>129.0</ele><time>2026-04-19T08:42:33.001Z</time></trkpt><trkpt lat="43.509867390776606" lon="13.116387688313136"><ele>130.6</ele><time>2026-04-19T08:42:34.001Z</time></trkpt><trkpt lat="43.50991094270235" lon="13.116259252323275"><ele>132.2</ele><time>2026-04-19T08:42:35.001Z</time></trkpt><trkpt lat="43.509955238712934" lon="13.1161286219738"><ele>133.79999999999998</ele><time>2026-04-19T08:42:36.001Z</time></trkpt><trkpt lat="43.50999911535964" lon="13.11599922843264"><ele>135.4</ele><time>2026-04-19T08:42:37.001Z</time></trkpt><trkpt lat="43.51004266954281" lon="13.115869657257974"><ele>137.0</ele><time>2026-04-19T08:42:38.001Z</time></trkpt><trkpt lat="43.51008458203852" lon="13.115736470066187"><ele>138.4</ele><time>2026-04-19T08:42:39.001Z</time></trkpt><trkpt lat="43.510109697772414" lon="13.115581150599388"><ele>139.79999999999998</ele><time>2026-04-19T08:42:40.001Z</time></trkpt><trkpt lat="43.510129315798615" lon="13.115438497133612"><ele>141.2</ele><time>2026-04-19T08:42:41.001Z</time></trkpt><trkpt lat="43.51014033360999" lon="13.115295551761335"><ele>142.6</ele><time>2026-04-19T08:42:42.001Z</time></trkpt><trkpt lat="43.51013355087487" lon="13.115141293473952"><ele>144.0</ele><time>2026-04-19T08:42:43.001Z</time></trkpt><trkpt lat="43.51014336602007" lon="13.11499496220288"><ele>145.25</ele><time>2026-04-19T08:42:44.002Z</time></trkpt><trkpt lat="43.51017603158945" lon="13.114847094910717"><ele>146.5</ele><time>2026-04-19T08:42:45.002Z</time></trkpt><trkpt lat="43.51023610463702" lon="13.114729842247275"><ele>147.75</ele><time>2026-04-19T08:42:46.002Z</time></trkpt><trkpt lat="43.51030254131288" lon="13.114595594989375"><ele>149.0</ele><time>2026-04-19T08:42:47.002Z</time></trkpt><trkpt lat="43.510367401431836" lon="13.114461157668472"><ele>151.75</ele><time>2026-04-19T08:42:48.002Z</time></trkpt><trkpt lat="43.510433773300726" lon="13.114323117534008"><ele>154.5</ele><time>2026-04-19T08:42:49.002Z</time></trkpt><trkpt lat="43.51049819593451" lon="13.11418769289397"><ele>157.25</ele><time>2026-04-19T08:42:50.002Z</time></trkpt><trkpt lat="43.510549326293074" lon="13.114040249382501"><ele>160.0</ele><time>2026-04-19T08:42:51.002Z</time></trkpt><trkpt lat="43.51061987711931" lon="13.11390549722633"><ele>162.2</ele><time>2026-04-19T08:42:52.002Z</time></trkpt><trkpt lat="43.51067486425348" lon="13.113766274219945"><ele>164.4</ele><time>2026-04-19T08:42:53.002Z</time></trkpt><trkpt lat="43.510728132654584" lon="13.113632916793389"><ele>166.60000000000002</ele><time>2026-04-19T08:42:54.002Z</time></trkpt><trkpt lat="43.510782642675004" lon="13.11350481189764"><ele>168.8</ele><time>2026-04-19T08:42:55.002Z</time></trkpt><trkpt lat="43.510855967846176" lon="13.11339050405696"><ele>171.0</ele><time>2026-04-19T08:42:56.002Z</time></trkpt><trkpt lat="43.510905550223015" lon="13.113256486060752"><ele>173.0</ele><time>2026-04-19T08:42:57.002Z</time></trkpt><trkpt lat="43.51098935913489" lon="13.11314923086634"><ele>175.0</ele><time>2026-04-19T08:42:58.002Z</time></trkpt><trkpt lat="43.511064708285936" lon="13.113039357453092"><ele>177.0</ele><time>2026-04-19T08:42:59.002Z</time></trkpt><trkpt lat="43.51114387630734" lon="13.112933024595337"><ele>179.0</ele><time>2026-04-19T08:43:00.002Z</time></trkpt><trkpt lat="43.51122549775166" lon="13.112835269702474"><ele>181.0</ele><time>2026-04-19T08:43:01.002Z</time></trkpt><trkpt lat="43.51130275173653" lon="13.112729345113358"><ele>182.60000000000002</ele><time>2026-04-19T08:43:02.002Z</time></trkpt><trkpt lat="43.51137247768269" lon="13.112622933687492"><ele>184.2</ele><time>2026-04-19T08:43:03.002Z</time></trkpt><trkpt lat="43.51143767687248" lon="13.112507729898544"><ele>185.8</ele><time>2026-04-19T08:43:04.002Z</time></trkpt><trkpt lat="43.511493963386656" lon="13.112394243907763"><ele>187.39999999999998</ele><time>2026-04-19T08:43:05.002Z</time></trkpt><trkpt lat="43.5115429554313" lon="13.11226035336355"><ele>189.0</ele><time>2026-04-19T08:43:06.002Z</time></trkpt><trkpt lat="43.51158657064219" lon="13.112118584874068"><ele>191.0</ele><time>2026-04-19T08:43:07.002Z</time></trkpt><trkpt lat="43.51161321743172" lon="13.111959193941741"><ele>193.0</ele><time>2026-04-19T08:43:08.002Z</time></trkpt><trkpt lat="43.511667809014064" lon="13.111808761210805"><ele>195.0</ele><time>2026-04-19T08:43:09.002Z</time></trkpt><trkpt lat="43.51170513308989" lon="13.111642502108015"><ele>197.0</ele><time>2026-04-19T08:43:10.002Z</time></trkpt><trkpt lat="43.51173775515942" lon="13.111489340603818"><ele>199.0</ele><time>2026-04-19T08:43:11.002Z</time></trkpt><trkpt lat="43.51177792922902" lon="13.111359789903029"><ele>201.0</ele><time>2026-04-19T08:43:12.002Z</time></trkpt><trkpt lat="43.51183442048931" lon="13.111251840625126"><ele>203.0</ele><time>2026-04-19T08:43:13.002Z</time></trkpt><trkpt lat="43.5118909218516" lon="13.111152128313721"><ele>205.0</ele><time>2026-04-19T08:43:14.002Z</time></trkpt><trkpt lat="43.51196371810109" lon="13.111034874208844"><ele>207.0</ele><time>2026-04-19T08:43:15.002Z</time></trkpt><trkpt lat="43.51203875052879" lon="13.110914346468718"><ele>207.0</ele><time>2026-04-19T08:43:16.002Z</time></trkpt><trkpt lat="43.51210976645131" lon="13.110791690474883"><ele>207.0</ele><time>2026-04-19T08:43:17.002Z</time></trkpt><trkpt lat="43.51217162007042" lon="13.11067544364224"><ele>207.0</ele><time>2026-04-19T08:43:18.002Z</time></trkpt><trkpt lat="43.512214097565746" lon="13.110560569470124"><ele>207.0</ele><time>2026-04-19T08:43:19.002Z</time></trkpt><trkpt lat="43.51224127630137" lon="13.110441094892513"><ele>207.0</ele><time>2026-04-19T08:43:20.002Z</time></trkpt><trkpt lat="43.5122874383573" lon="13.110308866255279"><ele>208.75</ele><time>2026-04-19T08:43:21.002Z</time></trkpt><trkpt lat="43.51233730790591" lon="13.110172344159567"><ele>210.5</ele><time>2026-04-19T08:43:22.002Z</time></trkpt><trkpt lat="43.512392077930464" lon="13.110024183042613"><ele>212.25</ele><time>2026-04-19T08:43:23.002Z</time></trkpt><trkpt lat="43.51244857825684" lon="13.109873089661253"><ele>214.0</ele><time>2026-04-19T08:43:24.002Z</time></trkpt><trkpt lat="43.51247993034345" lon="13.109730109173752"><ele>215.0</ele><time>2026-04-19T08:43:25.002Z</time></trkpt><trkpt lat="43.51251464278235" lon="13.109615590621978"><ele>215.99999999999997</ele><time>2026-04-19T08:43:26.003Z</time></trkpt><trkpt lat="43.512560220039305" lon="13.109483630336001"><ele>216.99999999999997</ele><time>2026-04-19T08:43:27.003Z</time></trkpt><trkpt lat="43.512570456670566" lon="13.10932015255067"><ele>218.0</ele><time>2026-04-19T08:43:28.003Z</time></trkpt><trkpt lat="43.512567540849105" lon="13.109157909912286"><ele>219.0</ele><time>2026-04-19T08:43:29Z</time></trkpt><trkpt lat="43.512563592144794" lon="13.109017164826106"><ele>220.0</ele><time>2026-04-19T08:43:30Z</time></trkpt><trkpt lat="43.512551896585144" lon="13.108888312300733"><ele>221.0</ele><time>2026-04-19T08:43:31Z</time></trkpt><trkpt lat="43.512545824030354" lon="13.108737122350338"><ele>222.0</ele><time>2026-04-19T08:43:32Z</time></trkpt><trkpt lat="43.51253913356296" lon="13.108570548095651"><ele>223.0</ele><time>2026-04-19T08:43:33Z</time></trkpt><trkpt lat="43.51252851621994" lon="13.108390567172322"><ele>224.0</ele><time>2026-04-19T08:43:34Z</time></trkpt><trkpt lat="43.51251608919376" lon="13.108220226257266"><ele>225.0</ele><time>2026-04-19T08:43:35Z</time></trkpt><trkpt lat="43.512497391323954" lon="13.108049142422498"><ele>226.0</ele><time>2026-04-19T08:43:36Z</time></trkpt><trkpt lat="43.51246171483408" lon="13.107877614541119"><ele>227.0</ele><time>2026-04-19T08:43:37Z</time></trkpt><trkpt lat="43.512399353843904" lon="13.107713921786424"><ele>227.0</ele><time>2026-04-19T08:43:38Z</time></trkpt><trkpt lat="43.51232269014268" lon="13.10756474375904"><ele>227.0</ele><time>2026-04-19T08:43:39Z</time></trkpt><trkpt lat="43.51224757103593" lon="13.107412477164013"><ele>227.0</ele><time>2026-04-19T08:43:40Z</time></trkpt><trkpt lat="43.51218106547983" lon="13.1072566964881"><ele>227.0</ele><time>2026-04-19T08:43:41Z</time></trkpt><trkpt lat="43.51211504847372" lon="13.107095443356304"><ele>230.25</ele><time>2026-04-19T08:43:42Z</time></trkpt><trkpt lat="43.512047178011805" lon="13.106929662962353"><ele>233.5</ele><time>2026-04-19T08:43:43Z</time></trkpt><trkpt lat="43.51197560312731" lon="13.106758635798927"><ele>236.75</ele><time>2026-04-19T08:43:44Z</time></trkpt><trkpt lat="43.51188445537433" lon="13.106595687698508"><ele>240.0</ele><time>2026-04-19T08:43:45Z</time></trkpt><trkpt lat="43.5118057489212" lon="13.106417856349541"><ele>242.75</ele><time>2026-04-19T08:43:46Z</time></trkpt><trkpt lat="43.51173774999261" lon="13.106232971335414"><ele>245.5</ele><time>2026-04-19T08:43:47Z</time></trkpt><trkpt lat="43.51165967591416" lon="13.10606006696094"><ele>248.25</ele><time>2026-04-19T08:43:48Z</time></trkpt><trkpt lat="43.51158214847534" lon="13.105886864823184"><ele>251.0</ele><time>2026-04-19T08:43:49Z</time></trkpt><trkpt lat="43.5115067789687" lon="13.10571559257265"><ele>253.25</ele><time>2026-04-19T08:43:50Z</time></trkpt><trkpt lat="43.511435926439" lon="13.105546298924915"><ele>255.5</ele><time>2026-04-19T08:43:51Z</time></trkpt><trkpt lat="43.511367602078614" lon="13.105379139252875"><ele>257.75</ele><time>2026-04-19T08:43:52Z</time></trkpt><trkpt lat="43.511300159648115" lon="13.105209666582569"><ele>260.0</ele><time>2026-04-19T08:43:53Z</time></trkpt><trkpt lat="43.511219174130446" lon="13.10505121187012"><ele>265.0</ele><time>2026-04-19T08:43:54Z</time></trkpt><trkpt lat="43.511158255268725" lon="13.10488368281437"><ele>270.0</ele><time>2026-04-19T08:43:55Z</time></trkpt><trkpt lat="43.51109639787291" lon="13.104723515161954"><ele>275.0</ele><time>2026-04-19T08:43:56Z</time></trkpt><trkpt lat="43.51103400428034" lon="13.104566722266695"><ele>280.0</ele><time>2026-04-19T08:43:57Z</time></trkpt><trkpt lat="43.510967570312886" lon="13.104406388206307"><ele>280.0</ele><time>2026-04-19T08:43:58Z</time></trkpt><trkpt lat="43.51089594870008" lon="13.104257847497566"><ele>280.0</ele><time>2026-04-19T08:43:59Z</time></trkpt><trkpt lat="43.510809064982254" lon="13.104118175543015"><ele>280.0</ele><time>2026-04-19T08:44:00Z</time></trkpt><trkpt lat="43.510716652547465" lon="13.103980925488466"><ele>280.0</ele><time>2026-04-19T08:44:01Z</time></trkpt><trkpt lat="43.51061678404226" lon="13.10383752302052"><ele>281.6</ele><time>2026-04-19T08:44:02Z</time></trkpt><trkpt lat="43.51052996161097" lon="13.103703855550396"><ele>283.2</ele><time>2026-04-19T08:44:03Z</time></trkpt><trkpt lat="43.51048005904454" lon="13.103584103965277"><ele>284.8</ele><time>2026-04-19T08:44:04.001Z</time></trkpt><trkpt lat="43.51044969723772" lon="13.103463643588"><ele>286.4</ele><time>2026-04-19T08:44:05.001Z</time></trkpt><trkpt lat="43.510438186111955" lon="13.103327295237419"><ele>288.0</ele><time>2026-04-19T08:44:06.001Z</time></trkpt><trkpt lat="43.51042175176108" lon="13.103197510386508"><ele>291.6666666666667</ele><time>2026-04-19T08:44:07.001Z</time></trkpt><trkpt lat="43.51040516995557" lon="13.103092893984641"><ele>295.3333333333333</ele><time>2026-04-19T08:44:08.001Z</time></trkpt><trkpt lat="43.510373439723615" lon="13.10300126877131"><ele>299.0</ele><time>2026-04-19T08:44:10.001Z</time></trkpt><trkpt lat="43.510342641050116" lon="13.102915741502716"><ele>302.66666666666663</ele><time>2026-04-19T08:44:14.001Z</time></trkpt><trkpt lat="43.510297183428854" lon="13.102814739835221"><ele>306.3333333333333</ele><time>2026-04-19T08:44:16.001Z</time></trkpt><trkpt lat="43.51023582177505" lon="13.102652415209729"><ele>310.0</ele><time>2026-04-19T08:44:18.001Z</time></trkpt><trkpt lat="43.510201805297925" lon="13.102569826154937"><ele>310.0</ele><time>2026-04-19T08:44:19.001Z</time></trkpt><trkpt lat="43.51015709016415" lon="13.10250711952305"><ele>310.0</ele><time>2026-04-19T08:44:20.001Z</time></trkpt><trkpt lat="43.51013003694058" lon="13.102426279414116"><ele>310.0</ele><time>2026-04-19T08:44:21.001Z</time></trkpt><trkpt lat="43.510092727538726" lon="13.102353981946692"><ele>310.0</ele><time>2026-04-19T08:44:22.001Z</time></trkpt><trkpt lat="43.51006302171158" lon="13.102274847887562"><ele>310.0</ele><time>2026-04-19T08:44:23.001Z</time></trkpt><trkpt lat="43.51002718242882" lon="13.102194105890058"><ele>310.0</ele><time>2026-04-19T08:44:24.001Z</time></trkpt><trkpt lat="43.50999132157053" lon="13.102111745346162"><ele>310.0</ele><time>2026-04-19T08:44:25.001Z</time></trkpt><trkpt lat="43.50995939160062" lon="13.102036726577031"><ele>311.66666666666663</ele><time>2026-04-19T08:44:26.001Z</time></trkpt><trkpt lat="43.509919837673955" lon="13.101955940240181"><ele>313.3333333333333</ele><time>2026-04-19T08:44:27.001Z</time></trkpt><trkpt lat="43.509878591940186" lon="13.101875191247816"><ele>315.0</ele><time>2026-04-19T08:44:28.001Z</time></trkpt><trkpt lat="43.50983396565072" lon="13.101772611774294"><ele>316.6666666666667</ele><time>2026-04-19T08:44:30.001Z</time></trkpt><trkpt lat="43.509890911762014" lon="13.101886513063215"><ele>318.33333333333337</ele><time>2026-04-19T08:44:48.002Z</time></trkpt><trkpt lat="43.50993283639539" lon="13.101971105102406"><ele>320.0</ele><time>2026-04-19T08:44:49.002Z</time></trkpt><trkpt lat="43.50998691672295" lon="13.102064366816787"><ele>320.0</ele><time>2026-04-19T08:44:50.002Z</time></trkpt><trkpt lat="43.51002966657991" lon="13.102168006673205"><ele>320.0</ele><time>2026-04-19T08:44:51.002Z</time></trkpt><trkpt lat="43.51007646549483" lon="13.102275637006022"><ele>320.0</ele><time>2026-04-19T08:44:52.002Z</time></trkpt><trkpt lat="43.51012417774457" lon="13.102384376513829"><ele>320.0</ele><time>2026-04-19T08:44:53.002Z</time></trkpt><trkpt lat="43.51017683435832" lon="13.102504384789633"><ele>320.0</ele><time>2026-04-19T08:44:54.002Z</time></trkpt><trkpt lat="43.51022053241837" lon="13.102614771846808"><ele>318.33333333333337</ele><time>2026-04-19T08:44:55.002Z</time></trkpt><trkpt lat="43.51026114521476" lon="13.102712242495372"><ele>316.6666666666667</ele><time>2026-04-19T08:44:56.002Z</time></trkpt><trkpt lat="43.510282462287726" lon="13.102807536851529"><ele>315.0</ele><time>2026-04-19T08:44:57.002Z</time></trkpt><trkpt lat="43.5103320783941" lon="13.102862440334759"><ele>313.3333333333333</ele><time>2026-04-19T08:44:58.002Z</time></trkpt><trkpt lat="43.51038183521675" lon="13.102977139074092"><ele>311.66666666666663</ele><time>2026-04-19T08:45:00.002Z</time></trkpt><trkpt lat="43.51042595059848" lon="13.103068642151946"><ele>310.0</ele><time>2026-04-19T08:45:03.002Z</time></trkpt><trkpt lat="43.51051392549653" lon="13.102940571458443"><ele>307.0</ele><time>2026-04-19T08:45:05.002Z</time></trkpt><trkpt lat="43.510593710053485" lon="13.10290180044767"><ele>304.0</ele><time>2026-04-19T08:45:07.002Z</time></trkpt><trkpt lat="43.510673247214406" lon="13.102815304387537"><ele>301.0</ele><time>2026-04-19T08:45:09.002Z</time></trkpt><trkpt lat="43.510729752806434" lon="13.102707498999557"><ele>298.0</ele><time>2026-04-19T08:45:11.002Z</time></trkpt><trkpt lat="43.510819668811294" lon="13.102583540369247"><ele>295.0</ele><time>2026-04-19T08:45:13.002Z</time></trkpt><trkpt lat="43.51087409731197" lon="13.102508308148145"><ele>295.2</ele><time>2026-04-19T08:45:14.002Z</time></trkpt><trkpt lat="43.510902156399005" lon="13.102380720590768"><ele>295.4</ele><time>2026-04-19T08:45:16.002Z</time></trkpt><trkpt lat="43.51091057107253" lon="13.102269786849096"><ele>295.6</ele><time>2026-04-19T08:45:18.002Z</time></trkpt><trkpt lat="43.510927478057866" lon="13.102146048216948"><ele>295.8</ele><time>2026-04-19T08:45:20.002Z</time></trkpt><trkpt lat="43.510942011001866" lon="13.102054362028822"><ele>296.0</ele><time>2026-04-19T08:45:22.002Z</time></trkpt><trkpt lat="43.51133355151331" lon="13.101942457060266"><ele>291.8</ele><time>2026-04-19T08:45:32.003Z</time></trkpt><trkpt lat="43.51140488764676" lon="13.101825319860058"><ele>287.6</ele><time>2026-04-19T08:45:34.003Z</time></trkpt><trkpt lat="43.511473484429374" lon="13.10181049112669"><ele>283.4</ele><time>2026-04-19T08:45:35Z</time></trkpt><trkpt lat="43.51155293366989" lon="13.101744825291368"><ele>279.2</ele><time>2026-04-19T08:45:37Z</time></trkpt><trkpt lat="43.511645532871505" lon="13.101685439612595"><ele>275.0</ele><time>2026-04-19T08:45:39Z</time></trkpt><trkpt lat="43.5117111629804" lon="13.101627248123538"><ele>275.0</ele><time>2026-04-19T08:45:41Z</time></trkpt><trkpt lat="43.51182248422985" lon="13.101582826194965"><ele>275.0</ele><time>2026-04-19T08:45:43Z</time></trkpt><trkpt lat="43.51188606543127" lon="13.101552148677108"><ele>275.0</ele><time>2026-04-19T08:45:44Z</time></trkpt><trkpt lat="43.51196189589999" lon="13.101498283716124"><ele>275.0</ele><time>2026-04-19T08:45:46Z</time></trkpt><trkpt lat="43.512050656262815" lon="13.101435159322346"><ele>275.0</ele><time>2026-04-19T08:45:48Z</time></trkpt><trkpt lat="43.512109915383824" lon="13.101362717713736"><ele>275.0</ele><time>2026-04-19T08:45:50Z</time></trkpt><trkpt lat="43.51219389133807" lon="13.101294386712945"><ele>271.5</ele><time>2026-04-19T08:45:52Z</time></trkpt><trkpt lat="43.5122536534861" lon="13.101212716834338"><ele>268.0</ele><time>2026-04-19T08:45:54Z</time></trkpt><trkpt lat="43.512302562422214" lon="13.101135734491702"><ele>264.5</ele><time>2026-04-19T08:45:58Z</time></trkpt><trkpt lat="43.51234468591912" lon="13.101063300437657"><ele>261.0</ele><time>2026-04-19T08:46:01Z</time></trkpt><trkpt lat="43.512394701212315" lon="13.100963178330673"><ele>257.5</ele><time>2026-04-19T08:46:04Z</time></trkpt><trkpt lat="43.512442034375354" lon="13.100851948471801"><ele>254.0</ele><time>2026-04-19T08:46:06Z</time></trkpt><trkpt lat="43.51248511859279" lon="13.100745768212207"><ele>253.66666666666669</ele><time>2026-04-19T08:46:08.001Z</time></trkpt><trkpt lat="43.51251363017159" lon="13.100628674255058"><ele>253.33333333333334</ele><time>2026-04-19T08:46:10.001Z</time></trkpt><trkpt lat="43.51254180598818" lon="13.10055092867651"><ele>253.0</ele><time>2026-04-19T08:46:11.001Z</time></trkpt><trkpt lat="43.51259405426376" lon="13.100399757608763"><ele>252.66666666666669</ele><time>2026-04-19T08:46:13.001Z</time></trkpt><trkpt lat="43.51262716765012" lon="13.100320264711133"><ele>252.33333333333334</ele><time>2026-04-19T08:46:14.001Z</time></trkpt><trkpt lat="43.51266031751175" lon="13.10023126122912"><ele>252.0</ele><time>2026-04-19T08:46:15.001Z</time></trkpt><trkpt lat="43.51269119089254" lon="13.10014968874344"><ele>252.0</ele><time>2026-04-19T08:46:16.001Z</time></trkpt><trkpt lat="43.51272036011881" lon="13.100057808778994"><ele>252.0</ele><time>2026-04-19T08:46:18.001Z</time></trkpt><trkpt lat="43.51276321199624" lon="13.099934422880288"><ele>252.0</ele><time>2026-04-19T08:46:20.001Z</time></trkpt><trkpt lat="43.512793830006125" lon="13.099852656497129"><ele>252.0</ele><time>2026-04-19T08:46:21.001Z</time></trkpt><trkpt lat="43.5128323238976" lon="13.099723410929172"><ele>252.0</ele><time>2026-04-19T08:46:23.001Z</time></trkpt><trkpt lat="43.51286689529499" lon="13.099650511667575"><ele>252.0</ele><time>2026-04-19T08:46:24.001Z</time></trkpt><trkpt lat="43.51291011046041" lon="13.099518291862827"><ele>249.33333333333334</ele><time>2026-04-19T08:46:26.001Z</time></trkpt><trkpt lat="43.51295475070146" lon="13.099448614097529"><ele>246.66666666666669</ele><time>2026-04-19T08:46:28.001Z</time></trkpt><trkpt lat="43.512982434596644" lon="13.099348654263679"><ele>244.0</ele><time>2026-04-19T08:46:31.001Z</time></trkpt><trkpt lat="43.51301928189157" lon="13.099272368352983"><ele>241.33333333333334</ele><time>2026-04-19T08:46:33.001Z</time></trkpt><trkpt lat="43.51305673116789" lon="13.099190607777217"><ele>238.66666666666669</ele><time>2026-04-19T08:46:36.001Z</time></trkpt><trkpt lat="43.51311483541918" lon="13.099111124302485"><ele>236.0</ele><time>2026-04-19T08:46:39.001Z</time></trkpt><trkpt lat="43.51317652639382" lon="13.099013178299279"><ele>235.4</ele><time>2026-04-19T08:46:41.001Z</time></trkpt><trkpt lat="43.51322606047273" lon="13.098899659315185"><ele>234.8</ele><time>2026-04-19T08:46:43.001Z</time></trkpt><trkpt lat="43.51326719763239" lon="13.098816233411503"><ele>234.20000000000002</ele><time>2026-04-19T08:46:45.001Z</time></trkpt><trkpt lat="43.513306921206265" lon="13.098695244809468"><ele>233.60000000000002</ele><time>2026-04-19T08:46:48.001Z</time></trkpt><trkpt lat="43.513360056320444" lon="13.098559428324586"><ele>233.0</ele><time>2026-04-19T08:46:50.001Z</time></trkpt><trkpt lat="43.513415618370246" lon="13.098415415909605"><ele>233.00000000000003</ele><time>2026-04-19T08:46:52.002Z</time></trkpt><trkpt lat="43.51344088880175" lon="13.098333598405086"><ele>233.0</ele><time>2026-04-19T08:46:53.002Z</time></trkpt><trkpt lat="43.51347809513977" lon="13.098190639825965"><ele>233.0</ele><time>2026-04-19T08:46:55.002Z</time></trkpt><trkpt lat="43.513505636892084" lon="13.098105226838065"><ele>233.0</ele><time>2026-04-19T08:46:56.002Z</time></trkpt><trkpt lat="43.51355359303776" lon="13.097947594126001"><ele>233.00000000000003</ele><time>2026-04-19T08:46:58.002Z</time></trkpt><trkpt lat="43.513579822541736" lon="13.0978649300781"><ele>233.0</ele><time>2026-04-19T08:46:59.002Z</time></trkpt><trkpt lat="43.513602638412856" lon="13.097781134614776"><ele>231.8</ele><time>2026-04-19T08:47:00.002Z</time></trkpt><trkpt lat="43.513641603883265" lon="13.097624924526771"><ele>230.60000000000002</ele><time>2026-04-19T08:47:02.002Z</time></trkpt><trkpt lat="43.513663886911196" lon="13.097540180950098"><ele>229.39999999999998</ele><time>2026-04-19T08:47:03.002Z</time></trkpt><trkpt lat="43.513702634377815" lon="13.097379631599962"><ele>228.2</ele><time>2026-04-19T08:47:05.002Z</time></trkpt><trkpt lat="43.51373357462182" lon="13.097222706262148"><ele>227.0</ele><time>2026-04-19T08:47:07.002Z</time></trkpt><trkpt lat="43.513759758066705" lon="13.097106541764658"><ele>223.39999999999998</ele><time>2026-04-19T08:47:10.002Z</time></trkpt><trkpt lat="43.51377733170332" lon="13.097023053865003"><ele>219.79999999999998</ele><time>2026-04-19T08:47:22.002Z</time></trkpt><trkpt lat="43.51379893462087" lon="13.096917983674185"><ele>216.2</ele><time>2026-04-19T08:47:24.002Z</time></trkpt><trkpt lat="43.51384183563332" lon="13.09678771559584"><ele>212.6</ele><time>2026-04-19T08:47:26.002Z</time></trkpt><trkpt lat="43.51386038865274" lon="13.096646497114113"><ele>209.0</ele><time>2026-04-19T08:47:28.002Z</time></trkpt><trkpt lat="43.513881389605196" lon="13.09649924015978"><ele>208.39999999999998</ele><time>2026-04-19T08:47:30.002Z</time></trkpt><trkpt lat="43.51390760806813" lon="13.096339740725682"><ele>207.8</ele><time>2026-04-19T08:47:32.002Z</time></trkpt><trkpt lat="43.51393861680427" lon="13.096199903616998"><ele>207.2</ele><time>2026-04-19T08:47:34.002Z</time></trkpt><trkpt lat="43.513972326668245" lon="13.096049102089943"><ele>206.60000000000002</ele><time>2026-04-19T08:47:36.003Z</time></trkpt><trkpt lat="43.514006967472504" lon="13.09591001866095"><ele>206.0</ele><time>2026-04-19T08:47:38.003Z</time></trkpt><trkpt lat="43.514030851183264" lon="13.095771490734437"><ele>205.4</ele><time>2026-04-19T08:47:40.003Z</time></trkpt><trkpt lat="43.51407200483831" lon="13.095693253619656"><ele>204.8</ele><time>2026-04-19T08:47:41Z</time></trkpt><trkpt lat="43.514128429978456" lon="13.095572489007129"><ele>204.20000000000002</ele><time>2026-04-19T08:47:43Z</time></trkpt><trkpt lat="43.51419795115151" lon="13.095438380701491"><ele>203.60000000000002</ele><time>2026-04-19T08:47:45Z</time></trkpt><trkpt lat="43.514249637298526" lon="13.095303573606328"><ele>203.0</ele><time>2026-04-19T08:47:47Z</time></trkpt><trkpt lat="43.51430600908176" lon="13.09518151459451"><ele>203.0</ele><time>2026-04-19T08:47:49Z</time></trkpt><trkpt lat="43.51436375949886" lon="13.09505647046129"><ele>203.0</ele><time>2026-04-19T08:47:51Z</time></trkpt><trkpt lat="43.51441870800875" lon="13.094937493216293"><ele>203.0</ele><time>2026-04-19T08:47:53Z</time></trkpt><trkpt lat="43.51445717091258" lon="13.0948542113975"><ele>203.0</ele><time>2026-04-19T08:47:55Z</time></trkpt><trkpt lat="43.51452024213645" lon="13.094766724211855"><ele>203.0</ele><time>2026-04-19T08:47:58Z</time></trkpt><trkpt lat="43.51471225266416" lon="13.094888221169791"><ele>200.16666666666669</ele><time>2026-04-19T08:47:59Z</time></trkpt><trkpt lat="43.51480236069025" lon="13.09485523454531"><ele>197.33333333333334</ele><time>2026-04-19T08:48:01Z</time></trkpt><trkpt lat="43.51485710340955" lon="13.094766913067696"><ele>194.5</ele><time>2026-04-19T08:48:03Z</time></trkpt><trkpt lat="43.51484503589768" lon="13.094650791566947"><ele>191.66666666666669</ele><time>2026-04-19T08:48:05Z</time></trkpt><trkpt lat="43.51479228303898" lon="13.094527823986311"><ele>188.83333333333334</ele><time>2026-04-19T08:48:07Z</time></trkpt><trkpt lat="43.5147629036903" lon="13.094426537533376"><ele>186.0</ele><time>2026-04-19T08:48:09Z</time></trkpt><trkpt lat="43.51479425665953" lon="13.094321987052634"><ele>186.0</ele><time>2026-04-19T08:48:12Z</time></trkpt><trkpt lat="43.51487975940092" lon="13.094305846951935"><ele>186.0</ele><time>2026-04-19T08:48:14Z</time></trkpt><trkpt lat="43.51499193108536" lon="13.094242891144201"><ele>186.0</ele><time>2026-04-19T08:48:16.001Z</time></trkpt><trkpt lat="43.515089843913714" lon="13.094201057307387"><ele>186.0</ele><time>2026-04-19T08:48:18.001Z</time></trkpt><trkpt lat="43.51520267628487" lon="13.094153071663962"><ele>186.0</ele><time>2026-04-19T08:48:20.001Z</time></trkpt><trkpt lat="43.51532274242109" lon="13.094103569047057"><ele>184.60000000000002</ele><time>2026-04-19T08:48:22.001Z</time></trkpt><trkpt lat="43.51538264366907" lon="13.094076769602161"><ele>183.2</ele><time>2026-04-19T08:48:23.001Z</time></trkpt><trkpt lat="43.51549598831821" lon="13.094038034161661"><ele>181.8</ele><time>2026-04-19T08:48:25.001Z</time></trkpt><trkpt lat="43.51559520761053" lon="13.093953497407291"><ele>180.39999999999998</ele><time>2026-04-19T08:48:27.001Z</time></trkpt><trkpt lat="43.51569571671358" lon="13.093879303544412"><ele>179.0</ele><time>2026-04-19T08:48:29.001Z</time></trkpt><trkpt lat="43.51580067453343" lon="13.093797119706089"><ele>177.2</ele><time>2026-04-19T08:48:31.001Z</time></trkpt><trkpt lat="43.51590797372343" lon="13.093712890877038"><ele>175.39999999999998</ele><time>2026-04-19T08:48:33.001Z</time></trkpt><trkpt lat="43.516011049321826" lon="13.093631048101656"><ele>173.6</ele><time>2026-04-19T08:48:35.001Z</time></trkpt><trkpt lat="43.5160719581794" lon="13.093581247065456"><ele>171.8</ele><time>2026-04-19T08:48:36.001Z</time></trkpt><trkpt lat="43.51612699521704" lon="13.09353624703505"><ele>170.0</ele><time>2026-04-19T08:48:37.001Z</time></trkpt><trkpt lat="43.516225522635935" lon="13.09345488458156"><ele>168.4</ele><time>2026-04-19T08:48:39.001Z</time></trkpt><trkpt lat="43.5163280890351" lon="13.0933691528049"><ele>166.8</ele><time>2026-04-19T08:48:41.001Z</time></trkpt><trkpt lat="43.51642128228738" lon="13.09329043190365"><ele>165.2</ele><time>2026-04-19T08:48:43.001Z</time></trkpt><trkpt lat="43.51650577095707" lon="13.093218158469261"><ele>163.6</ele><time>2026-04-19T08:48:45.001Z</time></trkpt><trkpt lat="43.51660173586417" lon="13.09313260901437"><ele>162.0</ele><time>2026-04-19T08:48:47.001Z</time></trkpt><trkpt lat="43.516704391706014" lon="13.093033077675514"><ele>161.4</ele><time>2026-04-19T08:48:49.001Z</time></trkpt><trkpt lat="43.51680261939203" lon="13.092941700356722"><ele>160.79999999999998</ele><time>2026-04-19T08:48:51.001Z</time></trkpt><trkpt lat="43.51687310604284" lon="13.092874104799854"><ele>160.2</ele><time>2026-04-19T08:48:53.001Z</time></trkpt><trkpt lat="43.516957580647436" lon="13.092792682982866"><ele>159.6</ele><time>2026-04-19T08:48:55.001Z</time></trkpt><trkpt lat="43.51700991065961" lon="13.092742485739288"><ele>159.0</ele><time>2026-04-19T08:48:56.001Z</time></trkpt><trkpt lat="43.51709189099807" lon="13.092642983685389"><ele>158.28571428571428</ele><time>2026-04-19T08:48:58.002Z</time></trkpt><trkpt lat="43.51712982722191" lon="13.09255599259217"><ele>157.57142857142858</ele><time>2026-04-19T08:49:00.002Z</time></trkpt><trkpt lat="43.5171290187492" lon="13.092450709781005"><ele>156.85714285714286</ele><time>2026-04-19T08:49:02.002Z</time></trkpt><trkpt lat="43.51716990104906" lon="13.09236197355003"><ele>156.14285714285714</ele><time>2026-04-19T08:49:04.002Z</time></trkpt><trkpt lat="43.51720423440061" lon="13.092288690995778"><ele>155.42857142857144</ele><time>2026-04-19T08:49:07.002Z</time></trkpt><trkpt lat="43.517224066399805" lon="13.092199981290443"><ele>154.71428571428572</ele><time>2026-04-19T08:49:10.002Z</time></trkpt><trkpt lat="43.51721790168381" lon="13.09208627156449"><ele>154.0</ele><time>2026-04-19T08:49:12.002Z</time></trkpt><trkpt lat="43.51720496626513" lon="13.091996049649612"><ele>154.0</ele><time>2026-04-19T08:49:13.002Z</time></trkpt><trkpt lat="43.51718336866121" lon="13.091894937174176"><ele>154.0</ele><time>2026-04-19T08:49:14.002Z</time></trkpt><trkpt lat="43.51715781114523" lon="13.091792587200075"><ele>154.0</ele><time>2026-04-19T08:49:15.002Z</time></trkpt><trkpt lat="43.51713370922916" lon="13.091710047844295"><ele>154.0</ele><time>2026-04-19T08:49:16.002Z</time></trkpt><trkpt lat="43.51709766124638" lon="13.091616609580983"><ele>154.0</ele><time>2026-04-19T08:49:17.002Z</time></trkpt><trkpt lat="43.517019341478374" lon="13.09147050363686"><ele>154.0</ele><time>2026-04-19T08:49:19.002Z</time></trkpt><trkpt lat="43.51697826299794" lon="13.091385532991344"><ele>155.0</ele><time>2026-04-19T08:49:20.002Z</time></trkpt><trkpt lat="43.51693556166431" lon="13.091297205543189"><ele>156.0</ele><time>2026-04-19T08:49:21.002Z</time></trkpt><trkpt lat="43.51690125619527" lon="13.091165764986131"><ele>157.0</ele><time>2026-04-19T08:49:23.002Z</time></trkpt><trkpt lat="43.5168990281689" lon="13.091077945727935"><ele>158.0</ele><time>2026-04-19T08:49:24.002Z</time></trkpt><trkpt lat="43.51694689559998" lon="13.091005642097356"><ele>159.0</ele><time>2026-04-19T08:49:25.002Z</time></trkpt><trkpt lat="43.5169919502889" lon="13.09090407921378"><ele>160.0</ele><time>2026-04-19T08:49:26.002Z</time></trkpt><trkpt lat="43.5170138582858" lon="13.090788420133611"><ele>160.0</ele><time>2026-04-19T08:49:27.002Z</time></trkpt><trkpt lat="43.5170653665095" lon="13.090675736622403"><ele>160.0</ele><time>2026-04-19T08:49:28.002Z</time></trkpt><trkpt lat="43.51711217552922" lon="13.090546739343104"><ele>160.0</ele><time>2026-04-19T08:49:29.002Z</time></trkpt><trkpt lat="43.51715114244721" lon="13.090394338550672"><ele>160.0</ele><time>2026-04-19T08:49:30.002Z</time></trkpt><trkpt lat="43.517184201411546" lon="13.090245667914356"><ele>160.0</ele><time>2026-04-19T08:49:31.002Z</time></trkpt><trkpt lat="43.51719535775914" lon="13.09008807842695"><ele>160.0</ele><time>2026-04-19T08:49:32.002Z</time></trkpt><trkpt lat="43.51721229147884" lon="13.08995826918272"><ele>160.0</ele><time>2026-04-19T08:49:33.002Z</time></trkpt><trkpt lat="43.51721831752398" lon="13.089823288805242"><ele>160.0</ele><time>2026-04-19T08:49:34.002Z</time></trkpt><trkpt lat="43.51721664723532" lon="13.089693401260071"><ele>160.0</ele><time>2026-04-19T08:49:35.002Z</time></trkpt><trkpt lat="43.51722630324764" lon="13.089568302192827"><ele>160.0</ele><time>2026-04-19T08:49:36.002Z</time></trkpt><trkpt lat="43.51722530592054" lon="13.089412419631655"><ele>159.8</ele><time>2026-04-19T08:49:37.002Z</time></trkpt><trkpt lat="43.51720999825337" lon="13.089269239180986"><ele>159.6</ele><time>2026-04-19T08:49:38.002Z</time></trkpt><trkpt lat="43.51721942266351" lon="13.089137196466591"><ele>159.4</ele><time>2026-04-19T08:49:39.002Z</time></trkpt><trkpt lat="43.517222930087904" lon="13.089001577884886"><ele>159.2</ele><time>2026-04-19T08:49:40.002Z</time></trkpt><trkpt lat="43.51723151104679" lon="13.088884108401594"><ele>159.0</ele><time>2026-04-19T08:49:41.003Z</time></trkpt><trkpt lat="43.51725020429862" lon="13.08875284147173"><ele>159.33333333333334</ele><time>2026-04-19T08:49:42.003Z</time></trkpt><trkpt lat="43.51727593052487" lon="13.088597944362451"><ele>159.66666666666666</ele><time>2026-04-19T08:49:43.003Z</time></trkpt><trkpt lat="43.5172926062314" lon="13.088456119878176"><ele>160.0</ele><time>2026-04-19T08:49:44.003Z</time></trkpt><trkpt lat="43.51730034719729" lon="13.088339690464805"><ele>160.33333333333331</ele><time>2026-04-19T08:49:45.003Z</time></trkpt><trkpt lat="43.517309936754195" lon="13.08825216751032"><ele>160.66666666666666</ele><time>2026-04-19T08:49:46.003Z</time></trkpt><trkpt lat="43.51733581924448" lon="13.088163528376196"><ele>161.0</ele><time>2026-04-19T08:49:48Z</time></trkpt><trkpt lat="43.51739713367727" lon="13.088092178871383"><ele>161.0</ele><time>2026-04-19T08:49:51Z</time></trkpt><trkpt lat="43.5173892257365" lon="13.087942986364519"><ele>161.0</ele><time>2026-04-19T08:49:53Z</time></trkpt><trkpt lat="43.51739606953323" lon="13.08784644670722"><ele>161.0</ele><time>2026-04-19T08:49:54Z</time></trkpt><trkpt lat="43.51739716792068" lon="13.08774368610436"><ele>161.0</ele><time>2026-04-19T08:49:55Z</time></trkpt><trkpt lat="43.51740517736739" lon="13.087624278522737"><ele>161.0</ele><time>2026-04-19T08:49:56Z</time></trkpt><trkpt lat="43.517408900889464" lon="13.08751564478065"><ele>161.0</ele><time>2026-04-19T08:49:57Z</time></trkpt><trkpt lat="43.51740125119186" lon="13.087377051229812"><ele>161.5</ele><time>2026-04-19T08:49:59Z</time></trkpt><trkpt lat="43.51734137562477" lon="13.087287893463836"><ele>162.0</ele><time>2026-04-19T08:50:03Z</time></trkpt><trkpt lat="43.51728401400583" lon="13.087222262213533"><ele>162.5</ele><time>2026-04-19T08:50:05Z</time></trkpt><trkpt lat="43.51721352735523" lon="13.08712852537369"><ele>163.0</ele><time>2026-04-19T08:50:07Z</time></trkpt><trkpt lat="43.51715458229425" lon="13.087076943651418"><ele>163.5</ele><time>2026-04-19T08:50:11Z</time></trkpt><trkpt lat="43.51722481811795" lon="13.087147536243544"><ele>164.0</ele><time>2026-04-19T08:50:22Z</time></trkpt><trkpt lat="43.51730125354693" lon="13.08723471914989"><ele>164.0</ele><time>2026-04-19T08:50:24Z</time></trkpt><trkpt lat="43.5173448899665" lon="13.087314132855951"><ele>164.0</ele><time>2026-04-19T08:50:26Z</time></trkpt><trkpt lat="43.517421728216" lon="13.087349028492982"><ele>164.0</ele><time>2026-04-19T08:50:42.001Z</time></trkpt><trkpt lat="43.51737192776302" lon="13.087288098425976"><ele>164.0</ele><time>2026-04-19T08:50:46.001Z</time></trkpt><trkpt lat="43.51733832585754" lon="13.087130317946695"><ele>164.0</ele><time>2026-04-19T08:50:51.001Z</time></trkpt><trkpt lat="43.517362695029504" lon="13.086995256762387"><ele>164.0</ele><time>2026-04-19T08:50:52.001Z</time></trkpt><trkpt lat="43.51760906023997" lon="13.086785820520078"><ele>164.0</ele><time>2026-04-19T08:50:54.001Z</time></trkpt><trkpt lat="43.51758326045608" lon="13.086653231667075"><ele>164.0</ele><time>2026-04-19T08:50:56.001Z</time></trkpt><trkpt lat="43.51756960356075" lon="13.086563669264503"><ele>164.0</ele><time>2026-04-19T08:50:57.001Z</time></trkpt><trkpt lat="43.517526009242296" lon="13.086390782798555"><ele>164.0</ele><time>2026-04-19T08:50:59.001Z</time></trkpt><trkpt lat="43.51750057268642" lon="13.086294562071599"><ele>164.0</ele><time>2026-04-19T08:51:00.001Z</time></trkpt><trkpt lat="43.51746287198237" lon="13.086145419219232"><ele>164.0</ele><time>2026-04-19T08:51:02.001Z</time></trkpt><trkpt lat="43.517451438081565" lon="13.086019527436918"><ele>164.0</ele><time>2026-04-19T08:51:04.001Z</time></trkpt><trkpt lat="43.5174511880954" lon="13.08587586435864"><ele>164.0</ele><time>2026-04-19T08:51:06.001Z</time></trkpt><trkpt lat="43.517471464652736" lon="13.085756824645639"><ele>164.0</ele><time>2026-04-19T08:51:08.001Z</time></trkpt><trkpt lat="43.517478577169896" lon="13.085636135465913"><ele>164.0</ele><time>2026-04-19T08:51:10.002Z</time></trkpt><trkpt lat="43.51746102605269" lon="13.085538710394893"><ele>164.0</ele><time>2026-04-19T08:51:12.002Z</time></trkpt><trkpt lat="43.51741476649503" lon="13.085453957128028"><ele>164.0</ele><time>2026-04-19T08:51:14.002Z</time></trkpt><trkpt lat="43.51740090057174" lon="13.08536126064175"><ele>164.0</ele><time>2026-04-19T08:51:16.002Z</time></trkpt><trkpt lat="43.51740706899991" lon="13.08525915730977"><ele>164.0</ele><time>2026-04-19T08:51:18.002Z</time></trkpt><trkpt lat="43.517436007941164" lon="13.085167084637972"><ele>164.0</ele><time>2026-04-19T08:51:20.002Z</time></trkpt><trkpt lat="43.51747638230013" lon="13.085094122461117"><ele>164.0</ele><time>2026-04-19T08:51:25.002Z</time></trkpt><trkpt lat="43.517554672683815" lon="13.085068168959927"><ele>164.0</ele><time>2026-04-19T08:51:28.002Z</time></trkpt><trkpt lat="43.51766177539221" lon="13.085098441823103"><ele>164.0</ele><time>2026-04-19T08:51:30.002Z</time></trkpt><trkpt lat="43.51774981481907" lon="13.085104679718675"><ele>164.0</ele><time>2026-04-19T08:51:32.002Z</time></trkpt><trkpt lat="43.51783431442968" lon="13.085081119746489"><ele>164.0</ele><time>2026-04-19T08:51:35.002Z</time></trkpt><trkpt lat="43.51792333959185" lon="13.085036791984532"><ele>164.0</ele><time>2026-04-19T08:51:37.002Z</time></trkpt><trkpt lat="43.51803441449313" lon="13.085005504581513"><ele>164.0</ele><time>2026-04-19T08:51:39.002Z</time></trkpt><trkpt lat="43.51815085124646" lon="13.084990319124875"><ele>165.39999999999998</ele><time>2026-04-19T08:51:41.002Z</time></trkpt><trkpt lat="43.51826117833669" lon="13.084995936821443"><ele>166.8</ele><time>2026-04-19T08:51:43.002Z</time></trkpt><trkpt lat="43.518369237799924" lon="13.085010129679228"><ele>168.2</ele><time>2026-04-19T08:51:45.002Z</time></trkpt><trkpt lat="43.518436727152654" lon="13.085023410378048"><ele>169.60000000000002</ele><time>2026-04-19T08:51:48.002Z</time></trkpt><trkpt lat="43.51849411344166" lon="13.084923632113476"><ele>171.0</ele><time>2026-04-19T08:51:51.003Z</time></trkpt><trkpt lat="43.51860316937023" lon="13.084863695642788"><ele>171.0</ele><time>2026-04-19T08:51:52.999Z</time></trkpt><trkpt lat="43.51869745952444" lon="13.084783791463273"><ele>171.0</ele><time>2026-04-19T08:51:54.999Z</time></trkpt><trkpt lat="43.518769414774944" lon="13.084770160414989"><ele>171.0</ele><time>2026-04-19T08:51:55.999Z</time></trkpt><trkpt lat="43.51884536823406" lon="13.084737206292132"><ele>171.0</ele><time>2026-04-19T08:51:56.999Z</time></trkpt><trkpt lat="43.51893932018682" lon="13.084701684973988"><ele>171.0</ele><time>2026-04-19T08:51:57.999Z</time></trkpt><trkpt lat="43.519037589083325" lon="13.08466433240154"><ele>172.60000000000002</ele><time>2026-04-19T08:51:58.999Z</time></trkpt><trkpt lat="43.51914326635954" lon="13.084628694388662"><ele>174.2</ele><time>2026-04-19T08:51:59.999Z</time></trkpt><trkpt lat="43.51924447234333" lon="13.084596114136092"><ele>175.8</ele><time>2026-04-19T08:52:00.999Z</time></trkpt><trkpt lat="43.5193514913362" lon="13.084563800615488"><ele>177.39999999999998</ele><time>2026-04-19T08:52:01.999Z</time></trkpt><trkpt lat="43.51945435541471" lon="13.08453527652741"><ele>179.0</ele><time>2026-04-19T08:52:02.999Z</time></trkpt><trkpt lat="43.519556113892364" lon="13.084510668145544"><ele>180.75</ele><time>2026-04-19T08:52:03.999Z</time></trkpt><trkpt lat="43.51966432614026" lon="13.084489638164978"><ele>182.5</ele><time>2026-04-19T08:52:04.999Z</time></trkpt><trkpt lat="43.51977991390627" lon="13.084468779875523"><ele>184.25</ele><time>2026-04-19T08:52:05.999Z</time></trkpt><trkpt lat="43.519901802789505" lon="13.08445012412076"><ele>186.0</ele><time>2026-04-19T08:52:06.999Z</time></trkpt><trkpt lat="43.52002054817074" lon="13.08443488453001"><ele>186.0</ele><time>2026-04-19T08:52:07.999Z</time></trkpt><trkpt lat="43.52011844015131" lon="13.084402247361641"><ele>186.0</ele><time>2026-04-19T08:52:08.999Z</time></trkpt><trkpt lat="43.52021989417955" lon="13.08439406750805"><ele>186.0</ele><time>2026-04-19T08:52:10Z</time></trkpt><trkpt lat="43.5203160343452" lon="13.084393815352135"><ele>186.0</ele><time>2026-04-19T08:52:11Z</time></trkpt><trkpt lat="43.520404993578374" lon="13.084395934015818"><ele>186.0</ele><time>2026-04-19T08:52:12Z</time></trkpt><trkpt lat="43.52047872585323" lon="13.084378344782644"><ele>188.0</ele><time>2026-04-19T08:52:13Z</time></trkpt><trkpt lat="43.520555467717585" lon="13.084369953056585"><ele>190.0</ele><time>2026-04-19T08:52:14Z</time></trkpt><trkpt lat="43.52063928704555" lon="13.084322720359348"><ele>192.0</ele><time>2026-04-19T08:52:15Z</time></trkpt><trkpt lat="43.52070531603483" lon="13.08421341476298"><ele>194.0</ele><time>2026-04-19T08:52:16Z</time></trkpt><trkpt lat="43.52079021651578" lon="13.084192816599026"><ele>196.0</ele><time>2026-04-19T08:52:17Z</time></trkpt><trkpt lat="43.5208889961989" lon="13.084176279831961"><ele>196.0</ele><time>2026-04-19T08:52:18Z</time></trkpt><trkpt lat="43.521001606197096" lon="13.08413581760138"><ele>196.0</ele><time>2026-04-19T08:52:19Z</time></trkpt><trkpt lat="43.52109817646363" lon="13.084116262797062"><ele>196.0</ele><time>2026-04-19T08:52:20Z</time></trkpt><trkpt lat="43.52119048628912" lon="13.084086785418092"><ele>196.0</ele><time>2026-04-19T08:52:21Z</time></trkpt><trkpt lat="43.52128453631824" lon="13.08404989131858"><ele>196.0</ele><time>2026-04-19T08:52:22Z</time></trkpt><trkpt lat="43.521374532522124" lon="13.08401375144108"><ele>195.8</ele><time>2026-04-19T08:52:23Z</time></trkpt><trkpt lat="43.521464186891635" lon="13.083978802605657"><ele>195.60000000000002</ele><time>2026-04-19T08:52:24Z</time></trkpt><trkpt lat="43.5215442691381" lon="13.083936095123487"><ele>195.4</ele><time>2026-04-19T08:52:25Z</time></trkpt><trkpt lat="43.52161413101353" lon="13.083902717367193"><ele>195.2</ele><time>2026-04-19T08:52:26Z</time></trkpt><trkpt lat="43.521744066759176" lon="13.083852608100505"><ele>195.0</ele><time>2026-04-19T08:52:28Z</time></trkpt><trkpt lat="43.52182985471647" lon="13.083811611135465"><ele>195.0</ele><time>2026-04-19T08:52:29Z</time></trkpt><trkpt lat="43.52191628933619" lon="13.083775293357505"><ele>195.0</ele><time>2026-04-19T08:52:30Z</time></trkpt><trkpt lat="43.52199202627663" lon="13.083745021098803"><ele>195.0</ele><time>2026-04-19T08:52:31Z</time></trkpt><trkpt lat="43.52207852797685" lon="13.083699225150472"><ele>195.0</ele><time>2026-04-19T08:52:32Z</time></trkpt><trkpt lat="43.522154023516485" lon="13.08366940920996"><ele>195.0</ele><time>2026-04-19T08:52:33Z</time></trkpt><trkpt lat="43.522225167487" lon="13.083639750237545"><ele>195.0</ele><time>2026-04-19T08:52:34Z</time></trkpt><trkpt lat="43.522287722880975" lon="13.083622831426785"><ele>195.4</ele><time>2026-04-19T08:52:35Z</time></trkpt><trkpt lat="43.522404945901485" lon="13.083595421438048"><ele>195.8</ele><time>2026-04-19T08:52:37Z</time></trkpt><trkpt lat="43.522470029214254" lon="13.083599559768702"><ele>196.2</ele><time>2026-04-19T08:52:39.001Z</time></trkpt><trkpt lat="43.52255745891369" lon="13.083569732525314"><ele>196.6</ele><time>2026-04-19T08:52:58.001Z</time></trkpt><trkpt lat="43.52266806455696" lon="13.083634251201257"><ele>197.0</ele><time>2026-04-19T08:53:00.001Z</time></trkpt><trkpt lat="43.52272610294045" lon="13.08369511722779"><ele>197.0</ele><time>2026-04-19T08:53:01.001Z</time></trkpt><trkpt lat="43.52278520129745" lon="13.083770307184428"><ele>197.0</ele><time>2026-04-19T08:53:02.001Z</time></trkpt><trkpt lat="43.522846404723424" lon="13.083854541149009"><ele>197.0</ele><time>2026-04-19T08:53:03.001Z</time></trkpt><trkpt lat="43.522917815800284" lon="13.083943071951829"><ele>197.0</ele><time>2026-04-19T08:53:04.001Z</time></trkpt><trkpt lat="43.52298733669945" lon="13.084035663465214"><ele>197.0</ele><time>2026-04-19T08:53:05.001Z</time></trkpt><trkpt lat="43.52305355759141" lon="13.084131113471651"><ele>199.16666666666669</ele><time>2026-04-19T08:53:06.001Z</time></trkpt><trkpt lat="43.52313174466097" lon="13.084219636549438"><ele>201.33333333333334</ele><time>2026-04-19T08:53:07.001Z</time></trkpt><trkpt lat="43.523180349492335" lon="13.084311863359998"><ele>203.5</ele><time>2026-04-19T08:53:08.001Z</time></trkpt><trkpt lat="43.523213210953244" lon="13.084400923532103"><ele>205.66666666666669</ele><time>2026-04-19T08:53:10.001Z</time></trkpt><trkpt lat="43.523284339095056" lon="13.084390727301843"><ele>207.83333333333334</ele><time>2026-04-19T08:53:11.001Z</time></trkpt><trkpt lat="43.523364012504" lon="13.08446847220289"><ele>210.0</ele><time>2026-04-19T08:53:13.001Z</time></trkpt><trkpt lat="43.52344491853919" lon="13.084513984832917"><ele>210.0</ele><time>2026-04-19T08:53:15.002Z</time></trkpt><trkpt lat="43.523553406548075" lon="13.084517976601788"><ele>210.0</ele><time>2026-04-19T08:53:17.002Z</time></trkpt><trkpt lat="43.52363347195603" lon="13.084489358346875"><ele>210.0</ele><time>2026-04-19T08:53:18.002Z</time></trkpt><trkpt lat="43.52372127354188" lon="13.08444811769011"><ele>210.0</ele><time>2026-04-19T08:53:19.002Z</time></trkpt><trkpt lat="43.52381235386219" lon="13.08443715448805"><ele>210.0</ele><time>2026-04-19T08:53:20.002Z</time></trkpt><trkpt lat="43.52389930894031" lon="13.084448744646897"><ele>211.16666666666666</ele><time>2026-04-19T08:53:21.002Z</time></trkpt><trkpt lat="43.523991463694095" lon="13.084442402282987"><ele>212.33333333333331</ele><time>2026-04-19T08:53:22.002Z</time></trkpt><trkpt lat="43.52407301115971" lon="13.084433372395432"><ele>213.5</ele><time>2026-04-19T08:53:23.002Z</time></trkpt><trkpt lat="43.52414192844807" lon="13.084439300897568"><ele>214.66666666666666</ele><time>2026-04-19T08:53:24.002Z</time></trkpt><trkpt lat="43.52423585562445" lon="13.084488444958206"><ele>215.83333333333331</ele><time>2026-04-19T08:53:26.002Z</time></trkpt><trkpt lat="43.52428526138758" lon="13.084617555512237"><ele>217.0</ele><time>2026-04-19T08:53:28.002Z</time></trkpt><trkpt lat="43.52432574513532" lon="13.084716207393182"><ele>217.0</ele><time>2026-04-19T08:53:30.002Z</time></trkpt><trkpt lat="43.524350927341565" lon="13.08482099683069"><ele>217.0</ele><time>2026-04-19T08:53:33.002Z</time></trkpt><trkpt lat="43.524196281883434" lon="13.084463337317109"><ele>217.0</ele><time>2026-04-19T08:53:50.002Z</time></trkpt><trkpt lat="43.5240904742334" lon="13.08440000997132"><ele>217.0</ele><time>2026-04-19T08:53:52.003Z</time></trkpt><trkpt lat="43.523988674813374" lon="13.084403054319562"><ele>217.0</ele><time>2026-04-19T08:53:54.003Z</time></trkpt></trkseg></trk></gpx>